<?xml version="1.0" encoding="UTF-8" standalone="no" ?>
<gpx xmlns="http://www.topografix.com/GPX/1/1" xmlns:xsi="http://www.w3.org/2001/XMLSchema-instance" xsi:schemaLocation="http://www.topografix.com/GPX/1/1 http://www.topografix.com/GPX/1/1/gpx.xsd" version="1.1" creator="VisuGPX - https://www.visugpx.com">
  <metadata>
    <name>Beulotte Saint Laurent-circuit des étangs</name>
  </metadata>
  <trk>
    <name><![CDATA[Beulotte Saint Laurent-circuit des étangs_1]]></name>
    <extensions>
      <line xmlns="http://www.topografix.com/GPX/gpx_style/0/2">
        <color>0000FF</color>
        <width>4</width>
      </line>
    </extensions>
    <trkseg>
      <trkpt lat="47.85985" lon="6.67956">
        <ele>582.5</ele>
        <time>2022-06-29T07:23:09Z</time>
      </trkpt>
      <trkpt lat="47.85987" lon="6.6795">
        <ele>601.6</ele>
        <time>2022-06-29T07:23:20Z</time>
      </trkpt>
      <trkpt lat="47.8599" lon="6.67943">
        <ele>607.9</ele>
        <time>2022-06-29T07:23:24Z</time>
      </trkpt>
      <trkpt lat="47.85994" lon="6.6794">
        <ele>613.3</ele>
        <time>2022-06-29T07:23:29Z</time>
      </trkpt>
      <trkpt lat="47.85997" lon="6.67935">
        <ele>619.7</ele>
        <time>2022-06-29T07:23:48Z</time>
      </trkpt>
      <trkpt lat="47.85993" lon="6.67938">
        <ele>622</ele>
        <time>2022-06-29T07:23:56Z</time>
      </trkpt>
      <trkpt lat="47.85997" lon="6.67942">
        <ele>620.5</ele>
        <time>2022-06-29T07:24:07Z</time>
      </trkpt>
      <trkpt lat="47.86001" lon="6.67946">
        <ele>617.1</ele>
        <time>2022-06-29T07:24:30Z</time>
      </trkpt>
      <trkpt lat="47.86007" lon="6.67941">
        <ele>618.2</ele>
        <time>2022-06-29T07:25:09Z</time>
      </trkpt>
      <trkpt lat="47.86006" lon="6.67934">
        <ele>619.7</ele>
        <time>2022-06-29T07:25:37Z</time>
      </trkpt>
      <trkpt lat="47.86002" lon="6.67937">
        <ele>618.6</ele>
        <time>2022-06-29T07:25:53Z</time>
      </trkpt>
      <trkpt lat="47.86" lon="6.67944">
        <ele>617.3</ele>
        <time>2022-06-29T07:26:09Z</time>
      </trkpt>
      <trkpt lat="47.86" lon="6.6795">
        <ele>616.6</ele>
        <time>2022-06-29T07:26:16Z</time>
      </trkpt>
      <trkpt lat="47.86002" lon="6.67943">
        <ele>616.6</ele>
        <time>2022-06-29T07:26:29Z</time>
      </trkpt>
      <trkpt lat="47.85997" lon="6.67941">
        <ele>619.8</ele>
        <time>2022-06-29T07:27:37Z</time>
      </trkpt>
      <trkpt lat="47.85997" lon="6.67949">
        <ele>618.1</ele>
        <time>2022-06-29T07:27:46Z</time>
      </trkpt>
      <trkpt lat="47.85997" lon="6.67956">
        <ele>616.8</ele>
        <time>2022-06-29T07:27:57Z</time>
      </trkpt>
      <trkpt lat="47.86002" lon="6.67959">
        <ele>615.4</ele>
        <time>2022-06-29T07:28:07Z</time>
      </trkpt>
      <trkpt lat="47.86005" lon="6.67964">
        <ele>614.5</ele>
        <time>2022-06-29T07:28:13Z</time>
      </trkpt>
      <trkpt lat="47.86009" lon="6.67971">
        <ele>613.9</ele>
        <time>2022-06-29T07:28:20Z</time>
      </trkpt>
      <trkpt lat="47.86006" lon="6.67977">
        <ele>613.7</ele>
        <time>2022-06-29T07:28:27Z</time>
      </trkpt>
      <trkpt lat="47.86003" lon="6.67982">
        <ele>613.1</ele>
        <time>2022-06-29T07:28:32Z</time>
      </trkpt>
      <trkpt lat="47.86003" lon="6.67989">
        <ele>612.2</ele>
        <time>2022-06-29T07:28:38Z</time>
      </trkpt>
      <trkpt lat="47.86004" lon="6.67997">
        <ele>611.3</ele>
        <time>2022-06-29T07:28:43Z</time>
      </trkpt>
      <trkpt lat="47.86006" lon="6.68003">
        <ele>610.6</ele>
        <time>2022-06-29T07:28:47Z</time>
      </trkpt>
      <trkpt lat="47.86008" lon="6.6801">
        <ele>610.1</ele>
        <time>2022-06-29T07:28:54Z</time>
      </trkpt>
      <trkpt lat="47.86008" lon="6.68017">
        <ele>609.4</ele>
        <time>2022-06-29T07:29:01Z</time>
      </trkpt>
      <trkpt lat="47.86007" lon="6.68024">
        <ele>608.6</ele>
        <time>2022-06-29T07:29:08Z</time>
      </trkpt>
      <trkpt lat="47.8601" lon="6.68029">
        <ele>608.1</ele>
        <time>2022-06-29T07:29:12Z</time>
      </trkpt>
      <trkpt lat="47.86012" lon="6.68035">
        <ele>607.8</ele>
        <time>2022-06-29T07:29:17Z</time>
      </trkpt>
      <trkpt lat="47.86011" lon="6.68043">
        <ele>607.2</ele>
        <time>2022-06-29T07:29:23Z</time>
      </trkpt>
      <trkpt lat="47.86011" lon="6.6805">
        <ele>606.5</ele>
        <time>2022-06-29T07:29:29Z</time>
      </trkpt>
      <trkpt lat="47.86014" lon="6.68055">
        <ele>606.1</ele>
        <time>2022-06-29T07:29:33Z</time>
      </trkpt>
      <trkpt lat="47.86018" lon="6.6806">
        <ele>605.7</ele>
        <time>2022-06-29T07:29:37Z</time>
      </trkpt>
      <trkpt lat="47.86021" lon="6.68066">
        <ele>605.5</ele>
        <time>2022-06-29T07:29:42Z</time>
      </trkpt>
      <trkpt lat="47.8602" lon="6.68073">
        <ele>605.2</ele>
        <time>2022-06-29T07:29:48Z</time>
      </trkpt>
      <trkpt lat="47.86023" lon="6.68079">
        <ele>605.1</ele>
        <time>2022-06-29T07:29:52Z</time>
      </trkpt>
      <trkpt lat="47.86025" lon="6.68086">
        <ele>605.7</ele>
        <time>2022-06-29T07:29:58Z</time>
      </trkpt>
      <trkpt lat="47.8603" lon="6.68092">
        <ele>606.1</ele>
        <time>2022-06-29T07:30:03Z</time>
      </trkpt>
      <trkpt lat="47.86035" lon="6.68096">
        <ele>606.1</ele>
        <time>2022-06-29T07:30:06Z</time>
      </trkpt>
      <trkpt lat="47.86039" lon="6.681">
        <ele>605.9</ele>
        <time>2022-06-29T07:30:11Z</time>
      </trkpt>
      <trkpt lat="47.86041" lon="6.68106">
        <ele>605.5</ele>
        <time>2022-06-29T07:30:17Z</time>
      </trkpt>
      <trkpt lat="47.86041" lon="6.68113">
        <ele>604.3</ele>
        <time>2022-06-29T07:30:25Z</time>
      </trkpt>
      <trkpt lat="47.8604" lon="6.68121">
        <ele>603</ele>
        <time>2022-06-29T07:30:31Z</time>
      </trkpt>
      <trkpt lat="47.86037" lon="6.68126">
        <ele>601.8</ele>
        <time>2022-06-29T07:30:37Z</time>
      </trkpt>
      <trkpt lat="47.86036" lon="6.68134">
        <ele>600.8</ele>
        <time>2022-06-29T07:30:49Z</time>
      </trkpt>
      <trkpt lat="47.86035" lon="6.68141">
        <ele>600.5</ele>
        <time>2022-06-29T07:30:54Z</time>
      </trkpt>
      <trkpt lat="47.86036" lon="6.68149">
        <ele>600.2</ele>
        <time>2022-06-29T07:30:59Z</time>
      </trkpt>
      <trkpt lat="47.86035" lon="6.68157">
        <ele>600.2</ele>
        <time>2022-06-29T07:31:06Z</time>
      </trkpt>
      <trkpt lat="47.86033" lon="6.68164">
        <ele>600.5</ele>
        <time>2022-06-29T07:31:11Z</time>
      </trkpt>
      <trkpt lat="47.8603" lon="6.68168">
        <ele>601</ele>
        <time>2022-06-29T07:31:15Z</time>
      </trkpt>
      <trkpt lat="47.86029" lon="6.68176">
        <ele>601.2</ele>
        <time>2022-06-29T07:31:20Z</time>
      </trkpt>
      <trkpt lat="47.86027" lon="6.68182">
        <ele>601.4</ele>
        <time>2022-06-29T07:31:25Z</time>
      </trkpt>
      <trkpt lat="47.86024" lon="6.6819">
        <ele>603.8</ele>
        <time>2022-06-29T07:31:39Z</time>
      </trkpt>
      <trkpt lat="47.8602" lon="6.68193">
        <ele>605.2</ele>
        <time>2022-06-29T07:31:44Z</time>
      </trkpt>
      <trkpt lat="47.86019" lon="6.682">
        <ele>606.7</ele>
        <time>2022-06-29T07:31:51Z</time>
      </trkpt>
      <trkpt lat="47.86017" lon="6.68207">
        <ele>608</ele>
        <time>2022-06-29T07:31:58Z</time>
      </trkpt>
      <trkpt lat="47.86016" lon="6.68213">
        <ele>609.5</ele>
        <time>2022-06-29T07:32:05Z</time>
      </trkpt>
      <trkpt lat="47.86013" lon="6.6822">
        <ele>610.8</ele>
        <time>2022-06-29T07:32:11Z</time>
      </trkpt>
      <trkpt lat="47.8601" lon="6.68226">
        <ele>611.6</ele>
        <time>2022-06-29T07:32:15Z</time>
      </trkpt>
      <trkpt lat="47.86008" lon="6.68232">
        <ele>612.1</ele>
        <time>2022-06-29T07:32:19Z</time>
      </trkpt>
      <trkpt lat="47.86006" lon="6.68239">
        <ele>612.9</ele>
        <time>2022-06-29T07:32:24Z</time>
      </trkpt>
      <trkpt lat="47.86003" lon="6.68243">
        <ele>613.5</ele>
        <time>2022-06-29T07:32:28Z</time>
      </trkpt>
      <trkpt lat="47.86" lon="6.68249">
        <ele>614.2</ele>
        <time>2022-06-29T07:32:33Z</time>
      </trkpt>
      <trkpt lat="47.85998" lon="6.68256">
        <ele>614.8</ele>
        <time>2022-06-29T07:32:38Z</time>
      </trkpt>
      <trkpt lat="47.85998" lon="6.68263">
        <ele>615.6</ele>
        <time>2022-06-29T07:32:44Z</time>
      </trkpt>
      <trkpt lat="47.85996" lon="6.6827">
        <ele>616.4</ele>
        <time>2022-06-29T07:32:49Z</time>
      </trkpt>
      <trkpt lat="47.85993" lon="6.68276">
        <ele>617.1</ele>
        <time>2022-06-29T07:32:54Z</time>
      </trkpt>
      <trkpt lat="47.8599" lon="6.68282">
        <ele>620.2</ele>
        <time>2022-06-29T07:33:06Z</time>
      </trkpt>
      <trkpt lat="47.85989" lon="6.68288">
        <ele>622.8</ele>
        <time>2022-06-29T07:33:15Z</time>
      </trkpt>
      <trkpt lat="47.85989" lon="6.68295">
        <ele>624.4</ele>
        <time>2022-06-29T07:33:21Z</time>
      </trkpt>
      <trkpt lat="47.8599" lon="6.68303">
        <ele>625.6</ele>
        <time>2022-06-29T07:33:27Z</time>
      </trkpt>
      <trkpt lat="47.85987" lon="6.68308">
        <ele>627.5</ele>
        <time>2022-06-29T07:33:36Z</time>
      </trkpt>
      <trkpt lat="47.85983" lon="6.68311">
        <ele>629.4</ele>
        <time>2022-06-29T07:33:43Z</time>
      </trkpt>
      <trkpt lat="47.85979" lon="6.68317">
        <ele>631.2</ele>
        <time>2022-06-29T07:33:50Z</time>
      </trkpt>
      <trkpt lat="47.85977" lon="6.68324">
        <ele>632.1</ele>
        <time>2022-06-29T07:33:56Z</time>
      </trkpt>
      <trkpt lat="47.85974" lon="6.68331">
        <ele>632.8</ele>
        <time>2022-06-29T07:34:01Z</time>
      </trkpt>
      <trkpt lat="47.85972" lon="6.68337">
        <ele>634</ele>
        <time>2022-06-29T07:34:07Z</time>
      </trkpt>
      <trkpt lat="47.8597" lon="6.68343">
        <ele>635.3</ele>
        <time>2022-06-29T07:34:13Z</time>
      </trkpt>
      <trkpt lat="47.85968" lon="6.6835">
        <ele>636.3</ele>
        <time>2022-06-29T07:34:18Z</time>
      </trkpt>
      <trkpt lat="47.85967" lon="6.68358">
        <ele>637.4</ele>
        <time>2022-06-29T07:34:23Z</time>
      </trkpt>
      <trkpt lat="47.85965" lon="6.68365">
        <ele>638.3</ele>
        <time>2022-06-29T07:34:28Z</time>
      </trkpt>
      <trkpt lat="47.85964" lon="6.68373">
        <ele>639</ele>
        <time>2022-06-29T07:34:32Z</time>
      </trkpt>
      <trkpt lat="47.85963" lon="6.6838">
        <ele>639.9</ele>
        <time>2022-06-29T07:34:37Z</time>
      </trkpt>
      <trkpt lat="47.8596" lon="6.68386">
        <ele>641.6</ele>
        <time>2022-06-29T07:34:44Z</time>
      </trkpt>
      <trkpt lat="47.85959" lon="6.68393">
        <ele>643.2</ele>
        <time>2022-06-29T07:34:53Z</time>
      </trkpt>
      <trkpt lat="47.85958" lon="6.68401">
        <ele>643.9</ele>
        <time>2022-06-29T07:34:59Z</time>
      </trkpt>
      <trkpt lat="47.85958" lon="6.68408">
        <ele>644.6</ele>
        <time>2022-06-29T07:35:04Z</time>
      </trkpt>
      <trkpt lat="47.85956" lon="6.68415">
        <ele>645.7</ele>
        <time>2022-06-29T07:35:10Z</time>
      </trkpt>
      <trkpt lat="47.85954" lon="6.68422">
        <ele>646.6</ele>
        <time>2022-06-29T07:35:16Z</time>
      </trkpt>
      <trkpt lat="47.85952" lon="6.68429">
        <ele>647.2</ele>
        <time>2022-06-29T07:35:21Z</time>
      </trkpt>
      <trkpt lat="47.85952" lon="6.68437">
        <ele>648.1</ele>
        <time>2022-06-29T07:35:27Z</time>
      </trkpt>
      <trkpt lat="47.85952" lon="6.68444">
        <ele>648.5</ele>
        <time>2022-06-29T07:35:33Z</time>
      </trkpt>
      <trkpt lat="47.85953" lon="6.68451">
        <ele>648.8</ele>
        <time>2022-06-29T07:35:40Z</time>
      </trkpt>
      <trkpt lat="47.85952" lon="6.68458">
        <ele>649.1</ele>
        <time>2022-06-29T07:35:46Z</time>
      </trkpt>
      <trkpt lat="47.8595" lon="6.68465">
        <ele>649.4</ele>
        <time>2022-06-29T07:35:51Z</time>
      </trkpt>
      <trkpt lat="47.85947" lon="6.68472">
        <ele>649.8</ele>
        <time>2022-06-29T07:35:56Z</time>
      </trkpt>
      <trkpt lat="47.85944" lon="6.68478">
        <ele>650.2</ele>
        <time>2022-06-29T07:36:00Z</time>
      </trkpt>
      <trkpt lat="47.85944" lon="6.68485">
        <ele>650.7</ele>
        <time>2022-06-29T07:36:04Z</time>
      </trkpt>
      <trkpt lat="47.85943" lon="6.68493">
        <ele>651.4</ele>
        <time>2022-06-29T07:36:09Z</time>
      </trkpt>
      <trkpt lat="47.85944" lon="6.68501">
        <ele>652.1</ele>
        <time>2022-06-29T07:36:16Z</time>
      </trkpt>
      <trkpt lat="47.85944" lon="6.68508">
        <ele>652.4</ele>
        <time>2022-06-29T07:36:20Z</time>
      </trkpt>
      <trkpt lat="47.85942" lon="6.68516">
        <ele>652.8</ele>
        <time>2022-06-29T07:36:24Z</time>
      </trkpt>
      <trkpt lat="47.85941" lon="6.68523">
        <ele>653</ele>
        <time>2022-06-29T07:36:27Z</time>
      </trkpt>
      <trkpt lat="47.85939" lon="6.6853">
        <ele>653.3</ele>
        <time>2022-06-29T07:36:31Z</time>
      </trkpt>
      <trkpt lat="47.85936" lon="6.68537">
        <ele>653.6</ele>
        <time>2022-06-29T07:36:35Z</time>
      </trkpt>
      <trkpt lat="47.85934" lon="6.68542">
        <ele>653.9</ele>
        <time>2022-06-29T07:36:39Z</time>
      </trkpt>
      <trkpt lat="47.85931" lon="6.68549">
        <ele>654.5</ele>
        <time>2022-06-29T07:36:45Z</time>
      </trkpt>
      <trkpt lat="47.85931" lon="6.68557">
        <ele>654.8</ele>
        <time>2022-06-29T07:36:51Z</time>
      </trkpt>
      <trkpt lat="47.85929" lon="6.68563">
        <ele>655</ele>
        <time>2022-06-29T07:36:55Z</time>
      </trkpt>
      <trkpt lat="47.85923" lon="6.68568">
        <ele>655.3</ele>
        <time>2022-06-29T07:36:58Z</time>
      </trkpt>
      <trkpt lat="47.85918" lon="6.68571">
        <ele>655.5</ele>
        <time>2022-06-29T07:37:01Z</time>
      </trkpt>
      <trkpt lat="47.85914" lon="6.68575">
        <ele>655.8</ele>
        <time>2022-06-29T07:37:07Z</time>
      </trkpt>
      <trkpt lat="47.85915" lon="6.68582">
        <ele>656.4</ele>
        <time>2022-06-29T07:37:14Z</time>
      </trkpt>
      <trkpt lat="47.85914" lon="6.68589">
        <ele>657.2</ele>
        <time>2022-06-29T07:37:22Z</time>
      </trkpt>
      <trkpt lat="47.85913" lon="6.68597">
        <ele>657.9</ele>
        <time>2022-06-29T07:37:27Z</time>
      </trkpt>
      <trkpt lat="47.85912" lon="6.68603">
        <ele>658.2</ele>
        <time>2022-06-29T07:37:31Z</time>
      </trkpt>
      <trkpt lat="47.85909" lon="6.68611">
        <ele>658.4</ele>
        <time>2022-06-29T07:37:35Z</time>
      </trkpt>
      <trkpt lat="47.85908" lon="6.68618">
        <ele>658.4</ele>
        <time>2022-06-29T07:37:38Z</time>
      </trkpt>
      <trkpt lat="47.85906" lon="6.68626">
        <ele>658.6</ele>
        <time>2022-06-29T07:37:41Z</time>
      </trkpt>
      <trkpt lat="47.85905" lon="6.68633">
        <ele>658.8</ele>
        <time>2022-06-29T07:37:44Z</time>
      </trkpt>
      <trkpt lat="47.85902" lon="6.6864">
        <ele>659.4</ele>
        <time>2022-06-29T07:37:51Z</time>
      </trkpt>
      <trkpt lat="47.859" lon="6.68646">
        <ele>659.5</ele>
        <time>2022-06-29T07:37:56Z</time>
      </trkpt>
      <trkpt lat="47.85897" lon="6.68652">
        <ele>659.3</ele>
        <time>2022-06-29T07:38:02Z</time>
      </trkpt>
      <trkpt lat="47.85895" lon="6.68658">
        <ele>659.1</ele>
        <time>2022-06-29T07:38:06Z</time>
      </trkpt>
      <trkpt lat="47.85894" lon="6.68665">
        <ele>659.1</ele>
        <time>2022-06-29T07:38:12Z</time>
      </trkpt>
      <trkpt lat="47.85891" lon="6.68671">
        <ele>659.2</ele>
        <time>2022-06-29T07:38:17Z</time>
      </trkpt>
      <trkpt lat="47.85889" lon="6.68679">
        <ele>659.4</ele>
        <time>2022-06-29T07:38:22Z</time>
      </trkpt>
      <trkpt lat="47.85887" lon="6.68686">
        <ele>659.6</ele>
        <time>2022-06-29T07:38:27Z</time>
      </trkpt>
      <trkpt lat="47.85883" lon="6.68693">
        <ele>659.4</ele>
        <time>2022-06-29T07:38:32Z</time>
      </trkpt>
      <trkpt lat="47.8588" lon="6.68698">
        <ele>659.1</ele>
        <time>2022-06-29T07:38:35Z</time>
      </trkpt>
      <trkpt lat="47.85878" lon="6.68704">
        <ele>658.7</ele>
        <time>2022-06-29T07:38:39Z</time>
      </trkpt>
      <trkpt lat="47.85874" lon="6.68709">
        <ele>658.2</ele>
        <time>2022-06-29T07:38:45Z</time>
      </trkpt>
      <trkpt lat="47.85872" lon="6.68716">
        <ele>657.9</ele>
        <time>2022-06-29T07:38:50Z</time>
      </trkpt>
      <trkpt lat="47.85871" lon="6.68722">
        <ele>657.8</ele>
        <time>2022-06-29T07:38:54Z</time>
      </trkpt>
      <trkpt lat="47.85871" lon="6.68729">
        <ele>657.8</ele>
        <time>2022-06-29T07:38:57Z</time>
      </trkpt>
      <trkpt lat="47.85872" lon="6.68736">
        <ele>657.9</ele>
        <time>2022-06-29T07:39:00Z</time>
      </trkpt>
      <trkpt lat="47.85873" lon="6.68743">
        <ele>658.1</ele>
        <time>2022-06-29T07:39:03Z</time>
      </trkpt>
      <trkpt lat="47.85873" lon="6.6875">
        <ele>658.2</ele>
        <time>2022-06-29T07:39:07Z</time>
      </trkpt>
      <trkpt lat="47.85873" lon="6.68757">
        <ele>658.2</ele>
        <time>2022-06-29T07:39:10Z</time>
      </trkpt>
      <trkpt lat="47.85872" lon="6.68765">
        <ele>658.1</ele>
        <time>2022-06-29T07:39:13Z</time>
      </trkpt>
      <trkpt lat="47.85873" lon="6.68771">
        <ele>657.7</ele>
        <time>2022-06-29T07:39:20Z</time>
      </trkpt>
      <trkpt lat="47.85873" lon="6.6878">
        <ele>657.8</ele>
        <time>2022-06-29T07:39:25Z</time>
      </trkpt>
      <trkpt lat="47.85874" lon="6.68787">
        <ele>658.4</ele>
        <time>2022-06-29T07:39:33Z</time>
      </trkpt>
      <trkpt lat="47.85873" lon="6.68793">
        <ele>658.6</ele>
        <time>2022-06-29T07:39:38Z</time>
      </trkpt>
      <trkpt lat="47.85872" lon="6.688">
        <ele>658.9</ele>
        <time>2022-06-29T07:39:43Z</time>
      </trkpt>
      <trkpt lat="47.85873" lon="6.68808">
        <ele>659.5</ele>
        <time>2022-06-29T07:39:50Z</time>
      </trkpt>
      <trkpt lat="47.85874" lon="6.68815">
        <ele>659.8</ele>
        <time>2022-06-29T07:39:55Z</time>
      </trkpt>
      <trkpt lat="47.85876" lon="6.68822">
        <ele>659.9</ele>
        <time>2022-06-29T07:39:59Z</time>
      </trkpt>
      <trkpt lat="47.85877" lon="6.68829">
        <ele>660.3</ele>
        <time>2022-06-29T07:40:03Z</time>
      </trkpt>
      <trkpt lat="47.85877" lon="6.68836">
        <ele>660.4</ele>
        <time>2022-06-29T07:40:07Z</time>
      </trkpt>
      <trkpt lat="47.85877" lon="6.68844">
        <ele>660.9</ele>
        <time>2022-06-29T07:40:11Z</time>
      </trkpt>
      <trkpt lat="47.8588" lon="6.68849">
        <ele>662</ele>
        <time>2022-06-29T07:40:18Z</time>
      </trkpt>
      <trkpt lat="47.85883" lon="6.68856">
        <ele>662.6</ele>
        <time>2022-06-29T07:40:23Z</time>
      </trkpt>
      <trkpt lat="47.85885" lon="6.68861">
        <ele>663.7</ele>
        <time>2022-06-29T07:40:30Z</time>
      </trkpt>
      <trkpt lat="47.85887" lon="6.68868">
        <ele>664</ele>
        <time>2022-06-29T07:40:33Z</time>
      </trkpt>
      <trkpt lat="47.85888" lon="6.68876">
        <ele>664.2</ele>
        <time>2022-06-29T07:40:36Z</time>
      </trkpt>
      <trkpt lat="47.8589" lon="6.68887">
        <ele>664.4</ele>
        <time>2022-06-29T07:40:39Z</time>
      </trkpt>
      <trkpt lat="47.85891" lon="6.68894">
        <ele>664.4</ele>
        <time>2022-06-29T07:40:42Z</time>
      </trkpt>
      <trkpt lat="47.85893" lon="6.68902">
        <ele>664.6</ele>
        <time>2022-06-29T07:40:46Z</time>
      </trkpt>
      <trkpt lat="47.85894" lon="6.6891">
        <ele>664.8</ele>
        <time>2022-06-29T07:40:50Z</time>
      </trkpt>
      <trkpt lat="47.85897" lon="6.68917">
        <ele>665.1</ele>
        <time>2022-06-29T07:40:54Z</time>
      </trkpt>
      <trkpt lat="47.85898" lon="6.68924">
        <ele>665.5</ele>
        <time>2022-06-29T07:40:58Z</time>
      </trkpt>
      <trkpt lat="47.85899" lon="6.68931">
        <ele>665.7</ele>
        <time>2022-06-29T07:41:03Z</time>
      </trkpt>
      <trkpt lat="47.85901" lon="6.68939">
        <ele>666</ele>
        <time>2022-06-29T07:41:09Z</time>
      </trkpt>
      <trkpt lat="47.85903" lon="6.68948">
        <ele>666.5</ele>
        <time>2022-06-29T07:41:13Z</time>
      </trkpt>
      <trkpt lat="47.85906" lon="6.68953">
        <ele>666.9</ele>
        <time>2022-06-29T07:41:18Z</time>
      </trkpt>
      <trkpt lat="47.85908" lon="6.68959">
        <ele>667</ele>
        <time>2022-06-29T07:41:22Z</time>
      </trkpt>
      <trkpt lat="47.85909" lon="6.68966">
        <ele>667</ele>
        <time>2022-06-29T07:41:27Z</time>
      </trkpt>
      <trkpt lat="47.85909" lon="6.68974">
        <ele>666.6</ele>
        <time>2022-06-29T07:41:33Z</time>
      </trkpt>
      <trkpt lat="47.85911" lon="6.6898">
        <ele>666.3</ele>
        <time>2022-06-29T07:41:38Z</time>
      </trkpt>
      <trkpt lat="47.85912" lon="6.68988">
        <ele>665.8</ele>
        <time>2022-06-29T07:41:45Z</time>
      </trkpt>
      <trkpt lat="47.85911" lon="6.68995">
        <ele>665.8</ele>
        <time>2022-06-29T07:41:49Z</time>
      </trkpt>
      <trkpt lat="47.85911" lon="6.69002">
        <ele>665.6</ele>
        <time>2022-06-29T07:41:53Z</time>
      </trkpt>
      <trkpt lat="47.85911" lon="6.69011">
        <ele>665.1</ele>
        <time>2022-06-29T07:42:03Z</time>
      </trkpt>
      <trkpt lat="47.8591" lon="6.69017">
        <ele>664.9</ele>
        <time>2022-06-29T07:42:07Z</time>
      </trkpt>
      <trkpt lat="47.85908" lon="6.69024">
        <ele>664.6</ele>
        <time>2022-06-29T07:42:12Z</time>
      </trkpt>
      <trkpt lat="47.85906" lon="6.69031">
        <ele>664.3</ele>
        <time>2022-06-29T07:42:16Z</time>
      </trkpt>
      <trkpt lat="47.85905" lon="6.69038">
        <ele>664.3</ele>
        <time>2022-06-29T07:42:19Z</time>
      </trkpt>
      <trkpt lat="47.85904" lon="6.69046">
        <ele>664.3</ele>
        <time>2022-06-29T07:42:25Z</time>
      </trkpt>
      <trkpt lat="47.85901" lon="6.69053">
        <ele>664.3</ele>
        <time>2022-06-29T07:42:30Z</time>
      </trkpt>
      <trkpt lat="47.859" lon="6.69061">
        <ele>664.5</ele>
        <time>2022-06-29T07:42:34Z</time>
      </trkpt>
      <trkpt lat="47.85898" lon="6.69068">
        <ele>664.6</ele>
        <time>2022-06-29T07:42:39Z</time>
      </trkpt>
      <trkpt lat="47.85897" lon="6.69075">
        <ele>664.7</ele>
        <time>2022-06-29T07:42:43Z</time>
      </trkpt>
      <trkpt lat="47.85894" lon="6.69081">
        <ele>664.6</ele>
        <time>2022-06-29T07:42:46Z</time>
      </trkpt>
      <trkpt lat="47.85891" lon="6.69087">
        <ele>664.5</ele>
        <time>2022-06-29T07:42:49Z</time>
      </trkpt>
      <trkpt lat="47.85888" lon="6.69092">
        <ele>664.4</ele>
        <time>2022-06-29T07:42:55Z</time>
      </trkpt>
      <trkpt lat="47.85885" lon="6.69097">
        <ele>664.5</ele>
        <time>2022-06-29T07:42:59Z</time>
      </trkpt>
      <trkpt lat="47.85882" lon="6.69103">
        <ele>664.7</ele>
        <time>2022-06-29T07:43:02Z</time>
      </trkpt>
      <trkpt lat="47.85879" lon="6.6911">
        <ele>665</ele>
        <time>2022-06-29T07:43:06Z</time>
      </trkpt>
      <trkpt lat="47.85878" lon="6.69117">
        <ele>665.3</ele>
        <time>2022-06-29T07:43:10Z</time>
      </trkpt>
      <trkpt lat="47.85879" lon="6.69124">
        <ele>665.4</ele>
        <time>2022-06-29T07:43:15Z</time>
      </trkpt>
      <trkpt lat="47.85879" lon="6.69131">
        <ele>665.1</ele>
        <time>2022-06-29T07:43:20Z</time>
      </trkpt>
      <trkpt lat="47.85877" lon="6.69137">
        <ele>665</ele>
        <time>2022-06-29T07:43:30Z</time>
      </trkpt>
      <trkpt lat="47.85874" lon="6.69143">
        <ele>665.4</ele>
        <time>2022-06-29T07:43:36Z</time>
      </trkpt>
      <trkpt lat="47.85869" lon="6.69147">
        <ele>665.7</ele>
        <time>2022-06-29T07:43:41Z</time>
      </trkpt>
      <trkpt lat="47.85865" lon="6.69152">
        <ele>665.8</ele>
        <time>2022-06-29T07:43:44Z</time>
      </trkpt>
      <trkpt lat="47.85863" lon="6.6916">
        <ele>665.7</ele>
        <time>2022-06-29T07:43:47Z</time>
      </trkpt>
      <trkpt lat="47.85863" lon="6.69168">
        <ele>665.1</ele>
        <time>2022-06-29T07:43:55Z</time>
      </trkpt>
      <trkpt lat="47.85863" lon="6.69175">
        <ele>664.9</ele>
        <time>2022-06-29T07:43:58Z</time>
      </trkpt>
      <trkpt lat="47.85865" lon="6.69184">
        <ele>664.7</ele>
        <time>2022-06-29T07:44:01Z</time>
      </trkpt>
      <trkpt lat="47.85866" lon="6.69192">
        <ele>664.4</ele>
        <time>2022-06-29T07:44:04Z</time>
      </trkpt>
      <trkpt lat="47.85868" lon="6.69198">
        <ele>664.3</ele>
        <time>2022-06-29T07:44:07Z</time>
      </trkpt>
      <trkpt lat="47.85872" lon="6.69203">
        <ele>664.2</ele>
        <time>2022-06-29T07:44:12Z</time>
      </trkpt>
      <trkpt lat="47.85875" lon="6.69208">
        <ele>664.5</ele>
        <time>2022-06-29T07:44:19Z</time>
      </trkpt>
      <trkpt lat="47.8588" lon="6.6921">
        <ele>664.7</ele>
        <time>2022-06-29T07:44:23Z</time>
      </trkpt>
      <trkpt lat="47.85884" lon="6.69211">
        <ele>664.9</ele>
        <time>2022-06-29T07:44:26Z</time>
      </trkpt>
      <trkpt lat="47.8589" lon="6.69214">
        <ele>665.2</ele>
        <time>2022-06-29T07:44:30Z</time>
      </trkpt>
      <trkpt lat="47.85894" lon="6.69218">
        <ele>665.3</ele>
        <time>2022-06-29T07:44:33Z</time>
      </trkpt>
      <trkpt lat="47.85897" lon="6.69223">
        <ele>665.2</ele>
        <time>2022-06-29T07:44:37Z</time>
      </trkpt>
      <trkpt lat="47.85897" lon="6.69232">
        <ele>665.2</ele>
        <time>2022-06-29T07:44:41Z</time>
      </trkpt>
      <trkpt lat="47.85897" lon="6.69239">
        <ele>665.2</ele>
        <time>2022-06-29T07:44:44Z</time>
      </trkpt>
      <trkpt lat="47.85897" lon="6.69246">
        <ele>665.3</ele>
        <time>2022-06-29T07:44:49Z</time>
      </trkpt>
      <trkpt lat="47.85895" lon="6.69252">
        <ele>669.3</ele>
        <time>2022-06-29T07:45:30Z</time>
      </trkpt>
      <trkpt lat="47.85891" lon="6.69256">
        <ele>669.9</ele>
        <time>2022-06-29T07:45:36Z</time>
      </trkpt>
      <trkpt lat="47.85894" lon="6.6925">
        <ele>670.8</ele>
        <time>2022-06-29T07:46:07Z</time>
      </trkpt>
      <trkpt lat="47.85891" lon="6.69258">
        <ele>670.9</ele>
        <time>2022-06-29T07:46:12Z</time>
      </trkpt>
      <trkpt lat="47.85889" lon="6.69265">
        <ele>671</ele>
        <time>2022-06-29T07:46:16Z</time>
      </trkpt>
      <trkpt lat="47.8589" lon="6.69271">
        <ele>670.9</ele>
        <time>2022-06-29T07:46:28Z</time>
      </trkpt>
      <trkpt lat="47.85893" lon="6.69265">
        <ele>671.3</ele>
        <time>2022-06-29T07:47:00Z</time>
      </trkpt>
      <trkpt lat="47.85898" lon="6.69262">
        <ele>671.6</ele>
        <time>2022-06-29T07:47:18Z</time>
      </trkpt>
      <trkpt lat="47.85896" lon="6.69268">
        <ele>668.6</ele>
        <time>2022-06-29T07:48:03Z</time>
      </trkpt>
      <trkpt lat="47.85892" lon="6.69265">
        <ele>668.6</ele>
        <time>2022-06-29T07:48:19Z</time>
      </trkpt>
      <trkpt lat="47.85889" lon="6.69259">
        <ele>669</ele>
        <time>2022-06-29T07:48:34Z</time>
      </trkpt>
      <trkpt lat="47.85892" lon="6.69252">
        <ele>671.7</ele>
        <time>2022-06-29T07:48:59Z</time>
      </trkpt>
      <trkpt lat="47.85896" lon="6.69249">
        <ele>672.3</ele>
        <time>2022-06-29T07:49:04Z</time>
      </trkpt>
      <trkpt lat="47.859" lon="6.69247">
        <ele>673.5</ele>
        <time>2022-06-29T07:49:21Z</time>
      </trkpt>
      <trkpt lat="47.85905" lon="6.69245">
        <ele>674.2</ele>
        <time>2022-06-29T07:49:33Z</time>
      </trkpt>
      <trkpt lat="47.85903" lon="6.69251">
        <ele>674.8</ele>
        <time>2022-06-29T07:49:46Z</time>
      </trkpt>
      <trkpt lat="47.859" lon="6.69257">
        <ele>675.2</ele>
        <time>2022-06-29T07:49:51Z</time>
      </trkpt>
      <trkpt lat="47.85899" lon="6.69265">
        <ele>674</ele>
        <time>2022-06-29T07:50:00Z</time>
      </trkpt>
      <trkpt lat="47.85897" lon="6.69258">
        <ele>673.6</ele>
        <time>2022-06-29T07:50:16Z</time>
      </trkpt>
      <trkpt lat="47.85902" lon="6.69253">
        <ele>676</ele>
        <time>2022-06-29T07:50:55Z</time>
      </trkpt>
      <trkpt lat="47.85898" lon="6.69256">
        <ele>679.3</ele>
        <time>2022-06-29T07:51:22Z</time>
      </trkpt>
      <trkpt lat="47.85894" lon="6.69262">
        <ele>681.5</ele>
        <time>2022-06-29T07:51:38Z</time>
      </trkpt>
      <trkpt lat="47.85898" lon="6.69261">
        <ele>681.8</ele>
        <time>2022-06-29T07:52:51Z</time>
      </trkpt>
      <trkpt lat="47.85902" lon="6.69257">
        <ele>681.6</ele>
        <time>2022-06-29T07:53:26Z</time>
      </trkpt>
      <trkpt lat="47.85907" lon="6.69258">
        <ele>682.2</ele>
        <time>2022-06-29T07:53:37Z</time>
      </trkpt>
      <trkpt lat="47.85907" lon="6.69265">
        <ele>683</ele>
        <time>2022-06-29T07:53:47Z</time>
      </trkpt>
      <trkpt lat="47.85904" lon="6.69273">
        <ele>683.3</ele>
        <time>2022-06-29T07:53:54Z</time>
      </trkpt>
      <trkpt lat="47.85904" lon="6.69279">
        <ele>684.7</ele>
        <time>2022-06-29T07:54:08Z</time>
      </trkpt>
      <trkpt lat="47.85907" lon="6.69286">
        <ele>684.8</ele>
        <time>2022-06-29T07:54:19Z</time>
      </trkpt>
      <trkpt lat="47.8591" lon="6.69289">
        <ele>684.8</ele>
        <time>2022-06-29T07:54:25Z</time>
      </trkpt>
      <trkpt lat="47.85911" lon="6.69296">
        <ele>685.4</ele>
        <time>2022-06-29T07:54:35Z</time>
      </trkpt>
      <trkpt lat="47.85909" lon="6.69303">
        <ele>685.9</ele>
        <time>2022-06-29T07:54:42Z</time>
      </trkpt>
      <trkpt lat="47.85908" lon="6.6931">
        <ele>686.3</ele>
        <time>2022-06-29T07:54:51Z</time>
      </trkpt>
      <trkpt lat="47.85904" lon="6.69315">
        <ele>686.5</ele>
        <time>2022-06-29T07:55:05Z</time>
      </trkpt>
      <trkpt lat="47.85899" lon="6.69314">
        <ele>685.9</ele>
        <time>2022-06-29T07:55:11Z</time>
      </trkpt>
      <trkpt lat="47.85895" lon="6.69314">
        <ele>685.2</ele>
        <time>2022-06-29T07:55:17Z</time>
      </trkpt>
      <trkpt lat="47.85889" lon="6.69315">
        <ele>684.2</ele>
        <time>2022-06-29T07:55:23Z</time>
      </trkpt>
      <trkpt lat="47.85884" lon="6.69314">
        <ele>683.5</ele>
        <time>2022-06-29T07:55:29Z</time>
      </trkpt>
      <trkpt lat="47.85879" lon="6.69314">
        <ele>683.2</ele>
        <time>2022-06-29T07:55:33Z</time>
      </trkpt>
      <trkpt lat="47.85874" lon="6.69314">
        <ele>682.9</ele>
        <time>2022-06-29T07:55:37Z</time>
      </trkpt>
      <trkpt lat="47.85868" lon="6.69315">
        <ele>682.8</ele>
        <time>2022-06-29T07:55:41Z</time>
      </trkpt>
      <trkpt lat="47.85864" lon="6.6932">
        <ele>682.5</ele>
        <time>2022-06-29T07:55:46Z</time>
      </trkpt>
      <trkpt lat="47.85861" lon="6.69324">
        <ele>682.5</ele>
        <time>2022-06-29T07:55:49Z</time>
      </trkpt>
      <trkpt lat="47.85858" lon="6.69329">
        <ele>682.3</ele>
        <time>2022-06-29T07:55:54Z</time>
      </trkpt>
      <trkpt lat="47.85852" lon="6.69335">
        <ele>682</ele>
        <time>2022-06-29T07:55:59Z</time>
      </trkpt>
      <trkpt lat="47.85848" lon="6.69336">
        <ele>682</ele>
        <time>2022-06-29T07:56:02Z</time>
      </trkpt>
      <trkpt lat="47.85843" lon="6.6934">
        <ele>682</ele>
        <time>2022-06-29T07:56:07Z</time>
      </trkpt>
      <trkpt lat="47.85838" lon="6.69343">
        <ele>682.1</ele>
        <time>2022-06-29T07:56:10Z</time>
      </trkpt>
      <trkpt lat="47.85834" lon="6.69339">
        <ele>682.6</ele>
        <time>2022-06-29T07:56:14Z</time>
      </trkpt>
      <trkpt lat="47.85829" lon="6.69339">
        <ele>683.1</ele>
        <time>2022-06-29T07:56:18Z</time>
      </trkpt>
      <trkpt lat="47.85827" lon="6.69345">
        <ele>683.2</ele>
        <time>2022-06-29T07:56:23Z</time>
      </trkpt>
      <trkpt lat="47.85822" lon="6.69347">
        <ele>683.1</ele>
        <time>2022-06-29T07:56:27Z</time>
      </trkpt>
      <trkpt lat="47.85816" lon="6.69343">
        <ele>683.2</ele>
        <time>2022-06-29T07:56:30Z</time>
      </trkpt>
      <trkpt lat="47.85811" lon="6.69335">
        <ele>683.2</ele>
        <time>2022-06-29T07:56:33Z</time>
      </trkpt>
      <trkpt lat="47.85806" lon="6.69332">
        <ele>683.2</ele>
        <time>2022-06-29T07:56:37Z</time>
      </trkpt>
      <trkpt lat="47.85802" lon="6.69328">
        <ele>683.1</ele>
        <time>2022-06-29T07:56:42Z</time>
      </trkpt>
      <trkpt lat="47.85796" lon="6.69321">
        <ele>683.2</ele>
        <time>2022-06-29T07:56:45Z</time>
      </trkpt>
      <trkpt lat="47.85792" lon="6.69317">
        <ele>683.2</ele>
        <time>2022-06-29T07:56:48Z</time>
      </trkpt>
      <trkpt lat="47.85788" lon="6.69316">
        <ele>683.3</ele>
        <time>2022-06-29T07:56:53Z</time>
      </trkpt>
      <trkpt lat="47.85783" lon="6.69316">
        <ele>683.5</ele>
        <time>2022-06-29T07:56:58Z</time>
      </trkpt>
      <trkpt lat="47.85779" lon="6.6931">
        <ele>683.4</ele>
        <time>2022-06-29T07:57:03Z</time>
      </trkpt>
      <trkpt lat="47.85774" lon="6.69313">
        <ele>682.8</ele>
        <time>2022-06-29T07:57:10Z</time>
      </trkpt>
      <trkpt lat="47.8577" lon="6.69313">
        <ele>682.6</ele>
        <time>2022-06-29T07:57:13Z</time>
      </trkpt>
      <trkpt lat="47.85766" lon="6.69311">
        <ele>682.2</ele>
        <time>2022-06-29T07:57:16Z</time>
      </trkpt>
      <trkpt lat="47.8576" lon="6.69309">
        <ele>681.7</ele>
        <time>2022-06-29T07:57:20Z</time>
      </trkpt>
      <trkpt lat="47.85755" lon="6.6931">
        <ele>681.2</ele>
        <time>2022-06-29T07:57:24Z</time>
      </trkpt>
      <trkpt lat="47.8575" lon="6.69311">
        <ele>680.7</ele>
        <time>2022-06-29T07:57:29Z</time>
      </trkpt>
      <trkpt lat="47.85745" lon="6.69312">
        <ele>680.5</ele>
        <time>2022-06-29T07:57:33Z</time>
      </trkpt>
      <trkpt lat="47.8574" lon="6.69313">
        <ele>680.6</ele>
        <time>2022-06-29T07:57:40Z</time>
      </trkpt>
      <trkpt lat="47.85735" lon="6.6931">
        <ele>680.6</ele>
        <time>2022-06-29T07:57:45Z</time>
      </trkpt>
      <trkpt lat="47.8573" lon="6.69313">
        <ele>680.8</ele>
        <time>2022-06-29T07:57:48Z</time>
      </trkpt>
      <trkpt lat="47.85727" lon="6.69316">
        <ele>680.8</ele>
        <time>2022-06-29T07:57:51Z</time>
      </trkpt>
      <trkpt lat="47.85723" lon="6.69321">
        <ele>680.9</ele>
        <time>2022-06-29T07:57:55Z</time>
      </trkpt>
      <trkpt lat="47.85719" lon="6.69323">
        <ele>681.4</ele>
        <time>2022-06-29T07:58:01Z</time>
      </trkpt>
      <trkpt lat="47.85714" lon="6.69322">
        <ele>682.4</ele>
        <time>2022-06-29T07:58:06Z</time>
      </trkpt>
      <trkpt lat="47.8571" lon="6.69317">
        <ele>684.6</ele>
        <time>2022-06-29T07:58:13Z</time>
      </trkpt>
      <trkpt lat="47.85706" lon="6.69317">
        <ele>686.2</ele>
        <time>2022-06-29T07:58:18Z</time>
      </trkpt>
      <trkpt lat="47.85701" lon="6.69316">
        <ele>688.5</ele>
        <time>2022-06-29T07:58:24Z</time>
      </trkpt>
      <trkpt lat="47.85695" lon="6.69315">
        <ele>690.4</ele>
        <time>2022-06-29T07:58:29Z</time>
      </trkpt>
      <trkpt lat="47.8569" lon="6.69314">
        <ele>692</ele>
        <time>2022-06-29T07:58:34Z</time>
      </trkpt>
      <trkpt lat="47.85685" lon="6.69312">
        <ele>692.9</ele>
        <time>2022-06-29T07:58:38Z</time>
      </trkpt>
      <trkpt lat="47.8568" lon="6.69313">
        <ele>693.3</ele>
        <time>2022-06-29T07:58:42Z</time>
      </trkpt>
      <trkpt lat="47.85676" lon="6.69315">
        <ele>693.5</ele>
        <time>2022-06-29T07:58:46Z</time>
      </trkpt>
      <trkpt lat="47.85671" lon="6.69314">
        <ele>693.5</ele>
        <time>2022-06-29T07:58:51Z</time>
      </trkpt>
      <trkpt lat="47.85666" lon="6.69312">
        <ele>693.8</ele>
        <time>2022-06-29T07:58:58Z</time>
      </trkpt>
      <trkpt lat="47.85661" lon="6.6931">
        <ele>694.2</ele>
        <time>2022-06-29T07:59:06Z</time>
      </trkpt>
      <trkpt lat="47.85656" lon="6.69308">
        <ele>694.5</ele>
        <time>2022-06-29T07:59:11Z</time>
      </trkpt>
      <trkpt lat="47.85651" lon="6.69306">
        <ele>694.8</ele>
        <time>2022-06-29T07:59:16Z</time>
      </trkpt>
      <trkpt lat="47.85645" lon="6.69306">
        <ele>694.9</ele>
        <time>2022-06-29T07:59:20Z</time>
      </trkpt>
      <trkpt lat="47.85641" lon="6.69306">
        <ele>694.9</ele>
        <time>2022-06-29T07:59:23Z</time>
      </trkpt>
      <trkpt lat="47.85636" lon="6.69305">
        <ele>694.8</ele>
        <time>2022-06-29T07:59:26Z</time>
      </trkpt>
      <trkpt lat="47.85631" lon="6.69305">
        <ele>694.7</ele>
        <time>2022-06-29T07:59:30Z</time>
      </trkpt>
      <trkpt lat="47.85625" lon="6.69305">
        <ele>694.7</ele>
        <time>2022-06-29T07:59:34Z</time>
      </trkpt>
      <trkpt lat="47.8562" lon="6.69303">
        <ele>694.8</ele>
        <time>2022-06-29T07:59:38Z</time>
      </trkpt>
      <trkpt lat="47.85614" lon="6.69303">
        <ele>695.3</ele>
        <time>2022-06-29T07:59:42Z</time>
      </trkpt>
      <trkpt lat="47.8561" lon="6.69301">
        <ele>695.9</ele>
        <time>2022-06-29T07:59:47Z</time>
      </trkpt>
      <trkpt lat="47.85605" lon="6.69301">
        <ele>696.2</ele>
        <time>2022-06-29T07:59:53Z</time>
      </trkpt>
      <trkpt lat="47.856" lon="6.69299">
        <ele>696.2</ele>
        <time>2022-06-29T07:59:59Z</time>
      </trkpt>
      <trkpt lat="47.85595" lon="6.69296">
        <ele>696.2</ele>
        <time>2022-06-29T08:00:03Z</time>
      </trkpt>
      <trkpt lat="47.8559" lon="6.69294">
        <ele>696.1</ele>
        <time>2022-06-29T08:00:07Z</time>
      </trkpt>
      <trkpt lat="47.85586" lon="6.69291">
        <ele>695.7</ele>
        <time>2022-06-29T08:00:11Z</time>
      </trkpt>
      <trkpt lat="47.85581" lon="6.69287">
        <ele>695</ele>
        <time>2022-06-29T08:00:16Z</time>
      </trkpt>
      <trkpt lat="47.85577" lon="6.69283">
        <ele>694.5</ele>
        <time>2022-06-29T08:00:20Z</time>
      </trkpt>
      <trkpt lat="47.85573" lon="6.6928">
        <ele>694.4</ele>
        <time>2022-06-29T08:00:23Z</time>
      </trkpt>
      <trkpt lat="47.85568" lon="6.69276">
        <ele>694.2</ele>
        <time>2022-06-29T08:00:27Z</time>
      </trkpt>
      <trkpt lat="47.85563" lon="6.69273">
        <ele>694</ele>
        <time>2022-06-29T08:00:32Z</time>
      </trkpt>
      <trkpt lat="47.85558" lon="6.6927">
        <ele>694</ele>
        <time>2022-06-29T08:00:36Z</time>
      </trkpt>
      <trkpt lat="47.85553" lon="6.69266">
        <ele>694.2</ele>
        <time>2022-06-29T08:00:40Z</time>
      </trkpt>
      <trkpt lat="47.85548" lon="6.69262">
        <ele>694</ele>
        <time>2022-06-29T08:00:44Z</time>
      </trkpt>
      <trkpt lat="47.85544" lon="6.6926">
        <ele>694</ele>
        <time>2022-06-29T08:00:48Z</time>
      </trkpt>
      <trkpt lat="47.85539" lon="6.69255">
        <ele>693.6</ele>
        <time>2022-06-29T08:00:54Z</time>
      </trkpt>
      <trkpt lat="47.85536" lon="6.69249">
        <ele>693.1</ele>
        <time>2022-06-29T08:00:59Z</time>
      </trkpt>
      <trkpt lat="47.85533" lon="6.69244">
        <ele>692.9</ele>
        <time>2022-06-29T08:01:03Z</time>
      </trkpt>
      <trkpt lat="47.85531" lon="6.69237">
        <ele>693.1</ele>
        <time>2022-06-29T08:01:07Z</time>
      </trkpt>
      <trkpt lat="47.85526" lon="6.69234">
        <ele>694.2</ele>
        <time>2022-06-29T08:01:10Z</time>
      </trkpt>
      <trkpt lat="47.85521" lon="6.69229">
        <ele>695</ele>
        <time>2022-06-29T08:01:14Z</time>
      </trkpt>
      <trkpt lat="47.85517" lon="6.69225">
        <ele>695.8</ele>
        <time>2022-06-29T08:01:19Z</time>
      </trkpt>
      <trkpt lat="47.85514" lon="6.69219">
        <ele>696.4</ele>
        <time>2022-06-29T08:01:23Z</time>
      </trkpt>
      <trkpt lat="47.85511" lon="6.69214">
        <ele>696.2</ele>
        <time>2022-06-29T08:01:27Z</time>
      </trkpt>
      <trkpt lat="47.85508" lon="6.69207">
        <ele>695.1</ele>
        <time>2022-06-29T08:01:33Z</time>
      </trkpt>
      <trkpt lat="47.85505" lon="6.69201">
        <ele>694.2</ele>
        <time>2022-06-29T08:01:38Z</time>
      </trkpt>
      <trkpt lat="47.85502" lon="6.69194">
        <ele>693.6</ele>
        <time>2022-06-29T08:01:43Z</time>
      </trkpt>
      <trkpt lat="47.85498" lon="6.69189">
        <ele>693.3</ele>
        <time>2022-06-29T08:01:47Z</time>
      </trkpt>
      <trkpt lat="47.85495" lon="6.69183">
        <ele>693.1</ele>
        <time>2022-06-29T08:01:51Z</time>
      </trkpt>
      <trkpt lat="47.85491" lon="6.69178">
        <ele>693.2</ele>
        <time>2022-06-29T08:01:55Z</time>
      </trkpt>
      <trkpt lat="47.85488" lon="6.69174">
        <ele>693.5</ele>
        <time>2022-06-29T08:01:59Z</time>
      </trkpt>
      <trkpt lat="47.85485" lon="6.69168">
        <ele>693.8</ele>
        <time>2022-06-29T08:02:04Z</time>
      </trkpt>
      <trkpt lat="47.85482" lon="6.69162">
        <ele>694.5</ele>
        <time>2022-06-29T08:02:11Z</time>
      </trkpt>
      <trkpt lat="47.85479" lon="6.69156">
        <ele>694.6</ele>
        <time>2022-06-29T08:02:15Z</time>
      </trkpt>
      <trkpt lat="47.85477" lon="6.69149">
        <ele>694.9</ele>
        <time>2022-06-29T08:02:19Z</time>
      </trkpt>
      <trkpt lat="47.85475" lon="6.69143">
        <ele>695</ele>
        <time>2022-06-29T08:02:22Z</time>
      </trkpt>
      <trkpt lat="47.85474" lon="6.69135">
        <ele>695.2</ele>
        <time>2022-06-29T08:02:26Z</time>
      </trkpt>
      <trkpt lat="47.85474" lon="6.69127">
        <ele>694.9</ele>
        <time>2022-06-29T08:02:33Z</time>
      </trkpt>
      <trkpt lat="47.85473" lon="6.69119">
        <ele>694.6</ele>
        <time>2022-06-29T08:02:37Z</time>
      </trkpt>
      <trkpt lat="47.85473" lon="6.69111">
        <ele>694.5</ele>
        <time>2022-06-29T08:02:41Z</time>
      </trkpt>
      <trkpt lat="47.85473" lon="6.69104">
        <ele>694.4</ele>
        <time>2022-06-29T08:02:45Z</time>
      </trkpt>
      <trkpt lat="47.85472" lon="6.69096">
        <ele>694.1</ele>
        <time>2022-06-29T08:02:49Z</time>
      </trkpt>
      <trkpt lat="47.85472" lon="6.69088">
        <ele>693.7</ele>
        <time>2022-06-29T08:02:52Z</time>
      </trkpt>
      <trkpt lat="47.85471" lon="6.69081">
        <ele>693</ele>
        <time>2022-06-29T08:02:57Z</time>
      </trkpt>
      <trkpt lat="47.85469" lon="6.69074">
        <ele>692.4</ele>
        <time>2022-06-29T08:03:02Z</time>
      </trkpt>
      <trkpt lat="47.85466" lon="6.69067">
        <ele>691.4</ele>
        <time>2022-06-29T08:03:07Z</time>
      </trkpt>
      <trkpt lat="47.85463" lon="6.69061">
        <ele>690.5</ele>
        <time>2022-06-29T08:03:11Z</time>
      </trkpt>
      <trkpt lat="47.8546" lon="6.69054">
        <ele>689.4</ele>
        <time>2022-06-29T08:03:16Z</time>
      </trkpt>
      <trkpt lat="47.85456" lon="6.6905">
        <ele>688.7</ele>
        <time>2022-06-29T08:03:20Z</time>
      </trkpt>
      <trkpt lat="47.85451" lon="6.69046">
        <ele>688.3</ele>
        <time>2022-06-29T08:03:24Z</time>
      </trkpt>
      <trkpt lat="47.85446" lon="6.69043">
        <ele>687.5</ele>
        <time>2022-06-29T08:03:29Z</time>
      </trkpt>
      <trkpt lat="47.85443" lon="6.69036">
        <ele>687.1</ele>
        <time>2022-06-29T08:03:33Z</time>
      </trkpt>
      <trkpt lat="47.8544" lon="6.6903">
        <ele>686.3</ele>
        <time>2022-06-29T08:03:37Z</time>
      </trkpt>
      <trkpt lat="47.85435" lon="6.69028">
        <ele>685.1</ele>
        <time>2022-06-29T08:03:40Z</time>
      </trkpt>
      <trkpt lat="47.85431" lon="6.69025">
        <ele>683.5</ele>
        <time>2022-06-29T08:03:44Z</time>
      </trkpt>
      <trkpt lat="47.85427" lon="6.6902">
        <ele>681.4</ele>
        <time>2022-06-29T08:03:49Z</time>
      </trkpt>
      <trkpt lat="47.85422" lon="6.69018">
        <ele>679.3</ele>
        <time>2022-06-29T08:03:55Z</time>
      </trkpt>
      <trkpt lat="47.85417" lon="6.69016">
        <ele>677.7</ele>
        <time>2022-06-29T08:04:01Z</time>
      </trkpt>
      <trkpt lat="47.85413" lon="6.69012">
        <ele>676</ele>
        <time>2022-06-29T08:04:07Z</time>
      </trkpt>
      <trkpt lat="47.85409" lon="6.69007">
        <ele>674.9</ele>
        <time>2022-06-29T08:04:11Z</time>
      </trkpt>
      <trkpt lat="47.85405" lon="6.69002">
        <ele>673.5</ele>
        <time>2022-06-29T08:04:16Z</time>
      </trkpt>
      <trkpt lat="47.85401" lon="6.69001">
        <ele>672.6</ele>
        <time>2022-06-29T08:04:19Z</time>
      </trkpt>
      <trkpt lat="47.85396" lon="6.69">
        <ele>671.8</ele>
        <time>2022-06-29T08:04:23Z</time>
      </trkpt>
      <trkpt lat="47.85393" lon="6.68993">
        <ele>671</ele>
        <time>2022-06-29T08:04:28Z</time>
      </trkpt>
      <trkpt lat="47.85389" lon="6.68987">
        <ele>670.5</ele>
        <time>2022-06-29T08:04:32Z</time>
      </trkpt>
      <trkpt lat="47.85385" lon="6.68982">
        <ele>671</ele>
        <time>2022-06-29T08:04:36Z</time>
      </trkpt>
      <trkpt lat="47.85382" lon="6.68975">
        <ele>671.9</ele>
        <time>2022-06-29T08:04:40Z</time>
      </trkpt>
      <trkpt lat="47.85379" lon="6.6897">
        <ele>672.8</ele>
        <time>2022-06-29T08:04:43Z</time>
      </trkpt>
      <trkpt lat="47.85376" lon="6.68963">
        <ele>673.9</ele>
        <time>2022-06-29T08:04:47Z</time>
      </trkpt>
      <trkpt lat="47.85373" lon="6.68956">
        <ele>674.8</ele>
        <time>2022-06-29T08:04:51Z</time>
      </trkpt>
      <trkpt lat="47.8537" lon="6.6895">
        <ele>675.6</ele>
        <time>2022-06-29T08:04:57Z</time>
      </trkpt>
      <trkpt lat="47.85366" lon="6.68945">
        <ele>675.9</ele>
        <time>2022-06-29T08:05:01Z</time>
      </trkpt>
      <trkpt lat="47.85363" lon="6.68938">
        <ele>676.4</ele>
        <time>2022-06-29T08:05:05Z</time>
      </trkpt>
      <trkpt lat="47.8536" lon="6.68934">
        <ele>676.9</ele>
        <time>2022-06-29T08:05:09Z</time>
      </trkpt>
      <trkpt lat="47.85356" lon="6.68927">
        <ele>677.2</ele>
        <time>2022-06-29T08:05:15Z</time>
      </trkpt>
      <trkpt lat="47.85353" lon="6.68921">
        <ele>677.8</ele>
        <time>2022-06-29T08:05:20Z</time>
      </trkpt>
      <trkpt lat="47.85348" lon="6.68917">
        <ele>678.2</ele>
        <time>2022-06-29T08:05:26Z</time>
      </trkpt>
      <trkpt lat="47.85344" lon="6.68914">
        <ele>678.4</ele>
        <time>2022-06-29T08:05:29Z</time>
      </trkpt>
      <trkpt lat="47.8534" lon="6.68909">
        <ele>678.6</ele>
        <time>2022-06-29T08:05:34Z</time>
      </trkpt>
      <trkpt lat="47.85337" lon="6.68903">
        <ele>678.7</ele>
        <time>2022-06-29T08:05:41Z</time>
      </trkpt>
      <trkpt lat="47.85333" lon="6.689">
        <ele>679</ele>
        <time>2022-06-29T08:05:47Z</time>
      </trkpt>
      <trkpt lat="47.85328" lon="6.68898">
        <ele>679.2</ele>
        <time>2022-06-29T08:05:52Z</time>
      </trkpt>
      <trkpt lat="47.85324" lon="6.68893">
        <ele>679.5</ele>
        <time>2022-06-29T08:05:57Z</time>
      </trkpt>
      <trkpt lat="47.85319" lon="6.68891">
        <ele>680</ele>
        <time>2022-06-29T08:06:02Z</time>
      </trkpt>
      <trkpt lat="47.85316" lon="6.68886">
        <ele>680.9</ele>
        <time>2022-06-29T08:06:07Z</time>
      </trkpt>
      <trkpt lat="47.85311" lon="6.68884">
        <ele>681.8</ele>
        <time>2022-06-29T08:06:10Z</time>
      </trkpt>
      <trkpt lat="47.85307" lon="6.68881">
        <ele>682.3</ele>
        <time>2022-06-29T08:06:13Z</time>
      </trkpt>
      <trkpt lat="47.85302" lon="6.68879">
        <ele>683</ele>
        <time>2022-06-29T08:06:18Z</time>
      </trkpt>
      <trkpt lat="47.85297" lon="6.68879">
        <ele>683.4</ele>
        <time>2022-06-29T08:06:21Z</time>
      </trkpt>
      <trkpt lat="47.85292" lon="6.68879">
        <ele>683.7</ele>
        <time>2022-06-29T08:06:24Z</time>
      </trkpt>
      <trkpt lat="47.85287" lon="6.68877">
        <ele>685.4</ele>
        <time>2022-06-29T08:06:29Z</time>
      </trkpt>
      <trkpt lat="47.85281" lon="6.68877">
        <ele>688</ele>
        <time>2022-06-29T08:06:33Z</time>
      </trkpt>
      <trkpt lat="47.85274" lon="6.68876">
        <ele>690.2</ele>
        <time>2022-06-29T08:06:36Z</time>
      </trkpt>
      <trkpt lat="47.85269" lon="6.68876">
        <ele>691.8</ele>
        <time>2022-06-29T08:06:39Z</time>
      </trkpt>
      <trkpt lat="47.85263" lon="6.68877">
        <ele>692.8</ele>
        <time>2022-06-29T08:06:42Z</time>
      </trkpt>
      <trkpt lat="47.85259" lon="6.68873">
        <ele>692.9</ele>
        <time>2022-06-29T08:06:46Z</time>
      </trkpt>
      <trkpt lat="47.85254" lon="6.68869">
        <ele>692.8</ele>
        <time>2022-06-29T08:06:50Z</time>
      </trkpt>
      <trkpt lat="47.8525" lon="6.68865">
        <ele>693.3</ele>
        <time>2022-06-29T08:06:54Z</time>
      </trkpt>
      <trkpt lat="47.85247" lon="6.6886">
        <ele>693.4</ele>
        <time>2022-06-29T08:06:58Z</time>
      </trkpt>
      <trkpt lat="47.85244" lon="6.68854">
        <ele>693.5</ele>
        <time>2022-06-29T08:07:03Z</time>
      </trkpt>
      <trkpt lat="47.8524" lon="6.68849">
        <ele>693.3</ele>
        <time>2022-06-29T08:07:08Z</time>
      </trkpt>
      <trkpt lat="47.85235" lon="6.68847">
        <ele>693.5</ele>
        <time>2022-06-29T08:07:12Z</time>
      </trkpt>
      <trkpt lat="47.85231" lon="6.68845">
        <ele>693.7</ele>
        <time>2022-06-29T08:07:16Z</time>
      </trkpt>
      <trkpt lat="47.85225" lon="6.68844">
        <ele>694</ele>
        <time>2022-06-29T08:07:20Z</time>
      </trkpt>
      <trkpt lat="47.8522" lon="6.68844">
        <ele>694.5</ele>
        <time>2022-06-29T08:07:25Z</time>
      </trkpt>
      <trkpt lat="47.85215" lon="6.68846">
        <ele>694.8</ele>
        <time>2022-06-29T08:07:31Z</time>
      </trkpt>
      <trkpt lat="47.85211" lon="6.68848">
        <ele>694.8</ele>
        <time>2022-06-29T08:07:34Z</time>
      </trkpt>
      <trkpt lat="47.85205" lon="6.68847">
        <ele>694.7</ele>
        <time>2022-06-29T08:07:38Z</time>
      </trkpt>
      <trkpt lat="47.852" lon="6.68847">
        <ele>694.6</ele>
        <time>2022-06-29T08:07:42Z</time>
      </trkpt>
      <trkpt lat="47.85195" lon="6.68851">
        <ele>693.7</ele>
        <time>2022-06-29T08:07:48Z</time>
      </trkpt>
      <trkpt lat="47.8519" lon="6.68853">
        <ele>692.3</ele>
        <time>2022-06-29T08:07:55Z</time>
      </trkpt>
      <trkpt lat="47.85186" lon="6.68856">
        <ele>691.2</ele>
        <time>2022-06-29T08:08:00Z</time>
      </trkpt>
      <trkpt lat="47.85181" lon="6.68858">
        <ele>690.4</ele>
        <time>2022-06-29T08:08:05Z</time>
      </trkpt>
      <trkpt lat="47.85176" lon="6.68861">
        <ele>690</ele>
        <time>2022-06-29T08:08:09Z</time>
      </trkpt>
      <trkpt lat="47.8517" lon="6.68864">
        <ele>689.9</ele>
        <time>2022-06-29T08:08:13Z</time>
      </trkpt>
      <trkpt lat="47.85166" lon="6.68867">
        <ele>689.9</ele>
        <time>2022-06-29T08:08:16Z</time>
      </trkpt>
      <trkpt lat="47.85161" lon="6.68866">
        <ele>689.3</ele>
        <time>2022-06-29T08:08:20Z</time>
      </trkpt>
      <trkpt lat="47.85156" lon="6.68865">
        <ele>688.1</ele>
        <time>2022-06-29T08:08:24Z</time>
      </trkpt>
      <trkpt lat="47.85151" lon="6.68866">
        <ele>687</ele>
        <time>2022-06-29T08:08:28Z</time>
      </trkpt>
      <trkpt lat="47.85147" lon="6.68869">
        <ele>685.7</ele>
        <time>2022-06-29T08:08:32Z</time>
      </trkpt>
      <trkpt lat="47.85142" lon="6.6887">
        <ele>684.2</ele>
        <time>2022-06-29T08:08:38Z</time>
      </trkpt>
      <trkpt lat="47.85138" lon="6.68872">
        <ele>682.7</ele>
        <time>2022-06-29T08:08:43Z</time>
      </trkpt>
      <trkpt lat="47.85133" lon="6.6887">
        <ele>681.7</ele>
        <time>2022-06-29T08:08:48Z</time>
      </trkpt>
      <trkpt lat="47.85129" lon="6.68869">
        <ele>681.2</ele>
        <time>2022-06-29T08:08:51Z</time>
      </trkpt>
      <trkpt lat="47.85123" lon="6.68868">
        <ele>680.6</ele>
        <time>2022-06-29T08:08:55Z</time>
      </trkpt>
      <trkpt lat="47.85119" lon="6.68867">
        <ele>680.1</ele>
        <time>2022-06-29T08:08:58Z</time>
      </trkpt>
      <trkpt lat="47.85114" lon="6.68863">
        <ele>679.5</ele>
        <time>2022-06-29T08:09:01Z</time>
      </trkpt>
      <trkpt lat="47.8511" lon="6.68856">
        <ele>678.8</ele>
        <time>2022-06-29T08:09:04Z</time>
      </trkpt>
      <trkpt lat="47.85108" lon="6.6885">
        <ele>678.1</ele>
        <time>2022-06-29T08:09:07Z</time>
      </trkpt>
      <trkpt lat="47.85107" lon="6.68842">
        <ele>677.3</ele>
        <time>2022-06-29T08:09:11Z</time>
      </trkpt>
      <trkpt lat="47.85111" lon="6.68836">
        <ele>675.9</ele>
        <time>2022-06-29T08:09:16Z</time>
      </trkpt>
      <trkpt lat="47.85112" lon="6.68829">
        <ele>674.4</ele>
        <time>2022-06-29T08:09:22Z</time>
      </trkpt>
      <trkpt lat="47.85113" lon="6.68822">
        <ele>673.4</ele>
        <time>2022-06-29T08:09:27Z</time>
      </trkpt>
      <trkpt lat="47.85113" lon="6.68815">
        <ele>673.3</ele>
        <time>2022-06-29T08:09:30Z</time>
      </trkpt>
      <trkpt lat="47.85113" lon="6.68807">
        <ele>673.3</ele>
        <time>2022-06-29T08:09:34Z</time>
      </trkpt>
      <trkpt lat="47.85114" lon="6.68798">
        <ele>672.9</ele>
        <time>2022-06-29T08:09:38Z</time>
      </trkpt>
      <trkpt lat="47.85113" lon="6.68791">
        <ele>672.4</ele>
        <time>2022-06-29T08:09:42Z</time>
      </trkpt>
      <trkpt lat="47.85111" lon="6.68783">
        <ele>669.8</ele>
        <time>2022-06-29T08:09:52Z</time>
      </trkpt>
      <trkpt lat="47.85109" lon="6.68774">
        <ele>669</ele>
        <time>2022-06-29T08:09:56Z</time>
      </trkpt>
      <trkpt lat="47.85107" lon="6.68768">
        <ele>668.4</ele>
        <time>2022-06-29T08:09:59Z</time>
      </trkpt>
      <trkpt lat="47.85104" lon="6.68763">
        <ele>668</ele>
        <time>2022-06-29T08:10:02Z</time>
      </trkpt>
      <trkpt lat="47.851" lon="6.68756">
        <ele>667.8</ele>
        <time>2022-06-29T08:10:06Z</time>
      </trkpt>
      <trkpt lat="47.85097" lon="6.6875">
        <ele>667.8</ele>
        <time>2022-06-29T08:10:09Z</time>
      </trkpt>
      <trkpt lat="47.85093" lon="6.68747">
        <ele>667.8</ele>
        <time>2022-06-29T08:10:12Z</time>
      </trkpt>
      <trkpt lat="47.85087" lon="6.68746">
        <ele>667.4</ele>
        <time>2022-06-29T08:10:17Z</time>
      </trkpt>
      <trkpt lat="47.85082" lon="6.68747">
        <ele>666.8</ele>
        <time>2022-06-29T08:10:21Z</time>
      </trkpt>
      <trkpt lat="47.85077" lon="6.68745">
        <ele>666</ele>
        <time>2022-06-29T08:10:25Z</time>
      </trkpt>
      <trkpt lat="47.85074" lon="6.68739">
        <ele>665.2</ele>
        <time>2022-06-29T08:10:29Z</time>
      </trkpt>
      <trkpt lat="47.8507" lon="6.68733">
        <ele>664.4</ele>
        <time>2022-06-29T08:10:33Z</time>
      </trkpt>
      <trkpt lat="47.85067" lon="6.68728">
        <ele>664</ele>
        <time>2022-06-29T08:10:36Z</time>
      </trkpt>
      <trkpt lat="47.85064" lon="6.68722">
        <ele>663.9</ele>
        <time>2022-06-29T08:10:41Z</time>
      </trkpt>
      <trkpt lat="47.85061" lon="6.68717">
        <ele>663.7</ele>
        <time>2022-06-29T08:10:45Z</time>
      </trkpt>
      <trkpt lat="47.85056" lon="6.68717">
        <ele>663.1</ele>
        <time>2022-06-29T08:10:49Z</time>
      </trkpt>
      <trkpt lat="47.85051" lon="6.68717">
        <ele>661.8</ele>
        <time>2022-06-29T08:10:54Z</time>
      </trkpt>
      <trkpt lat="47.85046" lon="6.68716">
        <ele>660.5</ele>
        <time>2022-06-29T08:10:59Z</time>
      </trkpt>
      <trkpt lat="47.85041" lon="6.68715">
        <ele>658</ele>
        <time>2022-06-29T08:11:07Z</time>
      </trkpt>
      <trkpt lat="47.85038" lon="6.68721">
        <ele>657.4</ele>
        <time>2022-06-29T08:11:10Z</time>
      </trkpt>
      <trkpt lat="47.85035" lon="6.68727">
        <ele>657</ele>
        <time>2022-06-29T08:11:13Z</time>
      </trkpt>
      <trkpt lat="47.85032" lon="6.68732">
        <ele>656.4</ele>
        <time>2022-06-29T08:11:16Z</time>
      </trkpt>
      <trkpt lat="47.85028" lon="6.68733">
        <ele>655.4</ele>
        <time>2022-06-29T08:11:27Z</time>
      </trkpt>
      <trkpt lat="47.85024" lon="6.68735">
        <ele>655.1</ele>
        <time>2022-06-29T08:11:35Z</time>
      </trkpt>
      <trkpt lat="47.85026" lon="6.68741">
        <ele>656.5</ele>
        <time>2022-06-29T08:11:44Z</time>
      </trkpt>
      <trkpt lat="47.85023" lon="6.68735">
        <ele>658</ele>
        <time>2022-06-29T08:11:52Z</time>
      </trkpt>
      <trkpt lat="47.85024" lon="6.68724">
        <ele>658.7</ele>
        <time>2022-06-29T08:11:55Z</time>
      </trkpt>
      <trkpt lat="47.85025" lon="6.68717">
        <ele>660.1</ele>
        <time>2022-06-29T08:12:00Z</time>
      </trkpt>
      <trkpt lat="47.85019" lon="6.68716">
        <ele>662.3</ele>
        <time>2022-06-29T08:12:07Z</time>
      </trkpt>
      <trkpt lat="47.85014" lon="6.68713">
        <ele>663.2</ele>
        <time>2022-06-29T08:12:12Z</time>
      </trkpt>
      <trkpt lat="47.85011" lon="6.68709">
        <ele>663.9</ele>
        <time>2022-06-29T08:12:16Z</time>
      </trkpt>
      <trkpt lat="47.85007" lon="6.68704">
        <ele>664.6</ele>
        <time>2022-06-29T08:12:21Z</time>
      </trkpt>
      <trkpt lat="47.85006" lon="6.68697">
        <ele>665.2</ele>
        <time>2022-06-29T08:12:27Z</time>
      </trkpt>
      <trkpt lat="47.85003" lon="6.68691">
        <ele>665.8</ele>
        <time>2022-06-29T08:12:32Z</time>
      </trkpt>
      <trkpt lat="47.84996" lon="6.68686">
        <ele>666.3</ele>
        <time>2022-06-29T08:12:35Z</time>
      </trkpt>
      <trkpt lat="47.8499" lon="6.68681">
        <ele>666.8</ele>
        <time>2022-06-29T08:12:38Z</time>
      </trkpt>
      <trkpt lat="47.84986" lon="6.68678">
        <ele>667.3</ele>
        <time>2022-06-29T08:12:41Z</time>
      </trkpt>
      <trkpt lat="47.84981" lon="6.68676">
        <ele>668.4</ele>
        <time>2022-06-29T08:12:55Z</time>
      </trkpt>
      <trkpt lat="47.84977" lon="6.68678">
        <ele>668.9</ele>
        <time>2022-06-29T08:13:00Z</time>
      </trkpt>
      <trkpt lat="47.84971" lon="6.68675">
        <ele>669.3</ele>
        <time>2022-06-29T08:13:04Z</time>
      </trkpt>
      <trkpt lat="47.84967" lon="6.68672">
        <ele>670.4</ele>
        <time>2022-06-29T08:13:09Z</time>
      </trkpt>
      <trkpt lat="47.84972" lon="6.68674">
        <ele>670.4</ele>
        <time>2022-06-29T08:13:20Z</time>
      </trkpt>
      <trkpt lat="47.84977" lon="6.68675">
        <ele>669.8</ele>
        <time>2022-06-29T08:13:23Z</time>
      </trkpt>
      <trkpt lat="47.84981" lon="6.68678">
        <ele>668.8</ele>
        <time>2022-06-29T08:13:26Z</time>
      </trkpt>
      <trkpt lat="47.84987" lon="6.68681">
        <ele>668</ele>
        <time>2022-06-29T08:13:29Z</time>
      </trkpt>
      <trkpt lat="47.84992" lon="6.68684">
        <ele>667.5</ele>
        <time>2022-06-29T08:13:32Z</time>
      </trkpt>
      <trkpt lat="47.84998" lon="6.68686">
        <ele>667</ele>
        <time>2022-06-29T08:13:35Z</time>
      </trkpt>
      <trkpt lat="47.85002" lon="6.68688">
        <ele>666.6</ele>
        <time>2022-06-29T08:13:38Z</time>
      </trkpt>
      <trkpt lat="47.85007" lon="6.6869">
        <ele>666.3</ele>
        <time>2022-06-29T08:13:42Z</time>
      </trkpt>
      <trkpt lat="47.8501" lon="6.68695">
        <ele>666.2</ele>
        <time>2022-06-29T08:13:48Z</time>
      </trkpt>
      <trkpt lat="47.85015" lon="6.68693">
        <ele>666.4</ele>
        <time>2022-06-29T08:13:55Z</time>
      </trkpt>
      <trkpt lat="47.85019" lon="6.68689">
        <ele>666.7</ele>
        <time>2022-06-29T08:14:01Z</time>
      </trkpt>
      <trkpt lat="47.85024" lon="6.68686">
        <ele>666</ele>
        <time>2022-06-29T08:14:09Z</time>
      </trkpt>
      <trkpt lat="47.85028" lon="6.68682">
        <ele>665.6</ele>
        <time>2022-06-29T08:14:12Z</time>
      </trkpt>
      <trkpt lat="47.85033" lon="6.68677">
        <ele>665.1</ele>
        <time>2022-06-29T08:14:16Z</time>
      </trkpt>
      <trkpt lat="47.85036" lon="6.68671">
        <ele>665.1</ele>
        <time>2022-06-29T08:14:19Z</time>
      </trkpt>
      <trkpt lat="47.8504" lon="6.68665">
        <ele>665.1</ele>
        <time>2022-06-29T08:14:22Z</time>
      </trkpt>
      <trkpt lat="47.85042" lon="6.68657">
        <ele>664.8</ele>
        <time>2022-06-29T08:14:27Z</time>
      </trkpt>
      <trkpt lat="47.85047" lon="6.68656">
        <ele>664.1</ele>
        <time>2022-06-29T08:14:37Z</time>
      </trkpt>
      <trkpt lat="47.85053" lon="6.68654">
        <ele>664.4</ele>
        <time>2022-06-29T08:14:44Z</time>
      </trkpt>
      <trkpt lat="47.85059" lon="6.68649">
        <ele>664.7</ele>
        <time>2022-06-29T08:14:47Z</time>
      </trkpt>
      <trkpt lat="47.85062" lon="6.68643">
        <ele>665.1</ele>
        <time>2022-06-29T08:14:50Z</time>
      </trkpt>
      <trkpt lat="47.8506" lon="6.68636">
        <ele>665.8</ele>
        <time>2022-06-29T08:14:56Z</time>
      </trkpt>
      <trkpt lat="47.85061" lon="6.68629">
        <ele>666.3</ele>
        <time>2022-06-29T08:15:09Z</time>
      </trkpt>
      <trkpt lat="47.8506" lon="6.6862">
        <ele>666.1</ele>
        <time>2022-06-29T08:15:14Z</time>
      </trkpt>
      <trkpt lat="47.85058" lon="6.68613">
        <ele>666.2</ele>
        <time>2022-06-29T08:15:18Z</time>
      </trkpt>
      <trkpt lat="47.85054" lon="6.68607">
        <ele>666.6</ele>
        <time>2022-06-29T08:15:23Z</time>
      </trkpt>
      <trkpt lat="47.85054" lon="6.68599">
        <ele>667.4</ele>
        <time>2022-06-29T08:15:28Z</time>
      </trkpt>
      <trkpt lat="47.85053" lon="6.68592">
        <ele>668</ele>
        <time>2022-06-29T08:15:32Z</time>
      </trkpt>
      <trkpt lat="47.85052" lon="6.68584">
        <ele>668.6</ele>
        <time>2022-06-29T08:15:36Z</time>
      </trkpt>
      <trkpt lat="47.85053" lon="6.68577">
        <ele>669.1</ele>
        <time>2022-06-29T08:15:42Z</time>
      </trkpt>
      <trkpt lat="47.8505" lon="6.68571">
        <ele>669.1</ele>
        <time>2022-06-29T08:15:48Z</time>
      </trkpt>
      <trkpt lat="47.85047" lon="6.68566">
        <ele>668.6</ele>
        <time>2022-06-29T08:15:53Z</time>
      </trkpt>
      <trkpt lat="47.85049" lon="6.68558">
        <ele>667.5</ele>
        <time>2022-06-29T08:15:59Z</time>
      </trkpt>
      <trkpt lat="47.85051" lon="6.68552">
        <ele>666.5</ele>
        <time>2022-06-29T08:16:04Z</time>
      </trkpt>
      <trkpt lat="47.85054" lon="6.68546">
        <ele>665.8</ele>
        <time>2022-06-29T08:16:08Z</time>
      </trkpt>
      <trkpt lat="47.85058" lon="6.68542">
        <ele>665.3</ele>
        <time>2022-06-29T08:16:11Z</time>
      </trkpt>
      <trkpt lat="47.85063" lon="6.68536">
        <ele>664.8</ele>
        <time>2022-06-29T08:16:15Z</time>
      </trkpt>
      <trkpt lat="47.85066" lon="6.68531">
        <ele>664.7</ele>
        <time>2022-06-29T08:16:19Z</time>
      </trkpt>
      <trkpt lat="47.85069" lon="6.68525">
        <ele>664.8</ele>
        <time>2022-06-29T08:16:24Z</time>
      </trkpt>
      <trkpt lat="47.85073" lon="6.68523">
        <ele>665</ele>
        <time>2022-06-29T08:16:28Z</time>
      </trkpt>
      <trkpt lat="47.85079" lon="6.6852">
        <ele>665.6</ele>
        <time>2022-06-29T08:16:32Z</time>
      </trkpt>
      <trkpt lat="47.85083" lon="6.68517">
        <ele>666.3</ele>
        <time>2022-06-29T08:16:39Z</time>
      </trkpt>
      <trkpt lat="47.85087" lon="6.68512">
        <ele>666.2</ele>
        <time>2022-06-29T08:16:44Z</time>
      </trkpt>
      <trkpt lat="47.85089" lon="6.68506">
        <ele>666</ele>
        <time>2022-06-29T08:16:55Z</time>
      </trkpt>
      <trkpt lat="47.85093" lon="6.68501">
        <ele>665.9</ele>
        <time>2022-06-29T08:16:59Z</time>
      </trkpt>
      <trkpt lat="47.85097" lon="6.68497">
        <ele>665.6</ele>
        <time>2022-06-29T08:17:03Z</time>
      </trkpt>
      <trkpt lat="47.851" lon="6.6849">
        <ele>665.3</ele>
        <time>2022-06-29T08:17:08Z</time>
      </trkpt>
      <trkpt lat="47.85102" lon="6.68483">
        <ele>664.7</ele>
        <time>2022-06-29T08:17:13Z</time>
      </trkpt>
      <trkpt lat="47.85106" lon="6.68479">
        <ele>663.8</ele>
        <time>2022-06-29T08:17:19Z</time>
      </trkpt>
      <trkpt lat="47.85108" lon="6.68472">
        <ele>663</ele>
        <time>2022-06-29T08:17:27Z</time>
      </trkpt>
      <trkpt lat="47.85113" lon="6.68472">
        <ele>662.4</ele>
        <time>2022-06-29T08:17:35Z</time>
      </trkpt>
      <trkpt lat="47.85116" lon="6.68466">
        <ele>662</ele>
        <time>2022-06-29T08:17:40Z</time>
      </trkpt>
      <trkpt lat="47.85118" lon="6.68459">
        <ele>661.8</ele>
        <time>2022-06-29T08:17:44Z</time>
      </trkpt>
      <trkpt lat="47.85119" lon="6.68452">
        <ele>661.7</ele>
        <time>2022-06-29T08:17:47Z</time>
      </trkpt>
      <trkpt lat="47.8512" lon="6.68445">
        <ele>661.7</ele>
        <time>2022-06-29T08:17:50Z</time>
      </trkpt>
      <trkpt lat="47.85123" lon="6.6844">
        <ele>661.9</ele>
        <time>2022-06-29T08:17:57Z</time>
      </trkpt>
      <trkpt lat="47.85124" lon="6.68433">
        <ele>661.5</ele>
        <time>2022-06-29T08:18:01Z</time>
      </trkpt>
      <trkpt lat="47.85126" lon="6.68425">
        <ele>661</ele>
        <time>2022-06-29T08:18:05Z</time>
      </trkpt>
      <trkpt lat="47.85128" lon="6.68418">
        <ele>659</ele>
        <time>2022-06-29T08:18:11Z</time>
      </trkpt>
      <trkpt lat="47.8513" lon="6.6841">
        <ele>656.4</ele>
        <time>2022-06-29T08:18:19Z</time>
      </trkpt>
      <trkpt lat="47.8513" lon="6.68403">
        <ele>655.9</ele>
        <time>2022-06-29T08:18:23Z</time>
      </trkpt>
      <trkpt lat="47.8513" lon="6.68394">
        <ele>655.9</ele>
        <time>2022-06-29T08:18:27Z</time>
      </trkpt>
      <trkpt lat="47.85131" lon="6.68387">
        <ele>656.9</ele>
        <time>2022-06-29T08:18:34Z</time>
      </trkpt>
      <trkpt lat="47.85133" lon="6.68381">
        <ele>654.6</ele>
        <time>2022-06-29T08:19:00Z</time>
      </trkpt>
      <trkpt lat="47.85136" lon="6.68376">
        <ele>653.9</ele>
        <time>2022-06-29T08:19:06Z</time>
      </trkpt>
      <trkpt lat="47.85136" lon="6.68383">
        <ele>656.6</ele>
        <time>2022-06-29T08:19:39Z</time>
      </trkpt>
      <trkpt lat="47.85139" lon="6.68378">
        <ele>656.4</ele>
        <time>2022-06-29T08:19:49Z</time>
      </trkpt>
      <trkpt lat="47.85137" lon="6.68384">
        <ele>656.6</ele>
        <time>2022-06-29T08:19:56Z</time>
      </trkpt>
      <trkpt lat="47.85135" lon="6.68379">
        <ele>655.8</ele>
        <time>2022-06-29T08:22:58Z</time>
      </trkpt>
      <trkpt lat="47.8513" lon="6.68376">
        <ele>656</ele>
        <time>2022-06-29T08:23:03Z</time>
      </trkpt>
      <trkpt lat="47.85127" lon="6.68371">
        <ele>655.7</ele>
        <time>2022-06-29T08:23:10Z</time>
      </trkpt>
      <trkpt lat="47.85123" lon="6.68367">
        <ele>655.7</ele>
        <time>2022-06-29T08:23:17Z</time>
      </trkpt>
      <trkpt lat="47.85119" lon="6.68362">
        <ele>655.9</ele>
        <time>2022-06-29T08:23:22Z</time>
      </trkpt>
      <trkpt lat="47.85116" lon="6.68357">
        <ele>656.2</ele>
        <time>2022-06-29T08:23:26Z</time>
      </trkpt>
      <trkpt lat="47.85112" lon="6.68351">
        <ele>656.5</ele>
        <time>2022-06-29T08:23:30Z</time>
      </trkpt>
      <trkpt lat="47.85108" lon="6.68347">
        <ele>656.8</ele>
        <time>2022-06-29T08:23:35Z</time>
      </trkpt>
      <trkpt lat="47.85105" lon="6.68342">
        <ele>657.2</ele>
        <time>2022-06-29T08:23:40Z</time>
      </trkpt>
      <trkpt lat="47.85101" lon="6.68337">
        <ele>657.6</ele>
        <time>2022-06-29T08:23:44Z</time>
      </trkpt>
      <trkpt lat="47.85097" lon="6.68333">
        <ele>658.1</ele>
        <time>2022-06-29T08:23:48Z</time>
      </trkpt>
      <trkpt lat="47.85094" lon="6.68329">
        <ele>658.2</ele>
        <time>2022-06-29T08:23:54Z</time>
      </trkpt>
      <trkpt lat="47.8509" lon="6.68323">
        <ele>658</ele>
        <time>2022-06-29T08:23:59Z</time>
      </trkpt>
      <trkpt lat="47.85087" lon="6.68318">
        <ele>657.7</ele>
        <time>2022-06-29T08:24:03Z</time>
      </trkpt>
      <trkpt lat="47.85083" lon="6.68313">
        <ele>657.3</ele>
        <time>2022-06-29T08:24:07Z</time>
      </trkpt>
      <trkpt lat="47.85079" lon="6.68309">
        <ele>656.5</ele>
        <time>2022-06-29T08:24:12Z</time>
      </trkpt>
      <trkpt lat="47.85075" lon="6.68304">
        <ele>656.2</ele>
        <time>2022-06-29T08:24:17Z</time>
      </trkpt>
      <trkpt lat="47.85071" lon="6.683">
        <ele>656</ele>
        <time>2022-06-29T08:24:21Z</time>
      </trkpt>
      <trkpt lat="47.85067" lon="6.68295">
        <ele>656.1</ele>
        <time>2022-06-29T08:24:26Z</time>
      </trkpt>
      <trkpt lat="47.85062" lon="6.68292">
        <ele>655.7</ele>
        <time>2022-06-29T08:24:32Z</time>
      </trkpt>
      <trkpt lat="47.85058" lon="6.68292">
        <ele>655.6</ele>
        <time>2022-06-29T08:24:36Z</time>
      </trkpt>
      <trkpt lat="47.85052" lon="6.68291">
        <ele>655.6</ele>
        <time>2022-06-29T08:24:40Z</time>
      </trkpt>
      <trkpt lat="47.85047" lon="6.68289">
        <ele>655.5</ele>
        <time>2022-06-29T08:24:45Z</time>
      </trkpt>
      <trkpt lat="47.85043" lon="6.68286">
        <ele>655.4</ele>
        <time>2022-06-29T08:24:50Z</time>
      </trkpt>
      <trkpt lat="47.85039" lon="6.68283">
        <ele>655.5</ele>
        <time>2022-06-29T08:24:54Z</time>
      </trkpt>
      <trkpt lat="47.85034" lon="6.6828">
        <ele>655.4</ele>
        <time>2022-06-29T08:24:58Z</time>
      </trkpt>
      <trkpt lat="47.8503" lon="6.68274">
        <ele>655.2</ele>
        <time>2022-06-29T08:25:03Z</time>
      </trkpt>
      <trkpt lat="47.85027" lon="6.6827">
        <ele>655.1</ele>
        <time>2022-06-29T08:25:07Z</time>
      </trkpt>
      <trkpt lat="47.85023" lon="6.68266">
        <ele>655</ele>
        <time>2022-06-29T08:25:11Z</time>
      </trkpt>
      <trkpt lat="47.85019" lon="6.68262">
        <ele>655.1</ele>
        <time>2022-06-29T08:25:16Z</time>
      </trkpt>
      <trkpt lat="47.85014" lon="6.68258">
        <ele>655.2</ele>
        <time>2022-06-29T08:25:21Z</time>
      </trkpt>
      <trkpt lat="47.85011" lon="6.68252">
        <ele>655.1</ele>
        <time>2022-06-29T08:25:26Z</time>
      </trkpt>
      <trkpt lat="47.85007" lon="6.68245">
        <ele>655</ele>
        <time>2022-06-29T08:25:30Z</time>
      </trkpt>
      <trkpt lat="47.85004" lon="6.6824">
        <ele>654.9</ele>
        <time>2022-06-29T08:25:34Z</time>
      </trkpt>
      <trkpt lat="47.85" lon="6.68237">
        <ele>655</ele>
        <time>2022-06-29T08:25:38Z</time>
      </trkpt>
      <trkpt lat="47.84995" lon="6.68234">
        <ele>655.5</ele>
        <time>2022-06-29T08:25:43Z</time>
      </trkpt>
      <trkpt lat="47.8499" lon="6.68232">
        <ele>656</ele>
        <time>2022-06-29T08:25:47Z</time>
      </trkpt>
      <trkpt lat="47.84986" lon="6.68228">
        <ele>656.8</ele>
        <time>2022-06-29T08:25:51Z</time>
      </trkpt>
      <trkpt lat="47.84981" lon="6.68224">
        <ele>657.6</ele>
        <time>2022-06-29T08:25:56Z</time>
      </trkpt>
      <trkpt lat="47.84977" lon="6.68218">
        <ele>658.3</ele>
        <time>2022-06-29T08:26:00Z</time>
      </trkpt>
      <trkpt lat="47.84973" lon="6.68214">
        <ele>658.9</ele>
        <time>2022-06-29T08:26:03Z</time>
      </trkpt>
      <trkpt lat="47.8497" lon="6.68208">
        <ele>659.7</ele>
        <time>2022-06-29T08:26:08Z</time>
      </trkpt>
      <trkpt lat="47.84964" lon="6.68205">
        <ele>660.5</ele>
        <time>2022-06-29T08:26:12Z</time>
      </trkpt>
      <trkpt lat="47.84959" lon="6.68204">
        <ele>661.2</ele>
        <time>2022-06-29T08:26:17Z</time>
      </trkpt>
      <trkpt lat="47.84954" lon="6.68205">
        <ele>661.6</ele>
        <time>2022-06-29T08:26:22Z</time>
      </trkpt>
      <trkpt lat="47.84949" lon="6.68204">
        <ele>661.5</ele>
        <time>2022-06-29T08:26:26Z</time>
      </trkpt>
      <trkpt lat="47.84943" lon="6.68204">
        <ele>661.6</ele>
        <time>2022-06-29T08:26:31Z</time>
      </trkpt>
      <trkpt lat="47.84937" lon="6.68205">
        <ele>661.7</ele>
        <time>2022-06-29T08:26:35Z</time>
      </trkpt>
      <trkpt lat="47.84932" lon="6.68206">
        <ele>661.6</ele>
        <time>2022-06-29T08:26:40Z</time>
      </trkpt>
      <trkpt lat="47.84928" lon="6.68207">
        <ele>661.4</ele>
        <time>2022-06-29T08:26:44Z</time>
      </trkpt>
      <trkpt lat="47.84922" lon="6.68207">
        <ele>661.5</ele>
        <time>2022-06-29T08:26:49Z</time>
      </trkpt>
      <trkpt lat="47.84918" lon="6.68209">
        <ele>661.4</ele>
        <time>2022-06-29T08:26:53Z</time>
      </trkpt>
      <trkpt lat="47.84913" lon="6.68211">
        <ele>661.5</ele>
        <time>2022-06-29T08:26:56Z</time>
      </trkpt>
      <trkpt lat="47.84909" lon="6.68214">
        <ele>662.2</ele>
        <time>2022-06-29T08:27:00Z</time>
      </trkpt>
      <trkpt lat="47.84904" lon="6.68216">
        <ele>663.1</ele>
        <time>2022-06-29T08:27:04Z</time>
      </trkpt>
      <trkpt lat="47.849" lon="6.6822">
        <ele>663.5</ele>
        <time>2022-06-29T08:27:09Z</time>
      </trkpt>
      <trkpt lat="47.84895" lon="6.68222">
        <ele>663.5</ele>
        <time>2022-06-29T08:27:13Z</time>
      </trkpt>
      <trkpt lat="47.8489" lon="6.68222">
        <ele>663.2</ele>
        <time>2022-06-29T08:27:17Z</time>
      </trkpt>
      <trkpt lat="47.84885" lon="6.68221">
        <ele>663.1</ele>
        <time>2022-06-29T08:27:20Z</time>
      </trkpt>
      <trkpt lat="47.84881" lon="6.68218">
        <ele>663.2</ele>
        <time>2022-06-29T08:27:24Z</time>
      </trkpt>
      <trkpt lat="47.84876" lon="6.68216">
        <ele>664</ele>
        <time>2022-06-29T08:27:30Z</time>
      </trkpt>
      <trkpt lat="47.84871" lon="6.68213">
        <ele>664.6</ele>
        <time>2022-06-29T08:27:36Z</time>
      </trkpt>
      <trkpt lat="47.84867" lon="6.6821">
        <ele>665.3</ele>
        <time>2022-06-29T08:27:41Z</time>
      </trkpt>
      <trkpt lat="47.84863" lon="6.68205">
        <ele>665.9</ele>
        <time>2022-06-29T08:27:46Z</time>
      </trkpt>
      <trkpt lat="47.84861" lon="6.68199">
        <ele>665.9</ele>
        <time>2022-06-29T08:27:50Z</time>
      </trkpt>
      <trkpt lat="47.84859" lon="6.68192">
        <ele>665.8</ele>
        <time>2022-06-29T08:27:54Z</time>
      </trkpt>
      <trkpt lat="47.84856" lon="6.68187">
        <ele>665.1</ele>
        <time>2022-06-29T08:28:00Z</time>
      </trkpt>
      <trkpt lat="47.84851" lon="6.68185">
        <ele>664.5</ele>
        <time>2022-06-29T08:28:05Z</time>
      </trkpt>
      <trkpt lat="47.84846" lon="6.68183">
        <ele>664</ele>
        <time>2022-06-29T08:28:09Z</time>
      </trkpt>
      <trkpt lat="47.84841" lon="6.68182">
        <ele>663.3</ele>
        <time>2022-06-29T08:28:13Z</time>
      </trkpt>
      <trkpt lat="47.84836" lon="6.6818">
        <ele>662.7</ele>
        <time>2022-06-29T08:28:18Z</time>
      </trkpt>
      <trkpt lat="47.84831" lon="6.68183">
        <ele>661.1</ele>
        <time>2022-06-29T08:28:24Z</time>
      </trkpt>
      <trkpt lat="47.84827" lon="6.68185">
        <ele>657.8</ele>
        <time>2022-06-29T08:28:33Z</time>
      </trkpt>
      <trkpt lat="47.84823" lon="6.6819">
        <ele>654.8</ele>
        <time>2022-06-29T08:28:41Z</time>
      </trkpt>
      <trkpt lat="47.84823" lon="6.68198">
        <ele>653</ele>
        <time>2022-06-29T08:28:46Z</time>
      </trkpt>
      <trkpt lat="47.84822" lon="6.68205">
        <ele>651.5</ele>
        <time>2022-06-29T08:28:51Z</time>
      </trkpt>
      <trkpt lat="47.84822" lon="6.68212">
        <ele>650.6</ele>
        <time>2022-06-29T08:28:56Z</time>
      </trkpt>
      <trkpt lat="47.84822" lon="6.68221">
        <ele>650.7</ele>
        <time>2022-06-29T08:29:00Z</time>
      </trkpt>
      <trkpt lat="47.84822" lon="6.68229">
        <ele>651.8</ele>
        <time>2022-06-29T08:29:05Z</time>
      </trkpt>
      <trkpt lat="47.84824" lon="6.68237">
        <ele>652.8</ele>
        <time>2022-06-29T08:29:09Z</time>
      </trkpt>
      <trkpt lat="47.84825" lon="6.68243">
        <ele>653.7</ele>
        <time>2022-06-29T08:29:13Z</time>
      </trkpt>
      <trkpt lat="47.84826" lon="6.6825">
        <ele>654.7</ele>
        <time>2022-06-29T08:29:17Z</time>
      </trkpt>
      <trkpt lat="47.84826" lon="6.68257">
        <ele>656.4</ele>
        <time>2022-06-29T08:29:22Z</time>
      </trkpt>
      <trkpt lat="47.84825" lon="6.68264">
        <ele>657.7</ele>
        <time>2022-06-29T08:29:27Z</time>
      </trkpt>
      <trkpt lat="47.84823" lon="6.6827">
        <ele>658.7</ele>
        <time>2022-06-29T08:29:33Z</time>
      </trkpt>
      <trkpt lat="47.84821" lon="6.68276">
        <ele>659.6</ele>
        <time>2022-06-29T08:29:38Z</time>
      </trkpt>
      <trkpt lat="47.84822" lon="6.68284">
        <ele>659.9</ele>
        <time>2022-06-29T08:29:42Z</time>
      </trkpt>
      <trkpt lat="47.84824" lon="6.68291">
        <ele>660</ele>
        <time>2022-06-29T08:29:46Z</time>
      </trkpt>
      <trkpt lat="47.84825" lon="6.68299">
        <ele>660.2</ele>
        <time>2022-06-29T08:29:50Z</time>
      </trkpt>
      <trkpt lat="47.84826" lon="6.68308">
        <ele>660.1</ele>
        <time>2022-06-29T08:29:54Z</time>
      </trkpt>
      <trkpt lat="47.84829" lon="6.68314">
        <ele>659.9</ele>
        <time>2022-06-29T08:29:59Z</time>
      </trkpt>
      <trkpt lat="47.84832" lon="6.6832">
        <ele>659.6</ele>
        <time>2022-06-29T08:30:04Z</time>
      </trkpt>
      <trkpt lat="47.84833" lon="6.68326">
        <ele>659.3</ele>
        <time>2022-06-29T08:30:08Z</time>
      </trkpt>
      <trkpt lat="47.84836" lon="6.68334">
        <ele>658.9</ele>
        <time>2022-06-29T08:30:12Z</time>
      </trkpt>
      <trkpt lat="47.84839" lon="6.68341">
        <ele>658.5</ele>
        <time>2022-06-29T08:30:15Z</time>
      </trkpt>
      <trkpt lat="47.84841" lon="6.68349">
        <ele>658.1</ele>
        <time>2022-06-29T08:30:19Z</time>
      </trkpt>
      <trkpt lat="47.84843" lon="6.68355">
        <ele>658</ele>
        <time>2022-06-29T08:30:22Z</time>
      </trkpt>
      <trkpt lat="47.84846" lon="6.68363">
        <ele>657.8</ele>
        <time>2022-06-29T08:30:26Z</time>
      </trkpt>
      <trkpt lat="47.84849" lon="6.68369">
        <ele>657.8</ele>
        <time>2022-06-29T08:30:30Z</time>
      </trkpt>
      <trkpt lat="47.84851" lon="6.68376">
        <ele>658</ele>
        <time>2022-06-29T08:30:34Z</time>
      </trkpt>
      <trkpt lat="47.84852" lon="6.68384">
        <ele>658.2</ele>
        <time>2022-06-29T08:30:39Z</time>
      </trkpt>
      <trkpt lat="47.84855" lon="6.68391">
        <ele>658.5</ele>
        <time>2022-06-29T08:30:43Z</time>
      </trkpt>
      <trkpt lat="47.84854" lon="6.68398">
        <ele>658.7</ele>
        <time>2022-06-29T08:30:46Z</time>
      </trkpt>
      <trkpt lat="47.84853" lon="6.68406">
        <ele>658.8</ele>
        <time>2022-06-29T08:30:50Z</time>
      </trkpt>
      <trkpt lat="47.8485" lon="6.68413">
        <ele>658.9</ele>
        <time>2022-06-29T08:30:54Z</time>
      </trkpt>
      <trkpt lat="47.84847" lon="6.68418">
        <ele>658.7</ele>
        <time>2022-06-29T08:30:58Z</time>
      </trkpt>
      <trkpt lat="47.84846" lon="6.68425">
        <ele>658.4</ele>
        <time>2022-06-29T08:31:04Z</time>
      </trkpt>
      <trkpt lat="47.84844" lon="6.68432">
        <ele>658.5</ele>
        <time>2022-06-29T08:31:10Z</time>
      </trkpt>
      <trkpt lat="47.84844" lon="6.68439">
        <ele>658.8</ele>
        <time>2022-06-29T08:31:15Z</time>
      </trkpt>
      <trkpt lat="47.84844" lon="6.68448">
        <ele>658.8</ele>
        <time>2022-06-29T08:31:18Z</time>
      </trkpt>
      <trkpt lat="47.84844" lon="6.68457">
        <ele>658.9</ele>
        <time>2022-06-29T08:31:21Z</time>
      </trkpt>
      <trkpt lat="47.84845" lon="6.68465">
        <ele>658.7</ele>
        <time>2022-06-29T08:31:25Z</time>
      </trkpt>
      <trkpt lat="47.84848" lon="6.68472">
        <ele>658.4</ele>
        <time>2022-06-29T08:31:29Z</time>
      </trkpt>
      <trkpt lat="47.84852" lon="6.68478">
        <ele>658.3</ele>
        <time>2022-06-29T08:31:33Z</time>
      </trkpt>
      <trkpt lat="47.84854" lon="6.68483">
        <ele>658.2</ele>
        <time>2022-06-29T08:31:37Z</time>
      </trkpt>
      <trkpt lat="47.84857" lon="6.6849">
        <ele>658.2</ele>
        <time>2022-06-29T08:31:42Z</time>
      </trkpt>
      <trkpt lat="47.84859" lon="6.68497">
        <ele>657.9</ele>
        <time>2022-06-29T08:31:47Z</time>
      </trkpt>
      <trkpt lat="47.84861" lon="6.68504">
        <ele>657.5</ele>
        <time>2022-06-29T08:31:52Z</time>
      </trkpt>
      <trkpt lat="47.84864" lon="6.68509">
        <ele>657</ele>
        <time>2022-06-29T08:31:57Z</time>
      </trkpt>
      <trkpt lat="47.84867" lon="6.68516">
        <ele>656.3</ele>
        <time>2022-06-29T08:32:03Z</time>
      </trkpt>
      <trkpt lat="47.8487" lon="6.68521">
        <ele>655.9</ele>
        <time>2022-06-29T08:32:07Z</time>
      </trkpt>
      <trkpt lat="47.84873" lon="6.68527">
        <ele>655.5</ele>
        <time>2022-06-29T08:32:11Z</time>
      </trkpt>
      <trkpt lat="47.84876" lon="6.68534">
        <ele>654.9</ele>
        <time>2022-06-29T08:32:15Z</time>
      </trkpt>
      <trkpt lat="47.84878" lon="6.6854">
        <ele>654.7</ele>
        <time>2022-06-29T08:32:19Z</time>
      </trkpt>
      <trkpt lat="47.84881" lon="6.68547">
        <ele>654.8</ele>
        <time>2022-06-29T08:32:23Z</time>
      </trkpt>
      <trkpt lat="47.84884" lon="6.68552">
        <ele>654.9</ele>
        <time>2022-06-29T08:32:26Z</time>
      </trkpt>
      <trkpt lat="47.84888" lon="6.68558">
        <ele>654.9</ele>
        <time>2022-06-29T08:32:31Z</time>
      </trkpt>
      <trkpt lat="47.84891" lon="6.68562">
        <ele>654.8</ele>
        <time>2022-06-29T08:32:35Z</time>
      </trkpt>
      <trkpt lat="47.84895" lon="6.68567">
        <ele>654.6</ele>
        <time>2022-06-29T08:32:39Z</time>
      </trkpt>
      <trkpt lat="47.84898" lon="6.68574">
        <ele>654.4</ele>
        <time>2022-06-29T08:32:44Z</time>
      </trkpt>
      <trkpt lat="47.849" lon="6.68581">
        <ele>654.5</ele>
        <time>2022-06-29T08:32:48Z</time>
      </trkpt>
      <trkpt lat="47.84903" lon="6.68588">
        <ele>654.6</ele>
        <time>2022-06-29T08:32:52Z</time>
      </trkpt>
      <trkpt lat="47.84904" lon="6.68595">
        <ele>654.8</ele>
        <time>2022-06-29T08:32:57Z</time>
      </trkpt>
      <trkpt lat="47.84905" lon="6.68602">
        <ele>654.9</ele>
        <time>2022-06-29T08:33:02Z</time>
      </trkpt>
      <trkpt lat="47.84909" lon="6.68607">
        <ele>654.8</ele>
        <time>2022-06-29T08:33:07Z</time>
      </trkpt>
      <trkpt lat="47.84913" lon="6.68612">
        <ele>654.8</ele>
        <time>2022-06-29T08:33:12Z</time>
      </trkpt>
      <trkpt lat="47.84916" lon="6.68619">
        <ele>654.9</ele>
        <time>2022-06-29T08:33:16Z</time>
      </trkpt>
      <trkpt lat="47.84916" lon="6.68626">
        <ele>655.3</ele>
        <time>2022-06-29T08:33:20Z</time>
      </trkpt>
      <trkpt lat="47.84913" lon="6.68631">
        <ele>656.5</ele>
        <time>2022-06-29T08:33:27Z</time>
      </trkpt>
      <trkpt lat="47.84909" lon="6.68635">
        <ele>657.1</ele>
        <time>2022-06-29T08:33:32Z</time>
      </trkpt>
      <trkpt lat="47.84903" lon="6.68639">
        <ele>657.7</ele>
        <time>2022-06-29T08:33:36Z</time>
      </trkpt>
      <trkpt lat="47.84899" lon="6.68642">
        <ele>658.5</ele>
        <time>2022-06-29T08:33:39Z</time>
      </trkpt>
      <trkpt lat="47.84894" lon="6.68643">
        <ele>659.2</ele>
        <time>2022-06-29T08:33:43Z</time>
      </trkpt>
      <trkpt lat="47.84889" lon="6.68644">
        <ele>660</ele>
        <time>2022-06-29T08:33:48Z</time>
      </trkpt>
      <trkpt lat="47.84884" lon="6.68646">
        <ele>660.9</ele>
        <time>2022-06-29T08:33:52Z</time>
      </trkpt>
      <trkpt lat="47.84878" lon="6.68648">
        <ele>661.6</ele>
        <time>2022-06-29T08:33:56Z</time>
      </trkpt>
      <trkpt lat="47.84874" lon="6.68651">
        <ele>662.3</ele>
        <time>2022-06-29T08:34:01Z</time>
      </trkpt>
      <trkpt lat="47.84869" lon="6.68652">
        <ele>662.7</ele>
        <time>2022-06-29T08:34:06Z</time>
      </trkpt>
      <trkpt lat="47.84864" lon="6.6865">
        <ele>663.4</ele>
        <time>2022-06-29T08:34:10Z</time>
      </trkpt>
      <trkpt lat="47.84858" lon="6.68649">
        <ele>664.3</ele>
        <time>2022-06-29T08:34:15Z</time>
      </trkpt>
      <trkpt lat="47.84853" lon="6.68649">
        <ele>665.6</ele>
        <time>2022-06-29T08:34:21Z</time>
      </trkpt>
      <trkpt lat="47.84849" lon="6.68646">
        <ele>665.6</ele>
        <time>2022-06-29T08:34:26Z</time>
      </trkpt>
      <trkpt lat="47.84845" lon="6.68641">
        <ele>665.8</ele>
        <time>2022-06-29T08:34:37Z</time>
      </trkpt>
      <trkpt lat="47.84841" lon="6.68638">
        <ele>665.7</ele>
        <time>2022-06-29T08:34:44Z</time>
      </trkpt>
      <trkpt lat="47.84837" lon="6.68635">
        <ele>666.4</ele>
        <time>2022-06-29T08:34:48Z</time>
      </trkpt>
      <trkpt lat="47.84833" lon="6.68631">
        <ele>667.4</ele>
        <time>2022-06-29T08:34:54Z</time>
      </trkpt>
      <trkpt lat="47.8483" lon="6.68625">
        <ele>667.7</ele>
        <time>2022-06-29T08:35:00Z</time>
      </trkpt>
      <trkpt lat="47.84826" lon="6.68621">
        <ele>667.5</ele>
        <time>2022-06-29T08:35:08Z</time>
      </trkpt>
      <trkpt lat="47.84823" lon="6.68617">
        <ele>667.6</ele>
        <time>2022-06-29T08:35:13Z</time>
      </trkpt>
      <trkpt lat="47.8482" lon="6.68611">
        <ele>666.8</ele>
        <time>2022-06-29T08:35:20Z</time>
      </trkpt>
      <trkpt lat="47.84821" lon="6.68604">
        <ele>662.7</ele>
        <time>2022-06-29T08:37:17Z</time>
      </trkpt>
      <trkpt lat="47.84825" lon="6.686">
        <ele>659.1</ele>
        <time>2022-06-29T08:38:37Z</time>
      </trkpt>
      <trkpt lat="47.8482" lon="6.68599">
        <ele>659.3</ele>
        <time>2022-06-29T08:38:54Z</time>
      </trkpt>
      <trkpt lat="47.84817" lon="6.68593">
        <ele>659.1</ele>
        <time>2022-06-29T08:39:00Z</time>
      </trkpt>
      <trkpt lat="47.84812" lon="6.68588">
        <ele>659</ele>
        <time>2022-06-29T08:39:04Z</time>
      </trkpt>
      <trkpt lat="47.84807" lon="6.68588">
        <ele>658.9</ele>
        <time>2022-06-29T08:39:07Z</time>
      </trkpt>
      <trkpt lat="47.84803" lon="6.68586">
        <ele>658.7</ele>
        <time>2022-06-29T08:39:11Z</time>
      </trkpt>
      <trkpt lat="47.84797" lon="6.68582">
        <ele>658.5</ele>
        <time>2022-06-29T08:39:16Z</time>
      </trkpt>
      <trkpt lat="47.84792" lon="6.68582">
        <ele>658.3</ele>
        <time>2022-06-29T08:39:21Z</time>
      </trkpt>
      <trkpt lat="47.84787" lon="6.68586">
        <ele>658.7</ele>
        <time>2022-06-29T08:39:30Z</time>
      </trkpt>
      <trkpt lat="47.84783" lon="6.68587">
        <ele>659.3</ele>
        <time>2022-06-29T08:39:39Z</time>
      </trkpt>
      <trkpt lat="47.8478" lon="6.68591">
        <ele>659.2</ele>
        <time>2022-06-29T08:40:14Z</time>
      </trkpt>
      <trkpt lat="47.84775" lon="6.68592">
        <ele>658.9</ele>
        <time>2022-06-29T08:40:19Z</time>
      </trkpt>
      <trkpt lat="47.8477" lon="6.68591">
        <ele>658.3</ele>
        <time>2022-06-29T08:40:25Z</time>
      </trkpt>
      <trkpt lat="47.84765" lon="6.68591">
        <ele>657.8</ele>
        <time>2022-06-29T08:40:31Z</time>
      </trkpt>
      <trkpt lat="47.8476" lon="6.68592">
        <ele>658</ele>
        <time>2022-06-29T08:40:37Z</time>
      </trkpt>
      <trkpt lat="47.84755" lon="6.68595">
        <ele>658.5</ele>
        <time>2022-06-29T08:40:42Z</time>
      </trkpt>
      <trkpt lat="47.84751" lon="6.68599">
        <ele>658.9</ele>
        <time>2022-06-29T08:40:48Z</time>
      </trkpt>
      <trkpt lat="47.84746" lon="6.68602">
        <ele>659.2</ele>
        <time>2022-06-29T08:40:53Z</time>
      </trkpt>
      <trkpt lat="47.84741" lon="6.68603">
        <ele>657.8</ele>
        <time>2022-06-29T08:41:01Z</time>
      </trkpt>
      <trkpt lat="47.84737" lon="6.68607">
        <ele>656.8</ele>
        <time>2022-06-29T08:41:05Z</time>
      </trkpt>
      <trkpt lat="47.84732" lon="6.68611">
        <ele>655.8</ele>
        <time>2022-06-29T08:41:11Z</time>
      </trkpt>
      <trkpt lat="47.84728" lon="6.68613">
        <ele>655.6</ele>
        <time>2022-06-29T08:41:15Z</time>
      </trkpt>
      <trkpt lat="47.84722" lon="6.68617">
        <ele>655.3</ele>
        <time>2022-06-29T08:41:19Z</time>
      </trkpt>
      <trkpt lat="47.84718" lon="6.68619">
        <ele>654.8</ele>
        <time>2022-06-29T08:41:23Z</time>
      </trkpt>
      <trkpt lat="47.84713" lon="6.68622">
        <ele>653.8</ele>
        <time>2022-06-29T08:41:28Z</time>
      </trkpt>
      <trkpt lat="47.84708" lon="6.68623">
        <ele>653.3</ele>
        <time>2022-06-29T08:41:32Z</time>
      </trkpt>
      <trkpt lat="47.84703" lon="6.68623">
        <ele>652.9</ele>
        <time>2022-06-29T08:41:36Z</time>
      </trkpt>
      <trkpt lat="47.84699" lon="6.68627">
        <ele>652.7</ele>
        <time>2022-06-29T08:41:41Z</time>
      </trkpt>
      <trkpt lat="47.84694" lon="6.6863">
        <ele>652</ele>
        <time>2022-06-29T08:41:48Z</time>
      </trkpt>
      <trkpt lat="47.8469" lon="6.68631">
        <ele>649.7</ele>
        <time>2022-06-29T08:41:59Z</time>
      </trkpt>
      <trkpt lat="47.84685" lon="6.6863">
        <ele>649.3</ele>
        <time>2022-06-29T08:42:06Z</time>
      </trkpt>
      <trkpt lat="47.84679" lon="6.6863">
        <ele>649.3</ele>
        <time>2022-06-29T08:42:11Z</time>
      </trkpt>
      <trkpt lat="47.84674" lon="6.6863">
        <ele>649.2</ele>
        <time>2022-06-29T08:42:16Z</time>
      </trkpt>
      <trkpt lat="47.84669" lon="6.68628">
        <ele>649.1</ele>
        <time>2022-06-29T08:42:20Z</time>
      </trkpt>
      <trkpt lat="47.84664" lon="6.68626">
        <ele>649</ele>
        <time>2022-06-29T08:42:25Z</time>
      </trkpt>
      <trkpt lat="47.84659" lon="6.68626">
        <ele>648.9</ele>
        <time>2022-06-29T08:42:31Z</time>
      </trkpt>
      <trkpt lat="47.84655" lon="6.68629">
        <ele>649.4</ele>
        <time>2022-06-29T08:42:44Z</time>
      </trkpt>
      <trkpt lat="47.8465" lon="6.68631">
        <ele>649.6</ele>
        <time>2022-06-29T08:42:50Z</time>
      </trkpt>
      <trkpt lat="47.84645" lon="6.68631">
        <ele>649.8</ele>
        <time>2022-06-29T08:42:55Z</time>
      </trkpt>
      <trkpt lat="47.8464" lon="6.68629">
        <ele>650</ele>
        <time>2022-06-29T08:43:00Z</time>
      </trkpt>
      <trkpt lat="47.84636" lon="6.68629">
        <ele>650.2</ele>
        <time>2022-06-29T08:43:04Z</time>
      </trkpt>
      <trkpt lat="47.84631" lon="6.68628">
        <ele>650.3</ele>
        <time>2022-06-29T08:43:08Z</time>
      </trkpt>
      <trkpt lat="47.84626" lon="6.68627">
        <ele>650.2</ele>
        <time>2022-06-29T08:43:14Z</time>
      </trkpt>
      <trkpt lat="47.84622" lon="6.68628">
        <ele>650.4</ele>
        <time>2022-06-29T08:43:19Z</time>
      </trkpt>
      <trkpt lat="47.84617" lon="6.68631">
        <ele>650.5</ele>
        <time>2022-06-29T08:43:25Z</time>
      </trkpt>
      <trkpt lat="47.84613" lon="6.68635">
        <ele>650.2</ele>
        <time>2022-06-29T08:43:31Z</time>
      </trkpt>
      <trkpt lat="47.84608" lon="6.68631">
        <ele>649.2</ele>
        <time>2022-06-29T08:43:36Z</time>
      </trkpt>
      <trkpt lat="47.84604" lon="6.6863">
        <ele>648.6</ele>
        <time>2022-06-29T08:43:41Z</time>
      </trkpt>
      <trkpt lat="47.84599" lon="6.68629">
        <ele>648.4</ele>
        <time>2022-06-29T08:43:45Z</time>
      </trkpt>
      <trkpt lat="47.84594" lon="6.68629">
        <ele>648.4</ele>
        <time>2022-06-29T08:43:49Z</time>
      </trkpt>
      <trkpt lat="47.8459" lon="6.6863">
        <ele>648.1</ele>
        <time>2022-06-29T08:43:53Z</time>
      </trkpt>
      <trkpt lat="47.84587" lon="6.68634">
        <ele>647.7</ele>
        <time>2022-06-29T08:43:57Z</time>
      </trkpt>
      <trkpt lat="47.84583" lon="6.68638">
        <ele>647.7</ele>
        <time>2022-06-29T08:44:02Z</time>
      </trkpt>
      <trkpt lat="47.8458" lon="6.68645">
        <ele>647.8</ele>
        <time>2022-06-29T08:44:06Z</time>
      </trkpt>
      <trkpt lat="47.84578" lon="6.68651">
        <ele>648</ele>
        <time>2022-06-29T08:44:09Z</time>
      </trkpt>
      <trkpt lat="47.84573" lon="6.68657">
        <ele>646.8</ele>
        <time>2022-06-29T08:44:17Z</time>
      </trkpt>
      <trkpt lat="47.84568" lon="6.6866">
        <ele>646.6</ele>
        <time>2022-06-29T08:44:20Z</time>
      </trkpt>
      <trkpt lat="47.84563" lon="6.68662">
        <ele>645.8</ele>
        <time>2022-06-29T08:44:24Z</time>
      </trkpt>
      <trkpt lat="47.84558" lon="6.68665">
        <ele>644.8</ele>
        <time>2022-06-29T08:44:28Z</time>
      </trkpt>
      <trkpt lat="47.84555" lon="6.68671">
        <ele>644.2</ele>
        <time>2022-06-29T08:44:33Z</time>
      </trkpt>
      <trkpt lat="47.8455" lon="6.68675">
        <ele>643.5</ele>
        <time>2022-06-29T08:44:38Z</time>
      </trkpt>
      <trkpt lat="47.84545" lon="6.68675">
        <ele>643</ele>
        <time>2022-06-29T08:44:42Z</time>
      </trkpt>
      <trkpt lat="47.8454" lon="6.68675">
        <ele>641.4</ele>
        <time>2022-06-29T08:44:50Z</time>
      </trkpt>
      <trkpt lat="47.84536" lon="6.68678">
        <ele>640.7</ele>
        <time>2022-06-29T08:44:56Z</time>
      </trkpt>
      <trkpt lat="47.84531" lon="6.68681">
        <ele>640.4</ele>
        <time>2022-06-29T08:45:01Z</time>
      </trkpt>
      <trkpt lat="47.84526" lon="6.68683">
        <ele>639.6</ele>
        <time>2022-06-29T08:45:06Z</time>
      </trkpt>
      <trkpt lat="47.84522" lon="6.68685">
        <ele>638.7</ele>
        <time>2022-06-29T08:45:11Z</time>
      </trkpt>
      <trkpt lat="47.84517" lon="6.68687">
        <ele>638</ele>
        <time>2022-06-29T08:45:15Z</time>
      </trkpt>
      <trkpt lat="47.84512" lon="6.6869">
        <ele>637.2</ele>
        <time>2022-06-29T08:45:20Z</time>
      </trkpt>
      <trkpt lat="47.84507" lon="6.68691">
        <ele>636.4</ele>
        <time>2022-06-29T08:45:25Z</time>
      </trkpt>
      <trkpt lat="47.84502" lon="6.6869">
        <ele>635.4</ele>
        <time>2022-06-29T08:45:30Z</time>
      </trkpt>
      <trkpt lat="47.84497" lon="6.68688">
        <ele>634.3</ele>
        <time>2022-06-29T08:45:35Z</time>
      </trkpt>
      <trkpt lat="47.84493" lon="6.68684">
        <ele>633.3</ele>
        <time>2022-06-29T08:45:40Z</time>
      </trkpt>
      <trkpt lat="47.84487" lon="6.68683">
        <ele>632.2</ele>
        <time>2022-06-29T08:45:46Z</time>
      </trkpt>
      <trkpt lat="47.84482" lon="6.68682">
        <ele>631.6</ele>
        <time>2022-06-29T08:45:50Z</time>
      </trkpt>
      <trkpt lat="47.84477" lon="6.68681">
        <ele>631.1</ele>
        <time>2022-06-29T08:45:54Z</time>
      </trkpt>
      <trkpt lat="47.84472" lon="6.68679">
        <ele>630.5</ele>
        <time>2022-06-29T08:45:59Z</time>
      </trkpt>
      <trkpt lat="47.84467" lon="6.68678">
        <ele>630.4</ele>
        <time>2022-06-29T08:46:03Z</time>
      </trkpt>
      <trkpt lat="47.84462" lon="6.68677">
        <ele>630.7</ele>
        <time>2022-06-29T08:46:07Z</time>
      </trkpt>
      <trkpt lat="47.84456" lon="6.68675">
        <ele>632.1</ele>
        <time>2022-06-29T08:46:11Z</time>
      </trkpt>
      <trkpt lat="47.84451" lon="6.68675">
        <ele>633.7</ele>
        <time>2022-06-29T08:46:14Z</time>
      </trkpt>
      <trkpt lat="47.84446" lon="6.68675">
        <ele>635.3</ele>
        <time>2022-06-29T08:46:18Z</time>
      </trkpt>
      <trkpt lat="47.8444" lon="6.68677">
        <ele>637</ele>
        <time>2022-06-29T08:46:23Z</time>
      </trkpt>
      <trkpt lat="47.84435" lon="6.68677">
        <ele>638.1</ele>
        <time>2022-06-29T08:46:28Z</time>
      </trkpt>
      <trkpt lat="47.8443" lon="6.68677">
        <ele>638.9</ele>
        <time>2022-06-29T08:46:33Z</time>
      </trkpt>
      <trkpt lat="47.84425" lon="6.68675">
        <ele>639.3</ele>
        <time>2022-06-29T08:46:37Z</time>
      </trkpt>
      <trkpt lat="47.8442" lon="6.68674">
        <ele>640</ele>
        <time>2022-06-29T08:46:40Z</time>
      </trkpt>
      <trkpt lat="47.84415" lon="6.68671">
        <ele>640.8</ele>
        <time>2022-06-29T08:46:44Z</time>
      </trkpt>
      <trkpt lat="47.84411" lon="6.68667">
        <ele>641.9</ele>
        <time>2022-06-29T08:46:50Z</time>
      </trkpt>
      <trkpt lat="47.84406" lon="6.68667">
        <ele>642.7</ele>
        <time>2022-06-29T08:46:54Z</time>
      </trkpt>
      <trkpt lat="47.84401" lon="6.6867">
        <ele>643.1</ele>
        <time>2022-06-29T08:46:57Z</time>
      </trkpt>
      <trkpt lat="47.84396" lon="6.6867">
        <ele>643.3</ele>
        <time>2022-06-29T08:47:01Z</time>
      </trkpt>
      <trkpt lat="47.84393" lon="6.68665">
        <ele>643.4</ele>
        <time>2022-06-29T08:47:06Z</time>
      </trkpt>
      <trkpt lat="47.84388" lon="6.6866">
        <ele>643.3</ele>
        <time>2022-06-29T08:47:10Z</time>
      </trkpt>
      <trkpt lat="47.84385" lon="6.68656">
        <ele>642.9</ele>
        <time>2022-06-29T08:47:13Z</time>
      </trkpt>
      <trkpt lat="47.84381" lon="6.68652">
        <ele>642.4</ele>
        <time>2022-06-29T08:47:17Z</time>
      </trkpt>
      <trkpt lat="47.84378" lon="6.68647">
        <ele>641.7</ele>
        <time>2022-06-29T08:47:22Z</time>
      </trkpt>
      <trkpt lat="47.84372" lon="6.68645">
        <ele>641.2</ele>
        <time>2022-06-29T08:47:27Z</time>
      </trkpt>
      <trkpt lat="47.84368" lon="6.68644">
        <ele>640.9</ele>
        <time>2022-06-29T08:47:33Z</time>
      </trkpt>
      <trkpt lat="47.84364" lon="6.68639">
        <ele>640.1</ele>
        <time>2022-06-29T08:47:39Z</time>
      </trkpt>
      <trkpt lat="47.84361" lon="6.68633">
        <ele>639.1</ele>
        <time>2022-06-29T08:47:45Z</time>
      </trkpt>
      <trkpt lat="47.84357" lon="6.6863">
        <ele>638.4</ele>
        <time>2022-06-29T08:47:50Z</time>
      </trkpt>
      <trkpt lat="47.84352" lon="6.68627">
        <ele>638</ele>
        <time>2022-06-29T08:47:53Z</time>
      </trkpt>
      <trkpt lat="47.84346" lon="6.68623">
        <ele>637.6</ele>
        <time>2022-06-29T08:47:57Z</time>
      </trkpt>
      <trkpt lat="47.84343" lon="6.6862">
        <ele>637.3</ele>
        <time>2022-06-29T08:48:01Z</time>
      </trkpt>
      <trkpt lat="47.84339" lon="6.68615">
        <ele>637.1</ele>
        <time>2022-06-29T08:48:05Z</time>
      </trkpt>
      <trkpt lat="47.84335" lon="6.68612">
        <ele>636.8</ele>
        <time>2022-06-29T08:48:09Z</time>
      </trkpt>
      <trkpt lat="47.8433" lon="6.68608">
        <ele>636.7</ele>
        <time>2022-06-29T08:48:14Z</time>
      </trkpt>
      <trkpt lat="47.84327" lon="6.68603">
        <ele>636.2</ele>
        <time>2022-06-29T08:48:19Z</time>
      </trkpt>
      <trkpt lat="47.84324" lon="6.68597">
        <ele>635.9</ele>
        <time>2022-06-29T08:48:24Z</time>
      </trkpt>
      <trkpt lat="47.84319" lon="6.68594">
        <ele>635.6</ele>
        <time>2022-06-29T08:48:29Z</time>
      </trkpt>
      <trkpt lat="47.84314" lon="6.68592">
        <ele>635.3</ele>
        <time>2022-06-29T08:48:34Z</time>
      </trkpt>
      <trkpt lat="47.8431" lon="6.68589">
        <ele>635.1</ele>
        <time>2022-06-29T08:48:39Z</time>
      </trkpt>
      <trkpt lat="47.84305" lon="6.68587">
        <ele>634.8</ele>
        <time>2022-06-29T08:48:44Z</time>
      </trkpt>
      <trkpt lat="47.84299" lon="6.68582">
        <ele>634.4</ele>
        <time>2022-06-29T08:48:48Z</time>
      </trkpt>
      <trkpt lat="47.84292" lon="6.68577">
        <ele>634</ele>
        <time>2022-06-29T08:48:51Z</time>
      </trkpt>
      <trkpt lat="47.84286" lon="6.68575">
        <ele>633.8</ele>
        <time>2022-06-29T08:48:54Z</time>
      </trkpt>
      <trkpt lat="47.84281" lon="6.68576">
        <ele>634.2</ele>
        <time>2022-06-29T08:48:59Z</time>
      </trkpt>
      <trkpt lat="47.84276" lon="6.68575">
        <ele>635.1</ele>
        <time>2022-06-29T08:49:03Z</time>
      </trkpt>
      <trkpt lat="47.84271" lon="6.68572">
        <ele>636.5</ele>
        <time>2022-06-29T08:49:09Z</time>
      </trkpt>
      <trkpt lat="47.84265" lon="6.68571">
        <ele>637.5</ele>
        <time>2022-06-29T08:49:13Z</time>
      </trkpt>
      <trkpt lat="47.8426" lon="6.68571">
        <ele>638.6</ele>
        <time>2022-06-29T08:49:18Z</time>
      </trkpt>
      <trkpt lat="47.84255" lon="6.68572">
        <ele>639.4</ele>
        <time>2022-06-29T08:49:23Z</time>
      </trkpt>
      <trkpt lat="47.8425" lon="6.68573">
        <ele>640.1</ele>
        <time>2022-06-29T08:49:28Z</time>
      </trkpt>
      <trkpt lat="47.84245" lon="6.68575">
        <ele>641.1</ele>
        <time>2022-06-29T08:49:33Z</time>
      </trkpt>
      <trkpt lat="47.8424" lon="6.68578">
        <ele>641.5</ele>
        <time>2022-06-29T08:49:38Z</time>
      </trkpt>
      <trkpt lat="47.84236" lon="6.68582">
        <ele>640.2</ele>
        <time>2022-06-29T08:49:47Z</time>
      </trkpt>
      <trkpt lat="47.84233" lon="6.68588">
        <ele>639.2</ele>
        <time>2022-06-29T08:49:52Z</time>
      </trkpt>
      <trkpt lat="47.84228" lon="6.68593">
        <ele>638.5</ele>
        <time>2022-06-29T08:49:56Z</time>
      </trkpt>
      <trkpt lat="47.84224" lon="6.68596">
        <ele>637.7</ele>
        <time>2022-06-29T08:50:00Z</time>
      </trkpt>
      <trkpt lat="47.84219" lon="6.68599">
        <ele>636.7</ele>
        <time>2022-06-29T08:50:06Z</time>
      </trkpt>
      <trkpt lat="47.84216" lon="6.68605">
        <ele>635.3</ele>
        <time>2022-06-29T08:50:11Z</time>
      </trkpt>
      <trkpt lat="47.84213" lon="6.68611">
        <ele>633.7</ele>
        <time>2022-06-29T08:50:17Z</time>
      </trkpt>
      <trkpt lat="47.8421" lon="6.68617">
        <ele>632.4</ele>
        <time>2022-06-29T08:50:24Z</time>
      </trkpt>
      <trkpt lat="47.84208" lon="6.68624">
        <ele>631.7</ele>
        <time>2022-06-29T08:50:31Z</time>
      </trkpt>
      <trkpt lat="47.84206" lon="6.6863">
        <ele>631</ele>
        <time>2022-06-29T08:50:37Z</time>
      </trkpt>
      <trkpt lat="47.84204" lon="6.68635">
        <ele>630</ele>
        <time>2022-06-29T08:50:44Z</time>
      </trkpt>
      <trkpt lat="47.84202" lon="6.68642">
        <ele>629.1</ele>
        <time>2022-06-29T08:50:49Z</time>
      </trkpt>
      <trkpt lat="47.842" lon="6.68649">
        <ele>627.8</ele>
        <time>2022-06-29T08:50:54Z</time>
      </trkpt>
      <trkpt lat="47.84198" lon="6.68657">
        <ele>626.1</ele>
        <time>2022-06-29T08:51:00Z</time>
      </trkpt>
      <trkpt lat="47.84196" lon="6.68664">
        <ele>625</ele>
        <time>2022-06-29T08:51:05Z</time>
      </trkpt>
      <trkpt lat="47.84193" lon="6.6867">
        <ele>624</ele>
        <time>2022-06-29T08:51:10Z</time>
      </trkpt>
      <trkpt lat="47.8419" lon="6.68675">
        <ele>622.7</ele>
        <time>2022-06-29T08:51:15Z</time>
      </trkpt>
      <trkpt lat="47.84187" lon="6.68681">
        <ele>621.6</ele>
        <time>2022-06-29T08:51:19Z</time>
      </trkpt>
      <trkpt lat="47.84183" lon="6.68687">
        <ele>620.3</ele>
        <time>2022-06-29T08:51:23Z</time>
      </trkpt>
      <trkpt lat="47.84179" lon="6.68691">
        <ele>618.4</ele>
        <time>2022-06-29T08:51:29Z</time>
      </trkpt>
      <trkpt lat="47.84175" lon="6.68688">
        <ele>616.2</ele>
        <time>2022-06-29T08:51:37Z</time>
      </trkpt>
      <trkpt lat="47.84171" lon="6.68686">
        <ele>614.1</ele>
        <time>2022-06-29T08:51:51Z</time>
      </trkpt>
      <trkpt lat="47.84164" lon="6.68682">
        <ele>614.4</ele>
        <time>2022-06-29T08:51:54Z</time>
      </trkpt>
      <trkpt lat="47.84159" lon="6.68679">
        <ele>614.8</ele>
        <time>2022-06-29T08:51:57Z</time>
      </trkpt>
      <trkpt lat="47.84154" lon="6.68675">
        <ele>615.2</ele>
        <time>2022-06-29T08:52:01Z</time>
      </trkpt>
      <trkpt lat="47.84149" lon="6.68675">
        <ele>614.9</ele>
        <time>2022-06-29T08:52:05Z</time>
      </trkpt>
      <trkpt lat="47.84144" lon="6.68673">
        <ele>614.3</ele>
        <time>2022-06-29T08:52:09Z</time>
      </trkpt>
      <trkpt lat="47.84139" lon="6.68671">
        <ele>613.6</ele>
        <time>2022-06-29T08:52:14Z</time>
      </trkpt>
      <trkpt lat="47.84133" lon="6.68669">
        <ele>612.7</ele>
        <time>2022-06-29T08:52:21Z</time>
      </trkpt>
      <trkpt lat="47.8413" lon="6.68665">
        <ele>612</ele>
        <time>2022-06-29T08:52:26Z</time>
      </trkpt>
      <trkpt lat="47.84126" lon="6.6866">
        <ele>611.5</ele>
        <time>2022-06-29T08:52:31Z</time>
      </trkpt>
      <trkpt lat="47.84122" lon="6.68659">
        <ele>611.2</ele>
        <time>2022-06-29T08:52:36Z</time>
      </trkpt>
      <trkpt lat="47.84116" lon="6.68659">
        <ele>611.4</ele>
        <time>2022-06-29T08:52:40Z</time>
      </trkpt>
      <trkpt lat="47.84111" lon="6.6866">
        <ele>611.8</ele>
        <time>2022-06-29T08:52:43Z</time>
      </trkpt>
      <trkpt lat="47.84106" lon="6.68659">
        <ele>612.1</ele>
        <time>2022-06-29T08:52:47Z</time>
      </trkpt>
      <trkpt lat="47.84101" lon="6.68656">
        <ele>612.4</ele>
        <time>2022-06-29T08:52:52Z</time>
      </trkpt>
      <trkpt lat="47.84095" lon="6.68658">
        <ele>613</ele>
        <time>2022-06-29T08:53:00Z</time>
      </trkpt>
      <trkpt lat="47.84091" lon="6.68661">
        <ele>613.2</ele>
        <time>2022-06-29T08:53:04Z</time>
      </trkpt>
      <trkpt lat="47.84087" lon="6.68665">
        <ele>613.1</ele>
        <time>2022-06-29T08:53:10Z</time>
      </trkpt>
      <trkpt lat="47.84087" lon="6.68673">
        <ele>613</ele>
        <time>2022-06-29T08:53:14Z</time>
      </trkpt>
      <trkpt lat="47.84084" lon="6.6868">
        <ele>613.3</ele>
        <time>2022-06-29T08:53:18Z</time>
      </trkpt>
      <trkpt lat="47.84082" lon="6.68686">
        <ele>613.6</ele>
        <time>2022-06-29T08:53:22Z</time>
      </trkpt>
      <trkpt lat="47.84079" lon="6.68692">
        <ele>613.4</ele>
        <time>2022-06-29T08:53:28Z</time>
      </trkpt>
      <trkpt lat="47.84075" lon="6.68701">
        <ele>613</ele>
        <time>2022-06-29T08:53:33Z</time>
      </trkpt>
      <trkpt lat="47.8407" lon="6.68708">
        <ele>612.5</ele>
        <time>2022-06-29T08:53:36Z</time>
      </trkpt>
      <trkpt lat="47.84068" lon="6.68715">
        <ele>611.6</ele>
        <time>2022-06-29T08:53:40Z</time>
      </trkpt>
      <trkpt lat="47.84065" lon="6.68723">
        <ele>611.2</ele>
        <time>2022-06-29T08:53:43Z</time>
      </trkpt>
      <trkpt lat="47.84062" lon="6.68728">
        <ele>611.3</ele>
        <time>2022-06-29T08:53:48Z</time>
      </trkpt>
      <trkpt lat="47.84059" lon="6.68734">
        <ele>612.1</ele>
        <time>2022-06-29T08:53:54Z</time>
      </trkpt>
      <trkpt lat="47.84055" lon="6.68739">
        <ele>612.3</ele>
        <time>2022-06-29T08:53:57Z</time>
      </trkpt>
      <trkpt lat="47.8405" lon="6.68741">
        <ele>612.1</ele>
        <time>2022-06-29T08:54:00Z</time>
      </trkpt>
      <trkpt lat="47.84045" lon="6.68739">
        <ele>610.3</ele>
        <time>2022-06-29T08:54:07Z</time>
      </trkpt>
      <trkpt lat="47.84041" lon="6.68741">
        <ele>607.1</ele>
        <time>2022-06-29T08:54:13Z</time>
      </trkpt>
      <trkpt lat="47.84037" lon="6.68747">
        <ele>605.1</ele>
        <time>2022-06-29T08:54:18Z</time>
      </trkpt>
      <trkpt lat="47.84035" lon="6.68754">
        <ele>603.7</ele>
        <time>2022-06-29T08:54:22Z</time>
      </trkpt>
      <trkpt lat="47.84032" lon="6.6876">
        <ele>602.7</ele>
        <time>2022-06-29T08:54:27Z</time>
      </trkpt>
      <trkpt lat="47.84029" lon="6.68766">
        <ele>601.7</ele>
        <time>2022-06-29T08:54:33Z</time>
      </trkpt>
      <trkpt lat="47.84027" lon="6.68774">
        <ele>601.3</ele>
        <time>2022-06-29T08:54:38Z</time>
      </trkpt>
      <trkpt lat="47.84025" lon="6.68782">
        <ele>601.7</ele>
        <time>2022-06-29T08:54:41Z</time>
      </trkpt>
      <trkpt lat="47.84023" lon="6.6879">
        <ele>602.4</ele>
        <time>2022-06-29T08:54:44Z</time>
      </trkpt>
      <trkpt lat="47.84021" lon="6.68796">
        <ele>603</ele>
        <time>2022-06-29T08:54:48Z</time>
      </trkpt>
      <trkpt lat="47.84018" lon="6.68802">
        <ele>603.6</ele>
        <time>2022-06-29T08:54:54Z</time>
      </trkpt>
      <trkpt lat="47.84015" lon="6.68809">
        <ele>604.3</ele>
        <time>2022-06-29T08:54:58Z</time>
      </trkpt>
      <trkpt lat="47.84011" lon="6.68814">
        <ele>605.4</ele>
        <time>2022-06-29T08:55:03Z</time>
      </trkpt>
      <trkpt lat="47.84006" lon="6.68817">
        <ele>606.2</ele>
        <time>2022-06-29T08:55:08Z</time>
      </trkpt>
      <trkpt lat="47.84002" lon="6.6882">
        <ele>606.9</ele>
        <time>2022-06-29T08:55:13Z</time>
      </trkpt>
      <trkpt lat="47.83998" lon="6.68825">
        <ele>606.6</ele>
        <time>2022-06-29T08:55:18Z</time>
      </trkpt>
      <trkpt lat="47.83996" lon="6.68832">
        <ele>605.7</ele>
        <time>2022-06-29T08:55:23Z</time>
      </trkpt>
      <trkpt lat="47.83993" lon="6.68838">
        <ele>604.3</ele>
        <time>2022-06-29T08:55:46Z</time>
      </trkpt>
      <trkpt lat="47.83989" lon="6.6884">
        <ele>604.3</ele>
        <time>2022-06-29T08:55:49Z</time>
      </trkpt>
      <trkpt lat="47.83985" lon="6.68843">
        <ele>604.2</ele>
        <time>2022-06-29T08:55:54Z</time>
      </trkpt>
      <trkpt lat="47.8398" lon="6.68845">
        <ele>603.9</ele>
        <time>2022-06-29T08:56:00Z</time>
      </trkpt>
      <trkpt lat="47.83976" lon="6.68849">
        <ele>603.7</ele>
        <time>2022-06-29T08:56:06Z</time>
      </trkpt>
      <trkpt lat="47.83971" lon="6.6885">
        <ele>603.3</ele>
        <time>2022-06-29T08:56:11Z</time>
      </trkpt>
      <trkpt lat="47.83967" lon="6.68852">
        <ele>602.5</ele>
        <time>2022-06-29T08:56:16Z</time>
      </trkpt>
      <trkpt lat="47.83962" lon="6.68855">
        <ele>601.9</ele>
        <time>2022-06-29T08:56:21Z</time>
      </trkpt>
      <trkpt lat="47.83957" lon="6.68856">
        <ele>601.6</ele>
        <time>2022-06-29T08:56:25Z</time>
      </trkpt>
      <trkpt lat="47.83953" lon="6.68856">
        <ele>601.7</ele>
        <time>2022-06-29T08:56:31Z</time>
      </trkpt>
      <trkpt lat="47.83948" lon="6.68853">
        <ele>601.4</ele>
        <time>2022-06-29T08:56:37Z</time>
      </trkpt>
      <trkpt lat="47.83944" lon="6.68851">
        <ele>601.6</ele>
        <time>2022-06-29T08:56:45Z</time>
      </trkpt>
      <trkpt lat="47.83938" lon="6.68848">
        <ele>602</ele>
        <time>2022-06-29T08:56:49Z</time>
      </trkpt>
      <trkpt lat="47.83934" lon="6.68846">
        <ele>603</ele>
        <time>2022-06-29T08:56:54Z</time>
      </trkpt>
      <trkpt lat="47.83929" lon="6.68847">
        <ele>603.5</ele>
        <time>2022-06-29T08:56:59Z</time>
      </trkpt>
      <trkpt lat="47.83924" lon="6.68848">
        <ele>603.3</ele>
        <time>2022-06-29T08:57:05Z</time>
      </trkpt>
      <trkpt lat="47.8392" lon="6.68845">
        <ele>602.8</ele>
        <time>2022-06-29T08:57:12Z</time>
      </trkpt>
      <trkpt lat="47.83915" lon="6.68841">
        <ele>602</ele>
        <time>2022-06-29T08:57:21Z</time>
      </trkpt>
      <trkpt lat="47.83911" lon="6.68838">
        <ele>601.6</ele>
        <time>2022-06-29T08:57:24Z</time>
      </trkpt>
      <trkpt lat="47.83907" lon="6.68833">
        <ele>601</ele>
        <time>2022-06-29T08:57:28Z</time>
      </trkpt>
      <trkpt lat="47.83903" lon="6.68828">
        <ele>600.4</ele>
        <time>2022-06-29T08:57:32Z</time>
      </trkpt>
      <trkpt lat="47.83899" lon="6.68821">
        <ele>600</ele>
        <time>2022-06-29T08:57:35Z</time>
      </trkpt>
      <trkpt lat="47.83896" lon="6.68816">
        <ele>599.2</ele>
        <time>2022-06-29T08:57:39Z</time>
      </trkpt>
      <trkpt lat="47.83893" lon="6.6881">
        <ele>598.3</ele>
        <time>2022-06-29T08:57:44Z</time>
      </trkpt>
      <trkpt lat="47.83888" lon="6.68805">
        <ele>597.4</ele>
        <time>2022-06-29T08:57:50Z</time>
      </trkpt>
      <trkpt lat="47.83885" lon="6.68801">
        <ele>596.8</ele>
        <time>2022-06-29T08:57:54Z</time>
      </trkpt>
      <trkpt lat="47.83882" lon="6.68794">
        <ele>595.9</ele>
        <time>2022-06-29T08:57:59Z</time>
      </trkpt>
      <trkpt lat="47.83878" lon="6.68788">
        <ele>594.9</ele>
        <time>2022-06-29T08:58:02Z</time>
      </trkpt>
      <trkpt lat="47.83874" lon="6.68783">
        <ele>593.7</ele>
        <time>2022-06-29T08:58:07Z</time>
      </trkpt>
      <trkpt lat="47.8387" lon="6.6878">
        <ele>593.2</ele>
        <time>2022-06-29T08:58:10Z</time>
      </trkpt>
      <trkpt lat="47.83867" lon="6.68773">
        <ele>592.2</ele>
        <time>2022-06-29T08:58:15Z</time>
      </trkpt>
      <trkpt lat="47.83864" lon="6.68767">
        <ele>591.6</ele>
        <time>2022-06-29T08:58:19Z</time>
      </trkpt>
      <trkpt lat="47.83862" lon="6.68761">
        <ele>590.1</ele>
        <time>2022-06-29T08:58:26Z</time>
      </trkpt>
      <trkpt lat="47.83857" lon="6.68755">
        <ele>588.7</ele>
        <time>2022-06-29T08:58:39Z</time>
      </trkpt>
      <trkpt lat="47.83854" lon="6.68748">
        <ele>588.7</ele>
        <time>2022-06-29T08:58:43Z</time>
      </trkpt>
      <trkpt lat="47.8385" lon="6.68742">
        <ele>588.9</ele>
        <time>2022-06-29T08:58:46Z</time>
      </trkpt>
      <trkpt lat="47.83847" lon="6.68736">
        <ele>588.8</ele>
        <time>2022-06-29T08:58:51Z</time>
      </trkpt>
      <trkpt lat="47.83844" lon="6.6873">
        <ele>589.1</ele>
        <time>2022-06-29T08:58:58Z</time>
      </trkpt>
      <trkpt lat="47.8384" lon="6.68725">
        <ele>589.7</ele>
        <time>2022-06-29T08:59:03Z</time>
      </trkpt>
      <trkpt lat="47.83836" lon="6.68722">
        <ele>590.6</ele>
        <time>2022-06-29T08:59:09Z</time>
      </trkpt>
      <trkpt lat="47.83832" lon="6.68718">
        <ele>591.5</ele>
        <time>2022-06-29T08:59:14Z</time>
      </trkpt>
      <trkpt lat="47.83829" lon="6.68714">
        <ele>592.2</ele>
        <time>2022-06-29T08:59:18Z</time>
      </trkpt>
      <trkpt lat="47.83825" lon="6.68709">
        <ele>592.6</ele>
        <time>2022-06-29T08:59:23Z</time>
      </trkpt>
      <trkpt lat="47.83823" lon="6.68702">
        <ele>592.7</ele>
        <time>2022-06-29T08:59:28Z</time>
      </trkpt>
      <trkpt lat="47.8382" lon="6.68698">
        <ele>594</ele>
        <time>2022-06-29T08:59:46Z</time>
      </trkpt>
      <trkpt lat="47.83821" lon="6.68691">
        <ele>595.7</ele>
        <time>2022-06-29T09:00:07Z</time>
      </trkpt>
      <trkpt lat="47.83823" lon="6.68688">
        <ele>595.7</ele>
        <time>2022-06-29T09:00:18Z</time>
      </trkpt>
      <trkpt lat="47.83822" lon="6.68695">
        <ele>596.2</ele>
        <time>2022-06-29T09:00:27Z</time>
      </trkpt>
      <trkpt lat="47.83824" lon="6.68702">
        <ele>596.6</ele>
        <time>2022-06-29T09:00:31Z</time>
      </trkpt>
      <trkpt lat="47.8383" lon="6.68702">
        <ele>596.9</ele>
        <time>2022-06-29T09:00:36Z</time>
      </trkpt>
      <trkpt lat="47.83834" lon="6.68704">
        <ele>596.9</ele>
        <time>2022-06-29T09:00:46Z</time>
      </trkpt>
      <trkpt lat="47.83836" lon="6.6871">
        <ele>596.9</ele>
        <time>2022-06-29T09:00:51Z</time>
      </trkpt>
      <trkpt lat="47.83835" lon="6.6872">
        <ele>597</ele>
        <time>2022-06-29T09:00:56Z</time>
      </trkpt>
      <trkpt lat="47.8383" lon="6.68719">
        <ele>596.9</ele>
        <time>2022-06-29T09:01:04Z</time>
      </trkpt>
      <trkpt lat="47.83829" lon="6.6871">
        <ele>596.9</ele>
        <time>2022-06-29T09:01:09Z</time>
      </trkpt>
      <trkpt lat="47.83826" lon="6.68705">
        <ele>594.5</ele>
        <time>2022-06-29T09:01:27Z</time>
      </trkpt>
      <trkpt lat="47.83822" lon="6.68709">
        <ele>595.5</ele>
        <time>2022-06-29T09:01:35Z</time>
      </trkpt>
      <trkpt lat="47.83818" lon="6.68708">
        <ele>597</ele>
        <time>2022-06-29T09:01:42Z</time>
      </trkpt>
      <trkpt lat="47.83823" lon="6.68707">
        <ele>597.6</ele>
        <time>2022-06-29T09:01:55Z</time>
      </trkpt>
      <trkpt lat="47.83822" lon="6.68714">
        <ele>597.3</ele>
        <time>2022-06-29T09:02:04Z</time>
      </trkpt>
      <trkpt lat="47.83817" lon="6.68717">
        <ele>593.3</ele>
        <time>2022-06-29T09:02:33Z</time>
      </trkpt>
      <trkpt lat="47.83817" lon="6.68714">
        <ele>598</ele>
        <time>2022-06-29T09:02:47Z</time>
      </trkpt>
      <trkpt lat="47.83822" lon="6.68715">
        <ele>599.9</ele>
        <time>2022-06-29T09:02:58Z</time>
      </trkpt>
      <trkpt lat="47.83817" lon="6.68715">
        <ele>598.4</ele>
        <time>2022-06-29T09:03:09Z</time>
      </trkpt>
      <trkpt lat="47.83814" lon="6.68709">
        <ele>597.3</ele>
        <time>2022-06-29T09:03:16Z</time>
      </trkpt>
      <trkpt lat="47.83809" lon="6.68708">
        <ele>596.5</ele>
        <time>2022-06-29T09:03:23Z</time>
      </trkpt>
      <trkpt lat="47.83811" lon="6.68702">
        <ele>594.3</ele>
        <time>2022-06-29T09:03:45Z</time>
      </trkpt>
      <trkpt lat="47.83814" lon="6.68697">
        <ele>595.2</ele>
        <time>2022-06-29T09:03:52Z</time>
      </trkpt>
      <trkpt lat="47.83819" lon="6.68693">
        <ele>595.2</ele>
        <time>2022-06-29T09:03:57Z</time>
      </trkpt>
      <trkpt lat="47.83824" lon="6.68692">
        <ele>594.7</ele>
        <time>2022-06-29T09:04:01Z</time>
      </trkpt>
      <trkpt lat="47.8382" lon="6.68695">
        <ele>591.2</ele>
        <time>2022-06-29T09:04:15Z</time>
      </trkpt>
      <trkpt lat="47.83819" lon="6.68688">
        <ele>590.8</ele>
        <time>2022-06-29T09:04:29Z</time>
      </trkpt>
      <trkpt lat="47.83823" lon="6.68692">
        <ele>590.4</ele>
        <time>2022-06-29T09:04:38Z</time>
      </trkpt>
      <trkpt lat="47.83826" lon="6.68709">
        <ele>596.3</ele>
        <time>2022-06-29T09:05:24Z</time>
      </trkpt>
      <trkpt lat="47.83823" lon="6.68703">
        <ele>600.4</ele>
        <time>2022-06-29T09:05:41Z</time>
      </trkpt>
      <trkpt lat="47.8382" lon="6.68697">
        <ele>602.1</ele>
        <time>2022-06-29T09:05:45Z</time>
      </trkpt>
      <trkpt lat="47.83818" lon="6.6869">
        <ele>603</ele>
        <time>2022-06-29T09:05:49Z</time>
      </trkpt>
      <trkpt lat="47.83818" lon="6.68683">
        <ele>603.7</ele>
        <time>2022-06-29T09:05:55Z</time>
      </trkpt>
      <trkpt lat="47.83819" lon="6.68676">
        <ele>603.6</ele>
        <time>2022-06-29T09:06:01Z</time>
      </trkpt>
      <trkpt lat="47.83819" lon="6.68669">
        <ele>603.2</ele>
        <time>2022-06-29T09:06:07Z</time>
      </trkpt>
      <trkpt lat="47.83817" lon="6.68662">
        <ele>602.5</ele>
        <time>2022-06-29T09:06:15Z</time>
      </trkpt>
      <trkpt lat="47.83813" lon="6.68658">
        <ele>602.1</ele>
        <time>2022-06-29T09:06:19Z</time>
      </trkpt>
      <trkpt lat="47.83812" lon="6.68652">
        <ele>601.2</ele>
        <time>2022-06-29T09:06:25Z</time>
      </trkpt>
      <trkpt lat="47.83815" lon="6.68646">
        <ele>600</ele>
        <time>2022-06-29T09:06:32Z</time>
      </trkpt>
      <trkpt lat="47.83815" lon="6.68639">
        <ele>598.7</ele>
        <time>2022-06-29T09:06:40Z</time>
      </trkpt>
      <trkpt lat="47.83816" lon="6.68633">
        <ele>598.4</ele>
        <time>2022-06-29T09:06:55Z</time>
      </trkpt>
      <trkpt lat="47.83818" lon="6.68626">
        <ele>598.5</ele>
        <time>2022-06-29T09:07:01Z</time>
      </trkpt>
      <trkpt lat="47.83818" lon="6.68619">
        <ele>598.7</ele>
        <time>2022-06-29T09:07:08Z</time>
      </trkpt>
      <trkpt lat="47.83819" lon="6.68612">
        <ele>598.7</ele>
        <time>2022-06-29T09:07:13Z</time>
      </trkpt>
      <trkpt lat="47.8382" lon="6.68605">
        <ele>598.3</ele>
        <time>2022-06-29T09:07:18Z</time>
      </trkpt>
      <trkpt lat="47.83824" lon="6.686">
        <ele>597.9</ele>
        <time>2022-06-29T09:07:27Z</time>
      </trkpt>
      <trkpt lat="47.83828" lon="6.68598">
        <ele>598</ele>
        <time>2022-06-29T09:07:33Z</time>
      </trkpt>
      <trkpt lat="47.83829" lon="6.6859">
        <ele>597.9</ele>
        <time>2022-06-29T09:07:39Z</time>
      </trkpt>
      <trkpt lat="47.83831" lon="6.68583">
        <ele>597.9</ele>
        <time>2022-06-29T09:07:45Z</time>
      </trkpt>
      <trkpt lat="47.83833" lon="6.68576">
        <ele>598</ele>
        <time>2022-06-29T09:07:50Z</time>
      </trkpt>
      <trkpt lat="47.83835" lon="6.68569">
        <ele>598.1</ele>
        <time>2022-06-29T09:07:54Z</time>
      </trkpt>
      <trkpt lat="47.83839" lon="6.68566">
        <ele>598.6</ele>
        <time>2022-06-29T09:07:59Z</time>
      </trkpt>
      <trkpt lat="47.83842" lon="6.6856">
        <ele>600.2</ele>
        <time>2022-06-29T09:08:08Z</time>
      </trkpt>
      <trkpt lat="47.83843" lon="6.68553">
        <ele>600.7</ele>
        <time>2022-06-29T09:08:11Z</time>
      </trkpt>
      <trkpt lat="47.83845" lon="6.68546">
        <ele>601.2</ele>
        <time>2022-06-29T09:08:15Z</time>
      </trkpt>
      <trkpt lat="47.83848" lon="6.6854">
        <ele>601.6</ele>
        <time>2022-06-29T09:08:19Z</time>
      </trkpt>
      <trkpt lat="47.8385" lon="6.68534">
        <ele>602</ele>
        <time>2022-06-29T09:08:22Z</time>
      </trkpt>
      <trkpt lat="47.83853" lon="6.68527">
        <ele>602.6</ele>
        <time>2022-06-29T09:08:26Z</time>
      </trkpt>
      <trkpt lat="47.83855" lon="6.68521">
        <ele>603.4</ele>
        <time>2022-06-29T09:08:31Z</time>
      </trkpt>
      <trkpt lat="47.83859" lon="6.68515">
        <ele>604</ele>
        <time>2022-06-29T09:08:36Z</time>
      </trkpt>
      <trkpt lat="47.83863" lon="6.6851">
        <ele>604.4</ele>
        <time>2022-06-29T09:08:40Z</time>
      </trkpt>
      <trkpt lat="47.83867" lon="6.68505">
        <ele>604.7</ele>
        <time>2022-06-29T09:08:44Z</time>
      </trkpt>
      <trkpt lat="47.83871" lon="6.68502">
        <ele>604.9</ele>
        <time>2022-06-29T09:08:48Z</time>
      </trkpt>
      <trkpt lat="47.83875" lon="6.68497">
        <ele>605.1</ele>
        <time>2022-06-29T09:08:53Z</time>
      </trkpt>
      <trkpt lat="47.8388" lon="6.68495">
        <ele>605.3</ele>
        <time>2022-06-29T09:08:56Z</time>
      </trkpt>
      <trkpt lat="47.83885" lon="6.68493">
        <ele>605.9</ele>
        <time>2022-06-29T09:09:00Z</time>
      </trkpt>
      <trkpt lat="47.83888" lon="6.68488">
        <ele>606.7</ele>
        <time>2022-06-29T09:09:07Z</time>
      </trkpt>
      <trkpt lat="47.83891" lon="6.68482">
        <ele>607.1</ele>
        <time>2022-06-29T09:09:10Z</time>
      </trkpt>
      <trkpt lat="47.83894" lon="6.68477">
        <ele>608</ele>
        <time>2022-06-29T09:09:19Z</time>
      </trkpt>
      <trkpt lat="47.83897" lon="6.68472">
        <ele>608.5</ele>
        <time>2022-06-29T09:09:24Z</time>
      </trkpt>
      <trkpt lat="47.83902" lon="6.68468">
        <ele>608.7</ele>
        <time>2022-06-29T09:09:28Z</time>
      </trkpt>
      <trkpt lat="47.83905" lon="6.68463">
        <ele>608.9</ele>
        <time>2022-06-29T09:09:32Z</time>
      </trkpt>
      <trkpt lat="47.8391" lon="6.68458">
        <ele>609.2</ele>
        <time>2022-06-29T09:09:36Z</time>
      </trkpt>
      <trkpt lat="47.83911" lon="6.68451">
        <ele>609.9</ele>
        <time>2022-06-29T09:09:41Z</time>
      </trkpt>
      <trkpt lat="47.83914" lon="6.68443">
        <ele>610.2</ele>
        <time>2022-06-29T09:09:45Z</time>
      </trkpt>
      <trkpt lat="47.83916" lon="6.68437">
        <ele>610.8</ele>
        <time>2022-06-29T09:09:49Z</time>
      </trkpt>
      <trkpt lat="47.83918" lon="6.6843">
        <ele>611.6</ele>
        <time>2022-06-29T09:09:54Z</time>
      </trkpt>
      <trkpt lat="47.83922" lon="6.68425">
        <ele>612.2</ele>
        <time>2022-06-29T09:10:01Z</time>
      </trkpt>
      <trkpt lat="47.83926" lon="6.68419">
        <ele>611.9</ele>
        <time>2022-06-29T09:10:09Z</time>
      </trkpt>
      <trkpt lat="47.83927" lon="6.68411">
        <ele>612</ele>
        <time>2022-06-29T09:10:13Z</time>
      </trkpt>
      <trkpt lat="47.83929" lon="6.68404">
        <ele>612.3</ele>
        <time>2022-06-29T09:10:18Z</time>
      </trkpt>
      <trkpt lat="47.8393" lon="6.68398">
        <ele>612.4</ele>
        <time>2022-06-29T09:10:22Z</time>
      </trkpt>
      <trkpt lat="47.8393" lon="6.68391">
        <ele>612.5</ele>
        <time>2022-06-29T09:10:26Z</time>
      </trkpt>
      <trkpt lat="47.8393" lon="6.68383">
        <ele>612.7</ele>
        <time>2022-06-29T09:10:30Z</time>
      </trkpt>
      <trkpt lat="47.83929" lon="6.68374">
        <ele>612.9</ele>
        <time>2022-06-29T09:10:34Z</time>
      </trkpt>
      <trkpt lat="47.8393" lon="6.68365">
        <ele>612.9</ele>
        <time>2022-06-29T09:10:38Z</time>
      </trkpt>
      <trkpt lat="47.8393" lon="6.68357">
        <ele>612.8</ele>
        <time>2022-06-29T09:10:42Z</time>
      </trkpt>
      <trkpt lat="47.83934" lon="6.68353">
        <ele>612.6</ele>
        <time>2022-06-29T09:10:48Z</time>
      </trkpt>
      <trkpt lat="47.83936" lon="6.68346">
        <ele>612.7</ele>
        <time>2022-06-29T09:10:54Z</time>
      </trkpt>
      <trkpt lat="47.83937" lon="6.68338">
        <ele>612.8</ele>
        <time>2022-06-29T09:10:59Z</time>
      </trkpt>
      <trkpt lat="47.83937" lon="6.68331">
        <ele>612.7</ele>
        <time>2022-06-29T09:11:04Z</time>
      </trkpt>
      <trkpt lat="47.83938" lon="6.68324">
        <ele>612.2</ele>
        <time>2022-06-29T09:11:08Z</time>
      </trkpt>
      <trkpt lat="47.8394" lon="6.68317">
        <ele>611.9</ele>
        <time>2022-06-29T09:11:13Z</time>
      </trkpt>
      <trkpt lat="47.83942" lon="6.68309">
        <ele>611.7</ele>
        <time>2022-06-29T09:11:17Z</time>
      </trkpt>
      <trkpt lat="47.83945" lon="6.68304">
        <ele>611.6</ele>
        <time>2022-06-29T09:11:20Z</time>
      </trkpt>
      <trkpt lat="47.83949" lon="6.68296">
        <ele>611.4</ele>
        <time>2022-06-29T09:11:23Z</time>
      </trkpt>
      <trkpt lat="47.83951" lon="6.68289">
        <ele>611.1</ele>
        <time>2022-06-29T09:11:26Z</time>
      </trkpt>
      <trkpt lat="47.83953" lon="6.68283">
        <ele>610.7</ele>
        <time>2022-06-29T09:11:29Z</time>
      </trkpt>
      <trkpt lat="47.83955" lon="6.68276">
        <ele>609.8</ele>
        <time>2022-06-29T09:11:34Z</time>
      </trkpt>
      <trkpt lat="47.83958" lon="6.6827">
        <ele>608.4</ele>
        <time>2022-06-29T09:11:42Z</time>
      </trkpt>
      <trkpt lat="47.83961" lon="6.68264">
        <ele>607.9</ele>
        <time>2022-06-29T09:11:48Z</time>
      </trkpt>
      <trkpt lat="47.83965" lon="6.68258">
        <ele>607.3</ele>
        <time>2022-06-29T09:11:53Z</time>
      </trkpt>
      <trkpt lat="47.83969" lon="6.68252">
        <ele>606.8</ele>
        <time>2022-06-29T09:11:57Z</time>
      </trkpt>
      <trkpt lat="47.83973" lon="6.68248">
        <ele>606.2</ele>
        <time>2022-06-29T09:12:01Z</time>
      </trkpt>
      <trkpt lat="47.83977" lon="6.68244">
        <ele>605.9</ele>
        <time>2022-06-29T09:12:05Z</time>
      </trkpt>
      <trkpt lat="47.83981" lon="6.6824">
        <ele>605.5</ele>
        <time>2022-06-29T09:12:09Z</time>
      </trkpt>
      <trkpt lat="47.83984" lon="6.68234">
        <ele>605.2</ele>
        <time>2022-06-29T09:12:14Z</time>
      </trkpt>
      <trkpt lat="47.83989" lon="6.68231">
        <ele>605.2</ele>
        <time>2022-06-29T09:12:19Z</time>
      </trkpt>
      <trkpt lat="47.83993" lon="6.68227">
        <ele>605.7</ele>
        <time>2022-06-29T09:12:25Z</time>
      </trkpt>
      <trkpt lat="47.83996" lon="6.68222">
        <ele>606.2</ele>
        <time>2022-06-29T09:12:30Z</time>
      </trkpt>
      <trkpt lat="47.83999" lon="6.68216">
        <ele>606.5</ele>
        <time>2022-06-29T09:12:36Z</time>
      </trkpt>
      <trkpt lat="47.84005" lon="6.68214">
        <ele>606.6</ele>
        <time>2022-06-29T09:12:41Z</time>
      </trkpt>
      <trkpt lat="47.84009" lon="6.68211">
        <ele>606.7</ele>
        <time>2022-06-29T09:12:44Z</time>
      </trkpt>
      <trkpt lat="47.84014" lon="6.68207">
        <ele>606.8</ele>
        <time>2022-06-29T09:12:48Z</time>
      </trkpt>
      <trkpt lat="47.84019" lon="6.68205">
        <ele>607.1</ele>
        <time>2022-06-29T09:12:51Z</time>
      </trkpt>
      <trkpt lat="47.84024" lon="6.68203">
        <ele>607.4</ele>
        <time>2022-06-29T09:12:55Z</time>
      </trkpt>
      <trkpt lat="47.84029" lon="6.68201">
        <ele>607.4</ele>
        <time>2022-06-29T09:12:59Z</time>
      </trkpt>
      <trkpt lat="47.84034" lon="6.68199">
        <ele>607.4</ele>
        <time>2022-06-29T09:13:03Z</time>
      </trkpt>
      <trkpt lat="47.84038" lon="6.68197">
        <ele>607.2</ele>
        <time>2022-06-29T09:13:07Z</time>
      </trkpt>
      <trkpt lat="47.84043" lon="6.68194">
        <ele>607</ele>
        <time>2022-06-29T09:13:14Z</time>
      </trkpt>
      <trkpt lat="47.84048" lon="6.68193">
        <ele>606</ele>
        <time>2022-06-29T09:13:20Z</time>
      </trkpt>
      <trkpt lat="47.84052" lon="6.68194">
        <ele>605.1</ele>
        <time>2022-06-29T09:13:25Z</time>
      </trkpt>
      <trkpt lat="47.84057" lon="6.68193">
        <ele>604.8</ele>
        <time>2022-06-29T09:13:28Z</time>
      </trkpt>
      <trkpt lat="47.84062" lon="6.6819">
        <ele>604.5</ele>
        <time>2022-06-29T09:13:32Z</time>
      </trkpt>
      <trkpt lat="47.84067" lon="6.68185">
        <ele>604.4</ele>
        <time>2022-06-29T09:13:37Z</time>
      </trkpt>
      <trkpt lat="47.84072" lon="6.68181">
        <ele>604.3</ele>
        <time>2022-06-29T09:13:41Z</time>
      </trkpt>
      <trkpt lat="47.84076" lon="6.68179">
        <ele>604.3</ele>
        <time>2022-06-29T09:13:44Z</time>
      </trkpt>
      <trkpt lat="47.84081" lon="6.68175">
        <ele>604.4</ele>
        <time>2022-06-29T09:13:47Z</time>
      </trkpt>
      <trkpt lat="47.84086" lon="6.68171">
        <ele>604.7</ele>
        <time>2022-06-29T09:13:51Z</time>
      </trkpt>
      <trkpt lat="47.8409" lon="6.68169">
        <ele>604.8</ele>
        <time>2022-06-29T09:13:54Z</time>
      </trkpt>
      <trkpt lat="47.84095" lon="6.68167">
        <ele>604.8</ele>
        <time>2022-06-29T09:13:57Z</time>
      </trkpt>
      <trkpt lat="47.84099" lon="6.68163">
        <ele>604.5</ele>
        <time>2022-06-29T09:14:01Z</time>
      </trkpt>
      <trkpt lat="47.841" lon="6.68156">
        <ele>604.5</ele>
        <time>2022-06-29T09:14:07Z</time>
      </trkpt>
      <trkpt lat="47.84102" lon="6.68149">
        <ele>604.6</ele>
        <time>2022-06-29T09:14:12Z</time>
      </trkpt>
      <trkpt lat="47.84107" lon="6.68145">
        <ele>604.7</ele>
        <time>2022-06-29T09:14:16Z</time>
      </trkpt>
      <trkpt lat="47.84111" lon="6.68141">
        <ele>605.3</ele>
        <time>2022-06-29T09:14:21Z</time>
      </trkpt>
      <trkpt lat="47.84117" lon="6.68139">
        <ele>606</ele>
        <time>2022-06-29T09:14:25Z</time>
      </trkpt>
      <trkpt lat="47.84122" lon="6.68136">
        <ele>607</ele>
        <time>2022-06-29T09:14:29Z</time>
      </trkpt>
      <trkpt lat="47.84126" lon="6.68133">
        <ele>607.4</ele>
        <time>2022-06-29T09:14:32Z</time>
      </trkpt>
      <trkpt lat="47.84127" lon="6.68125">
        <ele>608.2</ele>
        <time>2022-06-29T09:14:37Z</time>
      </trkpt>
      <trkpt lat="47.84124" lon="6.68121">
        <ele>608.2</ele>
        <time>2022-06-29T09:14:41Z</time>
      </trkpt>
      <trkpt lat="47.8412" lon="6.68118">
        <ele>607.8</ele>
        <time>2022-06-29T09:14:45Z</time>
      </trkpt>
      <trkpt lat="47.84115" lon="6.68114">
        <ele>607.7</ele>
        <time>2022-06-29T09:14:48Z</time>
      </trkpt>
      <trkpt lat="47.8411" lon="6.68108">
        <ele>607.8</ele>
        <time>2022-06-29T09:14:51Z</time>
      </trkpt>
      <trkpt lat="47.84107" lon="6.68104">
        <ele>608</ele>
        <time>2022-06-29T09:14:54Z</time>
      </trkpt>
      <trkpt lat="47.84102" lon="6.68101">
        <ele>608.6</ele>
        <time>2022-06-29T09:14:59Z</time>
      </trkpt>
      <trkpt lat="47.84097" lon="6.68097">
        <ele>609.3</ele>
        <time>2022-06-29T09:15:05Z</time>
      </trkpt>
      <trkpt lat="47.84092" lon="6.68095">
        <ele>609.8</ele>
        <time>2022-06-29T09:15:08Z</time>
      </trkpt>
      <trkpt lat="47.84088" lon="6.68092">
        <ele>610.2</ele>
        <time>2022-06-29T09:15:11Z</time>
      </trkpt>
      <trkpt lat="47.84084" lon="6.68088">
        <ele>610.3</ele>
        <time>2022-06-29T09:15:15Z</time>
      </trkpt>
      <trkpt lat="47.8408" lon="6.68085">
        <ele>610.4</ele>
        <time>2022-06-29T09:15:20Z</time>
      </trkpt>
      <trkpt lat="47.84076" lon="6.68081">
        <ele>610.3</ele>
        <time>2022-06-29T09:15:24Z</time>
      </trkpt>
      <trkpt lat="47.84074" lon="6.68074">
        <ele>610.6</ele>
        <time>2022-06-29T09:15:32Z</time>
      </trkpt>
      <trkpt lat="47.84071" lon="6.68069">
        <ele>610.6</ele>
        <time>2022-06-29T09:15:36Z</time>
      </trkpt>
      <trkpt lat="47.84066" lon="6.68064">
        <ele>610.4</ele>
        <time>2022-06-29T09:15:39Z</time>
      </trkpt>
      <trkpt lat="47.84061" lon="6.68062">
        <ele>610.6</ele>
        <time>2022-06-29T09:15:43Z</time>
      </trkpt>
      <trkpt lat="47.84056" lon="6.68058">
        <ele>611</ele>
        <time>2022-06-29T09:15:48Z</time>
      </trkpt>
      <trkpt lat="47.84057" lon="6.68051">
        <ele>611.7</ele>
        <time>2022-06-29T09:15:57Z</time>
      </trkpt>
      <trkpt lat="47.84055" lon="6.68043">
        <ele>612.1</ele>
        <time>2022-06-29T09:16:02Z</time>
      </trkpt>
      <trkpt lat="47.84053" lon="6.68037">
        <ele>612.7</ele>
        <time>2022-06-29T09:16:07Z</time>
      </trkpt>
      <trkpt lat="47.84052" lon="6.6803">
        <ele>612.9</ele>
        <time>2022-06-29T09:16:12Z</time>
      </trkpt>
      <trkpt lat="47.84048" lon="6.68023">
        <ele>613.1</ele>
        <time>2022-06-29T09:16:17Z</time>
      </trkpt>
      <trkpt lat="47.84049" lon="6.68016">
        <ele>613.3</ele>
        <time>2022-06-29T09:16:24Z</time>
      </trkpt>
      <trkpt lat="47.84052" lon="6.68011">
        <ele>614</ele>
        <time>2022-06-29T09:16:29Z</time>
      </trkpt>
      <trkpt lat="47.84054" lon="6.68004">
        <ele>614.5</ele>
        <time>2022-06-29T09:16:33Z</time>
      </trkpt>
      <trkpt lat="47.84057" lon="6.67998">
        <ele>615.1</ele>
        <time>2022-06-29T09:16:44Z</time>
      </trkpt>
      <trkpt lat="47.84061" lon="6.67992">
        <ele>615.6</ele>
        <time>2022-06-29T09:16:51Z</time>
      </trkpt>
      <trkpt lat="47.84063" lon="6.67985">
        <ele>615.8</ele>
        <time>2022-06-29T09:16:55Z</time>
      </trkpt>
      <trkpt lat="47.84062" lon="6.67978">
        <ele>615.9</ele>
        <time>2022-06-29T09:16:59Z</time>
      </trkpt>
      <trkpt lat="47.84058" lon="6.67972">
        <ele>615.9</ele>
        <time>2022-06-29T09:17:03Z</time>
      </trkpt>
      <trkpt lat="47.84057" lon="6.67965">
        <ele>616.1</ele>
        <time>2022-06-29T09:17:08Z</time>
      </trkpt>
      <trkpt lat="47.84057" lon="6.67958">
        <ele>615.8</ele>
        <time>2022-06-29T09:17:12Z</time>
      </trkpt>
      <trkpt lat="47.84057" lon="6.6795">
        <ele>615.4</ele>
        <time>2022-06-29T09:17:16Z</time>
      </trkpt>
      <trkpt lat="47.84056" lon="6.67944">
        <ele>615.2</ele>
        <time>2022-06-29T09:17:19Z</time>
      </trkpt>
      <trkpt lat="47.84053" lon="6.67936">
        <ele>615.1</ele>
        <time>2022-06-29T09:17:22Z</time>
      </trkpt>
      <trkpt lat="47.84052" lon="6.67929">
        <ele>615.1</ele>
        <time>2022-06-29T09:17:25Z</time>
      </trkpt>
      <trkpt lat="47.8405" lon="6.67922">
        <ele>615.2</ele>
        <time>2022-06-29T09:17:31Z</time>
      </trkpt>
      <trkpt lat="47.84048" lon="6.67916">
        <ele>616.3</ele>
        <time>2022-06-29T09:17:39Z</time>
      </trkpt>
      <trkpt lat="47.84047" lon="6.67909">
        <ele>616.9</ele>
        <time>2022-06-29T09:17:43Z</time>
      </trkpt>
      <trkpt lat="47.84047" lon="6.67902">
        <ele>617.7</ele>
        <time>2022-06-29T09:17:53Z</time>
      </trkpt>
      <trkpt lat="47.84045" lon="6.67895">
        <ele>616.2</ele>
        <time>2022-06-29T09:18:45Z</time>
      </trkpt>
      <trkpt lat="47.84046" lon="6.67888">
        <ele>616.5</ele>
        <time>2022-06-29T09:18:50Z</time>
      </trkpt>
      <trkpt lat="47.84046" lon="6.6788">
        <ele>617.6</ele>
        <time>2022-06-29T09:18:56Z</time>
      </trkpt>
      <trkpt lat="47.84045" lon="6.67873">
        <ele>618.3</ele>
        <time>2022-06-29T09:19:00Z</time>
      </trkpt>
      <trkpt lat="47.84046" lon="6.67867">
        <ele>617.8</ele>
        <time>2022-06-29T09:19:06Z</time>
      </trkpt>
      <trkpt lat="47.8405" lon="6.67867">
        <ele>616.3</ele>
        <time>2022-06-29T09:19:11Z</time>
      </trkpt>
      <trkpt lat="47.84053" lon="6.67862">
        <ele>614.4</ele>
        <time>2022-06-29T09:19:17Z</time>
      </trkpt>
      <trkpt lat="47.84056" lon="6.67856">
        <ele>613</ele>
        <time>2022-06-29T09:19:21Z</time>
      </trkpt>
      <trkpt lat="47.84057" lon="6.67848">
        <ele>611.4</ele>
        <time>2022-06-29T09:19:26Z</time>
      </trkpt>
      <trkpt lat="47.84061" lon="6.67841">
        <ele>610.2</ele>
        <time>2022-06-29T09:19:31Z</time>
      </trkpt>
      <trkpt lat="47.84063" lon="6.67835">
        <ele>609.9</ele>
        <time>2022-06-29T09:19:34Z</time>
      </trkpt>
      <trkpt lat="47.84065" lon="6.67827">
        <ele>610</ele>
        <time>2022-06-29T09:19:39Z</time>
      </trkpt>
      <trkpt lat="47.84068" lon="6.67821">
        <ele>610.2</ele>
        <time>2022-06-29T09:19:43Z</time>
      </trkpt>
      <trkpt lat="47.84071" lon="6.67815">
        <ele>610.1</ele>
        <time>2022-06-29T09:19:47Z</time>
      </trkpt>
      <trkpt lat="47.84075" lon="6.67811">
        <ele>609.8</ele>
        <time>2022-06-29T09:19:51Z</time>
      </trkpt>
      <trkpt lat="47.84079" lon="6.67806">
        <ele>608.2</ele>
        <time>2022-06-29T09:19:57Z</time>
      </trkpt>
      <trkpt lat="47.84084" lon="6.67803">
        <ele>607.6</ele>
        <time>2022-06-29T09:20:01Z</time>
      </trkpt>
      <trkpt lat="47.84089" lon="6.67799">
        <ele>607.2</ele>
        <time>2022-06-29T09:20:05Z</time>
      </trkpt>
      <trkpt lat="47.84093" lon="6.67795">
        <ele>607</ele>
        <time>2022-06-29T09:20:09Z</time>
      </trkpt>
      <trkpt lat="47.84096" lon="6.67788">
        <ele>607</ele>
        <time>2022-06-29T09:20:13Z</time>
      </trkpt>
      <trkpt lat="47.84097" lon="6.67782">
        <ele>607</ele>
        <time>2022-06-29T09:20:17Z</time>
      </trkpt>
      <trkpt lat="47.84093" lon="6.67777">
        <ele>607.3</ele>
        <time>2022-06-29T09:20:24Z</time>
      </trkpt>
      <trkpt lat="47.84093" lon="6.6777">
        <ele>607.7</ele>
        <time>2022-06-29T09:20:30Z</time>
      </trkpt>
      <trkpt lat="47.84095" lon="6.67764">
        <ele>607.8</ele>
        <time>2022-06-29T09:20:34Z</time>
      </trkpt>
      <trkpt lat="47.841" lon="6.67761">
        <ele>608</ele>
        <time>2022-06-29T09:20:38Z</time>
      </trkpt>
      <trkpt lat="47.84104" lon="6.67757">
        <ele>610.1</ele>
        <time>2022-06-29T09:20:50Z</time>
      </trkpt>
      <trkpt lat="47.84107" lon="6.67752">
        <ele>612.8</ele>
        <time>2022-06-29T09:21:02Z</time>
      </trkpt>
      <trkpt lat="47.84112" lon="6.67749">
        <ele>614.2</ele>
        <time>2022-06-29T09:21:06Z</time>
      </trkpt>
      <trkpt lat="47.84113" lon="6.67755">
        <ele>615.7</ele>
        <time>2022-06-29T09:21:13Z</time>
      </trkpt>
      <trkpt lat="47.84118" lon="6.67755">
        <ele>617.2</ele>
        <time>2022-06-29T09:21:22Z</time>
      </trkpt>
      <trkpt lat="47.84115" lon="6.67761">
        <ele>618</ele>
        <time>2022-06-29T09:21:34Z</time>
      </trkpt>
      <trkpt lat="47.84112" lon="6.67754">
        <ele>618.3</ele>
        <time>2022-06-29T09:21:47Z</time>
      </trkpt>
      <trkpt lat="47.84117" lon="6.67755">
        <ele>619.1</ele>
        <time>2022-06-29T09:22:14Z</time>
      </trkpt>
      <trkpt lat="47.84121" lon="6.67758">
        <ele>619.8</ele>
        <time>2022-06-29T09:22:18Z</time>
      </trkpt>
      <trkpt lat="47.84125" lon="6.67761">
        <ele>619.7</ele>
        <time>2022-06-29T09:22:21Z</time>
      </trkpt>
      <trkpt lat="47.84129" lon="6.67765">
        <ele>619.5</ele>
        <time>2022-06-29T09:22:25Z</time>
      </trkpt>
      <trkpt lat="47.84131" lon="6.67773">
        <ele>618.6</ele>
        <time>2022-06-29T09:22:31Z</time>
      </trkpt>
      <trkpt lat="47.84133" lon="6.6778">
        <ele>618.4</ele>
        <time>2022-06-29T09:22:36Z</time>
      </trkpt>
      <trkpt lat="47.84137" lon="6.67785">
        <ele>618.2</ele>
        <time>2022-06-29T09:22:42Z</time>
      </trkpt>
      <trkpt lat="47.84137" lon="6.67793">
        <ele>618.1</ele>
        <time>2022-06-29T09:22:48Z</time>
      </trkpt>
      <trkpt lat="47.84138" lon="6.67801">
        <ele>617.8</ele>
        <time>2022-06-29T09:22:52Z</time>
      </trkpt>
      <trkpt lat="47.84139" lon="6.67809">
        <ele>618.1</ele>
        <time>2022-06-29T09:22:57Z</time>
      </trkpt>
      <trkpt lat="47.84141" lon="6.67817">
        <ele>618.8</ele>
        <time>2022-06-29T09:23:02Z</time>
      </trkpt>
      <trkpt lat="47.84145" lon="6.67822">
        <ele>619.6</ele>
        <time>2022-06-29T09:23:06Z</time>
      </trkpt>
      <trkpt lat="47.84146" lon="6.6783">
        <ele>620.8</ele>
        <time>2022-06-29T09:23:11Z</time>
      </trkpt>
      <trkpt lat="47.84147" lon="6.67837">
        <ele>621.9</ele>
        <time>2022-06-29T09:23:14Z</time>
      </trkpt>
      <trkpt lat="47.84147" lon="6.67844">
        <ele>625.3</ele>
        <time>2022-06-29T09:23:18Z</time>
      </trkpt>
      <trkpt lat="47.84146" lon="6.67851">
        <ele>628.4</ele>
        <time>2022-06-29T09:23:21Z</time>
      </trkpt>
      <trkpt lat="47.84143" lon="6.67857">
        <ele>631.1</ele>
        <time>2022-06-29T09:23:26Z</time>
      </trkpt>
      <trkpt lat="47.84141" lon="6.67864">
        <ele>632.1</ele>
        <time>2022-06-29T09:23:31Z</time>
      </trkpt>
      <trkpt lat="47.84146" lon="6.67862">
        <ele>632.6</ele>
        <time>2022-06-29T09:23:40Z</time>
      </trkpt>
      <trkpt lat="47.8415" lon="6.67868">
        <ele>634.4</ele>
        <time>2022-06-29T09:23:46Z</time>
      </trkpt>
      <trkpt lat="47.84151" lon="6.67875">
        <ele>635</ele>
        <time>2022-06-29T09:23:50Z</time>
      </trkpt>
      <trkpt lat="47.84156" lon="6.67879">
        <ele>635.8</ele>
        <time>2022-06-29T09:24:15Z</time>
      </trkpt>
      <trkpt lat="47.84158" lon="6.67872">
        <ele>636.5</ele>
        <time>2022-06-29T09:24:54Z</time>
      </trkpt>
      <trkpt lat="47.84158" lon="6.67865">
        <ele>636</ele>
        <time>2022-06-29T09:24:59Z</time>
      </trkpt>
      <trkpt lat="47.84158" lon="6.67857">
        <ele>635.7</ele>
        <time>2022-06-29T09:25:04Z</time>
      </trkpt>
      <trkpt lat="47.84162" lon="6.67852">
        <ele>635.6</ele>
        <time>2022-06-29T09:25:12Z</time>
      </trkpt>
      <trkpt lat="47.84166" lon="6.67848">
        <ele>635.2</ele>
        <time>2022-06-29T09:25:29Z</time>
      </trkpt>
      <trkpt lat="47.8417" lon="6.67844">
        <ele>635.4</ele>
        <time>2022-06-29T09:25:37Z</time>
      </trkpt>
      <trkpt lat="47.84174" lon="6.67838">
        <ele>635.3</ele>
        <time>2022-06-29T09:25:44Z</time>
      </trkpt>
      <trkpt lat="47.84178" lon="6.67835">
        <ele>635.9</ele>
        <time>2022-06-29T09:25:49Z</time>
      </trkpt>
      <trkpt lat="47.84182" lon="6.67833">
        <ele>636.9</ele>
        <time>2022-06-29T09:25:54Z</time>
      </trkpt>
      <trkpt lat="47.84185" lon="6.67828">
        <ele>638.7</ele>
        <time>2022-06-29T09:26:03Z</time>
      </trkpt>
      <trkpt lat="47.8419" lon="6.67826">
        <ele>640</ele>
        <time>2022-06-29T09:26:10Z</time>
      </trkpt>
      <trkpt lat="47.84195" lon="6.67824">
        <ele>641.1</ele>
        <time>2022-06-29T09:26:15Z</time>
      </trkpt>
      <trkpt lat="47.84199" lon="6.67825">
        <ele>643.6</ele>
        <time>2022-06-29T09:26:24Z</time>
      </trkpt>
      <trkpt lat="47.84204" lon="6.67823">
        <ele>644.7</ele>
        <time>2022-06-29T09:26:29Z</time>
      </trkpt>
      <trkpt lat="47.84209" lon="6.67824">
        <ele>645.9</ele>
        <time>2022-06-29T09:26:35Z</time>
      </trkpt>
      <trkpt lat="47.84213" lon="6.67821">
        <ele>646.7</ele>
        <time>2022-06-29T09:26:39Z</time>
      </trkpt>
      <trkpt lat="47.84218" lon="6.67819">
        <ele>647.6</ele>
        <time>2022-06-29T09:26:44Z</time>
      </trkpt>
      <trkpt lat="47.84223" lon="6.67817">
        <ele>648</ele>
        <time>2022-06-29T09:26:49Z</time>
      </trkpt>
      <trkpt lat="47.84228" lon="6.67815">
        <ele>647.9</ele>
        <time>2022-06-29T09:26:54Z</time>
      </trkpt>
      <trkpt lat="47.84233" lon="6.67813">
        <ele>647.7</ele>
        <time>2022-06-29T09:26:58Z</time>
      </trkpt>
      <trkpt lat="47.84237" lon="6.67809">
        <ele>647.2</ele>
        <time>2022-06-29T09:27:04Z</time>
      </trkpt>
      <trkpt lat="47.84242" lon="6.67807">
        <ele>646.1</ele>
        <time>2022-06-29T09:27:12Z</time>
      </trkpt>
      <trkpt lat="47.84247" lon="6.67807">
        <ele>645.6</ele>
        <time>2022-06-29T09:27:18Z</time>
      </trkpt>
      <trkpt lat="47.84251" lon="6.67804">
        <ele>645.6</ele>
        <time>2022-06-29T09:27:30Z</time>
      </trkpt>
      <trkpt lat="47.84256" lon="6.67802">
        <ele>645.7</ele>
        <time>2022-06-29T09:27:35Z</time>
      </trkpt>
      <trkpt lat="47.84261" lon="6.678">
        <ele>645.3</ele>
        <time>2022-06-29T09:27:43Z</time>
      </trkpt>
      <trkpt lat="47.84266" lon="6.67798">
        <ele>645.1</ele>
        <time>2022-06-29T09:27:47Z</time>
      </trkpt>
      <trkpt lat="47.8427" lon="6.67793">
        <ele>641.5</ele>
        <time>2022-06-29T09:28:29Z</time>
      </trkpt>
      <trkpt lat="47.84274" lon="6.67791">
        <ele>641.7</ele>
        <time>2022-06-29T09:28:33Z</time>
      </trkpt>
      <trkpt lat="47.84279" lon="6.67788">
        <ele>641.8</ele>
        <time>2022-06-29T09:28:36Z</time>
      </trkpt>
      <trkpt lat="47.84283" lon="6.67784">
        <ele>642.1</ele>
        <time>2022-06-29T09:28:40Z</time>
      </trkpt>
      <trkpt lat="47.84287" lon="6.67781">
        <ele>642.5</ele>
        <time>2022-06-29T09:28:45Z</time>
      </trkpt>
      <trkpt lat="47.84291" lon="6.67779">
        <ele>642.8</ele>
        <time>2022-06-29T09:28:48Z</time>
      </trkpt>
      <trkpt lat="47.84297" lon="6.67777">
        <ele>643</ele>
        <time>2022-06-29T09:28:51Z</time>
      </trkpt>
      <trkpt lat="47.84302" lon="6.67775">
        <ele>643.3</ele>
        <time>2022-06-29T09:28:55Z</time>
      </trkpt>
      <trkpt lat="47.84308" lon="6.6777">
        <ele>643.8</ele>
        <time>2022-06-29T09:29:00Z</time>
      </trkpt>
      <trkpt lat="47.84313" lon="6.67768">
        <ele>644.6</ele>
        <time>2022-06-29T09:29:04Z</time>
      </trkpt>
      <trkpt lat="47.84317" lon="6.67767">
        <ele>645.9</ele>
        <time>2022-06-29T09:29:09Z</time>
      </trkpt>
      <trkpt lat="47.84322" lon="6.67769">
        <ele>647.5</ele>
        <time>2022-06-29T09:29:16Z</time>
      </trkpt>
      <trkpt lat="47.84326" lon="6.67765">
        <ele>648.3</ele>
        <time>2022-06-29T09:29:22Z</time>
      </trkpt>
      <trkpt lat="47.8433" lon="6.67761">
        <ele>648.4</ele>
        <time>2022-06-29T09:29:27Z</time>
      </trkpt>
      <trkpt lat="47.84332" lon="6.67755">
        <ele>648.2</ele>
        <time>2022-06-29T09:29:37Z</time>
      </trkpt>
      <trkpt lat="47.84335" lon="6.67749">
        <ele>648.7</ele>
        <time>2022-06-29T09:29:43Z</time>
      </trkpt>
      <trkpt lat="47.84339" lon="6.67745">
        <ele>649.1</ele>
        <time>2022-06-29T09:29:47Z</time>
      </trkpt>
      <trkpt lat="47.84344" lon="6.67741">
        <ele>649.2</ele>
        <time>2022-06-29T09:29:53Z</time>
      </trkpt>
      <trkpt lat="47.84349" lon="6.6774">
        <ele>649.2</ele>
        <time>2022-06-29T09:29:57Z</time>
      </trkpt>
      <trkpt lat="47.84355" lon="6.67738">
        <ele>649.2</ele>
        <time>2022-06-29T09:30:00Z</time>
      </trkpt>
      <trkpt lat="47.8436" lon="6.67736">
        <ele>649.3</ele>
        <time>2022-06-29T09:30:03Z</time>
      </trkpt>
      <trkpt lat="47.84365" lon="6.67734">
        <ele>649.6</ele>
        <time>2022-06-29T09:30:07Z</time>
      </trkpt>
      <trkpt lat="47.84369" lon="6.67732">
        <ele>649.9</ele>
        <time>2022-06-29T09:30:15Z</time>
      </trkpt>
      <trkpt lat="47.84375" lon="6.67731">
        <ele>649.9</ele>
        <time>2022-06-29T09:30:21Z</time>
      </trkpt>
      <trkpt lat="47.84379" lon="6.67726">
        <ele>649.6</ele>
        <time>2022-06-29T09:30:26Z</time>
      </trkpt>
      <trkpt lat="47.84383" lon="6.67722">
        <ele>648.8</ele>
        <time>2022-06-29T09:30:35Z</time>
      </trkpt>
      <trkpt lat="47.84386" lon="6.67716">
        <ele>648.1</ele>
        <time>2022-06-29T09:30:39Z</time>
      </trkpt>
      <trkpt lat="47.84384" lon="6.67709">
        <ele>648.1</ele>
        <time>2022-06-29T09:30:49Z</time>
      </trkpt>
      <trkpt lat="47.84381" lon="6.67704">
        <ele>650</ele>
        <time>2022-06-29T09:30:59Z</time>
      </trkpt>
      <trkpt lat="47.84386" lon="6.67701">
        <ele>651.8</ele>
        <time>2022-06-29T09:31:17Z</time>
      </trkpt>
      <trkpt lat="47.84386" lon="6.67694">
        <ele>653.7</ele>
        <time>2022-06-29T09:31:54Z</time>
      </trkpt>
      <trkpt lat="47.84382" lon="6.67698">
        <ele>652.2</ele>
        <time>2022-06-29T09:33:22Z</time>
      </trkpt>
      <trkpt lat="47.84387" lon="6.67697">
        <ele>654</ele>
        <time>2022-06-29T09:33:43Z</time>
      </trkpt>
      <trkpt lat="47.84388" lon="6.6769">
        <ele>655.8</ele>
        <time>2022-06-29T09:33:51Z</time>
      </trkpt>
      <trkpt lat="47.8439" lon="6.67684">
        <ele>657.4</ele>
        <time>2022-06-29T09:33:57Z</time>
      </trkpt>
      <trkpt lat="47.84389" lon="6.67678">
        <ele>658.3</ele>
        <time>2022-06-29T09:34:03Z</time>
      </trkpt>
      <trkpt lat="47.84388" lon="6.6767">
        <ele>658.1</ele>
        <time>2022-06-29T09:34:08Z</time>
      </trkpt>
      <trkpt lat="47.84388" lon="6.67662">
        <ele>658.1</ele>
        <time>2022-06-29T09:34:13Z</time>
      </trkpt>
      <trkpt lat="47.84389" lon="6.67654">
        <ele>658.1</ele>
        <time>2022-06-29T09:34:18Z</time>
      </trkpt>
      <trkpt lat="47.8439" lon="6.67646">
        <ele>657.5</ele>
        <time>2022-06-29T09:34:24Z</time>
      </trkpt>
      <trkpt lat="47.84393" lon="6.6764">
        <ele>657.7</ele>
        <time>2022-06-29T09:34:30Z</time>
      </trkpt>
      <trkpt lat="47.84395" lon="6.67633">
        <ele>656.3</ele>
        <time>2022-06-29T09:34:35Z</time>
      </trkpt>
      <trkpt lat="47.84398" lon="6.67626">
        <ele>655.3</ele>
        <time>2022-06-29T09:34:39Z</time>
      </trkpt>
      <trkpt lat="47.844" lon="6.6762">
        <ele>654.7</ele>
        <time>2022-06-29T09:34:42Z</time>
      </trkpt>
      <trkpt lat="47.84402" lon="6.67614">
        <ele>653.4</ele>
        <time>2022-06-29T09:34:46Z</time>
      </trkpt>
      <trkpt lat="47.84404" lon="6.67607">
        <ele>650.7</ele>
        <time>2022-06-29T09:34:52Z</time>
      </trkpt>
      <trkpt lat="47.84406" lon="6.67601">
        <ele>648.9</ele>
        <time>2022-06-29T09:34:58Z</time>
      </trkpt>
      <trkpt lat="47.84408" lon="6.67594">
        <ele>648.4</ele>
        <time>2022-06-29T09:35:02Z</time>
      </trkpt>
      <trkpt lat="47.84412" lon="6.67588">
        <ele>648.4</ele>
        <time>2022-06-29T09:35:06Z</time>
      </trkpt>
      <trkpt lat="47.84415" lon="6.67583">
        <ele>648.8</ele>
        <time>2022-06-29T09:35:09Z</time>
      </trkpt>
      <trkpt lat="47.8442" lon="6.67579">
        <ele>649.6</ele>
        <time>2022-06-29T09:35:20Z</time>
      </trkpt>
      <trkpt lat="47.84424" lon="6.67576">
        <ele>650</ele>
        <time>2022-06-29T09:35:29Z</time>
      </trkpt>
      <trkpt lat="47.84429" lon="6.67574">
        <ele>650.4</ele>
        <time>2022-06-29T09:35:32Z</time>
      </trkpt>
      <trkpt lat="47.84433" lon="6.67572">
        <ele>650.8</ele>
        <time>2022-06-29T09:35:35Z</time>
      </trkpt>
      <trkpt lat="47.84437" lon="6.67566">
        <ele>651.7</ele>
        <time>2022-06-29T09:35:38Z</time>
      </trkpt>
      <trkpt lat="47.84439" lon="6.67558">
        <ele>653</ele>
        <time>2022-06-29T09:35:41Z</time>
      </trkpt>
      <trkpt lat="47.8444" lon="6.67552">
        <ele>654.3</ele>
        <time>2022-06-29T09:35:45Z</time>
      </trkpt>
      <trkpt lat="47.84443" lon="6.67546">
        <ele>655.6</ele>
        <time>2022-06-29T09:35:49Z</time>
      </trkpt>
      <trkpt lat="47.84444" lon="6.67538">
        <ele>656.5</ele>
        <time>2022-06-29T09:35:54Z</time>
      </trkpt>
      <trkpt lat="47.84444" lon="6.67531">
        <ele>656.2</ele>
        <time>2022-06-29T09:35:59Z</time>
      </trkpt>
      <trkpt lat="47.8444" lon="6.67525">
        <ele>655.5</ele>
        <time>2022-06-29T09:36:03Z</time>
      </trkpt>
      <trkpt lat="47.84436" lon="6.67518">
        <ele>654.7</ele>
        <time>2022-06-29T09:36:06Z</time>
      </trkpt>
      <trkpt lat="47.84434" lon="6.67511">
        <ele>653.9</ele>
        <time>2022-06-29T09:36:09Z</time>
      </trkpt>
      <trkpt lat="47.84434" lon="6.67504">
        <ele>653</ele>
        <time>2022-06-29T09:36:20Z</time>
      </trkpt>
      <trkpt lat="47.84431" lon="6.67498">
        <ele>653.1</ele>
        <time>2022-06-29T09:36:24Z</time>
      </trkpt>
      <trkpt lat="47.84428" lon="6.67494">
        <ele>653.3</ele>
        <time>2022-06-29T09:36:28Z</time>
      </trkpt>
      <trkpt lat="47.84425" lon="6.67487">
        <ele>653.7</ele>
        <time>2022-06-29T09:36:32Z</time>
      </trkpt>
      <trkpt lat="47.84425" lon="6.6748">
        <ele>655.1</ele>
        <time>2022-06-29T09:36:38Z</time>
      </trkpt>
      <trkpt lat="47.84424" lon="6.67472">
        <ele>656</ele>
        <time>2022-06-29T09:36:43Z</time>
      </trkpt>
      <trkpt lat="47.84424" lon="6.67464">
        <ele>656.2</ele>
        <time>2022-06-29T09:36:47Z</time>
      </trkpt>
      <trkpt lat="47.84424" lon="6.67457">
        <ele>655.7</ele>
        <time>2022-06-29T09:36:51Z</time>
      </trkpt>
      <trkpt lat="47.84427" lon="6.67451">
        <ele>655.2</ele>
        <time>2022-06-29T09:36:55Z</time>
      </trkpt>
      <trkpt lat="47.8443" lon="6.67444">
        <ele>655.2</ele>
        <time>2022-06-29T09:36:58Z</time>
      </trkpt>
      <trkpt lat="47.84432" lon="6.67437">
        <ele>655.4</ele>
        <time>2022-06-29T09:37:01Z</time>
      </trkpt>
      <trkpt lat="47.84437" lon="6.67432">
        <ele>655.5</ele>
        <time>2022-06-29T09:37:04Z</time>
      </trkpt>
      <trkpt lat="47.84441" lon="6.67428">
        <ele>655.2</ele>
        <time>2022-06-29T09:37:07Z</time>
      </trkpt>
      <trkpt lat="47.84445" lon="6.67424">
        <ele>654.6</ele>
        <time>2022-06-29T09:37:12Z</time>
      </trkpt>
      <trkpt lat="47.8445" lon="6.67422">
        <ele>653.6</ele>
        <time>2022-06-29T09:37:21Z</time>
      </trkpt>
      <trkpt lat="47.84454" lon="6.67419">
        <ele>653.5</ele>
        <time>2022-06-29T09:37:26Z</time>
      </trkpt>
      <trkpt lat="47.84459" lon="6.67415">
        <ele>653</ele>
        <time>2022-06-29T09:37:32Z</time>
      </trkpt>
      <trkpt lat="47.84462" lon="6.6741">
        <ele>652.1</ele>
        <time>2022-06-29T09:37:36Z</time>
      </trkpt>
      <trkpt lat="47.84466" lon="6.67405">
        <ele>651.4</ele>
        <time>2022-06-29T09:37:40Z</time>
      </trkpt>
      <trkpt lat="47.84468" lon="6.67399">
        <ele>651.2</ele>
        <time>2022-06-29T09:37:44Z</time>
      </trkpt>
      <trkpt lat="47.84471" lon="6.67392">
        <ele>651.1</ele>
        <time>2022-06-29T09:37:48Z</time>
      </trkpt>
      <trkpt lat="47.84471" lon="6.67384">
        <ele>651.1</ele>
        <time>2022-06-29T09:37:51Z</time>
      </trkpt>
      <trkpt lat="47.84473" lon="6.67377">
        <ele>651.8</ele>
        <time>2022-06-29T09:37:57Z</time>
      </trkpt>
      <trkpt lat="47.84474" lon="6.67371">
        <ele>652.6</ele>
        <time>2022-06-29T09:38:01Z</time>
      </trkpt>
      <trkpt lat="47.84474" lon="6.67363">
        <ele>653.4</ele>
        <time>2022-06-29T09:38:09Z</time>
      </trkpt>
      <trkpt lat="47.84472" lon="6.67357">
        <ele>653.8</ele>
        <time>2022-06-29T09:38:12Z</time>
      </trkpt>
      <trkpt lat="47.84469" lon="6.6735">
        <ele>654.3</ele>
        <time>2022-06-29T09:38:15Z</time>
      </trkpt>
      <trkpt lat="47.84465" lon="6.67344">
        <ele>654.9</ele>
        <time>2022-06-29T09:38:18Z</time>
      </trkpt>
      <trkpt lat="47.84461" lon="6.6734">
        <ele>655.2</ele>
        <time>2022-06-29T09:38:22Z</time>
      </trkpt>
      <trkpt lat="47.84458" lon="6.67335">
        <ele>655.4</ele>
        <time>2022-06-29T09:38:27Z</time>
      </trkpt>
      <trkpt lat="47.84456" lon="6.67329">
        <ele>655.4</ele>
        <time>2022-06-29T09:38:33Z</time>
      </trkpt>
      <trkpt lat="47.84452" lon="6.67326">
        <ele>654.1</ele>
        <time>2022-06-29T09:40:56Z</time>
      </trkpt>
      <trkpt lat="47.84448" lon="6.67319">
        <ele>653</ele>
        <time>2022-06-29T09:41:02Z</time>
      </trkpt>
      <trkpt lat="47.84446" lon="6.67313">
        <ele>653</ele>
        <time>2022-06-29T09:41:06Z</time>
      </trkpt>
      <trkpt lat="47.84443" lon="6.67307">
        <ele>653.6</ele>
        <time>2022-06-29T09:41:10Z</time>
      </trkpt>
      <trkpt lat="47.84441" lon="6.673">
        <ele>654.2</ele>
        <time>2022-06-29T09:41:15Z</time>
      </trkpt>
      <trkpt lat="47.84439" lon="6.67293">
        <ele>655.6</ele>
        <time>2022-06-29T09:41:22Z</time>
      </trkpt>
      <trkpt lat="47.84437" lon="6.67287">
        <ele>656</ele>
        <time>2022-06-29T09:41:26Z</time>
      </trkpt>
      <trkpt lat="47.84435" lon="6.67281">
        <ele>656</ele>
        <time>2022-06-29T09:41:31Z</time>
      </trkpt>
      <trkpt lat="47.84432" lon="6.67274">
        <ele>655.9</ele>
        <time>2022-06-29T09:41:35Z</time>
      </trkpt>
      <trkpt lat="47.8443" lon="6.67268">
        <ele>656.1</ele>
        <time>2022-06-29T09:41:40Z</time>
      </trkpt>
      <trkpt lat="47.84429" lon="6.67261">
        <ele>657.5</ele>
        <time>2022-06-29T09:41:49Z</time>
      </trkpt>
      <trkpt lat="47.84427" lon="6.67254">
        <ele>658.2</ele>
        <time>2022-06-29T09:41:55Z</time>
      </trkpt>
      <trkpt lat="47.84424" lon="6.67248">
        <ele>658.3</ele>
        <time>2022-06-29T09:41:59Z</time>
      </trkpt>
      <trkpt lat="47.84421" lon="6.67243">
        <ele>658.6</ele>
        <time>2022-06-29T09:42:03Z</time>
      </trkpt>
      <trkpt lat="47.84418" lon="6.67236">
        <ele>658.5</ele>
        <time>2022-06-29T09:42:09Z</time>
      </trkpt>
      <trkpt lat="47.84414" lon="6.67229">
        <ele>658.5</ele>
        <time>2022-06-29T09:42:14Z</time>
      </trkpt>
      <trkpt lat="47.84411" lon="6.67225">
        <ele>658.6</ele>
        <time>2022-06-29T09:42:17Z</time>
      </trkpt>
      <trkpt lat="47.84407" lon="6.67219">
        <ele>658.5</ele>
        <time>2022-06-29T09:42:21Z</time>
      </trkpt>
      <trkpt lat="47.84405" lon="6.67214">
        <ele>658.3</ele>
        <time>2022-06-29T09:42:27Z</time>
      </trkpt>
      <trkpt lat="47.84402" lon="6.67207">
        <ele>657.9</ele>
        <time>2022-06-29T09:42:32Z</time>
      </trkpt>
      <trkpt lat="47.84399" lon="6.67201">
        <ele>657.5</ele>
        <time>2022-06-29T09:42:37Z</time>
      </trkpt>
      <trkpt lat="47.84396" lon="6.67195">
        <ele>657.3</ele>
        <time>2022-06-29T09:42:42Z</time>
      </trkpt>
      <trkpt lat="47.84392" lon="6.67188">
        <ele>657.2</ele>
        <time>2022-06-29T09:42:46Z</time>
      </trkpt>
      <trkpt lat="47.84389" lon="6.67182">
        <ele>657.1</ele>
        <time>2022-06-29T09:42:50Z</time>
      </trkpt>
      <trkpt lat="47.84386" lon="6.67178">
        <ele>657.3</ele>
        <time>2022-06-29T09:42:54Z</time>
      </trkpt>
      <trkpt lat="47.84383" lon="6.67173">
        <ele>657.9</ele>
        <time>2022-06-29T09:42:58Z</time>
      </trkpt>
      <trkpt lat="47.84379" lon="6.67167">
        <ele>658.6</ele>
        <time>2022-06-29T09:43:02Z</time>
      </trkpt>
      <trkpt lat="47.84381" lon="6.6716">
        <ele>658.8</ele>
        <time>2022-06-29T09:43:09Z</time>
      </trkpt>
      <trkpt lat="47.84382" lon="6.67153">
        <ele>658.7</ele>
        <time>2022-06-29T09:43:13Z</time>
      </trkpt>
      <trkpt lat="47.84383" lon="6.67145">
        <ele>658.2</ele>
        <time>2022-06-29T09:43:17Z</time>
      </trkpt>
      <trkpt lat="47.84383" lon="6.67138">
        <ele>656.7</ele>
        <time>2022-06-29T09:43:25Z</time>
      </trkpt>
      <trkpt lat="47.84385" lon="6.67131">
        <ele>656.4</ele>
        <time>2022-06-29T09:43:30Z</time>
      </trkpt>
      <trkpt lat="47.84387" lon="6.67125">
        <ele>656.6</ele>
        <time>2022-06-29T09:43:35Z</time>
      </trkpt>
      <trkpt lat="47.84386" lon="6.67118">
        <ele>655.5</ele>
        <time>2022-06-29T09:43:47Z</time>
      </trkpt>
      <trkpt lat="47.84382" lon="6.67113">
        <ele>657.5</ele>
        <time>2022-06-29T09:44:44Z</time>
      </trkpt>
      <trkpt lat="47.84379" lon="6.67109">
        <ele>657.8</ele>
        <time>2022-06-29T09:44:48Z</time>
      </trkpt>
      <trkpt lat="47.84381" lon="6.67102">
        <ele>656.7</ele>
        <time>2022-06-29T09:44:58Z</time>
      </trkpt>
      <trkpt lat="47.84383" lon="6.67096">
        <ele>654.5</ele>
        <time>2022-06-29T09:45:07Z</time>
      </trkpt>
      <trkpt lat="47.84381" lon="6.67089">
        <ele>653.5</ele>
        <time>2022-06-29T09:45:13Z</time>
      </trkpt>
      <trkpt lat="47.8438" lon="6.67082">
        <ele>652.8</ele>
        <time>2022-06-29T09:45:18Z</time>
      </trkpt>
      <trkpt lat="47.84379" lon="6.67075">
        <ele>651.2</ele>
        <time>2022-06-29T09:45:26Z</time>
      </trkpt>
      <trkpt lat="47.84379" lon="6.67067">
        <ele>650.4</ele>
        <time>2022-06-29T09:45:31Z</time>
      </trkpt>
      <trkpt lat="47.84378" lon="6.67058">
        <ele>649.9</ele>
        <time>2022-06-29T09:45:35Z</time>
      </trkpt>
      <trkpt lat="47.84378" lon="6.6705">
        <ele>649.2</ele>
        <time>2022-06-29T09:45:39Z</time>
      </trkpt>
      <trkpt lat="47.84378" lon="6.67041">
        <ele>648.7</ele>
        <time>2022-06-29T09:45:43Z</time>
      </trkpt>
      <trkpt lat="47.8438" lon="6.67033">
        <ele>648.3</ele>
        <time>2022-06-29T09:45:47Z</time>
      </trkpt>
      <trkpt lat="47.84381" lon="6.67025">
        <ele>648.1</ele>
        <time>2022-06-29T09:45:51Z</time>
      </trkpt>
      <trkpt lat="47.84381" lon="6.67016">
        <ele>647.8</ele>
        <time>2022-06-29T09:45:55Z</time>
      </trkpt>
      <trkpt lat="47.84383" lon="6.67009">
        <ele>647.8</ele>
        <time>2022-06-29T09:45:59Z</time>
      </trkpt>
      <trkpt lat="47.84385" lon="6.67002">
        <ele>647.5</ele>
        <time>2022-06-29T09:46:05Z</time>
      </trkpt>
      <trkpt lat="47.84386" lon="6.66994">
        <ele>646.8</ele>
        <time>2022-06-29T09:46:11Z</time>
      </trkpt>
      <trkpt lat="47.84389" lon="6.66987">
        <ele>646.5</ele>
        <time>2022-06-29T09:46:16Z</time>
      </trkpt>
      <trkpt lat="47.84391" lon="6.66981">
        <ele>646.6</ele>
        <time>2022-06-29T09:46:20Z</time>
      </trkpt>
      <trkpt lat="47.84394" lon="6.66974">
        <ele>647</ele>
        <time>2022-06-29T09:46:25Z</time>
      </trkpt>
      <trkpt lat="47.84398" lon="6.66969">
        <ele>647.5</ele>
        <time>2022-06-29T09:46:30Z</time>
      </trkpt>
      <trkpt lat="47.844" lon="6.66962">
        <ele>647.6</ele>
        <time>2022-06-29T09:46:35Z</time>
      </trkpt>
      <trkpt lat="47.84402" lon="6.66956">
        <ele>647</ele>
        <time>2022-06-29T09:46:39Z</time>
      </trkpt>
      <trkpt lat="47.84402" lon="6.66948">
        <ele>645.6</ele>
        <time>2022-06-29T09:46:44Z</time>
      </trkpt>
      <trkpt lat="47.84404" lon="6.6694">
        <ele>644.7</ele>
        <time>2022-06-29T09:46:48Z</time>
      </trkpt>
      <trkpt lat="47.84405" lon="6.66933">
        <ele>644.6</ele>
        <time>2022-06-29T09:46:51Z</time>
      </trkpt>
      <trkpt lat="47.84407" lon="6.66927">
        <ele>645</ele>
        <time>2022-06-29T09:46:55Z</time>
      </trkpt>
      <trkpt lat="47.84408" lon="6.6692">
        <ele>645.2</ele>
        <time>2022-06-29T09:47:01Z</time>
      </trkpt>
      <trkpt lat="47.84408" lon="6.66913">
        <ele>645.3</ele>
        <time>2022-06-29T09:47:05Z</time>
      </trkpt>
      <trkpt lat="47.84407" lon="6.66905">
        <ele>645.4</ele>
        <time>2022-06-29T09:47:09Z</time>
      </trkpt>
      <trkpt lat="47.84405" lon="6.66898">
        <ele>645.4</ele>
        <time>2022-06-29T09:47:13Z</time>
      </trkpt>
      <trkpt lat="47.84404" lon="6.66891">
        <ele>645.1</ele>
        <time>2022-06-29T09:47:17Z</time>
      </trkpt>
      <trkpt lat="47.84404" lon="6.66884">
        <ele>645.2</ele>
        <time>2022-06-29T09:47:22Z</time>
      </trkpt>
      <trkpt lat="47.84406" lon="6.66878">
        <ele>645.5</ele>
        <time>2022-06-29T09:47:31Z</time>
      </trkpt>
      <trkpt lat="47.84406" lon="6.66871">
        <ele>645.9</ele>
        <time>2022-06-29T09:47:35Z</time>
      </trkpt>
      <trkpt lat="47.84407" lon="6.66864">
        <ele>646.1</ele>
        <time>2022-06-29T09:47:40Z</time>
      </trkpt>
      <trkpt lat="47.84407" lon="6.66856">
        <ele>646.3</ele>
        <time>2022-06-29T09:47:45Z</time>
      </trkpt>
      <trkpt lat="47.84405" lon="6.66849">
        <ele>646.1</ele>
        <time>2022-06-29T09:47:49Z</time>
      </trkpt>
      <trkpt lat="47.84405" lon="6.66842">
        <ele>645.4</ele>
        <time>2022-06-29T09:47:54Z</time>
      </trkpt>
      <trkpt lat="47.84404" lon="6.66833">
        <ele>644.6</ele>
        <time>2022-06-29T09:47:58Z</time>
      </trkpt>
      <trkpt lat="47.84404" lon="6.66824">
        <ele>644.2</ele>
        <time>2022-06-29T09:48:01Z</time>
      </trkpt>
      <trkpt lat="47.84404" lon="6.66817">
        <ele>644.1</ele>
        <time>2022-06-29T09:48:04Z</time>
      </trkpt>
      <trkpt lat="47.84403" lon="6.6681">
        <ele>643.8</ele>
        <time>2022-06-29T09:48:08Z</time>
      </trkpt>
      <trkpt lat="47.84403" lon="6.66803">
        <ele>643.2</ele>
        <time>2022-06-29T09:48:13Z</time>
      </trkpt>
      <trkpt lat="47.84403" lon="6.66795">
        <ele>642</ele>
        <time>2022-06-29T09:48:18Z</time>
      </trkpt>
      <trkpt lat="47.84403" lon="6.66787">
        <ele>641.1</ele>
        <time>2022-06-29T09:48:23Z</time>
      </trkpt>
      <trkpt lat="47.84403" lon="6.66781">
        <ele>640.5</ele>
        <time>2022-06-29T09:48:29Z</time>
      </trkpt>
      <trkpt lat="47.84403" lon="6.66774">
        <ele>640.3</ele>
        <time>2022-06-29T09:48:32Z</time>
      </trkpt>
      <trkpt lat="47.84405" lon="6.66766">
        <ele>640.3</ele>
        <time>2022-06-29T09:48:36Z</time>
      </trkpt>
      <trkpt lat="47.84406" lon="6.66758">
        <ele>640.5</ele>
        <time>2022-06-29T09:48:42Z</time>
      </trkpt>
      <trkpt lat="47.84406" lon="6.66751">
        <ele>640.3</ele>
        <time>2022-06-29T09:48:48Z</time>
      </trkpt>
      <trkpt lat="47.84406" lon="6.66743">
        <ele>638.7</ele>
        <time>2022-06-29T09:48:59Z</time>
      </trkpt>
      <trkpt lat="47.84407" lon="6.66735">
        <ele>638</ele>
        <time>2022-06-29T09:49:03Z</time>
      </trkpt>
      <trkpt lat="47.84409" lon="6.66729">
        <ele>637.2</ele>
        <time>2022-06-29T09:49:08Z</time>
      </trkpt>
      <trkpt lat="47.84406" lon="6.66718">
        <ele>635.3</ele>
        <time>2022-06-29T09:49:23Z</time>
      </trkpt>
      <trkpt lat="47.84403" lon="6.6671">
        <ele>635.2</ele>
        <time>2022-06-29T09:49:26Z</time>
      </trkpt>
      <trkpt lat="47.84403" lon="6.66698">
        <ele>635.2</ele>
        <time>2022-06-29T09:49:29Z</time>
      </trkpt>
      <trkpt lat="47.84405" lon="6.66687">
        <ele>634.7</ele>
        <time>2022-06-29T09:49:32Z</time>
      </trkpt>
      <trkpt lat="47.84408" lon="6.66681">
        <ele>634.1</ele>
        <time>2022-06-29T09:49:35Z</time>
      </trkpt>
      <trkpt lat="47.84409" lon="6.66673">
        <ele>634</ele>
        <time>2022-06-29T09:49:38Z</time>
      </trkpt>
      <trkpt lat="47.84409" lon="6.66663">
        <ele>634.2</ele>
        <time>2022-06-29T09:49:41Z</time>
      </trkpt>
      <trkpt lat="47.84408" lon="6.66654">
        <ele>634.8</ele>
        <time>2022-06-29T09:49:44Z</time>
      </trkpt>
      <trkpt lat="47.84406" lon="6.66646">
        <ele>635.9</ele>
        <time>2022-06-29T09:49:48Z</time>
      </trkpt>
      <trkpt lat="47.84404" lon="6.6664">
        <ele>636.3</ele>
        <time>2022-06-29T09:49:51Z</time>
      </trkpt>
      <trkpt lat="47.84403" lon="6.66633">
        <ele>636.1</ele>
        <time>2022-06-29T09:49:56Z</time>
      </trkpt>
      <trkpt lat="47.84404" lon="6.66625">
        <ele>636.6</ele>
        <time>2022-06-29T09:50:02Z</time>
      </trkpt>
      <trkpt lat="47.84405" lon="6.66616">
        <ele>636.8</ele>
        <time>2022-06-29T09:50:05Z</time>
      </trkpt>
      <trkpt lat="47.84405" lon="6.6661">
        <ele>637</ele>
        <time>2022-06-29T09:50:09Z</time>
      </trkpt>
      <trkpt lat="47.84408" lon="6.66605">
        <ele>636.8</ele>
        <time>2022-06-29T09:50:15Z</time>
      </trkpt>
      <trkpt lat="47.84408" lon="6.66597">
        <ele>636.7</ele>
        <time>2022-06-29T09:50:18Z</time>
      </trkpt>
      <trkpt lat="47.84407" lon="6.66589">
        <ele>636.4</ele>
        <time>2022-06-29T09:50:21Z</time>
      </trkpt>
      <trkpt lat="47.84405" lon="6.66581">
        <ele>634.7</ele>
        <time>2022-06-29T09:50:25Z</time>
      </trkpt>
      <trkpt lat="47.84403" lon="6.66575">
        <ele>632.3</ele>
        <time>2022-06-29T09:50:30Z</time>
      </trkpt>
      <trkpt lat="47.844" lon="6.66567">
        <ele>629.9</ele>
        <time>2022-06-29T09:50:39Z</time>
      </trkpt>
      <trkpt lat="47.84398" lon="6.66561">
        <ele>629.6</ele>
        <time>2022-06-29T09:50:42Z</time>
      </trkpt>
      <trkpt lat="47.84396" lon="6.66554">
        <ele>629.3</ele>
        <time>2022-06-29T09:50:47Z</time>
      </trkpt>
      <trkpt lat="47.84394" lon="6.66547">
        <ele>628.9</ele>
        <time>2022-06-29T09:50:53Z</time>
      </trkpt>
      <trkpt lat="47.84393" lon="6.6654">
        <ele>628.3</ele>
        <time>2022-06-29T09:50:57Z</time>
      </trkpt>
      <trkpt lat="47.84391" lon="6.66532">
        <ele>627.5</ele>
        <time>2022-06-29T09:51:01Z</time>
      </trkpt>
      <trkpt lat="47.8439" lon="6.66525">
        <ele>625.2</ele>
        <time>2022-06-29T09:51:09Z</time>
      </trkpt>
      <trkpt lat="47.84387" lon="6.66519">
        <ele>623.6</ele>
        <time>2022-06-29T09:51:15Z</time>
      </trkpt>
      <trkpt lat="47.84386" lon="6.66512">
        <ele>622.7</ele>
        <time>2022-06-29T09:51:21Z</time>
      </trkpt>
      <trkpt lat="47.84384" lon="6.66504">
        <ele>622.6</ele>
        <time>2022-06-29T09:51:25Z</time>
      </trkpt>
      <trkpt lat="47.84381" lon="6.66497">
        <ele>622.6</ele>
        <time>2022-06-29T09:51:29Z</time>
      </trkpt>
      <trkpt lat="47.84377" lon="6.66489">
        <ele>622.8</ele>
        <time>2022-06-29T09:51:33Z</time>
      </trkpt>
      <trkpt lat="47.84374" lon="6.66483">
        <ele>623.1</ele>
        <time>2022-06-29T09:51:36Z</time>
      </trkpt>
      <trkpt lat="47.84371" lon="6.66476">
        <ele>623.1</ele>
        <time>2022-06-29T09:51:40Z</time>
      </trkpt>
      <trkpt lat="47.84368" lon="6.66472">
        <ele>622.7</ele>
        <time>2022-06-29T09:51:46Z</time>
      </trkpt>
      <trkpt lat="47.84368" lon="6.66464">
        <ele>622.6</ele>
        <time>2022-06-29T09:51:55Z</time>
      </trkpt>
      <trkpt lat="47.84368" lon="6.66456">
        <ele>622.8</ele>
        <time>2022-06-29T09:52:04Z</time>
      </trkpt>
      <trkpt lat="47.84366" lon="6.66449">
        <ele>622.8</ele>
        <time>2022-06-29T09:52:10Z</time>
      </trkpt>
      <trkpt lat="47.84365" lon="6.66442">
        <ele>622.5</ele>
        <time>2022-06-29T09:52:14Z</time>
      </trkpt>
      <trkpt lat="47.84364" lon="6.66434">
        <ele>621.9</ele>
        <time>2022-06-29T09:52:19Z</time>
      </trkpt>
      <trkpt lat="47.84362" lon="6.66426">
        <ele>621.3</ele>
        <time>2022-06-29T09:52:23Z</time>
      </trkpt>
      <trkpt lat="47.8436" lon="6.6642">
        <ele>620.8</ele>
        <time>2022-06-29T09:52:27Z</time>
      </trkpt>
      <trkpt lat="47.84357" lon="6.66414">
        <ele>620.6</ele>
        <time>2022-06-29T09:52:31Z</time>
      </trkpt>
      <trkpt lat="47.84353" lon="6.6641">
        <ele>620.4</ele>
        <time>2022-06-29T09:52:35Z</time>
      </trkpt>
      <trkpt lat="47.84348" lon="6.66408">
        <ele>620.3</ele>
        <time>2022-06-29T09:52:39Z</time>
      </trkpt>
      <trkpt lat="47.84343" lon="6.66409">
        <ele>621</ele>
        <time>2022-06-29T09:52:44Z</time>
      </trkpt>
      <trkpt lat="47.84339" lon="6.66414">
        <ele>622.9</ele>
        <time>2022-06-29T09:52:50Z</time>
      </trkpt>
      <trkpt lat="47.84336" lon="6.6642">
        <ele>624.4</ele>
        <time>2022-06-29T09:52:54Z</time>
      </trkpt>
      <trkpt lat="47.84333" lon="6.66426">
        <ele>626.7</ele>
        <time>2022-06-29T09:53:00Z</time>
      </trkpt>
      <trkpt lat="47.84331" lon="6.66433">
        <ele>628.6</ele>
        <time>2022-06-29T09:53:06Z</time>
      </trkpt>
      <trkpt lat="47.8433" lon="6.66441">
        <ele>629.9</ele>
        <time>2022-06-29T09:53:11Z</time>
      </trkpt>
      <trkpt lat="47.84328" lon="6.66448">
        <ele>630.9</ele>
        <time>2022-06-29T09:53:19Z</time>
      </trkpt>
      <trkpt lat="47.84325" lon="6.66452">
        <ele>630.7</ele>
        <time>2022-06-29T09:53:23Z</time>
      </trkpt>
      <trkpt lat="47.84319" lon="6.66456">
        <ele>630</ele>
        <time>2022-06-29T09:53:27Z</time>
      </trkpt>
      <trkpt lat="47.84314" lon="6.66458">
        <ele>629</ele>
        <time>2022-06-29T09:53:31Z</time>
      </trkpt>
      <trkpt lat="47.84311" lon="6.66463">
        <ele>628.3</ele>
        <time>2022-06-29T09:53:34Z</time>
      </trkpt>
      <trkpt lat="47.84308" lon="6.66469">
        <ele>626.9</ele>
        <time>2022-06-29T09:53:38Z</time>
      </trkpt>
      <trkpt lat="47.84303" lon="6.66472">
        <ele>625.5</ele>
        <time>2022-06-29T09:53:42Z</time>
      </trkpt>
      <trkpt lat="47.84298" lon="6.66474">
        <ele>624.7</ele>
        <time>2022-06-29T09:53:46Z</time>
      </trkpt>
      <trkpt lat="47.84293" lon="6.66475">
        <ele>624.4</ele>
        <time>2022-06-29T09:53:50Z</time>
      </trkpt>
      <trkpt lat="47.84288" lon="6.66474">
        <ele>624.5</ele>
        <time>2022-06-29T09:53:55Z</time>
      </trkpt>
      <trkpt lat="47.84283" lon="6.66473">
        <ele>624.7</ele>
        <time>2022-06-29T09:53:59Z</time>
      </trkpt>
      <trkpt lat="47.84278" lon="6.66474">
        <ele>625.4</ele>
        <time>2022-06-29T09:54:04Z</time>
      </trkpt>
      <trkpt lat="47.84273" lon="6.66475">
        <ele>626.1</ele>
        <time>2022-06-29T09:54:08Z</time>
      </trkpt>
      <trkpt lat="47.84267" lon="6.66477">
        <ele>626.6</ele>
        <time>2022-06-29T09:54:11Z</time>
      </trkpt>
      <trkpt lat="47.84258" lon="6.66479">
        <ele>628.1</ele>
        <time>2022-06-29T09:54:14Z</time>
      </trkpt>
      <trkpt lat="47.84253" lon="6.66485">
        <ele>629.3</ele>
        <time>2022-06-29T09:54:17Z</time>
      </trkpt>
      <trkpt lat="47.84259" lon="6.66505">
        <ele>636.4</ele>
        <time>2022-06-29T09:54:30Z</time>
      </trkpt>
      <trkpt lat="47.84253" lon="6.66508">
        <ele>636.9</ele>
        <time>2022-06-29T09:54:34Z</time>
      </trkpt>
      <trkpt lat="47.84249" lon="6.66509">
        <ele>637.3</ele>
        <time>2022-06-29T09:54:37Z</time>
      </trkpt>
      <trkpt lat="47.84242" lon="6.66511">
        <ele>638.1</ele>
        <time>2022-06-29T09:54:40Z</time>
      </trkpt>
      <trkpt lat="47.84238" lon="6.6651">
        <ele>638.2</ele>
        <time>2022-06-29T09:54:43Z</time>
      </trkpt>
      <trkpt lat="47.84236" lon="6.66504">
        <ele>633.2</ele>
        <time>2022-06-29T09:54:50Z</time>
      </trkpt>
      <trkpt lat="47.84232" lon="6.665">
        <ele>626.5</ele>
        <time>2022-06-29T09:54:59Z</time>
      </trkpt>
      <trkpt lat="47.8423" lon="6.66506">
        <ele>626</ele>
        <time>2022-06-29T09:55:05Z</time>
      </trkpt>
      <trkpt lat="47.84227" lon="6.66513">
        <ele>626.7</ele>
        <time>2022-06-29T09:55:12Z</time>
      </trkpt>
      <trkpt lat="47.84224" lon="6.66519">
        <ele>627.9</ele>
        <time>2022-06-29T09:55:17Z</time>
      </trkpt>
      <trkpt lat="47.8422" lon="6.66523">
        <ele>628.5</ele>
        <time>2022-06-29T09:55:22Z</time>
      </trkpt>
      <trkpt lat="47.84215" lon="6.66527">
        <ele>628.4</ele>
        <time>2022-06-29T09:55:26Z</time>
      </trkpt>
      <trkpt lat="47.84211" lon="6.66531">
        <ele>628.3</ele>
        <time>2022-06-29T09:55:30Z</time>
      </trkpt>
      <trkpt lat="47.84205" lon="6.66534">
        <ele>628.5</ele>
        <time>2022-06-29T09:55:35Z</time>
      </trkpt>
      <trkpt lat="47.84201" lon="6.66536">
        <ele>628.6</ele>
        <time>2022-06-29T09:55:41Z</time>
      </trkpt>
      <trkpt lat="47.84195" lon="6.66538">
        <ele>628.4</ele>
        <time>2022-06-29T09:55:46Z</time>
      </trkpt>
      <trkpt lat="47.8419" lon="6.6654">
        <ele>628.4</ele>
        <time>2022-06-29T09:55:50Z</time>
      </trkpt>
      <trkpt lat="47.84185" lon="6.66541">
        <ele>627.7</ele>
        <time>2022-06-29T09:55:54Z</time>
      </trkpt>
      <trkpt lat="47.84181" lon="6.66539">
        <ele>627.1</ele>
        <time>2022-06-29T09:55:57Z</time>
      </trkpt>
      <trkpt lat="47.84176" lon="6.6654">
        <ele>625.9</ele>
        <time>2022-06-29T09:56:03Z</time>
      </trkpt>
      <trkpt lat="47.8417" lon="6.66539">
        <ele>625.1</ele>
        <time>2022-06-29T09:56:08Z</time>
      </trkpt>
      <trkpt lat="47.84165" lon="6.66538">
        <ele>624.8</ele>
        <time>2022-06-29T09:56:11Z</time>
      </trkpt>
      <trkpt lat="47.84158" lon="6.66536">
        <ele>625.1</ele>
        <time>2022-06-29T09:56:14Z</time>
      </trkpt>
      <trkpt lat="47.84159" lon="6.66529">
        <ele>626.3</ele>
        <time>2022-06-29T09:56:20Z</time>
      </trkpt>
      <trkpt lat="47.8416" lon="6.66521">
        <ele>626.9</ele>
        <time>2022-06-29T09:56:24Z</time>
      </trkpt>
      <trkpt lat="47.84163" lon="6.66515">
        <ele>627.1</ele>
        <time>2022-06-29T09:56:32Z</time>
      </trkpt>
      <trkpt lat="47.84163" lon="6.66508">
        <ele>627.9</ele>
        <time>2022-06-29T09:56:38Z</time>
      </trkpt>
      <trkpt lat="47.84165" lon="6.66502">
        <ele>628.5</ele>
        <time>2022-06-29T09:56:43Z</time>
      </trkpt>
      <trkpt lat="47.84167" lon="6.66495">
        <ele>628.8</ele>
        <time>2022-06-29T09:56:47Z</time>
      </trkpt>
      <trkpt lat="47.84166" lon="6.66488">
        <ele>628.5</ele>
        <time>2022-06-29T09:56:51Z</time>
      </trkpt>
      <trkpt lat="47.84165" lon="6.66481">
        <ele>627.9</ele>
        <time>2022-06-29T09:56:55Z</time>
      </trkpt>
      <trkpt lat="47.84164" lon="6.66474">
        <ele>624.9</ele>
        <time>2022-06-29T09:57:03Z</time>
      </trkpt>
      <trkpt lat="47.84162" lon="6.66468">
        <ele>623.5</ele>
        <time>2022-06-29T09:57:08Z</time>
      </trkpt>
      <trkpt lat="47.84162" lon="6.66461">
        <ele>622.5</ele>
        <time>2022-06-29T09:57:13Z</time>
      </trkpt>
      <trkpt lat="47.84162" lon="6.66453">
        <ele>621.8</ele>
        <time>2022-06-29T09:57:20Z</time>
      </trkpt>
      <trkpt lat="47.84163" lon="6.66446">
        <ele>621.8</ele>
        <time>2022-06-29T09:57:24Z</time>
      </trkpt>
      <trkpt lat="47.84164" lon="6.6644">
        <ele>622</ele>
        <time>2022-06-29T09:57:29Z</time>
      </trkpt>
      <trkpt lat="47.84163" lon="6.66432">
        <ele>621.9</ele>
        <time>2022-06-29T09:57:34Z</time>
      </trkpt>
      <trkpt lat="47.84161" lon="6.66424">
        <ele>622.1</ele>
        <time>2022-06-29T09:57:40Z</time>
      </trkpt>
      <trkpt lat="47.84161" lon="6.66417">
        <ele>621.8</ele>
        <time>2022-06-29T09:57:44Z</time>
      </trkpt>
      <trkpt lat="47.8416" lon="6.66409">
        <ele>621.4</ele>
        <time>2022-06-29T09:57:48Z</time>
      </trkpt>
      <trkpt lat="47.8416" lon="6.66402">
        <ele>621.6</ele>
        <time>2022-06-29T09:57:54Z</time>
      </trkpt>
      <trkpt lat="47.84161" lon="6.66395">
        <ele>622.3</ele>
        <time>2022-06-29T09:58:00Z</time>
      </trkpt>
      <trkpt lat="47.84161" lon="6.66388">
        <ele>622.4</ele>
        <time>2022-06-29T09:58:06Z</time>
      </trkpt>
      <trkpt lat="47.84161" lon="6.66381">
        <ele>621.9</ele>
        <time>2022-06-29T09:58:11Z</time>
      </trkpt>
      <trkpt lat="47.8416" lon="6.66374">
        <ele>621.5</ele>
        <time>2022-06-29T09:58:15Z</time>
      </trkpt>
      <trkpt lat="47.8416" lon="6.66367">
        <ele>620.8</ele>
        <time>2022-06-29T09:58:21Z</time>
      </trkpt>
      <trkpt lat="47.84158" lon="6.66359">
        <ele>620.6</ele>
        <time>2022-06-29T09:58:25Z</time>
      </trkpt>
      <trkpt lat="47.84157" lon="6.66352">
        <ele>620.8</ele>
        <time>2022-06-29T09:58:28Z</time>
      </trkpt>
      <trkpt lat="47.84159" lon="6.66346">
        <ele>621.7</ele>
        <time>2022-06-29T09:58:37Z</time>
      </trkpt>
      <trkpt lat="47.84159" lon="6.66337">
        <ele>621.9</ele>
        <time>2022-06-29T09:58:48Z</time>
      </trkpt>
      <trkpt lat="47.84157" lon="6.66328">
        <ele>621.8</ele>
        <time>2022-06-29T09:58:51Z</time>
      </trkpt>
      <trkpt lat="47.84154" lon="6.66319">
        <ele>621.7</ele>
        <time>2022-06-29T09:58:54Z</time>
      </trkpt>
      <trkpt lat="47.84151" lon="6.66311">
        <ele>622</ele>
        <time>2022-06-29T09:58:57Z</time>
      </trkpt>
      <trkpt lat="47.84149" lon="6.66304">
        <ele>622.6</ele>
        <time>2022-06-29T09:59:00Z</time>
      </trkpt>
      <trkpt lat="47.84147" lon="6.66297">
        <ele>623.2</ele>
        <time>2022-06-29T09:59:04Z</time>
      </trkpt>
      <trkpt lat="47.84144" lon="6.66292">
        <ele>623.5</ele>
        <time>2022-06-29T09:59:12Z</time>
      </trkpt>
      <trkpt lat="47.84141" lon="6.66286">
        <ele>623.7</ele>
        <time>2022-06-29T09:59:19Z</time>
      </trkpt>
      <trkpt lat="47.84136" lon="6.66282">
        <ele>623.7</ele>
        <time>2022-06-29T09:59:26Z</time>
      </trkpt>
      <trkpt lat="47.84131" lon="6.66279">
        <ele>622.8</ele>
        <time>2022-06-29T09:59:33Z</time>
      </trkpt>
      <trkpt lat="47.84126" lon="6.66278">
        <ele>622.3</ele>
        <time>2022-06-29T09:59:40Z</time>
      </trkpt>
      <trkpt lat="47.84122" lon="6.66277">
        <ele>621.9</ele>
        <time>2022-06-29T09:59:45Z</time>
      </trkpt>
      <trkpt lat="47.84117" lon="6.66279">
        <ele>622.2</ele>
        <time>2022-06-29T09:59:51Z</time>
      </trkpt>
      <trkpt lat="47.84113" lon="6.66276">
        <ele>622</ele>
        <time>2022-06-29T09:59:56Z</time>
      </trkpt>
      <trkpt lat="47.84108" lon="6.66275">
        <ele>621.8</ele>
        <time>2022-06-29T10:00:01Z</time>
      </trkpt>
      <trkpt lat="47.84104" lon="6.66275">
        <ele>622</ele>
        <time>2022-06-29T10:00:07Z</time>
      </trkpt>
      <trkpt lat="47.84099" lon="6.66275">
        <ele>622.5</ele>
        <time>2022-06-29T10:00:13Z</time>
      </trkpt>
      <trkpt lat="47.84094" lon="6.66278">
        <ele>622.9</ele>
        <time>2022-06-29T10:00:17Z</time>
      </trkpt>
      <trkpt lat="47.84089" lon="6.66277">
        <ele>623</ele>
        <time>2022-06-29T10:00:21Z</time>
      </trkpt>
      <trkpt lat="47.84086" lon="6.66282">
        <ele>622.8</ele>
        <time>2022-06-29T10:00:27Z</time>
      </trkpt>
      <trkpt lat="47.84081" lon="6.66284">
        <ele>622.6</ele>
        <time>2022-06-29T10:00:32Z</time>
      </trkpt>
      <trkpt lat="47.84075" lon="6.66284">
        <ele>622</ele>
        <time>2022-06-29T10:00:36Z</time>
      </trkpt>
      <trkpt lat="47.84069" lon="6.66285">
        <ele>621.8</ele>
        <time>2022-06-29T10:00:40Z</time>
      </trkpt>
      <trkpt lat="47.84064" lon="6.66287">
        <ele>621.9</ele>
        <time>2022-06-29T10:00:43Z</time>
      </trkpt>
      <trkpt lat="47.84059" lon="6.66288">
        <ele>622.1</ele>
        <time>2022-06-29T10:00:47Z</time>
      </trkpt>
      <trkpt lat="47.84055" lon="6.66292">
        <ele>622.9</ele>
        <time>2022-06-29T10:00:51Z</time>
      </trkpt>
      <trkpt lat="47.84051" lon="6.66293">
        <ele>624.4</ele>
        <time>2022-06-29T10:00:55Z</time>
      </trkpt>
      <trkpt lat="47.84046" lon="6.66296">
        <ele>626.3</ele>
        <time>2022-06-29T10:01:00Z</time>
      </trkpt>
      <trkpt lat="47.84042" lon="6.663">
        <ele>627.9</ele>
        <time>2022-06-29T10:01:06Z</time>
      </trkpt>
      <trkpt lat="47.84038" lon="6.66302">
        <ele>628.2</ele>
        <time>2022-06-29T10:01:11Z</time>
      </trkpt>
      <trkpt lat="47.84032" lon="6.66303">
        <ele>628.4</ele>
        <time>2022-06-29T10:01:15Z</time>
      </trkpt>
      <trkpt lat="47.84027" lon="6.66302">
        <ele>629.4</ele>
        <time>2022-06-29T10:01:20Z</time>
      </trkpt>
      <trkpt lat="47.84024" lon="6.66306">
        <ele>630.1</ele>
        <time>2022-06-29T10:01:26Z</time>
      </trkpt>
      <trkpt lat="47.8402" lon="6.66311">
        <ele>630</ele>
        <time>2022-06-29T10:01:32Z</time>
      </trkpt>
      <trkpt lat="47.84014" lon="6.66313">
        <ele>630.1</ele>
        <time>2022-06-29T10:01:36Z</time>
      </trkpt>
      <trkpt lat="47.84008" lon="6.66316">
        <ele>630.6</ele>
        <time>2022-06-29T10:01:39Z</time>
      </trkpt>
      <trkpt lat="47.84003" lon="6.66316">
        <ele>630.4</ele>
        <time>2022-06-29T10:01:46Z</time>
      </trkpt>
      <trkpt lat="47.83998" lon="6.66314">
        <ele>629.2</ele>
        <time>2022-06-29T10:01:51Z</time>
      </trkpt>
      <trkpt lat="47.83994" lon="6.66314">
        <ele>628.1</ele>
        <time>2022-06-29T10:01:56Z</time>
      </trkpt>
      <trkpt lat="47.83988" lon="6.66316">
        <ele>626.8</ele>
        <time>2022-06-29T10:02:02Z</time>
      </trkpt>
      <trkpt lat="47.83984" lon="6.66323">
        <ele>626</ele>
        <time>2022-06-29T10:02:06Z</time>
      </trkpt>
      <trkpt lat="47.83982" lon="6.6633">
        <ele>625.3</ele>
        <time>2022-06-29T10:02:09Z</time>
      </trkpt>
      <trkpt lat="47.83979" lon="6.66336">
        <ele>624.9</ele>
        <time>2022-06-29T10:02:13Z</time>
      </trkpt>
      <trkpt lat="47.83974" lon="6.66337">
        <ele>624.6</ele>
        <time>2022-06-29T10:02:19Z</time>
      </trkpt>
      <trkpt lat="47.83969" lon="6.66337">
        <ele>624.7</ele>
        <time>2022-06-29T10:02:25Z</time>
      </trkpt>
      <trkpt lat="47.83965" lon="6.6634">
        <ele>624.7</ele>
        <time>2022-06-29T10:02:30Z</time>
      </trkpt>
      <trkpt lat="47.83961" lon="6.66343">
        <ele>624.5</ele>
        <time>2022-06-29T10:02:35Z</time>
      </trkpt>
      <trkpt lat="47.83956" lon="6.66342">
        <ele>624.3</ele>
        <time>2022-06-29T10:02:39Z</time>
      </trkpt>
      <trkpt lat="47.8395" lon="6.66339">
        <ele>624.6</ele>
        <time>2022-06-29T10:02:43Z</time>
      </trkpt>
      <trkpt lat="47.83946" lon="6.66337">
        <ele>625.1</ele>
        <time>2022-06-29T10:02:46Z</time>
      </trkpt>
      <trkpt lat="47.83941" lon="6.66333">
        <ele>626.4</ele>
        <time>2022-06-29T10:02:50Z</time>
      </trkpt>
      <trkpt lat="47.83937" lon="6.66328">
        <ele>627.7</ele>
        <time>2022-06-29T10:02:54Z</time>
      </trkpt>
      <trkpt lat="47.83934" lon="6.66322">
        <ele>629.6</ele>
        <time>2022-06-29T10:03:02Z</time>
      </trkpt>
      <trkpt lat="47.83931" lon="6.66315">
        <ele>630.9</ele>
        <time>2022-06-29T10:03:07Z</time>
      </trkpt>
      <trkpt lat="47.83928" lon="6.66309">
        <ele>632.5</ele>
        <time>2022-06-29T10:03:11Z</time>
      </trkpt>
      <trkpt lat="47.83924" lon="6.66304">
        <ele>633.6</ele>
        <time>2022-06-29T10:03:16Z</time>
      </trkpt>
      <trkpt lat="47.8392" lon="6.66305">
        <ele>634.3</ele>
        <time>2022-06-29T10:03:23Z</time>
      </trkpt>
      <trkpt lat="47.83915" lon="6.66304">
        <ele>635.1</ele>
        <time>2022-06-29T10:03:28Z</time>
      </trkpt>
      <trkpt lat="47.8391" lon="6.66305">
        <ele>635.5</ele>
        <time>2022-06-29T10:03:32Z</time>
      </trkpt>
      <trkpt lat="47.83906" lon="6.6631">
        <ele>635</ele>
        <time>2022-06-29T10:03:38Z</time>
      </trkpt>
      <trkpt lat="47.83903" lon="6.66314">
        <ele>634.6</ele>
        <time>2022-06-29T10:03:43Z</time>
      </trkpt>
      <trkpt lat="47.83899" lon="6.66319">
        <ele>634.2</ele>
        <time>2022-06-29T10:03:48Z</time>
      </trkpt>
      <trkpt lat="47.83896" lon="6.66326">
        <ele>633.6</ele>
        <time>2022-06-29T10:03:53Z</time>
      </trkpt>
      <trkpt lat="47.83893" lon="6.66332">
        <ele>633.8</ele>
        <time>2022-06-29T10:03:58Z</time>
      </trkpt>
      <trkpt lat="47.83889" lon="6.66335">
        <ele>635.2</ele>
        <time>2022-06-29T10:04:05Z</time>
      </trkpt>
      <trkpt lat="47.83884" lon="6.66333">
        <ele>636.7</ele>
        <time>2022-06-29T10:04:10Z</time>
      </trkpt>
      <trkpt lat="47.83881" lon="6.66328">
        <ele>638.1</ele>
        <time>2022-06-29T10:04:16Z</time>
      </trkpt>
      <trkpt lat="47.83879" lon="6.66321">
        <ele>638.4</ele>
        <time>2022-06-29T10:04:20Z</time>
      </trkpt>
      <trkpt lat="47.83877" lon="6.66315">
        <ele>639</ele>
        <time>2022-06-29T10:04:24Z</time>
      </trkpt>
      <trkpt lat="47.83875" lon="6.66308">
        <ele>640.2</ele>
        <time>2022-06-29T10:04:28Z</time>
      </trkpt>
      <trkpt lat="47.83872" lon="6.66301">
        <ele>640.6</ele>
        <time>2022-06-29T10:04:32Z</time>
      </trkpt>
      <trkpt lat="47.83869" lon="6.66295">
        <ele>640.4</ele>
        <time>2022-06-29T10:04:36Z</time>
      </trkpt>
      <trkpt lat="47.83866" lon="6.66288">
        <ele>640.3</ele>
        <time>2022-06-29T10:04:40Z</time>
      </trkpt>
      <trkpt lat="47.83864" lon="6.66282">
        <ele>640.6</ele>
        <time>2022-06-29T10:04:44Z</time>
      </trkpt>
      <trkpt lat="47.83862" lon="6.66275">
        <ele>641.8</ele>
        <time>2022-06-29T10:04:52Z</time>
      </trkpt>
      <trkpt lat="47.83859" lon="6.66268">
        <ele>641.8</ele>
        <time>2022-06-29T10:04:57Z</time>
      </trkpt>
      <trkpt lat="47.83857" lon="6.6626">
        <ele>641.3</ele>
        <time>2022-06-29T10:05:03Z</time>
      </trkpt>
      <trkpt lat="47.83855" lon="6.66253">
        <ele>640.9</ele>
        <time>2022-06-29T10:05:07Z</time>
      </trkpt>
      <trkpt lat="47.83853" lon="6.66246">
        <ele>639.9</ele>
        <time>2022-06-29T10:05:12Z</time>
      </trkpt>
      <trkpt lat="47.83852" lon="6.6624">
        <ele>638.1</ele>
        <time>2022-06-29T10:05:18Z</time>
      </trkpt>
      <trkpt lat="47.8385" lon="6.66232">
        <ele>636.6</ele>
        <time>2022-06-29T10:05:23Z</time>
      </trkpt>
      <trkpt lat="47.83847" lon="6.66225">
        <ele>635.5</ele>
        <time>2022-06-29T10:05:27Z</time>
      </trkpt>
      <trkpt lat="47.83845" lon="6.66219">
        <ele>635</ele>
        <time>2022-06-29T10:05:30Z</time>
      </trkpt>
      <trkpt lat="47.83843" lon="6.66212">
        <ele>634.7</ele>
        <time>2022-06-29T10:05:34Z</time>
      </trkpt>
      <trkpt lat="47.8384" lon="6.66206">
        <ele>634.5</ele>
        <time>2022-06-29T10:05:42Z</time>
      </trkpt>
      <trkpt lat="47.83836" lon="6.66201">
        <ele>634.4</ele>
        <time>2022-06-29T10:05:47Z</time>
      </trkpt>
      <trkpt lat="47.83833" lon="6.66195">
        <ele>634.2</ele>
        <time>2022-06-29T10:05:51Z</time>
      </trkpt>
      <trkpt lat="47.83832" lon="6.66188">
        <ele>633.5</ele>
        <time>2022-06-29T10:05:55Z</time>
      </trkpt>
      <trkpt lat="47.83833" lon="6.66181">
        <ele>631.8</ele>
        <time>2022-06-29T10:06:01Z</time>
      </trkpt>
      <trkpt lat="47.83833" lon="6.66174">
        <ele>631</ele>
        <time>2022-06-29T10:06:05Z</time>
      </trkpt>
      <trkpt lat="47.83833" lon="6.66167">
        <ele>631</ele>
        <time>2022-06-29T10:06:08Z</time>
      </trkpt>
      <trkpt lat="47.83832" lon="6.66159">
        <ele>631.4</ele>
        <time>2022-06-29T10:06:12Z</time>
      </trkpt>
      <trkpt lat="47.8383" lon="6.66152">
        <ele>631.5</ele>
        <time>2022-06-29T10:06:17Z</time>
      </trkpt>
      <trkpt lat="47.83827" lon="6.66145">
        <ele>631.5</ele>
        <time>2022-06-29T10:06:22Z</time>
      </trkpt>
      <trkpt lat="47.83824" lon="6.66139">
        <ele>631.4</ele>
        <time>2022-06-29T10:06:27Z</time>
      </trkpt>
      <trkpt lat="47.83822" lon="6.66133">
        <ele>630.7</ele>
        <time>2022-06-29T10:06:34Z</time>
      </trkpt>
      <trkpt lat="47.83819" lon="6.66128">
        <ele>630</ele>
        <time>2022-06-29T10:06:38Z</time>
      </trkpt>
      <trkpt lat="47.83816" lon="6.6612">
        <ele>629.8</ele>
        <time>2022-06-29T10:06:42Z</time>
      </trkpt>
      <trkpt lat="47.83813" lon="6.66115">
        <ele>627.9</ele>
        <time>2022-06-29T10:06:48Z</time>
      </trkpt>
      <trkpt lat="47.83811" lon="6.66109">
        <ele>627.2</ele>
        <time>2022-06-29T10:06:52Z</time>
      </trkpt>
      <trkpt lat="47.83807" lon="6.66104">
        <ele>626.8</ele>
        <time>2022-06-29T10:06:56Z</time>
      </trkpt>
      <trkpt lat="47.83802" lon="6.66101">
        <ele>625.9</ele>
        <time>2022-06-29T10:07:04Z</time>
      </trkpt>
      <trkpt lat="47.83797" lon="6.66098">
        <ele>625.7</ele>
        <time>2022-06-29T10:07:08Z</time>
      </trkpt>
      <trkpt lat="47.83793" lon="6.66093">
        <ele>625.9</ele>
        <time>2022-06-29T10:07:12Z</time>
      </trkpt>
      <trkpt lat="47.83789" lon="6.66088">
        <ele>626.3</ele>
        <time>2022-06-29T10:07:16Z</time>
      </trkpt>
      <trkpt lat="47.83785" lon="6.66083">
        <ele>626.6</ele>
        <time>2022-06-29T10:07:20Z</time>
      </trkpt>
      <trkpt lat="47.8378" lon="6.66078">
        <ele>626.4</ele>
        <time>2022-06-29T10:07:25Z</time>
      </trkpt>
      <trkpt lat="47.83777" lon="6.66071">
        <ele>626.2</ele>
        <time>2022-06-29T10:07:30Z</time>
      </trkpt>
      <trkpt lat="47.83776" lon="6.66063">
        <ele>626.3</ele>
        <time>2022-06-29T10:07:34Z</time>
      </trkpt>
      <trkpt lat="47.83776" lon="6.66056">
        <ele>626.1</ele>
        <time>2022-06-29T10:07:38Z</time>
      </trkpt>
      <trkpt lat="47.83777" lon="6.66049">
        <ele>625.2</ele>
        <time>2022-06-29T10:07:42Z</time>
      </trkpt>
      <trkpt lat="47.83779" lon="6.66042">
        <ele>624</ele>
        <time>2022-06-29T10:07:47Z</time>
      </trkpt>
      <trkpt lat="47.83781" lon="6.66036">
        <ele>623</ele>
        <time>2022-06-29T10:07:51Z</time>
      </trkpt>
      <trkpt lat="47.83784" lon="6.66029">
        <ele>622.3</ele>
        <time>2022-06-29T10:07:55Z</time>
      </trkpt>
      <trkpt lat="47.83786" lon="6.66022">
        <ele>621.6</ele>
        <time>2022-06-29T10:08:00Z</time>
      </trkpt>
      <trkpt lat="47.8379" lon="6.66018">
        <ele>621</ele>
        <time>2022-06-29T10:08:04Z</time>
      </trkpt>
      <trkpt lat="47.83794" lon="6.66012">
        <ele>620.6</ele>
        <time>2022-06-29T10:08:08Z</time>
      </trkpt>
      <trkpt lat="47.83796" lon="6.66006">
        <ele>620.1</ele>
        <time>2022-06-29T10:08:13Z</time>
      </trkpt>
      <trkpt lat="47.838" lon="6.66001">
        <ele>620.6</ele>
        <time>2022-06-29T10:08:19Z</time>
      </trkpt>
      <trkpt lat="47.83804" lon="6.65997">
        <ele>621.2</ele>
        <time>2022-06-29T10:08:23Z</time>
      </trkpt>
      <trkpt lat="47.83808" lon="6.65992">
        <ele>621.3</ele>
        <time>2022-06-29T10:08:28Z</time>
      </trkpt>
      <trkpt lat="47.83811" lon="6.65987">
        <ele>620.8</ele>
        <time>2022-06-29T10:08:34Z</time>
      </trkpt>
      <trkpt lat="47.83815" lon="6.65982">
        <ele>620.5</ele>
        <time>2022-06-29T10:08:38Z</time>
      </trkpt>
      <trkpt lat="47.83816" lon="6.65975">
        <ele>619.8</ele>
        <time>2022-06-29T10:08:42Z</time>
      </trkpt>
      <trkpt lat="47.83817" lon="6.65968">
        <ele>619.1</ele>
        <time>2022-06-29T10:08:46Z</time>
      </trkpt>
      <trkpt lat="47.83817" lon="6.65961">
        <ele>618.3</ele>
        <time>2022-06-29T10:08:50Z</time>
      </trkpt>
      <trkpt lat="47.83816" lon="6.65954">
        <ele>617.8</ele>
        <time>2022-06-29T10:08:54Z</time>
      </trkpt>
      <trkpt lat="47.83815" lon="6.65947">
        <ele>617.6</ele>
        <time>2022-06-29T10:08:58Z</time>
      </trkpt>
      <trkpt lat="47.83813" lon="6.65939">
        <ele>618</ele>
        <time>2022-06-29T10:09:01Z</time>
      </trkpt>
      <trkpt lat="47.83812" lon="6.65932">
        <ele>618.6</ele>
        <time>2022-06-29T10:09:04Z</time>
      </trkpt>
      <trkpt lat="47.83809" lon="6.65925">
        <ele>619.7</ele>
        <time>2022-06-29T10:09:08Z</time>
      </trkpt>
      <trkpt lat="47.83806" lon="6.65919">
        <ele>620.5</ele>
        <time>2022-06-29T10:09:13Z</time>
      </trkpt>
      <trkpt lat="47.83804" lon="6.65912">
        <ele>620.6</ele>
        <time>2022-06-29T10:09:18Z</time>
      </trkpt>
      <trkpt lat="47.83801" lon="6.65906">
        <ele>619.9</ele>
        <time>2022-06-29T10:09:25Z</time>
      </trkpt>
      <trkpt lat="47.83799" lon="6.65899">
        <ele>619.4</ele>
        <time>2022-06-29T10:09:30Z</time>
      </trkpt>
      <trkpt lat="47.83796" lon="6.65893">
        <ele>619.5</ele>
        <time>2022-06-29T10:09:33Z</time>
      </trkpt>
      <trkpt lat="47.83792" lon="6.65888">
        <ele>619.9</ele>
        <time>2022-06-29T10:09:37Z</time>
      </trkpt>
      <trkpt lat="47.83787" lon="6.65883">
        <ele>620.3</ele>
        <time>2022-06-29T10:09:40Z</time>
      </trkpt>
      <trkpt lat="47.83783" lon="6.65879">
        <ele>620.7</ele>
        <time>2022-06-29T10:09:43Z</time>
      </trkpt>
      <trkpt lat="47.83779" lon="6.65875">
        <ele>621.3</ele>
        <time>2022-06-29T10:09:48Z</time>
      </trkpt>
      <trkpt lat="47.83776" lon="6.6587">
        <ele>620.2</ele>
        <time>2022-06-29T10:09:55Z</time>
      </trkpt>
      <trkpt lat="47.83772" lon="6.65865">
        <ele>619.5</ele>
        <time>2022-06-29T10:10:01Z</time>
      </trkpt>
      <trkpt lat="47.83769" lon="6.65857">
        <ele>619.3</ele>
        <time>2022-06-29T10:10:05Z</time>
      </trkpt>
      <trkpt lat="47.83769" lon="6.65851">
        <ele>619.7</ele>
        <time>2022-06-29T10:10:10Z</time>
      </trkpt>
      <trkpt lat="47.83769" lon="6.65843">
        <ele>619.9</ele>
        <time>2022-06-29T10:10:14Z</time>
      </trkpt>
      <trkpt lat="47.83769" lon="6.65836">
        <ele>619.9</ele>
        <time>2022-06-29T10:10:20Z</time>
      </trkpt>
      <trkpt lat="47.83767" lon="6.65828">
        <ele>619.4</ele>
        <time>2022-06-29T10:10:25Z</time>
      </trkpt>
      <trkpt lat="47.83766" lon="6.65821">
        <ele>618.6</ele>
        <time>2022-06-29T10:10:29Z</time>
      </trkpt>
      <trkpt lat="47.83765" lon="6.65814">
        <ele>617.6</ele>
        <time>2022-06-29T10:10:34Z</time>
      </trkpt>
      <trkpt lat="47.83766" lon="6.65806">
        <ele>615.8</ele>
        <time>2022-06-29T10:10:40Z</time>
      </trkpt>
      <trkpt lat="47.83767" lon="6.65798">
        <ele>614.4</ele>
        <time>2022-06-29T10:10:44Z</time>
      </trkpt>
      <trkpt lat="47.83767" lon="6.6579">
        <ele>612.3</ele>
        <time>2022-06-29T10:10:49Z</time>
      </trkpt>
      <trkpt lat="47.83763" lon="6.65785">
        <ele>611.6</ele>
        <time>2022-06-29T10:10:52Z</time>
      </trkpt>
      <trkpt lat="47.83759" lon="6.65779">
        <ele>611.2</ele>
        <time>2022-06-29T10:10:56Z</time>
      </trkpt>
      <trkpt lat="47.83756" lon="6.65774">
        <ele>611.2</ele>
        <time>2022-06-29T10:10:59Z</time>
      </trkpt>
      <trkpt lat="47.83752" lon="6.65771">
        <ele>611</ele>
        <time>2022-06-29T10:11:02Z</time>
      </trkpt>
      <trkpt lat="47.83746" lon="6.65765">
        <ele>611.3</ele>
        <time>2022-06-29T10:11:05Z</time>
      </trkpt>
      <trkpt lat="47.83742" lon="6.65763">
        <ele>611.8</ele>
        <time>2022-06-29T10:11:08Z</time>
      </trkpt>
      <trkpt lat="47.83738" lon="6.65757">
        <ele>613.2</ele>
        <time>2022-06-29T10:11:16Z</time>
      </trkpt>
      <trkpt lat="47.83738" lon="6.6575">
        <ele>611.6</ele>
        <time>2022-06-29T10:11:26Z</time>
      </trkpt>
      <trkpt lat="47.83736" lon="6.65744">
        <ele>611</ele>
        <time>2022-06-29T10:11:30Z</time>
      </trkpt>
      <trkpt lat="47.83732" lon="6.65737">
        <ele>611</ele>
        <time>2022-06-29T10:11:34Z</time>
      </trkpt>
      <trkpt lat="47.83729" lon="6.65731">
        <ele>611.3</ele>
        <time>2022-06-29T10:11:38Z</time>
      </trkpt>
      <trkpt lat="47.83723" lon="6.65727">
        <ele>611.8</ele>
        <time>2022-06-29T10:11:42Z</time>
      </trkpt>
      <trkpt lat="47.83719" lon="6.65724">
        <ele>612.4</ele>
        <time>2022-06-29T10:11:45Z</time>
      </trkpt>
      <trkpt lat="47.83715" lon="6.65721">
        <ele>613.7</ele>
        <time>2022-06-29T10:11:48Z</time>
      </trkpt>
      <trkpt lat="47.8371" lon="6.65719">
        <ele>615.1</ele>
        <time>2022-06-29T10:11:51Z</time>
      </trkpt>
      <trkpt lat="47.83705" lon="6.65717">
        <ele>616.9</ele>
        <time>2022-06-29T10:11:55Z</time>
      </trkpt>
      <trkpt lat="47.83701" lon="6.65715">
        <ele>617.3</ele>
        <time>2022-06-29T10:12:01Z</time>
      </trkpt>
      <trkpt lat="47.83696" lon="6.65713">
        <ele>617.2</ele>
        <time>2022-06-29T10:12:05Z</time>
      </trkpt>
      <trkpt lat="47.83691" lon="6.65711">
        <ele>617.5</ele>
        <time>2022-06-29T10:12:09Z</time>
      </trkpt>
      <trkpt lat="47.83686" lon="6.65711">
        <ele>618</ele>
        <time>2022-06-29T10:12:15Z</time>
      </trkpt>
      <trkpt lat="47.83681" lon="6.65708">
        <ele>617.6</ele>
        <time>2022-06-29T10:12:20Z</time>
      </trkpt>
      <trkpt lat="47.83676" lon="6.65704">
        <ele>616.2</ele>
        <time>2022-06-29T10:12:25Z</time>
      </trkpt>
      <trkpt lat="47.83673" lon="6.65699">
        <ele>614.5</ele>
        <time>2022-06-29T10:12:30Z</time>
      </trkpt>
      <trkpt lat="47.83669" lon="6.65693">
        <ele>612</ele>
        <time>2022-06-29T10:12:38Z</time>
      </trkpt>
      <trkpt lat="47.83667" lon="6.65688">
        <ele>610.8</ele>
        <time>2022-06-29T10:12:42Z</time>
      </trkpt>
      <trkpt lat="47.83664" lon="6.65681">
        <ele>609.8</ele>
        <time>2022-06-29T10:12:46Z</time>
      </trkpt>
      <trkpt lat="47.83661" lon="6.65674">
        <ele>609.2</ele>
        <time>2022-06-29T10:12:50Z</time>
      </trkpt>
      <trkpt lat="47.83658" lon="6.65668">
        <ele>609</ele>
        <time>2022-06-29T10:12:54Z</time>
      </trkpt>
      <trkpt lat="47.83655" lon="6.6566">
        <ele>609.1</ele>
        <time>2022-06-29T10:12:58Z</time>
      </trkpt>
      <trkpt lat="47.83654" lon="6.65653">
        <ele>609.1</ele>
        <time>2022-06-29T10:13:01Z</time>
      </trkpt>
      <trkpt lat="47.83655" lon="6.65647">
        <ele>609.5</ele>
        <time>2022-06-29T10:13:07Z</time>
      </trkpt>
      <trkpt lat="47.83655" lon="6.65653">
        <ele>610.4</ele>
        <time>2022-06-29T10:13:18Z</time>
      </trkpt>
      <trkpt lat="47.83656" lon="6.65661">
        <ele>610.5</ele>
        <time>2022-06-29T10:13:22Z</time>
      </trkpt>
      <trkpt lat="47.83657" lon="6.65654">
        <ele>610.4</ele>
        <time>2022-06-29T10:13:39Z</time>
      </trkpt>
      <trkpt lat="47.83656" lon="6.65647">
        <ele>610.6</ele>
        <time>2022-06-29T10:13:42Z</time>
      </trkpt>
      <trkpt lat="47.83654" lon="6.65639">
        <ele>610.3</ele>
        <time>2022-06-29T10:13:45Z</time>
      </trkpt>
      <trkpt lat="47.83652" lon="6.6563">
        <ele>609.9</ele>
        <time>2022-06-29T10:13:48Z</time>
      </trkpt>
      <trkpt lat="47.83649" lon="6.65623">
        <ele>608.9</ele>
        <time>2022-06-29T10:13:53Z</time>
      </trkpt>
      <trkpt lat="47.83645" lon="6.65618">
        <ele>608.7</ele>
        <time>2022-06-29T10:13:57Z</time>
      </trkpt>
      <trkpt lat="47.83642" lon="6.65613">
        <ele>608.5</ele>
        <time>2022-06-29T10:14:01Z</time>
      </trkpt>
      <trkpt lat="47.83638" lon="6.65608">
        <ele>608.9</ele>
        <time>2022-06-29T10:14:05Z</time>
      </trkpt>
      <trkpt lat="47.83634" lon="6.65604">
        <ele>610.7</ele>
        <time>2022-06-29T10:14:11Z</time>
      </trkpt>
      <trkpt lat="47.83632" lon="6.65598">
        <ele>611.4</ele>
        <time>2022-06-29T10:14:16Z</time>
      </trkpt>
      <trkpt lat="47.8363" lon="6.65591">
        <ele>611.6</ele>
        <time>2022-06-29T10:14:20Z</time>
      </trkpt>
      <trkpt lat="47.83628" lon="6.65583">
        <ele>611.1</ele>
        <time>2022-06-29T10:14:24Z</time>
      </trkpt>
      <trkpt lat="47.83627" lon="6.65575">
        <ele>610.5</ele>
        <time>2022-06-29T10:14:29Z</time>
      </trkpt>
      <trkpt lat="47.83627" lon="6.65568">
        <ele>610.1</ele>
        <time>2022-06-29T10:14:34Z</time>
      </trkpt>
      <trkpt lat="47.83627" lon="6.6556">
        <ele>609.1</ele>
        <time>2022-06-29T10:14:40Z</time>
      </trkpt>
      <trkpt lat="47.83628" lon="6.65552">
        <ele>608.1</ele>
        <time>2022-06-29T10:14:45Z</time>
      </trkpt>
      <trkpt lat="47.83629" lon="6.65544">
        <ele>607.1</ele>
        <time>2022-06-29T10:14:50Z</time>
      </trkpt>
      <trkpt lat="47.8363" lon="6.65536">
        <ele>606.4</ele>
        <time>2022-06-29T10:14:54Z</time>
      </trkpt>
      <trkpt lat="47.83631" lon="6.65529">
        <ele>605.8</ele>
        <time>2022-06-29T10:14:58Z</time>
      </trkpt>
      <trkpt lat="47.83632" lon="6.65521">
        <ele>605.4</ele>
        <time>2022-06-29T10:15:02Z</time>
      </trkpt>
      <trkpt lat="47.83633" lon="6.65514">
        <ele>605.3</ele>
        <time>2022-06-29T10:15:06Z</time>
      </trkpt>
      <trkpt lat="47.83635" lon="6.65508">
        <ele>604.6</ele>
        <time>2022-06-29T10:15:11Z</time>
      </trkpt>
      <trkpt lat="47.83635" lon="6.65501">
        <ele>603.8</ele>
        <time>2022-06-29T10:15:17Z</time>
      </trkpt>
      <trkpt lat="47.83636" lon="6.65493">
        <ele>603.3</ele>
        <time>2022-06-29T10:15:21Z</time>
      </trkpt>
      <trkpt lat="47.83637" lon="6.65485">
        <ele>602.6</ele>
        <time>2022-06-29T10:15:25Z</time>
      </trkpt>
      <trkpt lat="47.83636" lon="6.65477">
        <ele>601.3</ele>
        <time>2022-06-29T10:15:30Z</time>
      </trkpt>
      <trkpt lat="47.83637" lon="6.6547">
        <ele>600.3</ele>
        <time>2022-06-29T10:15:34Z</time>
      </trkpt>
      <trkpt lat="47.83638" lon="6.65463">
        <ele>599.6</ele>
        <time>2022-06-29T10:15:39Z</time>
      </trkpt>
      <trkpt lat="47.83638" lon="6.65455">
        <ele>599</ele>
        <time>2022-06-29T10:15:43Z</time>
      </trkpt>
      <trkpt lat="47.83639" lon="6.65447">
        <ele>598.8</ele>
        <time>2022-06-29T10:15:47Z</time>
      </trkpt>
      <trkpt lat="47.8364" lon="6.65439">
        <ele>598.9</ele>
        <time>2022-06-29T10:15:51Z</time>
      </trkpt>
      <trkpt lat="47.83642" lon="6.65432">
        <ele>599.2</ele>
        <time>2022-06-29T10:15:55Z</time>
      </trkpt>
      <trkpt lat="47.83643" lon="6.65425">
        <ele>599.5</ele>
        <time>2022-06-29T10:15:59Z</time>
      </trkpt>
      <trkpt lat="47.83645" lon="6.65419">
        <ele>599.8</ele>
        <time>2022-06-29T10:16:03Z</time>
      </trkpt>
      <trkpt lat="47.83646" lon="6.65411">
        <ele>600</ele>
        <time>2022-06-29T10:16:07Z</time>
      </trkpt>
      <trkpt lat="47.83647" lon="6.65405">
        <ele>600.6</ele>
        <time>2022-06-29T10:16:13Z</time>
      </trkpt>
      <trkpt lat="47.83647" lon="6.65397">
        <ele>599.8</ele>
        <time>2022-06-29T10:16:19Z</time>
      </trkpt>
      <trkpt lat="47.83647" lon="6.65389">
        <ele>599.3</ele>
        <time>2022-06-29T10:16:23Z</time>
      </trkpt>
      <trkpt lat="47.83646" lon="6.65381">
        <ele>599.1</ele>
        <time>2022-06-29T10:16:28Z</time>
      </trkpt>
      <trkpt lat="47.83645" lon="6.65373">
        <ele>599.3</ele>
        <time>2022-06-29T10:16:32Z</time>
      </trkpt>
      <trkpt lat="47.83644" lon="6.65365">
        <ele>599.6</ele>
        <time>2022-06-29T10:16:36Z</time>
      </trkpt>
      <trkpt lat="47.83642" lon="6.65359">
        <ele>599.9</ele>
        <time>2022-06-29T10:16:39Z</time>
      </trkpt>
      <trkpt lat="47.8364" lon="6.65353">
        <ele>600.6</ele>
        <time>2022-06-29T10:16:42Z</time>
      </trkpt>
      <trkpt lat="47.83637" lon="6.65347">
        <ele>601.5</ele>
        <time>2022-06-29T10:16:45Z</time>
      </trkpt>
      <trkpt lat="47.83634" lon="6.65341">
        <ele>602.5</ele>
        <time>2022-06-29T10:16:48Z</time>
      </trkpt>
      <trkpt lat="47.83631" lon="6.65336">
        <ele>604.7</ele>
        <time>2022-06-29T10:16:57Z</time>
      </trkpt>
      <trkpt lat="47.83626" lon="6.65338">
        <ele>605.2</ele>
        <time>2022-06-29T10:17:03Z</time>
      </trkpt>
      <trkpt lat="47.83623" lon="6.65342">
        <ele>605.2</ele>
        <time>2022-06-29T10:17:08Z</time>
      </trkpt>
      <trkpt lat="47.83621" lon="6.65349">
        <ele>607.5</ele>
        <time>2022-06-29T10:17:29Z</time>
      </trkpt>
      <trkpt lat="47.83618" lon="6.65354">
        <ele>606.8</ele>
        <time>2022-06-29T10:17:33Z</time>
      </trkpt>
      <trkpt lat="47.83614" lon="6.6536">
        <ele>605.7</ele>
        <time>2022-06-29T10:17:37Z</time>
      </trkpt>
      <trkpt lat="47.83609" lon="6.65362">
        <ele>601.2</ele>
        <time>2022-06-29T10:18:03Z</time>
      </trkpt>
      <trkpt lat="47.83606" lon="6.65367">
        <ele>601.6</ele>
        <time>2022-06-29T10:18:10Z</time>
      </trkpt>
      <trkpt lat="47.83602" lon="6.65364">
        <ele>601.2</ele>
        <time>2022-06-29T10:18:20Z</time>
      </trkpt>
      <trkpt lat="47.83597" lon="6.65362">
        <ele>598.1</ele>
        <time>2022-06-29T10:19:24Z</time>
      </trkpt>
      <trkpt lat="47.83602" lon="6.65361">
        <ele>603.9</ele>
        <time>2022-06-29T11:00:20Z</time>
      </trkpt>
      <trkpt lat="47.83607" lon="6.65364">
        <ele>603.9</ele>
        <time>2022-06-29T11:00:39Z</time>
      </trkpt>
      <trkpt lat="47.83602" lon="6.65365">
        <ele>603.2</ele>
        <time>2022-06-29T11:01:10Z</time>
      </trkpt>
      <trkpt lat="47.83598" lon="6.65361">
        <ele>592</ele>
        <time>2022-06-29T11:17:00Z</time>
      </trkpt>
      <trkpt lat="47.83601" lon="6.65366">
        <ele>591.9</ele>
        <time>2022-06-29T11:17:50Z</time>
      </trkpt>
      <trkpt lat="47.83596" lon="6.65365">
        <ele>593.2</ele>
        <time>2022-06-29T11:18:18Z</time>
      </trkpt>
      <trkpt lat="47.836" lon="6.65361">
        <ele>593.1</ele>
        <time>2022-06-29T11:18:49Z</time>
      </trkpt>
      <trkpt lat="47.83605" lon="6.65358">
        <ele>591.2</ele>
        <time>2022-06-29T11:21:46Z</time>
      </trkpt>
      <trkpt lat="47.83601" lon="6.65363">
        <ele>593.2</ele>
        <time>2022-06-29T11:22:41Z</time>
      </trkpt>
      <trkpt lat="47.83603" lon="6.65356">
        <ele>594.2</ele>
        <time>2022-06-29T11:24:47Z</time>
      </trkpt>
      <trkpt lat="47.83601" lon="6.65363">
        <ele>593.2</ele>
        <time>2022-06-29T11:27:03Z</time>
      </trkpt>
      <trkpt lat="47.836" lon="6.6537">
        <ele>593.3</ele>
        <time>2022-06-29T11:27:08Z</time>
      </trkpt>
      <trkpt lat="47.83598" lon="6.65377">
        <ele>595.6</ele>
        <time>2022-06-29T11:27:17Z</time>
      </trkpt>
      <trkpt lat="47.83594" lon="6.6538">
        <ele>596.6</ele>
        <time>2022-06-29T11:27:23Z</time>
      </trkpt>
      <trkpt lat="47.83589" lon="6.6538">
        <ele>597.2</ele>
        <time>2022-06-29T11:27:28Z</time>
      </trkpt>
      <trkpt lat="47.83586" lon="6.65376">
        <ele>597.5</ele>
        <time>2022-06-29T11:27:32Z</time>
      </trkpt>
      <trkpt lat="47.83582" lon="6.65373">
        <ele>597.8</ele>
        <time>2022-06-29T11:27:36Z</time>
      </trkpt>
      <trkpt lat="47.83576" lon="6.6537">
        <ele>597.8</ele>
        <time>2022-06-29T11:27:40Z</time>
      </trkpt>
      <trkpt lat="47.83571" lon="6.6537">
        <ele>597.9</ele>
        <time>2022-06-29T11:27:46Z</time>
      </trkpt>
      <trkpt lat="47.83566" lon="6.65369">
        <ele>597.6</ele>
        <time>2022-06-29T11:27:51Z</time>
      </trkpt>
      <trkpt lat="47.83561" lon="6.65368">
        <ele>597.4</ele>
        <time>2022-06-29T11:27:55Z</time>
      </trkpt>
      <trkpt lat="47.83556" lon="6.65369">
        <ele>597.4</ele>
        <time>2022-06-29T11:28:00Z</time>
      </trkpt>
      <trkpt lat="47.83551" lon="6.6537">
        <ele>598</ele>
        <time>2022-06-29T11:28:05Z</time>
      </trkpt>
      <trkpt lat="47.83546" lon="6.65373">
        <ele>599.1</ele>
        <time>2022-06-29T11:28:11Z</time>
      </trkpt>
      <trkpt lat="47.83543" lon="6.65379">
        <ele>599.3</ele>
        <time>2022-06-29T11:28:18Z</time>
      </trkpt>
      <trkpt lat="47.8354" lon="6.65384">
        <ele>599.6</ele>
        <time>2022-06-29T11:28:23Z</time>
      </trkpt>
      <trkpt lat="47.83537" lon="6.65391">
        <ele>599.8</ele>
        <time>2022-06-29T11:28:27Z</time>
      </trkpt>
      <trkpt lat="47.83534" lon="6.65397">
        <ele>600.3</ele>
        <time>2022-06-29T11:28:31Z</time>
      </trkpt>
      <trkpt lat="47.83531" lon="6.65403">
        <ele>600.6</ele>
        <time>2022-06-29T11:28:35Z</time>
      </trkpt>
      <trkpt lat="47.83527" lon="6.65408">
        <ele>600.6</ele>
        <time>2022-06-29T11:28:40Z</time>
      </trkpt>
      <trkpt lat="47.83525" lon="6.65413">
        <ele>600.3</ele>
        <time>2022-06-29T11:28:45Z</time>
      </trkpt>
      <trkpt lat="47.83523" lon="6.6542">
        <ele>600.5</ele>
        <time>2022-06-29T11:28:50Z</time>
      </trkpt>
      <trkpt lat="47.83521" lon="6.65428">
        <ele>601.2</ele>
        <time>2022-06-29T11:28:56Z</time>
      </trkpt>
      <trkpt lat="47.83518" lon="6.65433">
        <ele>601.7</ele>
        <time>2022-06-29T11:29:01Z</time>
      </trkpt>
      <trkpt lat="47.83518" lon="6.6544">
        <ele>602.5</ele>
        <time>2022-06-29T11:29:08Z</time>
      </trkpt>
      <trkpt lat="47.8352" lon="6.65446">
        <ele>602.2</ele>
        <time>2022-06-29T11:29:13Z</time>
      </trkpt>
      <trkpt lat="47.8352" lon="6.65453">
        <ele>601.5</ele>
        <time>2022-06-29T11:29:17Z</time>
      </trkpt>
      <trkpt lat="47.83519" lon="6.65462">
        <ele>600.9</ele>
        <time>2022-06-29T11:29:21Z</time>
      </trkpt>
      <trkpt lat="47.83517" lon="6.65469">
        <ele>600.8</ele>
        <time>2022-06-29T11:29:24Z</time>
      </trkpt>
      <trkpt lat="47.83516" lon="6.65476">
        <ele>600.9</ele>
        <time>2022-06-29T11:29:27Z</time>
      </trkpt>
      <trkpt lat="47.83516" lon="6.65483">
        <ele>601.8</ele>
        <time>2022-06-29T11:29:31Z</time>
      </trkpt>
      <trkpt lat="47.83513" lon="6.65491">
        <ele>603.2</ele>
        <time>2022-06-29T11:29:35Z</time>
      </trkpt>
      <trkpt lat="47.8351" lon="6.65496">
        <ele>604.7</ele>
        <time>2022-06-29T11:29:40Z</time>
      </trkpt>
      <trkpt lat="47.83506" lon="6.655">
        <ele>605.9</ele>
        <time>2022-06-29T11:29:46Z</time>
      </trkpt>
      <trkpt lat="47.83502" lon="6.65503">
        <ele>606.7</ele>
        <time>2022-06-29T11:29:51Z</time>
      </trkpt>
      <trkpt lat="47.83498" lon="6.65508">
        <ele>607.2</ele>
        <time>2022-06-29T11:29:55Z</time>
      </trkpt>
      <trkpt lat="47.83497" lon="6.65516">
        <ele>606</ele>
        <time>2022-06-29T11:30:02Z</time>
      </trkpt>
      <trkpt lat="47.83496" lon="6.65523">
        <ele>605</ele>
        <time>2022-06-29T11:30:06Z</time>
      </trkpt>
      <trkpt lat="47.83494" lon="6.65531">
        <ele>604.3</ele>
        <time>2022-06-29T11:30:10Z</time>
      </trkpt>
      <trkpt lat="47.83492" lon="6.65538">
        <ele>603.7</ele>
        <time>2022-06-29T11:30:14Z</time>
      </trkpt>
      <trkpt lat="47.83491" lon="6.65544">
        <ele>603.3</ele>
        <time>2022-06-29T11:30:18Z</time>
      </trkpt>
      <trkpt lat="47.83489" lon="6.65552">
        <ele>603.3</ele>
        <time>2022-06-29T11:30:23Z</time>
      </trkpt>
      <trkpt lat="47.83487" lon="6.65559">
        <ele>602.5</ele>
        <time>2022-06-29T11:30:28Z</time>
      </trkpt>
      <trkpt lat="47.83484" lon="6.65566">
        <ele>601</ele>
        <time>2022-06-29T11:30:33Z</time>
      </trkpt>
      <trkpt lat="47.83482" lon="6.65573">
        <ele>599.5</ele>
        <time>2022-06-29T11:30:38Z</time>
      </trkpt>
      <trkpt lat="47.83478" lon="6.65576">
        <ele>598</ele>
        <time>2022-06-29T11:30:45Z</time>
      </trkpt>
      <trkpt lat="47.83473" lon="6.65575">
        <ele>596.4</ele>
        <time>2022-06-29T11:30:53Z</time>
      </trkpt>
      <trkpt lat="47.83468" lon="6.65575">
        <ele>596.1</ele>
        <time>2022-06-29T11:30:57Z</time>
      </trkpt>
      <trkpt lat="47.83463" lon="6.65574">
        <ele>596.7</ele>
        <time>2022-06-29T11:31:01Z</time>
      </trkpt>
      <trkpt lat="47.83458" lon="6.65572">
        <ele>597.6</ele>
        <time>2022-06-29T11:31:05Z</time>
      </trkpt>
      <trkpt lat="47.83453" lon="6.65569">
        <ele>598.8</ele>
        <time>2022-06-29T11:31:10Z</time>
      </trkpt>
      <trkpt lat="47.83448" lon="6.65569">
        <ele>597.7</ele>
        <time>2022-06-29T11:31:19Z</time>
      </trkpt>
      <trkpt lat="47.83442" lon="6.6557">
        <ele>596.3</ele>
        <time>2022-06-29T11:31:23Z</time>
      </trkpt>
      <trkpt lat="47.83437" lon="6.65571">
        <ele>594.7</ele>
        <time>2022-06-29T11:31:27Z</time>
      </trkpt>
      <trkpt lat="47.83432" lon="6.6557">
        <ele>593</ele>
        <time>2022-06-29T11:31:31Z</time>
      </trkpt>
      <trkpt lat="47.83427" lon="6.6557">
        <ele>591.7</ele>
        <time>2022-06-29T11:31:35Z</time>
      </trkpt>
      <trkpt lat="47.83422" lon="6.6557">
        <ele>590.7</ele>
        <time>2022-06-29T11:31:40Z</time>
      </trkpt>
      <trkpt lat="47.83417" lon="6.65567">
        <ele>589.9</ele>
        <time>2022-06-29T11:31:45Z</time>
      </trkpt>
      <trkpt lat="47.83412" lon="6.65567">
        <ele>589.6</ele>
        <time>2022-06-29T11:31:49Z</time>
      </trkpt>
      <trkpt lat="47.83407" lon="6.65564">
        <ele>589.9</ele>
        <time>2022-06-29T11:31:53Z</time>
      </trkpt>
      <trkpt lat="47.83402" lon="6.65561">
        <ele>590.5</ele>
        <time>2022-06-29T11:31:57Z</time>
      </trkpt>
      <trkpt lat="47.83397" lon="6.65557">
        <ele>591.1</ele>
        <time>2022-06-29T11:32:01Z</time>
      </trkpt>
      <trkpt lat="47.83393" lon="6.65553">
        <ele>592</ele>
        <time>2022-06-29T11:32:06Z</time>
      </trkpt>
      <trkpt lat="47.83389" lon="6.65548">
        <ele>593.7</ele>
        <time>2022-06-29T11:32:12Z</time>
      </trkpt>
      <trkpt lat="47.83384" lon="6.65544">
        <ele>594.6</ele>
        <time>2022-06-29T11:32:16Z</time>
      </trkpt>
      <trkpt lat="47.83378" lon="6.65541">
        <ele>594.9</ele>
        <time>2022-06-29T11:32:20Z</time>
      </trkpt>
      <trkpt lat="47.83373" lon="6.65539">
        <ele>594.9</ele>
        <time>2022-06-29T11:32:23Z</time>
      </trkpt>
      <trkpt lat="47.83368" lon="6.65536">
        <ele>594.9</ele>
        <time>2022-06-29T11:32:26Z</time>
      </trkpt>
      <trkpt lat="47.83366" lon="6.6553">
        <ele>594.6</ele>
        <time>2022-06-29T11:32:32Z</time>
      </trkpt>
      <trkpt lat="47.83365" lon="6.65523">
        <ele>594.2</ele>
        <time>2022-06-29T11:32:39Z</time>
      </trkpt>
      <trkpt lat="47.83361" lon="6.65519">
        <ele>594.1</ele>
        <time>2022-06-29T11:32:44Z</time>
      </trkpt>
      <trkpt lat="47.83356" lon="6.65515">
        <ele>593.7</ele>
        <time>2022-06-29T11:32:47Z</time>
      </trkpt>
      <trkpt lat="47.83352" lon="6.6551">
        <ele>593.5</ele>
        <time>2022-06-29T11:32:51Z</time>
      </trkpt>
      <trkpt lat="47.83348" lon="6.65507">
        <ele>593.7</ele>
        <time>2022-06-29T11:32:56Z</time>
      </trkpt>
      <trkpt lat="47.83343" lon="6.65507">
        <ele>594.5</ele>
        <time>2022-06-29T11:33:01Z</time>
      </trkpt>
      <trkpt lat="47.83338" lon="6.65509">
        <ele>595.2</ele>
        <time>2022-06-29T11:33:05Z</time>
      </trkpt>
      <trkpt lat="47.83333" lon="6.65511">
        <ele>596</ele>
        <time>2022-06-29T11:33:08Z</time>
      </trkpt>
      <trkpt lat="47.83328" lon="6.65513">
        <ele>596.9</ele>
        <time>2022-06-29T11:33:11Z</time>
      </trkpt>
      <trkpt lat="47.83324" lon="6.65509">
        <ele>598.3</ele>
        <time>2022-06-29T11:33:16Z</time>
      </trkpt>
      <trkpt lat="47.8332" lon="6.65503">
        <ele>598.8</ele>
        <time>2022-06-29T11:33:20Z</time>
      </trkpt>
      <trkpt lat="47.83318" lon="6.65496">
        <ele>599.7</ele>
        <time>2022-06-29T11:33:23Z</time>
      </trkpt>
      <trkpt lat="47.83314" lon="6.6549">
        <ele>601.2</ele>
        <time>2022-06-29T11:33:27Z</time>
      </trkpt>
      <trkpt lat="47.8331" lon="6.65488">
        <ele>601.9</ele>
        <time>2022-06-29T11:33:31Z</time>
      </trkpt>
      <trkpt lat="47.83305" lon="6.65487">
        <ele>602.1</ele>
        <time>2022-06-29T11:33:35Z</time>
      </trkpt>
      <trkpt lat="47.833" lon="6.65489">
        <ele>601.7</ele>
        <time>2022-06-29T11:33:38Z</time>
      </trkpt>
      <trkpt lat="47.83295" lon="6.6549">
        <ele>600.1</ele>
        <time>2022-06-29T11:33:42Z</time>
      </trkpt>
      <trkpt lat="47.83291" lon="6.65494">
        <ele>598</ele>
        <time>2022-06-29T11:33:46Z</time>
      </trkpt>
      <trkpt lat="47.83286" lon="6.65496">
        <ele>596.7</ele>
        <time>2022-06-29T11:33:51Z</time>
      </trkpt>
      <trkpt lat="47.83282" lon="6.655">
        <ele>596.1</ele>
        <time>2022-06-29T11:33:55Z</time>
      </trkpt>
      <trkpt lat="47.83277" lon="6.65504">
        <ele>595.3</ele>
        <time>2022-06-29T11:34:00Z</time>
      </trkpt>
      <trkpt lat="47.83273" lon="6.65507">
        <ele>594.8</ele>
        <time>2022-06-29T11:34:06Z</time>
      </trkpt>
      <trkpt lat="47.83269" lon="6.6551">
        <ele>594.6</ele>
        <time>2022-06-29T11:34:09Z</time>
      </trkpt>
      <trkpt lat="47.83264" lon="6.65514">
        <ele>594.4</ele>
        <time>2022-06-29T11:34:12Z</time>
      </trkpt>
      <trkpt lat="47.83259" lon="6.65516">
        <ele>594</ele>
        <time>2022-06-29T11:34:15Z</time>
      </trkpt>
      <trkpt lat="47.83256" lon="6.6552">
        <ele>593.4</ele>
        <time>2022-06-29T11:34:19Z</time>
      </trkpt>
      <trkpt lat="47.83251" lon="6.65525">
        <ele>592.9</ele>
        <time>2022-06-29T11:34:23Z</time>
      </trkpt>
      <trkpt lat="47.83246" lon="6.65529">
        <ele>592.4</ele>
        <time>2022-06-29T11:34:27Z</time>
      </trkpt>
      <trkpt lat="47.83242" lon="6.65532">
        <ele>591.8</ele>
        <time>2022-06-29T11:34:32Z</time>
      </trkpt>
      <trkpt lat="47.83237" lon="6.65533">
        <ele>591.3</ele>
        <time>2022-06-29T11:34:36Z</time>
      </trkpt>
      <trkpt lat="47.83232" lon="6.65535">
        <ele>591</ele>
        <time>2022-06-29T11:34:39Z</time>
      </trkpt>
      <trkpt lat="47.83227" lon="6.65536">
        <ele>590.4</ele>
        <time>2022-06-29T11:34:45Z</time>
      </trkpt>
      <trkpt lat="47.83222" lon="6.65535">
        <ele>590.3</ele>
        <time>2022-06-29T11:34:49Z</time>
      </trkpt>
      <trkpt lat="47.83217" lon="6.65536">
        <ele>590.5</ele>
        <time>2022-06-29T11:34:52Z</time>
      </trkpt>
      <trkpt lat="47.83213" lon="6.65538">
        <ele>590.6</ele>
        <time>2022-06-29T11:34:55Z</time>
      </trkpt>
      <trkpt lat="47.83208" lon="6.65539">
        <ele>590.9</ele>
        <time>2022-06-29T11:35:00Z</time>
      </trkpt>
      <trkpt lat="47.83207" lon="6.65547">
        <ele>591.2</ele>
        <time>2022-06-29T11:35:06Z</time>
      </trkpt>
      <trkpt lat="47.83203" lon="6.6555">
        <ele>591.8</ele>
        <time>2022-06-29T11:35:10Z</time>
      </trkpt>
      <trkpt lat="47.83199" lon="6.65555">
        <ele>592.6</ele>
        <time>2022-06-29T11:35:16Z</time>
      </trkpt>
      <trkpt lat="47.83196" lon="6.6556">
        <ele>593.1</ele>
        <time>2022-06-29T11:35:23Z</time>
      </trkpt>
      <trkpt lat="47.83192" lon="6.65566">
        <ele>592.8</ele>
        <time>2022-06-29T11:35:28Z</time>
      </trkpt>
      <trkpt lat="47.83188" lon="6.6557">
        <ele>592.1</ele>
        <time>2022-06-29T11:35:31Z</time>
      </trkpt>
      <trkpt lat="47.83184" lon="6.65575">
        <ele>591.4</ele>
        <time>2022-06-29T11:35:34Z</time>
      </trkpt>
      <trkpt lat="47.8318" lon="6.65581">
        <ele>590.9</ele>
        <time>2022-06-29T11:35:37Z</time>
      </trkpt>
      <trkpt lat="47.83176" lon="6.65586">
        <ele>590.6</ele>
        <time>2022-06-29T11:35:40Z</time>
      </trkpt>
      <trkpt lat="47.83172" lon="6.6559">
        <ele>590.6</ele>
        <time>2022-06-29T11:35:43Z</time>
      </trkpt>
      <trkpt lat="47.83167" lon="6.65594">
        <ele>590.5</ele>
        <time>2022-06-29T11:35:48Z</time>
      </trkpt>
      <trkpt lat="47.83163" lon="6.65597">
        <ele>589.7</ele>
        <time>2022-06-29T11:35:54Z</time>
      </trkpt>
      <trkpt lat="47.83159" lon="6.65602">
        <ele>589.3</ele>
        <time>2022-06-29T11:36:01Z</time>
      </trkpt>
      <trkpt lat="47.83155" lon="6.65607">
        <ele>588.6</ele>
        <time>2022-06-29T11:36:04Z</time>
      </trkpt>
      <trkpt lat="47.8315" lon="6.65611">
        <ele>588.1</ele>
        <time>2022-06-29T11:36:07Z</time>
      </trkpt>
      <trkpt lat="47.83145" lon="6.65615">
        <ele>587.9</ele>
        <time>2022-06-29T11:36:10Z</time>
      </trkpt>
      <trkpt lat="47.83141" lon="6.65619">
        <ele>588.1</ele>
        <time>2022-06-29T11:36:14Z</time>
      </trkpt>
      <trkpt lat="47.83137" lon="6.65624">
        <ele>588.5</ele>
        <time>2022-06-29T11:36:18Z</time>
      </trkpt>
      <trkpt lat="47.83133" lon="6.65628">
        <ele>589.2</ele>
        <time>2022-06-29T11:36:22Z</time>
      </trkpt>
      <trkpt lat="47.83129" lon="6.65631">
        <ele>590.3</ele>
        <time>2022-06-29T11:36:27Z</time>
      </trkpt>
      <trkpt lat="47.83124" lon="6.65635">
        <ele>590.7</ele>
        <time>2022-06-29T11:36:32Z</time>
      </trkpt>
      <trkpt lat="47.83119" lon="6.65638">
        <ele>591</ele>
        <time>2022-06-29T11:36:36Z</time>
      </trkpt>
      <trkpt lat="47.83114" lon="6.6564">
        <ele>591.5</ele>
        <time>2022-06-29T11:36:39Z</time>
      </trkpt>
      <trkpt lat="47.83109" lon="6.65644">
        <ele>592.4</ele>
        <time>2022-06-29T11:36:43Z</time>
      </trkpt>
      <trkpt lat="47.83105" lon="6.65646">
        <ele>593.2</ele>
        <time>2022-06-29T11:36:47Z</time>
      </trkpt>
      <trkpt lat="47.83101" lon="6.65649">
        <ele>595</ele>
        <time>2022-06-29T11:36:53Z</time>
      </trkpt>
      <trkpt lat="47.83095" lon="6.65646">
        <ele>595.2</ele>
        <time>2022-06-29T11:37:03Z</time>
      </trkpt>
      <trkpt lat="47.83091" lon="6.65641">
        <ele>595</ele>
        <time>2022-06-29T11:37:07Z</time>
      </trkpt>
      <trkpt lat="47.83089" lon="6.65636">
        <ele>595.7</ele>
        <time>2022-06-29T11:37:11Z</time>
      </trkpt>
      <trkpt lat="47.83086" lon="6.65628">
        <ele>596.8</ele>
        <time>2022-06-29T11:37:16Z</time>
      </trkpt>
      <trkpt lat="47.83086" lon="6.65621">
        <ele>597.2</ele>
        <time>2022-06-29T11:37:20Z</time>
      </trkpt>
      <trkpt lat="47.83085" lon="6.65613">
        <ele>596.8</ele>
        <time>2022-06-29T11:37:25Z</time>
      </trkpt>
      <trkpt lat="47.83082" lon="6.65606">
        <ele>595.3</ele>
        <time>2022-06-29T11:37:30Z</time>
      </trkpt>
      <trkpt lat="47.83082" lon="6.65598">
        <ele>591.7</ele>
        <time>2022-06-29T11:37:36Z</time>
      </trkpt>
      <trkpt lat="47.83083" lon="6.6559">
        <ele>589.1</ele>
        <time>2022-06-29T11:37:42Z</time>
      </trkpt>
      <trkpt lat="47.83082" lon="6.65582">
        <ele>587.5</ele>
        <time>2022-06-29T11:37:47Z</time>
      </trkpt>
      <trkpt lat="47.83084" lon="6.65575">
        <ele>586.1</ele>
        <time>2022-06-29T11:37:52Z</time>
      </trkpt>
      <trkpt lat="47.83086" lon="6.65567">
        <ele>585.4</ele>
        <time>2022-06-29T11:37:57Z</time>
      </trkpt>
      <trkpt lat="47.83089" lon="6.6556">
        <ele>585.1</ele>
        <time>2022-06-29T11:38:02Z</time>
      </trkpt>
      <trkpt lat="47.83091" lon="6.65554">
        <ele>585.3</ele>
        <time>2022-06-29T11:38:06Z</time>
      </trkpt>
      <trkpt lat="47.83095" lon="6.65548">
        <ele>585.1</ele>
        <time>2022-06-29T11:38:11Z</time>
      </trkpt>
      <trkpt lat="47.83098" lon="6.65543">
        <ele>584.8</ele>
        <time>2022-06-29T11:38:14Z</time>
      </trkpt>
      <trkpt lat="47.83101" lon="6.65536">
        <ele>584.6</ele>
        <time>2022-06-29T11:38:18Z</time>
      </trkpt>
      <trkpt lat="47.83103" lon="6.65529">
        <ele>584.2</ele>
        <time>2022-06-29T11:38:23Z</time>
      </trkpt>
      <trkpt lat="47.83107" lon="6.65522">
        <ele>584.1</ele>
        <time>2022-06-29T11:38:27Z</time>
      </trkpt>
      <trkpt lat="47.8311" lon="6.65515">
        <ele>583.9</ele>
        <time>2022-06-29T11:38:31Z</time>
      </trkpt>
      <trkpt lat="47.83113" lon="6.65509">
        <ele>584.2</ele>
        <time>2022-06-29T11:38:36Z</time>
      </trkpt>
      <trkpt lat="47.83116" lon="6.65502">
        <ele>585.1</ele>
        <time>2022-06-29T11:38:41Z</time>
      </trkpt>
      <trkpt lat="47.83119" lon="6.65497">
        <ele>585.4</ele>
        <time>2022-06-29T11:38:46Z</time>
      </trkpt>
      <trkpt lat="47.83123" lon="6.65491">
        <ele>585.3</ele>
        <time>2022-06-29T11:38:51Z</time>
      </trkpt>
      <trkpt lat="47.83125" lon="6.65485">
        <ele>584.7</ele>
        <time>2022-06-29T11:38:56Z</time>
      </trkpt>
      <trkpt lat="47.83126" lon="6.65478">
        <ele>583.7</ele>
        <time>2022-06-29T11:39:00Z</time>
      </trkpt>
      <trkpt lat="47.83128" lon="6.65472">
        <ele>583</ele>
        <time>2022-06-29T11:39:03Z</time>
      </trkpt>
      <trkpt lat="47.83131" lon="6.65465">
        <ele>582.4</ele>
        <time>2022-06-29T11:39:07Z</time>
      </trkpt>
      <trkpt lat="47.83134" lon="6.65459">
        <ele>582.2</ele>
        <time>2022-06-29T11:39:11Z</time>
      </trkpt>
      <trkpt lat="47.83138" lon="6.65455">
        <ele>582.2</ele>
        <time>2022-06-29T11:39:16Z</time>
      </trkpt>
      <trkpt lat="47.83141" lon="6.65449">
        <ele>581.4</ele>
        <time>2022-06-29T11:39:22Z</time>
      </trkpt>
      <trkpt lat="47.83142" lon="6.65442">
        <ele>581.1</ele>
        <time>2022-06-29T11:39:25Z</time>
      </trkpt>
      <trkpt lat="47.83144" lon="6.65435">
        <ele>580.9</ele>
        <time>2022-06-29T11:39:28Z</time>
      </trkpt>
      <trkpt lat="47.83145" lon="6.65429">
        <ele>580.7</ele>
        <time>2022-06-29T11:39:31Z</time>
      </trkpt>
      <trkpt lat="47.83146" lon="6.65421">
        <ele>580.7</ele>
        <time>2022-06-29T11:39:35Z</time>
      </trkpt>
      <trkpt lat="47.83147" lon="6.65414">
        <ele>581.1</ele>
        <time>2022-06-29T11:39:39Z</time>
      </trkpt>
      <trkpt lat="47.83146" lon="6.65406">
        <ele>582</ele>
        <time>2022-06-29T11:39:43Z</time>
      </trkpt>
      <trkpt lat="47.83145" lon="6.65399">
        <ele>583</ele>
        <time>2022-06-29T11:39:46Z</time>
      </trkpt>
      <trkpt lat="47.83145" lon="6.65392">
        <ele>583.9</ele>
        <time>2022-06-29T11:39:49Z</time>
      </trkpt>
      <trkpt lat="47.83145" lon="6.65384">
        <ele>584.8</ele>
        <time>2022-06-29T11:39:53Z</time>
      </trkpt>
      <trkpt lat="47.83146" lon="6.65376">
        <ele>585.3</ele>
        <time>2022-06-29T11:39:57Z</time>
      </trkpt>
      <trkpt lat="47.83143" lon="6.65369">
        <ele>585.5</ele>
        <time>2022-06-29T11:40:01Z</time>
      </trkpt>
      <trkpt lat="47.83141" lon="6.65363">
        <ele>586.4</ele>
        <time>2022-06-29T11:40:07Z</time>
      </trkpt>
      <trkpt lat="47.83143" lon="6.65355">
        <ele>587.8</ele>
        <time>2022-06-29T11:40:12Z</time>
      </trkpt>
      <trkpt lat="47.83145" lon="6.65347">
        <ele>589.2</ele>
        <time>2022-06-29T11:40:16Z</time>
      </trkpt>
      <trkpt lat="47.83145" lon="6.65338">
        <ele>590.7</ele>
        <time>2022-06-29T11:40:20Z</time>
      </trkpt>
      <trkpt lat="47.83142" lon="6.65333">
        <ele>591.8</ele>
        <time>2022-06-29T11:40:23Z</time>
      </trkpt>
      <trkpt lat="47.83137" lon="6.65331">
        <ele>592.9</ele>
        <time>2022-06-29T11:40:27Z</time>
      </trkpt>
      <trkpt lat="47.83132" lon="6.65335">
        <ele>593</ele>
        <time>2022-06-29T11:40:30Z</time>
      </trkpt>
      <trkpt lat="47.83132" lon="6.65343">
        <ele>592.6</ele>
        <time>2022-06-29T11:40:36Z</time>
      </trkpt>
      <trkpt lat="47.83134" lon="6.65327">
        <ele>579.4</ele>
        <time>2022-06-29T11:41:22Z</time>
      </trkpt>
      <trkpt lat="47.83125" lon="6.65326">
        <ele>570.3</ele>
        <time>2022-06-29T11:41:25Z</time>
      </trkpt>
      <trkpt lat="47.83123" lon="6.6532">
        <ele>569.4</ele>
        <time>2022-06-29T11:41:29Z</time>
      </trkpt>
      <trkpt lat="47.83124" lon="6.65313">
        <ele>572.5</ele>
        <time>2022-06-29T11:41:32Z</time>
      </trkpt>
      <trkpt lat="47.83127" lon="6.65308">
        <ele>575.7</ele>
        <time>2022-06-29T11:41:36Z</time>
      </trkpt>
      <trkpt lat="47.8313" lon="6.65303">
        <ele>577.3</ele>
        <time>2022-06-29T11:41:40Z</time>
      </trkpt>
      <trkpt lat="47.83133" lon="6.65296">
        <ele>578.2</ele>
        <time>2022-06-29T11:41:45Z</time>
      </trkpt>
      <trkpt lat="47.83136" lon="6.6529">
        <ele>578.7</ele>
        <time>2022-06-29T11:41:48Z</time>
      </trkpt>
      <trkpt lat="47.8314" lon="6.65286">
        <ele>578.4</ele>
        <time>2022-06-29T11:41:51Z</time>
      </trkpt>
      <trkpt lat="47.83143" lon="6.65279">
        <ele>578.7</ele>
        <time>2022-06-29T11:41:55Z</time>
      </trkpt>
      <trkpt lat="47.83146" lon="6.65273">
        <ele>579.9</ele>
        <time>2022-06-29T11:41:58Z</time>
      </trkpt>
      <trkpt lat="47.83151" lon="6.65267">
        <ele>581.6</ele>
        <time>2022-06-29T11:42:01Z</time>
      </trkpt>
      <trkpt lat="47.83156" lon="6.6526">
        <ele>583</ele>
        <time>2022-06-29T11:42:04Z</time>
      </trkpt>
      <trkpt lat="47.8316" lon="6.65255">
        <ele>584.4</ele>
        <time>2022-06-29T11:42:07Z</time>
      </trkpt>
      <trkpt lat="47.83165" lon="6.65251">
        <ele>585.8</ele>
        <time>2022-06-29T11:42:10Z</time>
      </trkpt>
      <trkpt lat="47.83169" lon="6.65246">
        <ele>587</ele>
        <time>2022-06-29T11:42:14Z</time>
      </trkpt>
      <trkpt lat="47.83172" lon="6.65237">
        <ele>587.5</ele>
        <time>2022-06-29T11:42:18Z</time>
      </trkpt>
      <trkpt lat="47.83171" lon="6.65229">
        <ele>587.8</ele>
        <time>2022-06-29T11:42:21Z</time>
      </trkpt>
      <trkpt lat="47.83171" lon="6.6522">
        <ele>587.9</ele>
        <time>2022-06-29T11:42:25Z</time>
      </trkpt>
      <trkpt lat="47.83174" lon="6.65214">
        <ele>588</ele>
        <time>2022-06-29T11:42:28Z</time>
      </trkpt>
      <trkpt lat="47.83178" lon="6.6521">
        <ele>587.5</ele>
        <time>2022-06-29T11:42:31Z</time>
      </trkpt>
      <trkpt lat="47.83183" lon="6.65206">
        <ele>586.1</ele>
        <time>2022-06-29T11:42:35Z</time>
      </trkpt>
      <trkpt lat="47.83187" lon="6.65199">
        <ele>584.8</ele>
        <time>2022-06-29T11:42:38Z</time>
      </trkpt>
      <trkpt lat="47.83189" lon="6.65191">
        <ele>583.5</ele>
        <time>2022-06-29T11:42:41Z</time>
      </trkpt>
      <trkpt lat="47.8319" lon="6.65185">
        <ele>582.2</ele>
        <time>2022-06-29T11:42:44Z</time>
      </trkpt>
      <trkpt lat="47.8319" lon="6.65177">
        <ele>581.5</ele>
        <time>2022-06-29T11:42:48Z</time>
      </trkpt>
      <trkpt lat="47.83189" lon="6.6517">
        <ele>581.1</ele>
        <time>2022-06-29T11:42:53Z</time>
      </trkpt>
      <trkpt lat="47.83192" lon="6.65163">
        <ele>580.6</ele>
        <time>2022-06-29T11:42:56Z</time>
      </trkpt>
      <trkpt lat="47.83194" lon="6.65156">
        <ele>580.1</ele>
        <time>2022-06-29T11:42:59Z</time>
      </trkpt>
      <trkpt lat="47.83197" lon="6.65149">
        <ele>578.4</ele>
        <time>2022-06-29T11:43:03Z</time>
      </trkpt>
      <trkpt lat="47.832" lon="6.65143">
        <ele>576.7</ele>
        <time>2022-06-29T11:43:06Z</time>
      </trkpt>
      <trkpt lat="47.832" lon="6.65135">
        <ele>575.1</ele>
        <time>2022-06-29T11:43:10Z</time>
      </trkpt>
      <trkpt lat="47.832" lon="6.65127">
        <ele>573.1</ele>
        <time>2022-06-29T11:43:15Z</time>
      </trkpt>
      <trkpt lat="47.83202" lon="6.6512">
        <ele>571.6</ele>
        <time>2022-06-29T11:43:21Z</time>
      </trkpt>
      <trkpt lat="47.83208" lon="6.65116">
        <ele>571.3</ele>
        <time>2022-06-29T11:43:25Z</time>
      </trkpt>
      <trkpt lat="47.83211" lon="6.65111">
        <ele>571.6</ele>
        <time>2022-06-29T11:43:28Z</time>
      </trkpt>
      <trkpt lat="47.83216" lon="6.65106">
        <ele>572.2</ele>
        <time>2022-06-29T11:43:31Z</time>
      </trkpt>
      <trkpt lat="47.8322" lon="6.65102">
        <ele>572.6</ele>
        <time>2022-06-29T11:43:34Z</time>
      </trkpt>
      <trkpt lat="47.83224" lon="6.65097">
        <ele>572.9</ele>
        <time>2022-06-29T11:43:37Z</time>
      </trkpt>
      <trkpt lat="47.83228" lon="6.65092">
        <ele>573.4</ele>
        <time>2022-06-29T11:43:40Z</time>
      </trkpt>
      <trkpt lat="47.83232" lon="6.65087">
        <ele>574.6</ele>
        <time>2022-06-29T11:43:46Z</time>
      </trkpt>
      <trkpt lat="47.83237" lon="6.65082">
        <ele>575.2</ele>
        <time>2022-06-29T11:43:50Z</time>
      </trkpt>
      <trkpt lat="47.83242" lon="6.65078">
        <ele>575.4</ele>
        <time>2022-06-29T11:43:53Z</time>
      </trkpt>
      <trkpt lat="47.83245" lon="6.65073">
        <ele>575.1</ele>
        <time>2022-06-29T11:43:56Z</time>
      </trkpt>
      <trkpt lat="47.83249" lon="6.65069">
        <ele>574.8</ele>
        <time>2022-06-29T11:43:59Z</time>
      </trkpt>
      <trkpt lat="47.83253" lon="6.65064">
        <ele>574.4</ele>
        <time>2022-06-29T11:44:02Z</time>
      </trkpt>
      <trkpt lat="47.83256" lon="6.65059">
        <ele>573.7</ele>
        <time>2022-06-29T11:44:07Z</time>
      </trkpt>
      <trkpt lat="47.83259" lon="6.65053">
        <ele>573.4</ele>
        <time>2022-06-29T11:44:11Z</time>
      </trkpt>
      <trkpt lat="47.83262" lon="6.65048">
        <ele>573</ele>
        <time>2022-06-29T11:44:15Z</time>
      </trkpt>
      <trkpt lat="47.83266" lon="6.65043">
        <ele>572.9</ele>
        <time>2022-06-29T11:44:18Z</time>
      </trkpt>
      <trkpt lat="47.83269" lon="6.65036">
        <ele>573.2</ele>
        <time>2022-06-29T11:44:21Z</time>
      </trkpt>
      <trkpt lat="47.83272" lon="6.6503">
        <ele>573.4</ele>
        <time>2022-06-29T11:44:25Z</time>
      </trkpt>
      <trkpt lat="47.83274" lon="6.65023">
        <ele>573.4</ele>
        <time>2022-06-29T11:44:29Z</time>
      </trkpt>
      <trkpt lat="47.83274" lon="6.65016">
        <ele>572.5</ele>
        <time>2022-06-29T11:44:35Z</time>
      </trkpt>
      <trkpt lat="47.83277" lon="6.6501">
        <ele>571.5</ele>
        <time>2022-06-29T11:44:40Z</time>
      </trkpt>
      <trkpt lat="47.83282" lon="6.65004">
        <ele>571.2</ele>
        <time>2022-06-29T11:44:44Z</time>
      </trkpt>
      <trkpt lat="47.83287" lon="6.64999">
        <ele>571.4</ele>
        <time>2022-06-29T11:44:47Z</time>
      </trkpt>
      <trkpt lat="47.83291" lon="6.64994">
        <ele>571.7</ele>
        <time>2022-06-29T11:44:50Z</time>
      </trkpt>
      <trkpt lat="47.83293" lon="6.64988">
        <ele>572.1</ele>
        <time>2022-06-29T11:44:54Z</time>
      </trkpt>
      <trkpt lat="47.83295" lon="6.64981">
        <ele>572.8</ele>
        <time>2022-06-29T11:44:58Z</time>
      </trkpt>
      <trkpt lat="47.83298" lon="6.64977">
        <ele>574.2</ele>
        <time>2022-06-29T11:45:02Z</time>
      </trkpt>
      <trkpt lat="47.83302" lon="6.64972">
        <ele>576.1</ele>
        <time>2022-06-29T11:45:08Z</time>
      </trkpt>
      <trkpt lat="47.83306" lon="6.64967">
        <ele>577.7</ele>
        <time>2022-06-29T11:45:14Z</time>
      </trkpt>
      <trkpt lat="47.83311" lon="6.64962">
        <ele>578.4</ele>
        <time>2022-06-29T11:45:18Z</time>
      </trkpt>
      <trkpt lat="47.83315" lon="6.64958">
        <ele>579</ele>
        <time>2022-06-29T11:45:21Z</time>
      </trkpt>
      <trkpt lat="47.8332" lon="6.64954">
        <ele>579.6</ele>
        <time>2022-06-29T11:45:25Z</time>
      </trkpt>
      <trkpt lat="47.83325" lon="6.64953">
        <ele>579.6</ele>
        <time>2022-06-29T11:45:30Z</time>
      </trkpt>
      <trkpt lat="47.8333" lon="6.64951">
        <ele>579.1</ele>
        <time>2022-06-29T11:45:34Z</time>
      </trkpt>
      <trkpt lat="47.83334" lon="6.64948">
        <ele>578.7</ele>
        <time>2022-06-29T11:45:38Z</time>
      </trkpt>
      <trkpt lat="47.8334" lon="6.64946">
        <ele>578.3</ele>
        <time>2022-06-29T11:45:42Z</time>
      </trkpt>
      <trkpt lat="47.83344" lon="6.64943">
        <ele>577.9</ele>
        <time>2022-06-29T11:45:45Z</time>
      </trkpt>
      <trkpt lat="47.83348" lon="6.64939">
        <ele>577.8</ele>
        <time>2022-06-29T11:45:48Z</time>
      </trkpt>
      <trkpt lat="47.83351" lon="6.64931">
        <ele>577.3</ele>
        <time>2022-06-29T11:45:54Z</time>
      </trkpt>
      <trkpt lat="47.83352" lon="6.64925">
        <ele>577.3</ele>
        <time>2022-06-29T11:45:57Z</time>
      </trkpt>
      <trkpt lat="47.83354" lon="6.64918">
        <ele>577.2</ele>
        <time>2022-06-29T11:46:01Z</time>
      </trkpt>
      <trkpt lat="47.83355" lon="6.64912">
        <ele>577.8</ele>
        <time>2022-06-29T11:46:06Z</time>
      </trkpt>
      <trkpt lat="47.83357" lon="6.64905">
        <ele>578.6</ele>
        <time>2022-06-29T11:46:10Z</time>
      </trkpt>
      <trkpt lat="47.83358" lon="6.64897">
        <ele>579.6</ele>
        <time>2022-06-29T11:46:14Z</time>
      </trkpt>
      <trkpt lat="47.83359" lon="6.64889">
        <ele>581</ele>
        <time>2022-06-29T11:46:19Z</time>
      </trkpt>
      <trkpt lat="47.8336" lon="6.64883">
        <ele>582.3</ele>
        <time>2022-06-29T11:46:24Z</time>
      </trkpt>
      <trkpt lat="47.8336" lon="6.64875">
        <ele>583.5</ele>
        <time>2022-06-29T11:46:29Z</time>
      </trkpt>
      <trkpt lat="47.8336" lon="6.64867">
        <ele>584.9</ele>
        <time>2022-06-29T11:46:34Z</time>
      </trkpt>
      <trkpt lat="47.83362" lon="6.6486">
        <ele>585.9</ele>
        <time>2022-06-29T11:46:39Z</time>
      </trkpt>
      <trkpt lat="47.83365" lon="6.64854">
        <ele>586.6</ele>
        <time>2022-06-29T11:46:44Z</time>
      </trkpt>
      <trkpt lat="47.83369" lon="6.64851">
        <ele>586.9</ele>
        <time>2022-06-29T11:46:47Z</time>
      </trkpt>
      <trkpt lat="47.83373" lon="6.64848">
        <ele>587.1</ele>
        <time>2022-06-29T11:46:50Z</time>
      </trkpt>
      <trkpt lat="47.83377" lon="6.64844">
        <ele>587.4</ele>
        <time>2022-06-29T11:46:53Z</time>
      </trkpt>
      <trkpt lat="47.83382" lon="6.6484">
        <ele>587.8</ele>
        <time>2022-06-29T11:46:56Z</time>
      </trkpt>
      <trkpt lat="47.83383" lon="6.64833">
        <ele>588</ele>
        <time>2022-06-29T11:47:01Z</time>
      </trkpt>
      <trkpt lat="47.83383" lon="6.64826">
        <ele>587.2</ele>
        <time>2022-06-29T11:47:06Z</time>
      </trkpt>
      <trkpt lat="47.83382" lon="6.64818">
        <ele>585.6</ele>
        <time>2022-06-29T11:47:11Z</time>
      </trkpt>
      <trkpt lat="47.83384" lon="6.64812">
        <ele>583.6</ele>
        <time>2022-06-29T11:47:16Z</time>
      </trkpt>
      <trkpt lat="47.83384" lon="6.64803">
        <ele>582.1</ele>
        <time>2022-06-29T11:47:20Z</time>
      </trkpt>
      <trkpt lat="47.83382" lon="6.64797">
        <ele>581.6</ele>
        <time>2022-06-29T11:47:23Z</time>
      </trkpt>
      <trkpt lat="47.8338" lon="6.6479">
        <ele>581.3</ele>
        <time>2022-06-29T11:47:27Z</time>
      </trkpt>
      <trkpt lat="47.83383" lon="6.64784">
        <ele>581.1</ele>
        <time>2022-06-29T11:47:32Z</time>
      </trkpt>
      <trkpt lat="47.83386" lon="6.64779">
        <ele>581</ele>
        <time>2022-06-29T11:47:35Z</time>
      </trkpt>
      <trkpt lat="47.8339" lon="6.64774">
        <ele>581.2</ele>
        <time>2022-06-29T11:47:39Z</time>
      </trkpt>
      <trkpt lat="47.83392" lon="6.64766">
        <ele>582.8</ele>
        <time>2022-06-29T11:47:47Z</time>
      </trkpt>
      <trkpt lat="47.83395" lon="6.6476">
        <ele>583.4</ele>
        <time>2022-06-29T11:47:51Z</time>
      </trkpt>
      <trkpt lat="47.83399" lon="6.64755">
        <ele>583.7</ele>
        <time>2022-06-29T11:47:56Z</time>
      </trkpt>
      <trkpt lat="47.83403" lon="6.64749">
        <ele>583.9</ele>
        <time>2022-06-29T11:48:01Z</time>
      </trkpt>
      <trkpt lat="47.83406" lon="6.64743">
        <ele>584.4</ele>
        <time>2022-06-29T11:48:05Z</time>
      </trkpt>
      <trkpt lat="47.83408" lon="6.64734">
        <ele>585.1</ele>
        <time>2022-06-29T11:48:09Z</time>
      </trkpt>
      <trkpt lat="47.83409" lon="6.64726">
        <ele>585.2</ele>
        <time>2022-06-29T11:48:12Z</time>
      </trkpt>
      <trkpt lat="47.83411" lon="6.64719">
        <ele>584.8</ele>
        <time>2022-06-29T11:48:16Z</time>
      </trkpt>
      <trkpt lat="47.83414" lon="6.64712">
        <ele>584</ele>
        <time>2022-06-29T11:48:21Z</time>
      </trkpt>
      <trkpt lat="47.83418" lon="6.64709">
        <ele>583.8</ele>
        <time>2022-06-29T11:48:24Z</time>
      </trkpt>
      <trkpt lat="47.83424" lon="6.64707">
        <ele>583.6</ele>
        <time>2022-06-29T11:48:27Z</time>
      </trkpt>
      <trkpt lat="47.8343" lon="6.64704">
        <ele>583.2</ele>
        <time>2022-06-29T11:48:30Z</time>
      </trkpt>
      <trkpt lat="47.83436" lon="6.64701">
        <ele>582.8</ele>
        <time>2022-06-29T11:48:33Z</time>
      </trkpt>
      <trkpt lat="47.8344" lon="6.64697">
        <ele>582.3</ele>
        <time>2022-06-29T11:48:37Z</time>
      </trkpt>
      <trkpt lat="47.83444" lon="6.64694">
        <ele>582.5</ele>
        <time>2022-06-29T11:48:45Z</time>
      </trkpt>
      <trkpt lat="47.8345" lon="6.64695">
        <ele>582.8</ele>
        <time>2022-06-29T11:48:56Z</time>
      </trkpt>
      <trkpt lat="47.83455" lon="6.64696">
        <ele>582.8</ele>
        <time>2022-06-29T11:49:03Z</time>
      </trkpt>
      <trkpt lat="47.8346" lon="6.64697">
        <ele>583.2</ele>
        <time>2022-06-29T11:49:07Z</time>
      </trkpt>
      <trkpt lat="47.83465" lon="6.64697">
        <ele>583.8</ele>
        <time>2022-06-29T11:49:10Z</time>
      </trkpt>
      <trkpt lat="47.8347" lon="6.64698">
        <ele>584.6</ele>
        <time>2022-06-29T11:49:13Z</time>
      </trkpt>
      <trkpt lat="47.83475" lon="6.647">
        <ele>585.4</ele>
        <time>2022-06-29T11:49:16Z</time>
      </trkpt>
      <trkpt lat="47.8348" lon="6.64703">
        <ele>585.7</ele>
        <time>2022-06-29T11:49:19Z</time>
      </trkpt>
      <trkpt lat="47.83485" lon="6.64706">
        <ele>585.6</ele>
        <time>2022-06-29T11:49:22Z</time>
      </trkpt>
      <trkpt lat="47.83491" lon="6.64709">
        <ele>585.6</ele>
        <time>2022-06-29T11:49:26Z</time>
      </trkpt>
      <trkpt lat="47.83496" lon="6.6471">
        <ele>585.4</ele>
        <time>2022-06-29T11:49:31Z</time>
      </trkpt>
      <trkpt lat="47.83502" lon="6.64714">
        <ele>586</ele>
        <time>2022-06-29T11:49:35Z</time>
      </trkpt>
      <trkpt lat="47.83507" lon="6.64716">
        <ele>586.7</ele>
        <time>2022-06-29T11:49:38Z</time>
      </trkpt>
      <trkpt lat="47.83512" lon="6.64717">
        <ele>587.5</ele>
        <time>2022-06-29T11:49:42Z</time>
      </trkpt>
      <trkpt lat="47.83518" lon="6.64715">
        <ele>588.1</ele>
        <time>2022-06-29T11:49:45Z</time>
      </trkpt>
      <trkpt lat="47.83523" lon="6.64712">
        <ele>588.1</ele>
        <time>2022-06-29T11:49:51Z</time>
      </trkpt>
      <trkpt lat="47.83528" lon="6.64709">
        <ele>587.6</ele>
        <time>2022-06-29T11:49:55Z</time>
      </trkpt>
      <trkpt lat="47.83533" lon="6.64705">
        <ele>587.3</ele>
        <time>2022-06-29T11:49:58Z</time>
      </trkpt>
      <trkpt lat="47.83537" lon="6.64701">
        <ele>587.4</ele>
        <time>2022-06-29T11:50:02Z</time>
      </trkpt>
      <trkpt lat="47.83542" lon="6.647">
        <ele>587.9</ele>
        <time>2022-06-29T11:50:07Z</time>
      </trkpt>
      <trkpt lat="47.83547" lon="6.64698">
        <ele>587.9</ele>
        <time>2022-06-29T11:50:12Z</time>
      </trkpt>
      <trkpt lat="47.83552" lon="6.64695">
        <ele>587.4</ele>
        <time>2022-06-29T11:50:16Z</time>
      </trkpt>
      <trkpt lat="47.83557" lon="6.64692">
        <ele>587</ele>
        <time>2022-06-29T11:50:20Z</time>
      </trkpt>
      <trkpt lat="47.83561" lon="6.6469">
        <ele>587.4</ele>
        <time>2022-06-29T11:50:25Z</time>
      </trkpt>
      <trkpt lat="47.83565" lon="6.64687">
        <ele>587.8</ele>
        <time>2022-06-29T11:50:29Z</time>
      </trkpt>
      <trkpt lat="47.8357" lon="6.64685">
        <ele>588.5</ele>
        <time>2022-06-29T11:50:33Z</time>
      </trkpt>
      <trkpt lat="47.83574" lon="6.64682">
        <ele>589.3</ele>
        <time>2022-06-29T11:50:39Z</time>
      </trkpt>
      <trkpt lat="47.8358" lon="6.64679">
        <ele>589.3</ele>
        <time>2022-06-29T11:50:46Z</time>
      </trkpt>
      <trkpt lat="47.83585" lon="6.64676">
        <ele>589.3</ele>
        <time>2022-06-29T11:50:50Z</time>
      </trkpt>
      <trkpt lat="47.83589" lon="6.64671">
        <ele>589.7</ele>
        <time>2022-06-29T11:50:56Z</time>
      </trkpt>
      <trkpt lat="47.83593" lon="6.6467">
        <ele>589.8</ele>
        <time>2022-06-29T11:51:02Z</time>
      </trkpt>
      <trkpt lat="47.83598" lon="6.6467">
        <ele>589.6</ele>
        <time>2022-06-29T11:51:06Z</time>
      </trkpt>
      <trkpt lat="47.83603" lon="6.64671">
        <ele>589</ele>
        <time>2022-06-29T11:51:09Z</time>
      </trkpt>
      <trkpt lat="47.83607" lon="6.64675">
        <ele>588</ele>
        <time>2022-06-29T11:51:14Z</time>
      </trkpt>
      <trkpt lat="47.8361" lon="6.64681">
        <ele>587.6</ele>
        <time>2022-06-29T11:51:19Z</time>
      </trkpt>
      <trkpt lat="47.83611" lon="6.64688">
        <ele>587.5</ele>
        <time>2022-06-29T11:51:23Z</time>
      </trkpt>
      <trkpt lat="47.83613" lon="6.64696">
        <ele>587.5</ele>
        <time>2022-06-29T11:51:27Z</time>
      </trkpt>
      <trkpt lat="47.83615" lon="6.64703">
        <ele>588</ele>
        <time>2022-06-29T11:51:32Z</time>
      </trkpt>
      <trkpt lat="47.83616" lon="6.6471">
        <ele>588.6</ele>
        <time>2022-06-29T11:51:36Z</time>
      </trkpt>
      <trkpt lat="47.83618" lon="6.64718">
        <ele>589</ele>
        <time>2022-06-29T11:51:40Z</time>
      </trkpt>
      <trkpt lat="47.8362" lon="6.64725">
        <ele>589.5</ele>
        <time>2022-06-29T11:51:46Z</time>
      </trkpt>
      <trkpt lat="47.83621" lon="6.64733">
        <ele>589.2</ele>
        <time>2022-06-29T11:51:51Z</time>
      </trkpt>
      <trkpt lat="47.83621" lon="6.6474">
        <ele>589</ele>
        <time>2022-06-29T11:51:55Z</time>
      </trkpt>
      <trkpt lat="47.83623" lon="6.64748">
        <ele>589.4</ele>
        <time>2022-06-29T11:51:59Z</time>
      </trkpt>
      <trkpt lat="47.83623" lon="6.64755">
        <ele>589.8</ele>
        <time>2022-06-29T11:52:03Z</time>
      </trkpt>
      <trkpt lat="47.83624" lon="6.64763">
        <ele>590.8</ele>
        <time>2022-06-29T11:52:07Z</time>
      </trkpt>
      <trkpt lat="47.83626" lon="6.64771">
        <ele>591.9</ele>
        <time>2022-06-29T11:52:11Z</time>
      </trkpt>
      <trkpt lat="47.83626" lon="6.64778">
        <ele>593.2</ele>
        <time>2022-06-29T11:52:17Z</time>
      </trkpt>
      <trkpt lat="47.83626" lon="6.64785">
        <ele>594</ele>
        <time>2022-06-29T11:52:27Z</time>
      </trkpt>
      <trkpt lat="47.83622" lon="6.64785">
        <ele>591.7</ele>
        <time>2022-06-29T11:53:40Z</time>
      </trkpt>
      <trkpt lat="47.83627" lon="6.64782">
        <ele>591.5</ele>
        <time>2022-06-29T11:54:14Z</time>
      </trkpt>
      <trkpt lat="47.83628" lon="6.64789">
        <ele>594.6</ele>
        <time>2022-06-29T11:54:43Z</time>
      </trkpt>
      <trkpt lat="47.83624" lon="6.64793">
        <ele>592.6</ele>
        <time>2022-06-29T11:55:17Z</time>
      </trkpt>
      <trkpt lat="47.83624" lon="6.64799">
        <ele>591.1</ele>
        <time>2022-06-29T11:55:27Z</time>
      </trkpt>
      <trkpt lat="47.83622" lon="6.64807">
        <ele>591.8</ele>
        <time>2022-06-29T11:55:35Z</time>
      </trkpt>
      <trkpt lat="47.83619" lon="6.64813">
        <ele>593.4</ele>
        <time>2022-06-29T11:55:39Z</time>
      </trkpt>
      <trkpt lat="47.83616" lon="6.6482">
        <ele>596.6</ele>
        <time>2022-06-29T11:55:46Z</time>
      </trkpt>
      <trkpt lat="47.83616" lon="6.64828">
        <ele>597.7</ele>
        <time>2022-06-29T11:55:51Z</time>
      </trkpt>
      <trkpt lat="47.83619" lon="6.64833">
        <ele>597.2</ele>
        <time>2022-06-29T11:55:58Z</time>
      </trkpt>
      <trkpt lat="47.83623" lon="6.64838">
        <ele>595.9</ele>
        <time>2022-06-29T11:56:03Z</time>
      </trkpt>
      <trkpt lat="47.83628" lon="6.64842">
        <ele>595.1</ele>
        <time>2022-06-29T11:56:07Z</time>
      </trkpt>
      <trkpt lat="47.83632" lon="6.64847">
        <ele>594.4</ele>
        <time>2022-06-29T11:56:11Z</time>
      </trkpt>
      <trkpt lat="47.83637" lon="6.64848">
        <ele>593.7</ele>
        <time>2022-06-29T11:56:16Z</time>
      </trkpt>
      <trkpt lat="47.83642" lon="6.64848">
        <ele>593.1</ele>
        <time>2022-06-29T11:56:25Z</time>
      </trkpt>
      <trkpt lat="47.83645" lon="6.64853">
        <ele>593</ele>
        <time>2022-06-29T11:56:30Z</time>
      </trkpt>
      <trkpt lat="47.83649" lon="6.64858">
        <ele>592.9</ele>
        <time>2022-06-29T11:56:33Z</time>
      </trkpt>
      <trkpt lat="47.83652" lon="6.64865">
        <ele>592.6</ele>
        <time>2022-06-29T11:56:38Z</time>
      </trkpt>
      <trkpt lat="47.83654" lon="6.64871">
        <ele>592.7</ele>
        <time>2022-06-29T11:56:44Z</time>
      </trkpt>
      <trkpt lat="47.83658" lon="6.64875">
        <ele>592.3</ele>
        <time>2022-06-29T11:56:50Z</time>
      </trkpt>
      <trkpt lat="47.83659" lon="6.64867">
        <ele>591.3</ele>
        <time>2022-06-29T11:56:58Z</time>
      </trkpt>
      <trkpt lat="47.83659" lon="6.64858">
        <ele>591.6</ele>
        <time>2022-06-29T11:57:02Z</time>
      </trkpt>
      <trkpt lat="47.83657" lon="6.64851">
        <ele>592.2</ele>
        <time>2022-06-29T11:57:06Z</time>
      </trkpt>
      <trkpt lat="47.83663" lon="6.64851">
        <ele>591.7</ele>
        <time>2022-06-29T11:57:27Z</time>
      </trkpt>
      <trkpt lat="47.83668" lon="6.6485">
        <ele>587.7</ele>
        <time>2022-06-29T11:57:34Z</time>
      </trkpt>
      <trkpt lat="47.83673" lon="6.64847">
        <ele>586</ele>
        <time>2022-06-29T11:57:37Z</time>
      </trkpt>
      <trkpt lat="47.83678" lon="6.64844">
        <ele>584.2</ele>
        <time>2022-06-29T11:57:40Z</time>
      </trkpt>
      <trkpt lat="47.83682" lon="6.64843">
        <ele>582.7</ele>
        <time>2022-06-29T11:57:43Z</time>
      </trkpt>
      <trkpt lat="47.83687" lon="6.64843">
        <ele>581.3</ele>
        <time>2022-06-29T11:57:46Z</time>
      </trkpt>
      <trkpt lat="47.83693" lon="6.64842">
        <ele>580.2</ele>
        <time>2022-06-29T11:57:49Z</time>
      </trkpt>
      <trkpt lat="47.83699" lon="6.6484">
        <ele>579.1</ele>
        <time>2022-06-29T11:57:52Z</time>
      </trkpt>
      <trkpt lat="47.83704" lon="6.64839">
        <ele>578.2</ele>
        <time>2022-06-29T11:57:55Z</time>
      </trkpt>
      <trkpt lat="47.83709" lon="6.64837">
        <ele>577.5</ele>
        <time>2022-06-29T11:57:58Z</time>
      </trkpt>
      <trkpt lat="47.83714" lon="6.64836">
        <ele>576.9</ele>
        <time>2022-06-29T11:58:02Z</time>
      </trkpt>
      <trkpt lat="47.8372" lon="6.64835">
        <ele>576.9</ele>
        <time>2022-06-29T11:58:07Z</time>
      </trkpt>
      <trkpt lat="47.83724" lon="6.64836">
        <ele>576.7</ele>
        <time>2022-06-29T11:58:12Z</time>
      </trkpt>
      <trkpt lat="47.8373" lon="6.64837">
        <ele>576.1</ele>
        <time>2022-06-29T11:58:17Z</time>
      </trkpt>
      <trkpt lat="47.83735" lon="6.6484">
        <ele>575.5</ele>
        <time>2022-06-29T11:58:21Z</time>
      </trkpt>
      <trkpt lat="47.8374" lon="6.64842">
        <ele>574.9</ele>
        <time>2022-06-29T11:58:25Z</time>
      </trkpt>
      <trkpt lat="47.83744" lon="6.64844">
        <ele>574.7</ele>
        <time>2022-06-29T11:58:29Z</time>
      </trkpt>
      <trkpt lat="47.8375" lon="6.64846">
        <ele>574</ele>
        <time>2022-06-29T11:58:33Z</time>
      </trkpt>
      <trkpt lat="47.83754" lon="6.64848">
        <ele>573.4</ele>
        <time>2022-06-29T11:58:37Z</time>
      </trkpt>
      <trkpt lat="47.83759" lon="6.64851">
        <ele>572.8</ele>
        <time>2022-06-29T11:58:41Z</time>
      </trkpt>
      <trkpt lat="47.83764" lon="6.64852">
        <ele>572.3</ele>
        <time>2022-06-29T11:58:45Z</time>
      </trkpt>
      <trkpt lat="47.83769" lon="6.64853">
        <ele>572</ele>
        <time>2022-06-29T11:58:49Z</time>
      </trkpt>
      <trkpt lat="47.83774" lon="6.64856">
        <ele>571.7</ele>
        <time>2022-06-29T11:58:55Z</time>
      </trkpt>
      <trkpt lat="47.83778" lon="6.64857">
        <ele>571</ele>
        <time>2022-06-29T11:59:00Z</time>
      </trkpt>
      <trkpt lat="47.83783" lon="6.64858">
        <ele>570.4</ele>
        <time>2022-06-29T11:59:05Z</time>
      </trkpt>
      <trkpt lat="47.83788" lon="6.64858">
        <ele>569.8</ele>
        <time>2022-06-29T11:59:08Z</time>
      </trkpt>
      <trkpt lat="47.83793" lon="6.64858">
        <ele>568.8</ele>
        <time>2022-06-29T11:59:12Z</time>
      </trkpt>
      <trkpt lat="47.83796" lon="6.64863">
        <ele>567.7</ele>
        <time>2022-06-29T11:59:20Z</time>
      </trkpt>
      <trkpt lat="47.83795" lon="6.64872">
        <ele>569.3</ele>
        <time>2022-06-29T11:59:59Z</time>
      </trkpt>
      <trkpt lat="47.83794" lon="6.64879">
        <ele>569.5</ele>
        <time>2022-06-29T12:00:02Z</time>
      </trkpt>
      <trkpt lat="47.83795" lon="6.64872">
        <ele>572.2</ele>
        <time>2022-06-29T12:00:27Z</time>
      </trkpt>
      <trkpt lat="47.83795" lon="6.64864">
        <ele>572.9</ele>
        <time>2022-06-29T12:00:43Z</time>
      </trkpt>
      <trkpt lat="47.83798" lon="6.64858">
        <ele>574.1</ele>
        <time>2022-06-29T12:01:11Z</time>
      </trkpt>
      <trkpt lat="47.83799" lon="6.64865">
        <ele>574.2</ele>
        <time>2022-06-29T12:01:29Z</time>
      </trkpt>
      <trkpt lat="47.83798" lon="6.64872">
        <ele>574.6</ele>
        <time>2022-06-29T12:01:48Z</time>
      </trkpt>
      <trkpt lat="47.83797" lon="6.64879">
        <ele>575</ele>
        <time>2022-06-29T12:01:51Z</time>
      </trkpt>
      <trkpt lat="47.83796" lon="6.64873">
        <ele>572</ele>
        <time>2022-06-29T12:02:36Z</time>
      </trkpt>
      <trkpt lat="47.83798" lon="6.64867">
        <ele>569.7</ele>
        <time>2022-06-29T12:03:08Z</time>
      </trkpt>
      <trkpt lat="47.83797" lon="6.6486">
        <ele>569</ele>
        <time>2022-06-29T12:03:14Z</time>
      </trkpt>
      <trkpt lat="47.83799" lon="6.64854">
        <ele>568.2</ele>
        <time>2022-06-29T12:03:18Z</time>
      </trkpt>
      <trkpt lat="47.83805" lon="6.64853">
        <ele>566.9</ele>
        <time>2022-06-29T12:03:24Z</time>
      </trkpt>
      <trkpt lat="47.8381" lon="6.64853">
        <ele>565.7</ele>
        <time>2022-06-29T12:03:29Z</time>
      </trkpt>
      <trkpt lat="47.83815" lon="6.64852">
        <ele>565.1</ele>
        <time>2022-06-29T12:03:33Z</time>
      </trkpt>
      <trkpt lat="47.8382" lon="6.64851">
        <ele>564.7</ele>
        <time>2022-06-29T12:03:38Z</time>
      </trkpt>
      <trkpt lat="47.83824" lon="6.64846">
        <ele>564.8</ele>
        <time>2022-06-29T12:03:45Z</time>
      </trkpt>
      <trkpt lat="47.83829" lon="6.64842">
        <ele>564.7</ele>
        <time>2022-06-29T12:03:49Z</time>
      </trkpt>
      <trkpt lat="47.83833" lon="6.6484">
        <ele>564.5</ele>
        <time>2022-06-29T12:03:53Z</time>
      </trkpt>
      <trkpt lat="47.83838" lon="6.64836">
        <ele>564.2</ele>
        <time>2022-06-29T12:03:59Z</time>
      </trkpt>
      <trkpt lat="47.83842" lon="6.64835">
        <ele>564.1</ele>
        <time>2022-06-29T12:04:08Z</time>
      </trkpt>
      <trkpt lat="47.83841" lon="6.64828">
        <ele>563.8</ele>
        <time>2022-06-29T12:04:20Z</time>
      </trkpt>
      <trkpt lat="47.83842" lon="6.64821">
        <ele>562.6</ele>
        <time>2022-06-29T12:04:28Z</time>
      </trkpt>
      <trkpt lat="47.83845" lon="6.64816">
        <ele>562.2</ele>
        <time>2022-06-29T12:04:33Z</time>
      </trkpt>
      <trkpt lat="47.83849" lon="6.64811">
        <ele>561.7</ele>
        <time>2022-06-29T12:04:38Z</time>
      </trkpt>
      <trkpt lat="47.83854" lon="6.64814">
        <ele>561.3</ele>
        <time>2022-06-29T12:04:41Z</time>
      </trkpt>
      <trkpt lat="47.83859" lon="6.64814">
        <ele>560.8</ele>
        <time>2022-06-29T12:04:45Z</time>
      </trkpt>
      <trkpt lat="47.83864" lon="6.64811">
        <ele>560.3</ele>
        <time>2022-06-29T12:04:49Z</time>
      </trkpt>
      <trkpt lat="47.83865" lon="6.64804">
        <ele>559.8</ele>
        <time>2022-06-29T12:04:53Z</time>
      </trkpt>
      <trkpt lat="47.83863" lon="6.64798">
        <ele>559.6</ele>
        <time>2022-06-29T12:04:56Z</time>
      </trkpt>
      <trkpt lat="47.83861" lon="6.64792">
        <ele>559.6</ele>
        <time>2022-06-29T12:05:00Z</time>
      </trkpt>
      <trkpt lat="47.83865" lon="6.64796">
        <ele>560.4</ele>
        <time>2022-06-29T12:05:11Z</time>
      </trkpt>
      <trkpt lat="47.8387" lon="6.64797">
        <ele>561.7</ele>
        <time>2022-06-29T12:05:21Z</time>
      </trkpt>
      <trkpt lat="47.83869" lon="6.64803">
        <ele>561.7</ele>
        <time>2022-06-29T12:05:36Z</time>
      </trkpt>
      <trkpt lat="47.83875" lon="6.64806">
        <ele>561.6</ele>
        <time>2022-06-29T12:05:42Z</time>
      </trkpt>
      <trkpt lat="47.83879" lon="6.64808">
        <ele>561.6</ele>
        <time>2022-06-29T12:05:45Z</time>
      </trkpt>
      <trkpt lat="47.83884" lon="6.6481">
        <ele>561.9</ele>
        <time>2022-06-29T12:05:48Z</time>
      </trkpt>
      <trkpt lat="47.83888" lon="6.64812">
        <ele>563.3</ele>
        <time>2022-06-29T12:05:53Z</time>
      </trkpt>
      <trkpt lat="47.8389" lon="6.64808">
        <ele>565.7</ele>
        <time>2022-06-29T12:06:07Z</time>
      </trkpt>
      <trkpt lat="47.83885" lon="6.6481">
        <ele>565.7</ele>
        <time>2022-06-29T12:06:11Z</time>
      </trkpt>
      <trkpt lat="47.83878" lon="6.64813">
        <ele>566</ele>
        <time>2022-06-29T12:06:14Z</time>
      </trkpt>
      <trkpt lat="47.83875" lon="6.6482">
        <ele>566.3</ele>
        <time>2022-06-29T12:06:17Z</time>
      </trkpt>
      <trkpt lat="47.83875" lon="6.64827">
        <ele>566.6</ele>
        <time>2022-06-29T12:06:21Z</time>
      </trkpt>
      <trkpt lat="47.8388" lon="6.64831">
        <ele>567</ele>
        <time>2022-06-29T12:06:27Z</time>
      </trkpt>
      <trkpt lat="47.83883" lon="6.64836">
        <ele>567.3</ele>
        <time>2022-06-29T12:06:31Z</time>
      </trkpt>
      <trkpt lat="47.83887" lon="6.64831">
        <ele>568</ele>
        <time>2022-06-29T12:06:51Z</time>
      </trkpt>
      <trkpt lat="47.83881" lon="6.6483">
        <ele>567.8</ele>
        <time>2022-06-29T12:06:57Z</time>
      </trkpt>
      <trkpt lat="47.83878" lon="6.64836">
        <ele>567.8</ele>
        <time>2022-06-29T12:07:03Z</time>
      </trkpt>
      <trkpt lat="47.83881" lon="6.64843">
        <ele>567.9</ele>
        <time>2022-06-29T12:07:07Z</time>
      </trkpt>
      <trkpt lat="47.83881" lon="6.64851">
        <ele>567.7</ele>
        <time>2022-06-29T12:07:12Z</time>
      </trkpt>
      <trkpt lat="47.83879" lon="6.64858">
        <ele>567.4</ele>
        <time>2022-06-29T12:07:17Z</time>
      </trkpt>
      <trkpt lat="47.83882" lon="6.64864">
        <ele>567.5</ele>
        <time>2022-06-29T12:07:21Z</time>
      </trkpt>
      <trkpt lat="47.83878" lon="6.64875">
        <ele>568.9</ele>
        <time>2022-06-29T12:07:31Z</time>
      </trkpt>
      <trkpt lat="47.83877" lon="6.64882">
        <ele>569.5</ele>
        <time>2022-06-29T12:07:35Z</time>
      </trkpt>
      <trkpt lat="47.83876" lon="6.64888">
        <ele>572.7</ele>
        <time>2022-06-29T12:07:43Z</time>
      </trkpt>
      <trkpt lat="47.83875" lon="6.64897">
        <ele>574.7</ele>
        <time>2022-06-29T12:07:50Z</time>
      </trkpt>
      <trkpt lat="47.83874" lon="6.64904">
        <ele>575.1</ele>
        <time>2022-06-29T12:07:54Z</time>
      </trkpt>
      <trkpt lat="47.83875" lon="6.64912">
        <ele>574.8</ele>
        <time>2022-06-29T12:08:00Z</time>
      </trkpt>
      <trkpt lat="47.83878" lon="6.64919">
        <ele>577.2</ele>
        <time>2022-06-29T12:08:12Z</time>
      </trkpt>
      <trkpt lat="47.83881" lon="6.64925">
        <ele>577.4</ele>
        <time>2022-06-29T12:08:15Z</time>
      </trkpt>
      <trkpt lat="47.83885" lon="6.6493">
        <ele>577.4</ele>
        <time>2022-06-29T12:08:21Z</time>
      </trkpt>
      <trkpt lat="47.83886" lon="6.64938">
        <ele>577.5</ele>
        <time>2022-06-29T12:08:24Z</time>
      </trkpt>
      <trkpt lat="47.83885" lon="6.64945">
        <ele>577.4</ele>
        <time>2022-06-29T12:08:29Z</time>
      </trkpt>
      <trkpt lat="47.83883" lon="6.64951">
        <ele>577.2</ele>
        <time>2022-06-29T12:08:33Z</time>
      </trkpt>
      <trkpt lat="47.83888" lon="6.64952">
        <ele>574.3</ele>
        <time>2022-06-29T12:08:48Z</time>
      </trkpt>
      <trkpt lat="47.8389" lon="6.64957">
        <ele>573</ele>
        <time>2022-06-29T12:08:56Z</time>
      </trkpt>
      <trkpt lat="47.83894" lon="6.64962">
        <ele>572.2</ele>
        <time>2022-06-29T12:09:01Z</time>
      </trkpt>
      <trkpt lat="47.83897" lon="6.64968">
        <ele>571.8</ele>
        <time>2022-06-29T12:09:04Z</time>
      </trkpt>
      <trkpt lat="47.83901" lon="6.64972">
        <ele>571.5</ele>
        <time>2022-06-29T12:09:08Z</time>
      </trkpt>
      <trkpt lat="47.83903" lon="6.64979">
        <ele>571.5</ele>
        <time>2022-06-29T12:09:13Z</time>
      </trkpt>
      <trkpt lat="47.839" lon="6.64997">
        <ele>571.7</ele>
        <time>2022-06-29T12:09:16Z</time>
      </trkpt>
      <trkpt lat="47.83898" lon="6.6501">
        <ele>572.3</ele>
        <time>2022-06-29T12:09:19Z</time>
      </trkpt>
      <trkpt lat="47.83901" lon="6.6502">
        <ele>572.9</ele>
        <time>2022-06-29T12:09:22Z</time>
      </trkpt>
      <trkpt lat="47.83904" lon="6.65029">
        <ele>573.4</ele>
        <time>2022-06-29T12:09:25Z</time>
      </trkpt>
      <trkpt lat="47.83907" lon="6.65033">
        <ele>574</ele>
        <time>2022-06-29T12:09:30Z</time>
      </trkpt>
      <trkpt lat="47.83912" lon="6.6503">
        <ele>574.7</ele>
        <time>2022-06-29T12:09:36Z</time>
      </trkpt>
      <trkpt lat="47.83916" lon="6.65034">
        <ele>575.4</ele>
        <time>2022-06-29T12:09:41Z</time>
      </trkpt>
      <trkpt lat="47.8392" lon="6.65038">
        <ele>576</ele>
        <time>2022-06-29T12:09:44Z</time>
      </trkpt>
      <trkpt lat="47.8393" lon="6.65022">
        <ele>574.4</ele>
        <time>2022-06-29T12:09:55Z</time>
      </trkpt>
      <trkpt lat="47.83931" lon="6.65014">
        <ele>574</ele>
        <time>2022-06-29T12:09:58Z</time>
      </trkpt>
      <trkpt lat="47.83932" lon="6.65002">
        <ele>572.8</ele>
        <time>2022-06-29T12:10:01Z</time>
      </trkpt>
      <trkpt lat="47.83955" lon="6.65033">
        <ele>563.5</ele>
        <time>2022-06-29T12:10:58Z</time>
      </trkpt>
      <trkpt lat="47.83958" lon="6.6504">
        <ele>563.5</ele>
        <time>2022-06-29T12:11:03Z</time>
      </trkpt>
      <trkpt lat="47.8396" lon="6.65049">
        <ele>563.8</ele>
        <time>2022-06-29T12:11:06Z</time>
      </trkpt>
      <trkpt lat="47.83963" lon="6.6506">
        <ele>564.4</ele>
        <time>2022-06-29T12:11:09Z</time>
      </trkpt>
      <trkpt lat="47.83966" lon="6.65065">
        <ele>565.4</ele>
        <time>2022-06-29T12:11:13Z</time>
      </trkpt>
      <trkpt lat="47.83969" lon="6.65073">
        <ele>566.8</ele>
        <time>2022-06-29T12:11:17Z</time>
      </trkpt>
      <trkpt lat="47.83971" lon="6.65079">
        <ele>567.9</ele>
        <time>2022-06-29T12:11:20Z</time>
      </trkpt>
      <trkpt lat="47.83973" lon="6.65087">
        <ele>569.3</ele>
        <time>2022-06-29T12:11:24Z</time>
      </trkpt>
      <trkpt lat="47.83973" lon="6.65096">
        <ele>570.7</ele>
        <time>2022-06-29T12:11:27Z</time>
      </trkpt>
      <trkpt lat="47.83976" lon="6.65103">
        <ele>573.8</ele>
        <time>2022-06-29T12:11:31Z</time>
      </trkpt>
      <trkpt lat="47.8398" lon="6.65109">
        <ele>577.6</ele>
        <time>2022-06-29T12:11:36Z</time>
      </trkpt>
      <trkpt lat="47.83983" lon="6.65114">
        <ele>579.9</ele>
        <time>2022-06-29T12:11:41Z</time>
      </trkpt>
      <trkpt lat="47.83986" lon="6.6512">
        <ele>580.5</ele>
        <time>2022-06-29T12:11:45Z</time>
      </trkpt>
      <trkpt lat="47.83989" lon="6.65124">
        <ele>578.2</ele>
        <time>2022-06-29T12:11:55Z</time>
      </trkpt>
      <trkpt lat="47.83992" lon="6.65132">
        <ele>578.2</ele>
        <time>2022-06-29T12:12:00Z</time>
      </trkpt>
      <trkpt lat="47.83993" lon="6.65138">
        <ele>578.6</ele>
        <time>2022-06-29T12:12:03Z</time>
      </trkpt>
      <trkpt lat="47.83997" lon="6.65146">
        <ele>579.4</ele>
        <time>2022-06-29T12:12:07Z</time>
      </trkpt>
      <trkpt lat="47.84" lon="6.65151">
        <ele>579.8</ele>
        <time>2022-06-29T12:12:13Z</time>
      </trkpt>
      <trkpt lat="47.84003" lon="6.65157">
        <ele>580.6</ele>
        <time>2022-06-29T12:12:18Z</time>
      </trkpt>
      <trkpt lat="47.84005" lon="6.65165">
        <ele>581.5</ele>
        <time>2022-06-29T12:12:23Z</time>
      </trkpt>
      <trkpt lat="47.84005" lon="6.65172">
        <ele>581.8</ele>
        <time>2022-06-29T12:12:26Z</time>
      </trkpt>
      <trkpt lat="47.84004" lon="6.65179">
        <ele>582.4</ele>
        <time>2022-06-29T12:12:31Z</time>
      </trkpt>
      <trkpt lat="47.84004" lon="6.65186">
        <ele>583.5</ele>
        <time>2022-06-29T12:12:36Z</time>
      </trkpt>
      <trkpt lat="47.84003" lon="6.65193">
        <ele>584.3</ele>
        <time>2022-06-29T12:12:40Z</time>
      </trkpt>
      <trkpt lat="47.84003" lon="6.65201">
        <ele>585.1</ele>
        <time>2022-06-29T12:12:44Z</time>
      </trkpt>
      <trkpt lat="47.84004" lon="6.65208">
        <ele>586</ele>
        <time>2022-06-29T12:12:48Z</time>
      </trkpt>
      <trkpt lat="47.84005" lon="6.65216">
        <ele>586.8</ele>
        <time>2022-06-29T12:12:52Z</time>
      </trkpt>
      <trkpt lat="47.84007" lon="6.65223">
        <ele>588.6</ele>
        <time>2022-06-29T12:12:59Z</time>
      </trkpt>
      <trkpt lat="47.84007" lon="6.6523">
        <ele>589.6</ele>
        <time>2022-06-29T12:13:04Z</time>
      </trkpt>
      <trkpt lat="47.84004" lon="6.65234">
        <ele>590.5</ele>
        <time>2022-06-29T12:13:10Z</time>
      </trkpt>
      <trkpt lat="47.83999" lon="6.65236">
        <ele>591.4</ele>
        <time>2022-06-29T12:13:18Z</time>
      </trkpt>
      <trkpt lat="47.83994" lon="6.65235">
        <ele>591.2</ele>
        <time>2022-06-29T12:13:22Z</time>
      </trkpt>
      <trkpt lat="47.8399" lon="6.65237">
        <ele>590.3</ele>
        <time>2022-06-29T12:13:27Z</time>
      </trkpt>
      <trkpt lat="47.83984" lon="6.65238">
        <ele>588.6</ele>
        <time>2022-06-29T12:13:36Z</time>
      </trkpt>
      <trkpt lat="47.8398" lon="6.6524">
        <ele>587.5</ele>
        <time>2022-06-29T12:13:43Z</time>
      </trkpt>
      <trkpt lat="47.83978" lon="6.65246">
        <ele>587.2</ele>
        <time>2022-06-29T12:13:47Z</time>
      </trkpt>
      <trkpt lat="47.83975" lon="6.65253">
        <ele>587.1</ele>
        <time>2022-06-29T12:13:51Z</time>
      </trkpt>
      <trkpt lat="47.83972" lon="6.65258">
        <ele>587.2</ele>
        <time>2022-06-29T12:13:55Z</time>
      </trkpt>
      <trkpt lat="47.83968" lon="6.65263">
        <ele>585</ele>
        <time>2022-06-29T12:14:07Z</time>
      </trkpt>
      <trkpt lat="47.83965" lon="6.65269">
        <ele>585.2</ele>
        <time>2022-06-29T12:14:10Z</time>
      </trkpt>
      <trkpt lat="47.83964" lon="6.65275">
        <ele>585.5</ele>
        <time>2022-06-29T12:14:13Z</time>
      </trkpt>
      <trkpt lat="47.83962" lon="6.65283">
        <ele>586</ele>
        <time>2022-06-29T12:14:17Z</time>
      </trkpt>
      <trkpt lat="47.83962" lon="6.65291">
        <ele>587.6</ele>
        <time>2022-06-29T12:14:22Z</time>
      </trkpt>
      <trkpt lat="47.83963" lon="6.65298">
        <ele>589.5</ele>
        <time>2022-06-29T12:14:27Z</time>
      </trkpt>
      <trkpt lat="47.83964" lon="6.65305">
        <ele>591.5</ele>
        <time>2022-06-29T12:14:33Z</time>
      </trkpt>
      <trkpt lat="47.83966" lon="6.65313">
        <ele>592.7</ele>
        <time>2022-06-29T12:14:38Z</time>
      </trkpt>
      <trkpt lat="47.83967" lon="6.6532">
        <ele>593.4</ele>
        <time>2022-06-29T12:14:42Z</time>
      </trkpt>
      <trkpt lat="47.83968" lon="6.65327">
        <ele>594</ele>
        <time>2022-06-29T12:14:46Z</time>
      </trkpt>
      <trkpt lat="47.8397" lon="6.65334">
        <ele>594.7</ele>
        <time>2022-06-29T12:14:52Z</time>
      </trkpt>
      <trkpt lat="47.83974" lon="6.65338">
        <ele>595</ele>
        <time>2022-06-29T12:14:57Z</time>
      </trkpt>
      <trkpt lat="47.83977" lon="6.65342">
        <ele>595.7</ele>
        <time>2022-06-29T12:15:01Z</time>
      </trkpt>
      <trkpt lat="47.83982" lon="6.65346">
        <ele>595.9</ele>
        <time>2022-06-29T12:15:05Z</time>
      </trkpt>
      <trkpt lat="47.83986" lon="6.6535">
        <ele>596.3</ele>
        <time>2022-06-29T12:15:12Z</time>
      </trkpt>
      <trkpt lat="47.83991" lon="6.65354">
        <ele>595.7</ele>
        <time>2022-06-29T12:15:18Z</time>
      </trkpt>
      <trkpt lat="47.83994" lon="6.65358">
        <ele>595</ele>
        <time>2022-06-29T12:15:22Z</time>
      </trkpt>
      <trkpt lat="47.83998" lon="6.65363">
        <ele>594.1</ele>
        <time>2022-06-29T12:15:26Z</time>
      </trkpt>
      <trkpt lat="47.84001" lon="6.65369">
        <ele>593.4</ele>
        <time>2022-06-29T12:15:30Z</time>
      </trkpt>
      <trkpt lat="47.84004" lon="6.65374">
        <ele>593.2</ele>
        <time>2022-06-29T12:15:34Z</time>
      </trkpt>
      <trkpt lat="47.84007" lon="6.65381">
        <ele>593.6</ele>
        <time>2022-06-29T12:15:39Z</time>
      </trkpt>
      <trkpt lat="47.84009" lon="6.65388">
        <ele>595.7</ele>
        <time>2022-06-29T12:15:45Z</time>
      </trkpt>
      <trkpt lat="47.84012" lon="6.65393">
        <ele>598.2</ele>
        <time>2022-06-29T12:15:52Z</time>
      </trkpt>
      <trkpt lat="47.84016" lon="6.65398">
        <ele>599.8</ele>
        <time>2022-06-29T12:15:58Z</time>
      </trkpt>
      <trkpt lat="47.8402" lon="6.65402">
        <ele>600.6</ele>
        <time>2022-06-29T12:16:03Z</time>
      </trkpt>
      <trkpt lat="47.84026" lon="6.65402">
        <ele>600.8</ele>
        <time>2022-06-29T12:16:08Z</time>
      </trkpt>
      <trkpt lat="47.84029" lon="6.65396">
        <ele>600.6</ele>
        <time>2022-06-29T12:16:13Z</time>
      </trkpt>
      <trkpt lat="47.84033" lon="6.65391">
        <ele>598.1</ele>
        <time>2022-06-29T12:16:24Z</time>
      </trkpt>
      <trkpt lat="47.84031" lon="6.65394">
        <ele>595.7</ele>
        <time>2022-06-29T12:17:08Z</time>
      </trkpt>
      <trkpt lat="47.84035" lon="6.65396">
        <ele>596.3</ele>
        <time>2022-06-29T12:17:22Z</time>
      </trkpt>
      <trkpt lat="47.84037" lon="6.65403">
        <ele>595.8</ele>
        <time>2022-06-29T12:17:29Z</time>
      </trkpt>
      <trkpt lat="47.84034" lon="6.6541">
        <ele>595.4</ele>
        <time>2022-06-29T12:17:35Z</time>
      </trkpt>
      <trkpt lat="47.84035" lon="6.65401">
        <ele>595</ele>
        <time>2022-06-29T12:17:44Z</time>
      </trkpt>
      <trkpt lat="47.84033" lon="6.65395">
        <ele>596</ele>
        <time>2022-06-29T12:17:48Z</time>
      </trkpt>
      <trkpt lat="47.84029" lon="6.65399">
        <ele>599.7</ele>
        <time>2022-06-29T12:18:07Z</time>
      </trkpt>
      <trkpt lat="47.84025" lon="6.65394">
        <ele>599.4</ele>
        <time>2022-06-29T12:18:13Z</time>
      </trkpt>
      <trkpt lat="47.84029" lon="6.65397">
        <ele>596.2</ele>
        <time>2022-06-29T12:18:37Z</time>
      </trkpt>
      <trkpt lat="47.84034" lon="6.65388">
        <ele>595</ele>
        <time>2022-06-29T12:18:50Z</time>
      </trkpt>
      <trkpt lat="47.84035" lon="6.65396">
        <ele>595.3</ele>
        <time>2022-06-29T12:19:04Z</time>
      </trkpt>
      <trkpt lat="47.8403" lon="6.65396">
        <ele>600.2</ele>
        <time>2022-06-29T12:19:43Z</time>
      </trkpt>
      <trkpt lat="47.84035" lon="6.65398">
        <ele>602.1</ele>
        <time>2022-06-29T12:20:06Z</time>
      </trkpt>
      <trkpt lat="47.84039" lon="6.65403">
        <ele>602.4</ele>
        <time>2022-06-29T12:20:13Z</time>
      </trkpt>
      <trkpt lat="47.84044" lon="6.65405">
        <ele>600.1</ele>
        <time>2022-06-29T12:20:22Z</time>
      </trkpt>
      <trkpt lat="47.84049" lon="6.65406">
        <ele>599.3</ele>
        <time>2022-06-29T12:20:25Z</time>
      </trkpt>
      <trkpt lat="47.84054" lon="6.65407">
        <ele>598.4</ele>
        <time>2022-06-29T12:20:29Z</time>
      </trkpt>
      <trkpt lat="47.84058" lon="6.6541">
        <ele>598.1</ele>
        <time>2022-06-29T12:20:33Z</time>
      </trkpt>
      <trkpt lat="47.84062" lon="6.65414">
        <ele>598</ele>
        <time>2022-06-29T12:20:37Z</time>
      </trkpt>
      <trkpt lat="47.84067" lon="6.65418">
        <ele>598.5</ele>
        <time>2022-06-29T12:20:41Z</time>
      </trkpt>
      <trkpt lat="47.84071" lon="6.65423">
        <ele>599.3</ele>
        <time>2022-06-29T12:20:45Z</time>
      </trkpt>
      <trkpt lat="47.84074" lon="6.65428">
        <ele>599.7</ele>
        <time>2022-06-29T12:20:50Z</time>
      </trkpt>
      <trkpt lat="47.84078" lon="6.65433">
        <ele>600.6</ele>
        <time>2022-06-29T12:20:58Z</time>
      </trkpt>
      <trkpt lat="47.84081" lon="6.6544">
        <ele>601.8</ele>
        <time>2022-06-29T12:21:04Z</time>
      </trkpt>
      <trkpt lat="47.84083" lon="6.65447">
        <ele>603</ele>
        <time>2022-06-29T12:21:09Z</time>
      </trkpt>
      <trkpt lat="47.84087" lon="6.65452">
        <ele>604.3</ele>
        <time>2022-06-29T12:21:14Z</time>
      </trkpt>
      <trkpt lat="47.84091" lon="6.65455">
        <ele>604.7</ele>
        <time>2022-06-29T12:21:17Z</time>
      </trkpt>
      <trkpt lat="47.84095" lon="6.6546">
        <ele>605.3</ele>
        <time>2022-06-29T12:21:21Z</time>
      </trkpt>
      <trkpt lat="47.84099" lon="6.65465">
        <ele>605.7</ele>
        <time>2022-06-29T12:21:25Z</time>
      </trkpt>
      <trkpt lat="47.84103" lon="6.6547">
        <ele>605.7</ele>
        <time>2022-06-29T12:21:29Z</time>
      </trkpt>
      <trkpt lat="47.84106" lon="6.65475">
        <ele>605.2</ele>
        <time>2022-06-29T12:21:34Z</time>
      </trkpt>
      <trkpt lat="47.8411" lon="6.65478">
        <ele>604.7</ele>
        <time>2022-06-29T12:21:38Z</time>
      </trkpt>
      <trkpt lat="47.84114" lon="6.65482">
        <ele>604.2</ele>
        <time>2022-06-29T12:21:43Z</time>
      </trkpt>
      <trkpt lat="47.84118" lon="6.65486">
        <ele>604.1</ele>
        <time>2022-06-29T12:21:48Z</time>
      </trkpt>
      <trkpt lat="47.84123" lon="6.65488">
        <ele>604.3</ele>
        <time>2022-06-29T12:21:53Z</time>
      </trkpt>
      <trkpt lat="47.84127" lon="6.65491">
        <ele>604.2</ele>
        <time>2022-06-29T12:21:56Z</time>
      </trkpt>
      <trkpt lat="47.84131" lon="6.65494">
        <ele>604.1</ele>
        <time>2022-06-29T12:21:59Z</time>
      </trkpt>
      <trkpt lat="47.84136" lon="6.65497">
        <ele>603.9</ele>
        <time>2022-06-29T12:22:03Z</time>
      </trkpt>
      <trkpt lat="47.84141" lon="6.65498">
        <ele>604.2</ele>
        <time>2022-06-29T12:22:08Z</time>
      </trkpt>
      <trkpt lat="47.84146" lon="6.65497">
        <ele>604.6</ele>
        <time>2022-06-29T12:22:13Z</time>
      </trkpt>
      <trkpt lat="47.84151" lon="6.65495">
        <ele>604.8</ele>
        <time>2022-06-29T12:22:20Z</time>
      </trkpt>
      <trkpt lat="47.84155" lon="6.65493">
        <ele>604.5</ele>
        <time>2022-06-29T12:22:23Z</time>
      </trkpt>
      <trkpt lat="47.8416" lon="6.6549">
        <ele>604.2</ele>
        <time>2022-06-29T12:22:26Z</time>
      </trkpt>
      <trkpt lat="47.84164" lon="6.65487">
        <ele>603.6</ele>
        <time>2022-06-29T12:22:29Z</time>
      </trkpt>
      <trkpt lat="47.84169" lon="6.65483">
        <ele>602.8</ele>
        <time>2022-06-29T12:22:34Z</time>
      </trkpt>
      <trkpt lat="47.84173" lon="6.65481">
        <ele>602.2</ele>
        <time>2022-06-29T12:22:38Z</time>
      </trkpt>
      <trkpt lat="47.84177" lon="6.65477">
        <ele>601.6</ele>
        <time>2022-06-29T12:22:43Z</time>
      </trkpt>
      <trkpt lat="47.84182" lon="6.65477">
        <ele>600.4</ele>
        <time>2022-06-29T12:22:47Z</time>
      </trkpt>
      <trkpt lat="47.84187" lon="6.6548">
        <ele>599</ele>
        <time>2022-06-29T12:22:53Z</time>
      </trkpt>
      <trkpt lat="47.8419" lon="6.65485">
        <ele>598.7</ele>
        <time>2022-06-29T12:22:59Z</time>
      </trkpt>
      <trkpt lat="47.84194" lon="6.65489">
        <ele>598.6</ele>
        <time>2022-06-29T12:23:03Z</time>
      </trkpt>
      <trkpt lat="47.84199" lon="6.65491">
        <ele>598.3</ele>
        <time>2022-06-29T12:23:07Z</time>
      </trkpt>
      <trkpt lat="47.84205" lon="6.6549">
        <ele>598.3</ele>
        <time>2022-06-29T12:23:12Z</time>
      </trkpt>
      <trkpt lat="47.84209" lon="6.65488">
        <ele>598.4</ele>
        <time>2022-06-29T12:23:17Z</time>
      </trkpt>
      <trkpt lat="47.84216" lon="6.65488">
        <ele>598.3</ele>
        <time>2022-06-29T12:23:20Z</time>
      </trkpt>
      <trkpt lat="47.84221" lon="6.6549">
        <ele>598.4</ele>
        <time>2022-06-29T12:23:23Z</time>
      </trkpt>
      <trkpt lat="47.84227" lon="6.65493">
        <ele>598.4</ele>
        <time>2022-06-29T12:23:26Z</time>
      </trkpt>
      <trkpt lat="47.8423" lon="6.65499">
        <ele>599.9</ele>
        <time>2022-06-29T12:23:32Z</time>
      </trkpt>
      <trkpt lat="47.84231" lon="6.65506">
        <ele>602.3</ele>
        <time>2022-06-29T12:23:39Z</time>
      </trkpt>
      <trkpt lat="47.84234" lon="6.65512">
        <ele>603.3</ele>
        <time>2022-06-29T12:23:43Z</time>
      </trkpt>
      <trkpt lat="47.84238" lon="6.65516">
        <ele>603.2</ele>
        <time>2022-06-29T12:23:49Z</time>
      </trkpt>
      <trkpt lat="47.84241" lon="6.65521">
        <ele>602.7</ele>
        <time>2022-06-29T12:23:54Z</time>
      </trkpt>
      <trkpt lat="47.84243" lon="6.65528">
        <ele>602.9</ele>
        <time>2022-06-29T12:23:59Z</time>
      </trkpt>
      <trkpt lat="47.84246" lon="6.65533">
        <ele>603.8</ele>
        <time>2022-06-29T12:24:03Z</time>
      </trkpt>
      <trkpt lat="47.8425" lon="6.65537">
        <ele>604.8</ele>
        <time>2022-06-29T12:24:09Z</time>
      </trkpt>
      <trkpt lat="47.84254" lon="6.65537">
        <ele>605.1</ele>
        <time>2022-06-29T12:24:13Z</time>
      </trkpt>
      <trkpt lat="47.84257" lon="6.6553">
        <ele>604.6</ele>
        <time>2022-06-29T12:24:16Z</time>
      </trkpt>
      <trkpt lat="47.84261" lon="6.65527">
        <ele>603.8</ele>
        <time>2022-06-29T12:24:19Z</time>
      </trkpt>
      <trkpt lat="47.84266" lon="6.65526">
        <ele>602.2</ele>
        <time>2022-06-29T12:24:25Z</time>
      </trkpt>
      <trkpt lat="47.8427" lon="6.65531">
        <ele>601.1</ele>
        <time>2022-06-29T12:24:30Z</time>
      </trkpt>
      <trkpt lat="47.84273" lon="6.65537">
        <ele>600.5</ele>
        <time>2022-06-29T12:24:34Z</time>
      </trkpt>
      <trkpt lat="47.84274" lon="6.65546">
        <ele>600</ele>
        <time>2022-06-29T12:24:38Z</time>
      </trkpt>
      <trkpt lat="47.84274" lon="6.65552">
        <ele>599.7</ele>
        <time>2022-06-29T12:24:41Z</time>
      </trkpt>
      <trkpt lat="47.84274" lon="6.6556">
        <ele>600.1</ele>
        <time>2022-06-29T12:24:45Z</time>
      </trkpt>
      <trkpt lat="47.84277" lon="6.65566">
        <ele>600.9</ele>
        <time>2022-06-29T12:24:51Z</time>
      </trkpt>
      <trkpt lat="47.84283" lon="6.65567">
        <ele>601.6</ele>
        <time>2022-06-29T12:24:59Z</time>
      </trkpt>
      <trkpt lat="47.84289" lon="6.65573">
        <ele>602.2</ele>
        <time>2022-06-29T12:25:02Z</time>
      </trkpt>
      <trkpt lat="47.84293" lon="6.6558">
        <ele>603</ele>
        <time>2022-06-29T12:25:05Z</time>
      </trkpt>
      <trkpt lat="47.84298" lon="6.65586">
        <ele>603.7</ele>
        <time>2022-06-29T12:25:08Z</time>
      </trkpt>
      <trkpt lat="47.84302" lon="6.65592">
        <ele>604.8</ele>
        <time>2022-06-29T12:25:11Z</time>
      </trkpt>
      <trkpt lat="47.84306" lon="6.65596">
        <ele>606</ele>
        <time>2022-06-29T12:25:15Z</time>
      </trkpt>
      <trkpt lat="47.84311" lon="6.65599">
        <ele>607.5</ele>
        <time>2022-06-29T12:25:22Z</time>
      </trkpt>
      <trkpt lat="47.84313" lon="6.65606">
        <ele>607.9</ele>
        <time>2022-06-29T12:25:27Z</time>
      </trkpt>
      <trkpt lat="47.84316" lon="6.65615">
        <ele>608.1</ele>
        <time>2022-06-29T12:25:30Z</time>
      </trkpt>
      <trkpt lat="47.84319" lon="6.65624">
        <ele>608.6</ele>
        <time>2022-06-29T12:25:33Z</time>
      </trkpt>
      <trkpt lat="47.84322" lon="6.6563">
        <ele>609.3</ele>
        <time>2022-06-29T12:25:36Z</time>
      </trkpt>
      <trkpt lat="47.84325" lon="6.65636">
        <ele>609.6</ele>
        <time>2022-06-29T12:25:39Z</time>
      </trkpt>
      <trkpt lat="47.84326" lon="6.65644">
        <ele>609.8</ele>
        <time>2022-06-29T12:25:42Z</time>
      </trkpt>
      <trkpt lat="47.84328" lon="6.65651">
        <ele>610.9</ele>
        <time>2022-06-29T12:25:45Z</time>
      </trkpt>
      <trkpt lat="47.84331" lon="6.65657">
        <ele>612.9</ele>
        <time>2022-06-29T12:25:49Z</time>
      </trkpt>
      <trkpt lat="47.84335" lon="6.65658">
        <ele>616</ele>
        <time>2022-06-29T12:25:59Z</time>
      </trkpt>
      <trkpt lat="47.84339" lon="6.65665">
        <ele>617.6</ele>
        <time>2022-06-29T12:26:04Z</time>
      </trkpt>
      <trkpt lat="47.84344" lon="6.65669">
        <ele>619.3</ele>
        <time>2022-06-29T12:26:08Z</time>
      </trkpt>
      <trkpt lat="47.84347" lon="6.65673">
        <ele>620.5</ele>
        <time>2022-06-29T12:26:13Z</time>
      </trkpt>
      <trkpt lat="47.84352" lon="6.6567">
        <ele>621</ele>
        <time>2022-06-29T12:26:19Z</time>
      </trkpt>
      <trkpt lat="47.84357" lon="6.65667">
        <ele>620.8</ele>
        <time>2022-06-29T12:26:24Z</time>
      </trkpt>
      <trkpt lat="47.84362" lon="6.65666">
        <ele>620.8</ele>
        <time>2022-06-29T12:26:28Z</time>
      </trkpt>
      <trkpt lat="47.84367" lon="6.65669">
        <ele>620.5</ele>
        <time>2022-06-29T12:26:36Z</time>
      </trkpt>
      <trkpt lat="47.84371" lon="6.65674">
        <ele>620.5</ele>
        <time>2022-06-29T12:26:40Z</time>
      </trkpt>
      <trkpt lat="47.84374" lon="6.65681">
        <ele>620.6</ele>
        <time>2022-06-29T12:26:43Z</time>
      </trkpt>
      <trkpt lat="47.84376" lon="6.65688">
        <ele>620.5</ele>
        <time>2022-06-29T12:26:46Z</time>
      </trkpt>
      <trkpt lat="47.84377" lon="6.65696">
        <ele>620.1</ele>
        <time>2022-06-29T12:26:49Z</time>
      </trkpt>
      <trkpt lat="47.84379" lon="6.65702">
        <ele>619.9</ele>
        <time>2022-06-29T12:26:53Z</time>
      </trkpt>
      <trkpt lat="47.84382" lon="6.65707">
        <ele>619.3</ele>
        <time>2022-06-29T12:26:57Z</time>
      </trkpt>
      <trkpt lat="47.84386" lon="6.65713">
        <ele>618.6</ele>
        <time>2022-06-29T12:27:01Z</time>
      </trkpt>
      <trkpt lat="47.8439" lon="6.65716">
        <ele>617.4</ele>
        <time>2022-06-29T12:27:06Z</time>
      </trkpt>
      <trkpt lat="47.84393" lon="6.65723">
        <ele>616.9</ele>
        <time>2022-06-29T12:27:12Z</time>
      </trkpt>
      <trkpt lat="47.84396" lon="6.65728">
        <ele>617.1</ele>
        <time>2022-06-29T12:27:17Z</time>
      </trkpt>
      <trkpt lat="47.84401" lon="6.65732">
        <ele>617.7</ele>
        <time>2022-06-29T12:27:21Z</time>
      </trkpt>
      <trkpt lat="47.84405" lon="6.65736">
        <ele>618.5</ele>
        <time>2022-06-29T12:27:25Z</time>
      </trkpt>
      <trkpt lat="47.84408" lon="6.65742">
        <ele>618.5</ele>
        <time>2022-06-29T12:27:30Z</time>
      </trkpt>
      <trkpt lat="47.84411" lon="6.65749">
        <ele>618.8</ele>
        <time>2022-06-29T12:27:36Z</time>
      </trkpt>
      <trkpt lat="47.84414" lon="6.65754">
        <ele>618.5</ele>
        <time>2022-06-29T12:27:41Z</time>
      </trkpt>
      <trkpt lat="47.84418" lon="6.65759">
        <ele>618.8</ele>
        <time>2022-06-29T12:27:46Z</time>
      </trkpt>
      <trkpt lat="47.84422" lon="6.65765">
        <ele>618.7</ele>
        <time>2022-06-29T12:27:50Z</time>
      </trkpt>
      <trkpt lat="47.84425" lon="6.65771">
        <ele>618.9</ele>
        <time>2022-06-29T12:27:53Z</time>
      </trkpt>
      <trkpt lat="47.84428" lon="6.65776">
        <ele>619.6</ele>
        <time>2022-06-29T12:27:57Z</time>
      </trkpt>
      <trkpt lat="47.84431" lon="6.65783">
        <ele>620.4</ele>
        <time>2022-06-29T12:28:02Z</time>
      </trkpt>
      <trkpt lat="47.84434" lon="6.6579">
        <ele>621.1</ele>
        <time>2022-06-29T12:28:06Z</time>
      </trkpt>
      <trkpt lat="47.84438" lon="6.65794">
        <ele>621.5</ele>
        <time>2022-06-29T12:28:09Z</time>
      </trkpt>
      <trkpt lat="47.84442" lon="6.65798">
        <ele>622.2</ele>
        <time>2022-06-29T12:28:13Z</time>
      </trkpt>
      <trkpt lat="47.84446" lon="6.65802">
        <ele>623.4</ele>
        <time>2022-06-29T12:28:18Z</time>
      </trkpt>
      <trkpt lat="47.8445" lon="6.65806">
        <ele>624.1</ele>
        <time>2022-06-29T12:28:22Z</time>
      </trkpt>
      <trkpt lat="47.84454" lon="6.6581">
        <ele>624.5</ele>
        <time>2022-06-29T12:28:27Z</time>
      </trkpt>
      <trkpt lat="47.84458" lon="6.65814">
        <ele>624.7</ele>
        <time>2022-06-29T12:28:30Z</time>
      </trkpt>
      <trkpt lat="47.84463" lon="6.6582">
        <ele>625.3</ele>
        <time>2022-06-29T12:28:34Z</time>
      </trkpt>
      <trkpt lat="47.84466" lon="6.65825">
        <ele>625.4</ele>
        <time>2022-06-29T12:28:39Z</time>
      </trkpt>
      <trkpt lat="47.84469" lon="6.65831">
        <ele>624.7</ele>
        <time>2022-06-29T12:28:47Z</time>
      </trkpt>
      <trkpt lat="47.84473" lon="6.65835">
        <ele>624.1</ele>
        <time>2022-06-29T12:28:52Z</time>
      </trkpt>
      <trkpt lat="47.84476" lon="6.6584">
        <ele>622.3</ele>
        <time>2022-06-29T12:28:59Z</time>
      </trkpt>
      <trkpt lat="47.84481" lon="6.65842">
        <ele>621</ele>
        <time>2022-06-29T12:29:11Z</time>
      </trkpt>
      <trkpt lat="47.84485" lon="6.65846">
        <ele>620.7</ele>
        <time>2022-06-29T12:29:17Z</time>
      </trkpt>
      <trkpt lat="47.84491" lon="6.65848">
        <ele>620.4</ele>
        <time>2022-06-29T12:29:22Z</time>
      </trkpt>
      <trkpt lat="47.84495" lon="6.65851">
        <ele>619.5</ele>
        <time>2022-06-29T12:29:28Z</time>
      </trkpt>
      <trkpt lat="47.845" lon="6.65856">
        <ele>618.5</ele>
        <time>2022-06-29T12:29:32Z</time>
      </trkpt>
      <trkpt lat="47.84503" lon="6.6586">
        <ele>617.9</ele>
        <time>2022-06-29T12:29:36Z</time>
      </trkpt>
      <trkpt lat="47.84507" lon="6.65865">
        <ele>617.6</ele>
        <time>2022-06-29T12:29:41Z</time>
      </trkpt>
      <trkpt lat="47.84512" lon="6.65871">
        <ele>617.5</ele>
        <time>2022-06-29T12:29:45Z</time>
      </trkpt>
      <trkpt lat="47.84515" lon="6.65875">
        <ele>617.8</ele>
        <time>2022-06-29T12:29:48Z</time>
      </trkpt>
      <trkpt lat="47.8452" lon="6.6588">
        <ele>618.3</ele>
        <time>2022-06-29T12:29:52Z</time>
      </trkpt>
      <trkpt lat="47.84524" lon="6.65884">
        <ele>619.1</ele>
        <time>2022-06-29T12:29:56Z</time>
      </trkpt>
      <trkpt lat="47.84528" lon="6.65889">
        <ele>620.1</ele>
        <time>2022-06-29T12:30:01Z</time>
      </trkpt>
      <trkpt lat="47.84532" lon="6.65894">
        <ele>620.8</ele>
        <time>2022-06-29T12:30:08Z</time>
      </trkpt>
      <trkpt lat="47.84537" lon="6.65892">
        <ele>622.3</ele>
        <time>2022-06-29T12:30:20Z</time>
      </trkpt>
      <trkpt lat="47.84541" lon="6.65889">
        <ele>622</ele>
        <time>2022-06-29T12:30:26Z</time>
      </trkpt>
      <trkpt lat="47.84547" lon="6.65886">
        <ele>621.3</ele>
        <time>2022-06-29T12:30:31Z</time>
      </trkpt>
      <trkpt lat="47.84551" lon="6.65885">
        <ele>620.4</ele>
        <time>2022-06-29T12:30:35Z</time>
      </trkpt>
      <trkpt lat="47.84556" lon="6.65883">
        <ele>619.8</ele>
        <time>2022-06-29T12:30:39Z</time>
      </trkpt>
      <trkpt lat="47.84561" lon="6.65882">
        <ele>619.5</ele>
        <time>2022-06-29T12:30:43Z</time>
      </trkpt>
      <trkpt lat="47.84566" lon="6.6588">
        <ele>619</ele>
        <time>2022-06-29T12:30:47Z</time>
      </trkpt>
      <trkpt lat="47.84571" lon="6.65878">
        <ele>618.4</ele>
        <time>2022-06-29T12:30:52Z</time>
      </trkpt>
      <trkpt lat="47.84576" lon="6.65876">
        <ele>618.2</ele>
        <time>2022-06-29T12:30:56Z</time>
      </trkpt>
      <trkpt lat="47.84581" lon="6.65874">
        <ele>618.2</ele>
        <time>2022-06-29T12:31:00Z</time>
      </trkpt>
      <trkpt lat="47.84586" lon="6.6587">
        <ele>618.2</ele>
        <time>2022-06-29T12:31:04Z</time>
      </trkpt>
      <trkpt lat="47.8459" lon="6.65867">
        <ele>618.6</ele>
        <time>2022-06-29T12:31:09Z</time>
      </trkpt>
      <trkpt lat="47.84594" lon="6.65865">
        <ele>618.8</ele>
        <time>2022-06-29T12:31:13Z</time>
      </trkpt>
      <trkpt lat="47.84599" lon="6.65863">
        <ele>619.9</ele>
        <time>2022-06-29T12:31:19Z</time>
      </trkpt>
      <trkpt lat="47.84603" lon="6.65861">
        <ele>620.1</ele>
        <time>2022-06-29T12:31:24Z</time>
      </trkpt>
      <trkpt lat="47.84608" lon="6.65859">
        <ele>619.6</ele>
        <time>2022-06-29T12:31:29Z</time>
      </trkpt>
      <trkpt lat="47.84613" lon="6.65856">
        <ele>618.9</ele>
        <time>2022-06-29T12:31:34Z</time>
      </trkpt>
      <trkpt lat="47.84618" lon="6.65854">
        <ele>618.1</ele>
        <time>2022-06-29T12:31:38Z</time>
      </trkpt>
      <trkpt lat="47.84622" lon="6.6585">
        <ele>617.1</ele>
        <time>2022-06-29T12:31:43Z</time>
      </trkpt>
      <trkpt lat="47.84625" lon="6.65846">
        <ele>616.2</ele>
        <time>2022-06-29T12:31:49Z</time>
      </trkpt>
      <trkpt lat="47.84629" lon="6.6584">
        <ele>615.5</ele>
        <time>2022-06-29T12:31:57Z</time>
      </trkpt>
      <trkpt lat="47.84633" lon="6.65835">
        <ele>615.7</ele>
        <time>2022-06-29T12:32:03Z</time>
      </trkpt>
      <trkpt lat="47.84637" lon="6.6583">
        <ele>615.7</ele>
        <time>2022-06-29T12:32:08Z</time>
      </trkpt>
      <trkpt lat="47.8464" lon="6.65823">
        <ele>615.9</ele>
        <time>2022-06-29T12:32:12Z</time>
      </trkpt>
      <trkpt lat="47.84644" lon="6.65818">
        <ele>616</ele>
        <time>2022-06-29T12:32:15Z</time>
      </trkpt>
      <trkpt lat="47.84648" lon="6.65814">
        <ele>616.2</ele>
        <time>2022-06-29T12:32:18Z</time>
      </trkpt>
      <trkpt lat="47.84653" lon="6.6581">
        <ele>616.4</ele>
        <time>2022-06-29T12:32:21Z</time>
      </trkpt>
      <trkpt lat="47.84657" lon="6.65807">
        <ele>616.4</ele>
        <time>2022-06-29T12:32:24Z</time>
      </trkpt>
      <trkpt lat="47.84661" lon="6.65802">
        <ele>614.8</ele>
        <time>2022-06-29T12:32:32Z</time>
      </trkpt>
      <trkpt lat="47.84659" lon="6.65794">
        <ele>614.2</ele>
        <time>2022-06-29T12:32:36Z</time>
      </trkpt>
      <trkpt lat="47.84658" lon="6.65787">
        <ele>612.9</ele>
        <time>2022-06-29T12:32:41Z</time>
      </trkpt>
      <trkpt lat="47.84662" lon="6.65781">
        <ele>612</ele>
        <time>2022-06-29T12:32:47Z</time>
      </trkpt>
      <trkpt lat="47.84662" lon="6.65774">
        <ele>611.8</ele>
        <time>2022-06-29T12:32:51Z</time>
      </trkpt>
      <trkpt lat="47.8466" lon="6.65766">
        <ele>612</ele>
        <time>2022-06-29T12:32:56Z</time>
      </trkpt>
      <trkpt lat="47.84662" lon="6.6576">
        <ele>612.1</ele>
        <time>2022-06-29T12:33:03Z</time>
      </trkpt>
      <trkpt lat="47.84659" lon="6.65754">
        <ele>612.5</ele>
        <time>2022-06-29T12:33:10Z</time>
      </trkpt>
      <trkpt lat="47.84656" lon="6.65749">
        <ele>613.2</ele>
        <time>2022-06-29T12:33:13Z</time>
      </trkpt>
      <trkpt lat="47.84657" lon="6.65742">
        <ele>614</ele>
        <time>2022-06-29T12:33:18Z</time>
      </trkpt>
      <trkpt lat="47.84654" lon="6.65736">
        <ele>614.7</ele>
        <time>2022-06-29T12:33:24Z</time>
      </trkpt>
      <trkpt lat="47.84654" lon="6.65728">
        <ele>614.8</ele>
        <time>2022-06-29T12:33:31Z</time>
      </trkpt>
      <trkpt lat="47.84655" lon="6.65717">
        <ele>615</ele>
        <time>2022-06-29T12:33:34Z</time>
      </trkpt>
      <trkpt lat="47.84655" lon="6.65705">
        <ele>616.1</ele>
        <time>2022-06-29T12:33:37Z</time>
      </trkpt>
      <trkpt lat="47.84655" lon="6.65697">
        <ele>617.6</ele>
        <time>2022-06-29T12:33:40Z</time>
      </trkpt>
      <trkpt lat="47.84655" lon="6.65688">
        <ele>619.6</ele>
        <time>2022-06-29T12:33:44Z</time>
      </trkpt>
      <trkpt lat="47.84655" lon="6.6568">
        <ele>621.3</ele>
        <time>2022-06-29T12:33:48Z</time>
      </trkpt>
      <trkpt lat="47.84655" lon="6.65672">
        <ele>622.8</ele>
        <time>2022-06-29T12:33:54Z</time>
      </trkpt>
      <trkpt lat="47.84655" lon="6.65664">
        <ele>624</ele>
        <time>2022-06-29T12:33:59Z</time>
      </trkpt>
      <trkpt lat="47.84656" lon="6.65657">
        <ele>624.8</ele>
        <time>2022-06-29T12:34:03Z</time>
      </trkpt>
      <trkpt lat="47.84657" lon="6.6565">
        <ele>626.1</ele>
        <time>2022-06-29T12:34:07Z</time>
      </trkpt>
      <trkpt lat="47.84662" lon="6.65648">
        <ele>627.7</ele>
        <time>2022-06-29T12:34:11Z</time>
      </trkpt>
      <trkpt lat="47.84666" lon="6.6565">
        <ele>628.9</ele>
        <time>2022-06-29T12:34:14Z</time>
      </trkpt>
      <trkpt lat="47.8467" lon="6.65655">
        <ele>630.2</ele>
        <time>2022-06-29T12:34:18Z</time>
      </trkpt>
      <trkpt lat="47.84674" lon="6.65659">
        <ele>630.6</ele>
        <time>2022-06-29T12:34:23Z</time>
      </trkpt>
      <trkpt lat="47.84679" lon="6.65661">
        <ele>629.7</ele>
        <time>2022-06-29T12:34:28Z</time>
      </trkpt>
      <trkpt lat="47.84684" lon="6.65661">
        <ele>627.1</ele>
        <time>2022-06-29T12:34:35Z</time>
      </trkpt>
      <trkpt lat="47.84688" lon="6.65663">
        <ele>625.4</ele>
        <time>2022-06-29T12:34:42Z</time>
      </trkpt>
      <trkpt lat="47.84693" lon="6.65666">
        <ele>624</ele>
        <time>2022-06-29T12:34:46Z</time>
      </trkpt>
      <trkpt lat="47.84697" lon="6.65671">
        <ele>621.7</ele>
        <time>2022-06-29T12:34:51Z</time>
      </trkpt>
      <trkpt lat="47.84699" lon="6.65678">
        <ele>618.6</ele>
        <time>2022-06-29T12:34:59Z</time>
      </trkpt>
      <trkpt lat="47.84703" lon="6.65683">
        <ele>616.9</ele>
        <time>2022-06-29T12:35:05Z</time>
      </trkpt>
      <trkpt lat="47.84707" lon="6.65688">
        <ele>615.7</ele>
        <time>2022-06-29T12:35:10Z</time>
      </trkpt>
      <trkpt lat="47.84711" lon="6.65693">
        <ele>616.7</ele>
        <time>2022-06-29T12:35:19Z</time>
      </trkpt>
      <trkpt lat="47.84716" lon="6.65695">
        <ele>618.1</ele>
        <time>2022-06-29T12:35:24Z</time>
      </trkpt>
      <trkpt lat="47.8472" lon="6.65692">
        <ele>620.1</ele>
        <time>2022-06-29T12:35:35Z</time>
      </trkpt>
      <trkpt lat="47.84725" lon="6.6569">
        <ele>619.7</ele>
        <time>2022-06-29T12:35:40Z</time>
      </trkpt>
      <trkpt lat="47.8473" lon="6.65688">
        <ele>619.5</ele>
        <time>2022-06-29T12:35:44Z</time>
      </trkpt>
      <trkpt lat="47.84735" lon="6.65688">
        <ele>619.4</ele>
        <time>2022-06-29T12:35:52Z</time>
      </trkpt>
      <trkpt lat="47.84739" lon="6.65692">
        <ele>619.8</ele>
        <time>2022-06-29T12:35:58Z</time>
      </trkpt>
      <trkpt lat="47.84743" lon="6.65694">
        <ele>620.1</ele>
        <time>2022-06-29T12:36:02Z</time>
      </trkpt>
      <trkpt lat="47.84748" lon="6.65697">
        <ele>620</ele>
        <time>2022-06-29T12:36:05Z</time>
      </trkpt>
      <trkpt lat="47.84753" lon="6.65699">
        <ele>619.7</ele>
        <time>2022-06-29T12:36:09Z</time>
      </trkpt>
      <trkpt lat="47.84759" lon="6.65699">
        <ele>619.6</ele>
        <time>2022-06-29T12:36:13Z</time>
      </trkpt>
      <trkpt lat="47.84764" lon="6.65699">
        <ele>619.9</ele>
        <time>2022-06-29T12:36:18Z</time>
      </trkpt>
      <trkpt lat="47.8477" lon="6.65699">
        <ele>619.9</ele>
        <time>2022-06-29T12:36:22Z</time>
      </trkpt>
      <trkpt lat="47.84775" lon="6.65698">
        <ele>619.1</ele>
        <time>2022-06-29T12:36:27Z</time>
      </trkpt>
      <trkpt lat="47.8478" lon="6.65697">
        <ele>616.4</ele>
        <time>2022-06-29T12:36:34Z</time>
      </trkpt>
      <trkpt lat="47.84784" lon="6.65696">
        <ele>614.3</ele>
        <time>2022-06-29T12:36:43Z</time>
      </trkpt>
      <trkpt lat="47.84789" lon="6.65693">
        <ele>612.1</ele>
        <time>2022-06-29T12:36:50Z</time>
      </trkpt>
      <trkpt lat="47.84793" lon="6.65691">
        <ele>607.9</ele>
        <time>2022-06-29T12:37:01Z</time>
      </trkpt>
      <trkpt lat="47.84797" lon="6.65694">
        <ele>606.3</ele>
        <time>2022-06-29T12:37:10Z</time>
      </trkpt>
      <trkpt lat="47.84802" lon="6.65694">
        <ele>606.4</ele>
        <time>2022-06-29T12:37:13Z</time>
      </trkpt>
      <trkpt lat="47.84807" lon="6.65691">
        <ele>607</ele>
        <time>2022-06-29T12:37:16Z</time>
      </trkpt>
      <trkpt lat="47.84811" lon="6.65686">
        <ele>607.5</ele>
        <time>2022-06-29T12:37:20Z</time>
      </trkpt>
      <trkpt lat="47.84813" lon="6.6568">
        <ele>607.5</ele>
        <time>2022-06-29T12:37:30Z</time>
      </trkpt>
      <trkpt lat="47.84818" lon="6.65677">
        <ele>607</ele>
        <time>2022-06-29T12:37:33Z</time>
      </trkpt>
      <trkpt lat="47.84822" lon="6.6567">
        <ele>606.7</ele>
        <time>2022-06-29T12:37:37Z</time>
      </trkpt>
      <trkpt lat="47.84825" lon="6.65663">
        <ele>606.6</ele>
        <time>2022-06-29T12:37:41Z</time>
      </trkpt>
      <trkpt lat="47.84829" lon="6.65658">
        <ele>605.6</ele>
        <time>2022-06-29T12:37:46Z</time>
      </trkpt>
      <trkpt lat="47.84832" lon="6.65652">
        <ele>604.9</ele>
        <time>2022-06-29T12:37:49Z</time>
      </trkpt>
      <trkpt lat="47.84834" lon="6.65646">
        <ele>604.6</ele>
        <time>2022-06-29T12:37:53Z</time>
      </trkpt>
      <trkpt lat="47.84837" lon="6.65639">
        <ele>604.8</ele>
        <time>2022-06-29T12:37:58Z</time>
      </trkpt>
      <trkpt lat="47.84839" lon="6.65632">
        <ele>604.6</ele>
        <time>2022-06-29T12:38:03Z</time>
      </trkpt>
      <trkpt lat="47.84842" lon="6.65625">
        <ele>604.5</ele>
        <time>2022-06-29T12:38:06Z</time>
      </trkpt>
      <trkpt lat="47.84845" lon="6.65619">
        <ele>604.9</ele>
        <time>2022-06-29T12:38:10Z</time>
      </trkpt>
      <trkpt lat="47.84847" lon="6.65612">
        <ele>604.8</ele>
        <time>2022-06-29T12:38:14Z</time>
      </trkpt>
      <trkpt lat="47.84848" lon="6.65605">
        <ele>604.6</ele>
        <time>2022-06-29T12:38:19Z</time>
      </trkpt>
      <trkpt lat="47.8485" lon="6.65597">
        <ele>604.9</ele>
        <time>2022-06-29T12:38:24Z</time>
      </trkpt>
      <trkpt lat="47.84853" lon="6.65591">
        <ele>605.2</ele>
        <time>2022-06-29T12:38:29Z</time>
      </trkpt>
      <trkpt lat="47.84855" lon="6.65584">
        <ele>605.7</ele>
        <time>2022-06-29T12:38:34Z</time>
      </trkpt>
      <trkpt lat="47.84858" lon="6.65578">
        <ele>606.2</ele>
        <time>2022-06-29T12:38:39Z</time>
      </trkpt>
      <trkpt lat="47.84863" lon="6.65581">
        <ele>605.5</ele>
        <time>2022-06-29T12:38:49Z</time>
      </trkpt>
      <trkpt lat="47.84866" lon="6.65587">
        <ele>604.3</ele>
        <time>2022-06-29T12:38:53Z</time>
      </trkpt>
      <trkpt lat="47.84869" lon="6.65592">
        <ele>603.3</ele>
        <time>2022-06-29T12:38:57Z</time>
      </trkpt>
      <trkpt lat="47.84873" lon="6.65598">
        <ele>601.4</ele>
        <time>2022-06-29T12:39:03Z</time>
      </trkpt>
      <trkpt lat="47.84874" lon="6.65605">
        <ele>600.1</ele>
        <time>2022-06-29T12:39:07Z</time>
      </trkpt>
      <trkpt lat="47.84874" lon="6.65612">
        <ele>599.6</ele>
        <time>2022-06-29T12:39:10Z</time>
      </trkpt>
      <trkpt lat="47.84874" lon="6.65621">
        <ele>598.9</ele>
        <time>2022-06-29T12:39:14Z</time>
      </trkpt>
      <trkpt lat="47.84878" lon="6.6562">
        <ele>595.7</ele>
        <time>2022-06-29T12:39:27Z</time>
      </trkpt>
      <trkpt lat="47.84878" lon="6.65628">
        <ele>594.1</ele>
        <time>2022-06-29T12:39:39Z</time>
      </trkpt>
      <trkpt lat="47.84873" lon="6.65634">
        <ele>594.3</ele>
        <time>2022-06-29T12:39:42Z</time>
      </trkpt>
      <trkpt lat="47.84871" lon="6.6564">
        <ele>594.7</ele>
        <time>2022-06-29T12:39:45Z</time>
      </trkpt>
      <trkpt lat="47.84866" lon="6.65639">
        <ele>596.1</ele>
        <time>2022-06-29T12:39:56Z</time>
      </trkpt>
      <trkpt lat="47.84862" lon="6.65641">
        <ele>595.5</ele>
        <time>2022-06-29T12:40:11Z</time>
      </trkpt>
      <trkpt lat="47.8486" lon="6.65649">
        <ele>595.2</ele>
        <time>2022-06-29T12:40:14Z</time>
      </trkpt>
      <trkpt lat="47.84859" lon="6.65656">
        <ele>594.8</ele>
        <time>2022-06-29T12:40:18Z</time>
      </trkpt>
      <trkpt lat="47.84858" lon="6.65664">
        <ele>594.4</ele>
        <time>2022-06-29T12:40:22Z</time>
      </trkpt>
      <trkpt lat="47.84858" lon="6.65671">
        <ele>593.8</ele>
        <time>2022-06-29T12:40:26Z</time>
      </trkpt>
      <trkpt lat="47.84855" lon="6.65677">
        <ele>591.5</ele>
        <time>2022-06-29T12:40:36Z</time>
      </trkpt>
      <trkpt lat="47.84858" lon="6.65682">
        <ele>590.5</ele>
        <time>2022-06-29T12:40:46Z</time>
      </trkpt>
      <trkpt lat="47.8486" lon="6.65689">
        <ele>590.6</ele>
        <time>2022-06-29T12:40:51Z</time>
      </trkpt>
      <trkpt lat="47.84862" lon="6.65695">
        <ele>590.8</ele>
        <time>2022-06-29T12:40:59Z</time>
      </trkpt>
      <trkpt lat="47.84867" lon="6.65698">
        <ele>590.4</ele>
        <time>2022-06-29T12:41:04Z</time>
      </trkpt>
      <trkpt lat="47.84871" lon="6.65699">
        <ele>589.3</ele>
        <time>2022-06-29T12:41:10Z</time>
      </trkpt>
      <trkpt lat="47.84872" lon="6.65691">
        <ele>588.5</ele>
        <time>2022-06-29T12:41:16Z</time>
      </trkpt>
      <trkpt lat="47.84874" lon="6.65684">
        <ele>588.7</ele>
        <time>2022-06-29T12:41:20Z</time>
      </trkpt>
      <trkpt lat="47.84879" lon="6.6568">
        <ele>589</ele>
        <time>2022-06-29T12:41:24Z</time>
      </trkpt>
      <trkpt lat="47.84884" lon="6.65677">
        <ele>589.2</ele>
        <time>2022-06-29T12:41:27Z</time>
      </trkpt>
      <trkpt lat="47.84888" lon="6.65672">
        <ele>589.5</ele>
        <time>2022-06-29T12:41:31Z</time>
      </trkpt>
      <trkpt lat="47.84891" lon="6.65667">
        <ele>590.1</ele>
        <time>2022-06-29T12:41:35Z</time>
      </trkpt>
      <trkpt lat="47.84893" lon="6.6566">
        <ele>590.6</ele>
        <time>2022-06-29T12:41:39Z</time>
      </trkpt>
      <trkpt lat="47.84895" lon="6.65654">
        <ele>591.3</ele>
        <time>2022-06-29T12:41:44Z</time>
      </trkpt>
      <trkpt lat="47.849" lon="6.65652">
        <ele>592</ele>
        <time>2022-06-29T12:41:50Z</time>
      </trkpt>
      <trkpt lat="47.84905" lon="6.65649">
        <ele>592.4</ele>
        <time>2022-06-29T12:41:55Z</time>
      </trkpt>
      <trkpt lat="47.84909" lon="6.65644">
        <ele>592.8</ele>
        <time>2022-06-29T12:42:01Z</time>
      </trkpt>
      <trkpt lat="47.84912" lon="6.65637">
        <ele>592.8</ele>
        <time>2022-06-29T12:42:05Z</time>
      </trkpt>
      <trkpt lat="47.84914" lon="6.65631">
        <ele>592.5</ele>
        <time>2022-06-29T12:42:09Z</time>
      </trkpt>
      <trkpt lat="47.84917" lon="6.65625">
        <ele>591.7</ele>
        <time>2022-06-29T12:42:15Z</time>
      </trkpt>
      <trkpt lat="47.84919" lon="6.65618">
        <ele>590.5</ele>
        <time>2022-06-29T12:42:24Z</time>
      </trkpt>
      <trkpt lat="47.84921" lon="6.65612">
        <ele>589.9</ele>
        <time>2022-06-29T12:42:30Z</time>
      </trkpt>
      <trkpt lat="47.84925" lon="6.65607">
        <ele>589</ele>
        <time>2022-06-29T12:42:37Z</time>
      </trkpt>
      <trkpt lat="47.84927" lon="6.65601">
        <ele>588.4</ele>
        <time>2022-06-29T12:42:42Z</time>
      </trkpt>
      <trkpt lat="47.84932" lon="6.65597">
        <ele>588</ele>
        <time>2022-06-29T12:42:47Z</time>
      </trkpt>
      <trkpt lat="47.84936" lon="6.65595">
        <ele>587</ele>
        <time>2022-06-29T12:42:53Z</time>
      </trkpt>
      <trkpt lat="47.84942" lon="6.65593">
        <ele>586.4</ele>
        <time>2022-06-29T12:42:58Z</time>
      </trkpt>
      <trkpt lat="47.84946" lon="6.6559">
        <ele>586</ele>
        <time>2022-06-29T12:43:03Z</time>
      </trkpt>
      <trkpt lat="47.8495" lon="6.65586">
        <ele>585.9</ele>
        <time>2022-06-29T12:43:07Z</time>
      </trkpt>
      <trkpt lat="47.84954" lon="6.65581">
        <ele>585.9</ele>
        <time>2022-06-29T12:43:11Z</time>
      </trkpt>
      <trkpt lat="47.84953" lon="6.65573">
        <ele>586.3</ele>
        <time>2022-06-29T12:43:16Z</time>
      </trkpt>
      <trkpt lat="47.84952" lon="6.65565">
        <ele>586.6</ele>
        <time>2022-06-29T12:43:20Z</time>
      </trkpt>
      <trkpt lat="47.84952" lon="6.65557">
        <ele>587.3</ele>
        <time>2022-06-29T12:43:23Z</time>
      </trkpt>
      <trkpt lat="47.84952" lon="6.65566">
        <ele>585.4</ele>
        <time>2022-06-29T12:43:32Z</time>
      </trkpt>
      <trkpt lat="47.84953" lon="6.65574">
        <ele>584.4</ele>
        <time>2022-06-29T12:43:36Z</time>
      </trkpt>
      <trkpt lat="47.84955" lon="6.6558">
        <ele>582.5</ele>
        <time>2022-06-29T12:43:42Z</time>
      </trkpt>
      <trkpt lat="47.84957" lon="6.65587">
        <ele>576.5</ele>
        <time>2022-06-29T12:43:56Z</time>
      </trkpt>
      <trkpt lat="47.84959" lon="6.65594">
        <ele>575.6</ele>
        <time>2022-06-29T12:43:59Z</time>
      </trkpt>
      <trkpt lat="47.84962" lon="6.656">
        <ele>573.2</ele>
        <time>2022-06-29T12:44:07Z</time>
      </trkpt>
      <trkpt lat="47.84962" lon="6.65607">
        <ele>571.7</ele>
        <time>2022-06-29T12:44:13Z</time>
      </trkpt>
      <trkpt lat="47.84962" lon="6.65614">
        <ele>570.8</ele>
        <time>2022-06-29T12:44:17Z</time>
      </trkpt>
      <trkpt lat="47.84961" lon="6.65623">
        <ele>570.2</ele>
        <time>2022-06-29T12:44:21Z</time>
      </trkpt>
      <trkpt lat="47.84959" lon="6.65631">
        <ele>569.7</ele>
        <time>2022-06-29T12:44:25Z</time>
      </trkpt>
      <trkpt lat="47.8496" lon="6.65638">
        <ele>568.8</ele>
        <time>2022-06-29T12:44:30Z</time>
      </trkpt>
      <trkpt lat="47.84965" lon="6.65639">
        <ele>568.4</ele>
        <time>2022-06-29T12:44:34Z</time>
      </trkpt>
      <trkpt lat="47.84971" lon="6.65639">
        <ele>568.2</ele>
        <time>2022-06-29T12:44:39Z</time>
      </trkpt>
      <trkpt lat="47.84975" lon="6.65635">
        <ele>567.7</ele>
        <time>2022-06-29T12:44:46Z</time>
      </trkpt>
      <trkpt lat="47.8498" lon="6.65633">
        <ele>567.6</ele>
        <time>2022-06-29T12:44:50Z</time>
      </trkpt>
      <trkpt lat="47.84984" lon="6.6563">
        <ele>567.7</ele>
        <time>2022-06-29T12:44:53Z</time>
      </trkpt>
      <trkpt lat="47.84985" lon="6.65623">
        <ele>568.5</ele>
        <time>2022-06-29T12:44:57Z</time>
      </trkpt>
      <trkpt lat="47.84987" lon="6.65616">
        <ele>570.1</ele>
        <time>2022-06-29T12:45:07Z</time>
      </trkpt>
      <trkpt lat="47.84992" lon="6.6562">
        <ele>570.9</ele>
        <time>2022-06-29T12:45:15Z</time>
      </trkpt>
      <trkpt lat="47.84996" lon="6.65624">
        <ele>571.2</ele>
        <time>2022-06-29T12:45:19Z</time>
      </trkpt>
      <trkpt lat="47.84996" lon="6.65632">
        <ele>571.2</ele>
        <time>2022-06-29T12:45:24Z</time>
      </trkpt>
      <trkpt lat="47.84997" lon="6.65639">
        <ele>571</ele>
        <time>2022-06-29T12:45:28Z</time>
      </trkpt>
      <trkpt lat="47.84996" lon="6.65646">
        <ele>570.5</ele>
        <time>2022-06-29T12:45:35Z</time>
      </trkpt>
      <trkpt lat="47.84995" lon="6.65653">
        <ele>569.7</ele>
        <time>2022-06-29T12:45:40Z</time>
      </trkpt>
      <trkpt lat="47.84994" lon="6.6566">
        <ele>569.3</ele>
        <time>2022-06-29T12:45:44Z</time>
      </trkpt>
      <trkpt lat="47.84993" lon="6.65667">
        <ele>569.1</ele>
        <time>2022-06-29T12:45:49Z</time>
      </trkpt>
      <trkpt lat="47.84995" lon="6.65673">
        <ele>569.5</ele>
        <time>2022-06-29T12:45:55Z</time>
      </trkpt>
      <trkpt lat="47.84997" lon="6.6568">
        <ele>569.3</ele>
        <time>2022-06-29T12:46:01Z</time>
      </trkpt>
      <trkpt lat="47.84998" lon="6.65687">
        <ele>568.9</ele>
        <time>2022-06-29T12:46:10Z</time>
      </trkpt>
      <trkpt lat="47.84997" lon="6.65695">
        <ele>568.3</ele>
        <time>2022-06-29T12:46:16Z</time>
      </trkpt>
      <trkpt lat="47.84997" lon="6.65702">
        <ele>565.9</ele>
        <time>2022-06-29T12:46:26Z</time>
      </trkpt>
      <trkpt lat="47.85" lon="6.6571">
        <ele>564.8</ele>
        <time>2022-06-29T12:46:30Z</time>
      </trkpt>
      <trkpt lat="47.85002" lon="6.65717">
        <ele>563.4</ele>
        <time>2022-06-29T12:46:35Z</time>
      </trkpt>
      <trkpt lat="47.85003" lon="6.65724">
        <ele>562.3</ele>
        <time>2022-06-29T12:46:41Z</time>
      </trkpt>
      <trkpt lat="47.85005" lon="6.65731">
        <ele>561.7</ele>
        <time>2022-06-29T12:46:48Z</time>
      </trkpt>
      <trkpt lat="47.85005" lon="6.65739">
        <ele>561.3</ele>
        <time>2022-06-29T12:46:52Z</time>
      </trkpt>
      <trkpt lat="47.85004" lon="6.65746">
        <ele>560.8</ele>
        <time>2022-06-29T12:46:59Z</time>
      </trkpt>
      <trkpt lat="47.85006" lon="6.65752">
        <ele>560.3</ele>
        <time>2022-06-29T12:47:03Z</time>
      </trkpt>
      <trkpt lat="47.85006" lon="6.6576">
        <ele>559.7</ele>
        <time>2022-06-29T12:47:07Z</time>
      </trkpt>
      <trkpt lat="47.85005" lon="6.65767">
        <ele>559</ele>
        <time>2022-06-29T12:47:12Z</time>
      </trkpt>
      <trkpt lat="47.85004" lon="6.65774">
        <ele>558.1</ele>
        <time>2022-06-29T12:47:19Z</time>
      </trkpt>
      <trkpt lat="47.85003" lon="6.65781">
        <ele>557.3</ele>
        <time>2022-06-29T12:47:23Z</time>
      </trkpt>
      <trkpt lat="47.85006" lon="6.65787">
        <ele>556.4</ele>
        <time>2022-06-29T12:47:27Z</time>
      </trkpt>
      <trkpt lat="47.85008" lon="6.65793">
        <ele>554.7</ele>
        <time>2022-06-29T12:47:32Z</time>
      </trkpt>
      <trkpt lat="47.85014" lon="6.65791">
        <ele>552.9</ele>
        <time>2022-06-29T12:47:37Z</time>
      </trkpt>
      <trkpt lat="47.85018" lon="6.65787">
        <ele>551.7</ele>
        <time>2022-06-29T12:47:41Z</time>
      </trkpt>
      <trkpt lat="47.85022" lon="6.6578">
        <ele>551.1</ele>
        <time>2022-06-29T12:47:45Z</time>
      </trkpt>
      <trkpt lat="47.8502" lon="6.65774">
        <ele>549.8</ele>
        <time>2022-06-29T12:47:48Z</time>
      </trkpt>
      <trkpt lat="47.85023" lon="6.65767">
        <ele>545.8</ele>
        <time>2022-06-29T12:47:56Z</time>
      </trkpt>
      <trkpt lat="47.85028" lon="6.65767">
        <ele>545</ele>
        <time>2022-06-29T12:48:00Z</time>
      </trkpt>
      <trkpt lat="47.85033" lon="6.65765">
        <ele>544.6</ele>
        <time>2022-06-29T12:48:04Z</time>
      </trkpt>
      <trkpt lat="47.85037" lon="6.65761">
        <ele>544.4</ele>
        <time>2022-06-29T12:48:08Z</time>
      </trkpt>
      <trkpt lat="47.85041" lon="6.65758">
        <ele>544.3</ele>
        <time>2022-06-29T12:48:12Z</time>
      </trkpt>
      <trkpt lat="47.85045" lon="6.65754">
        <ele>544.7</ele>
        <time>2022-06-29T12:48:16Z</time>
      </trkpt>
      <trkpt lat="47.85047" lon="6.65747">
        <ele>545.3</ele>
        <time>2022-06-29T12:48:20Z</time>
      </trkpt>
      <trkpt lat="47.85049" lon="6.6574">
        <ele>545.7</ele>
        <time>2022-06-29T12:48:25Z</time>
      </trkpt>
      <trkpt lat="47.85052" lon="6.65733">
        <ele>545.9</ele>
        <time>2022-06-29T12:48:31Z</time>
      </trkpt>
      <trkpt lat="47.85054" lon="6.65727">
        <ele>545.5</ele>
        <time>2022-06-29T12:48:37Z</time>
      </trkpt>
      <trkpt lat="47.85058" lon="6.65723">
        <ele>544.7</ele>
        <time>2022-06-29T12:48:42Z</time>
      </trkpt>
      <trkpt lat="47.85062" lon="6.6572">
        <ele>544.3</ele>
        <time>2022-06-29T12:48:45Z</time>
      </trkpt>
      <trkpt lat="47.85066" lon="6.65716">
        <ele>543.9</ele>
        <time>2022-06-29T12:48:49Z</time>
      </trkpt>
      <trkpt lat="47.85068" lon="6.6571">
        <ele>543.6</ele>
        <time>2022-06-29T12:48:54Z</time>
      </trkpt>
      <trkpt lat="47.85071" lon="6.65705">
        <ele>543.2</ele>
        <time>2022-06-29T12:49:00Z</time>
      </trkpt>
      <trkpt lat="47.85075" lon="6.65698">
        <ele>542.2</ele>
        <time>2022-06-29T12:49:05Z</time>
      </trkpt>
      <trkpt lat="47.85079" lon="6.65693">
        <ele>542.3</ele>
        <time>2022-06-29T12:49:10Z</time>
      </trkpt>
      <trkpt lat="47.85084" lon="6.6569">
        <ele>541.7</ele>
        <time>2022-06-29T12:49:15Z</time>
      </trkpt>
      <trkpt lat="47.85087" lon="6.65686">
        <ele>541</ele>
        <time>2022-06-29T12:49:20Z</time>
      </trkpt>
      <trkpt lat="47.85091" lon="6.65681">
        <ele>539.8</ele>
        <time>2022-06-29T12:49:29Z</time>
      </trkpt>
      <trkpt lat="47.85096" lon="6.65683">
        <ele>539.4</ele>
        <time>2022-06-29T12:49:32Z</time>
      </trkpt>
      <trkpt lat="47.85102" lon="6.65687">
        <ele>539.3</ele>
        <time>2022-06-29T12:49:35Z</time>
      </trkpt>
      <trkpt lat="47.85108" lon="6.6569">
        <ele>539.2</ele>
        <time>2022-06-29T12:49:38Z</time>
      </trkpt>
      <trkpt lat="47.85113" lon="6.65691">
        <ele>538.8</ele>
        <time>2022-06-29T12:49:42Z</time>
      </trkpt>
      <trkpt lat="47.85118" lon="6.65692">
        <ele>538.6</ele>
        <time>2022-06-29T12:49:45Z</time>
      </trkpt>
      <trkpt lat="47.85123" lon="6.65692">
        <ele>538.2</ele>
        <time>2022-06-29T12:49:49Z</time>
      </trkpt>
      <trkpt lat="47.85128" lon="6.65692">
        <ele>538.1</ele>
        <time>2022-06-29T12:49:54Z</time>
      </trkpt>
      <trkpt lat="47.85132" lon="6.65695">
        <ele>538.5</ele>
        <time>2022-06-29T12:50:00Z</time>
      </trkpt>
      <trkpt lat="47.85137" lon="6.657">
        <ele>538.9</ele>
        <time>2022-06-29T12:50:05Z</time>
      </trkpt>
      <trkpt lat="47.85141" lon="6.65704">
        <ele>539</ele>
        <time>2022-06-29T12:50:09Z</time>
      </trkpt>
      <trkpt lat="47.85144" lon="6.65708">
        <ele>538.3</ele>
        <time>2022-06-29T12:50:14Z</time>
      </trkpt>
      <trkpt lat="47.85146" lon="6.65715">
        <ele>537.9</ele>
        <time>2022-06-29T12:50:21Z</time>
      </trkpt>
      <trkpt lat="47.85142" lon="6.65719">
        <ele>538</ele>
        <time>2022-06-29T12:50:25Z</time>
      </trkpt>
      <trkpt lat="47.85137" lon="6.65722">
        <ele>537.8</ele>
        <time>2022-06-29T12:50:36Z</time>
      </trkpt>
      <trkpt lat="47.85135" lon="6.65716">
        <ele>537.1</ele>
        <time>2022-06-29T12:50:50Z</time>
      </trkpt>
      <trkpt lat="47.85132" lon="6.6571">
        <ele>537.1</ele>
        <time>2022-06-29T12:50:55Z</time>
      </trkpt>
      <trkpt lat="47.85128" lon="6.65707">
        <ele>537.5</ele>
        <time>2022-06-29T12:51:04Z</time>
      </trkpt>
      <trkpt lat="47.85133" lon="6.65708">
        <ele>537.1</ele>
        <time>2022-06-29T12:51:14Z</time>
      </trkpt>
      <trkpt lat="47.85136" lon="6.65726">
        <ele>536.4</ele>
        <time>2022-06-29T12:52:05Z</time>
      </trkpt>
      <trkpt lat="47.85141" lon="6.65725">
        <ele>535.8</ele>
        <time>2022-06-29T12:52:11Z</time>
      </trkpt>
      <trkpt lat="47.85143" lon="6.65732">
        <ele>536.1</ele>
        <time>2022-06-29T12:52:24Z</time>
      </trkpt>
      <trkpt lat="47.85139" lon="6.65736">
        <ele>536.5</ele>
        <time>2022-06-29T12:52:29Z</time>
      </trkpt>
      <trkpt lat="47.85133" lon="6.6574">
        <ele>535.8</ele>
        <time>2022-06-29T12:52:34Z</time>
      </trkpt>
      <trkpt lat="47.85131" lon="6.65746">
        <ele>535.3</ele>
        <time>2022-06-29T12:52:37Z</time>
      </trkpt>
      <trkpt lat="47.85131" lon="6.65754">
        <ele>534.8</ele>
        <time>2022-06-29T12:52:42Z</time>
      </trkpt>
      <trkpt lat="47.85132" lon="6.65761">
        <ele>534.9</ele>
        <time>2022-06-29T12:52:47Z</time>
      </trkpt>
      <trkpt lat="47.8513" lon="6.65767">
        <ele>534.9</ele>
        <time>2022-06-29T12:52:52Z</time>
      </trkpt>
      <trkpt lat="47.85127" lon="6.65773">
        <ele>535.1</ele>
        <time>2022-06-29T12:52:56Z</time>
      </trkpt>
      <trkpt lat="47.85122" lon="6.65777">
        <ele>536.1</ele>
        <time>2022-06-29T12:53:02Z</time>
      </trkpt>
      <trkpt lat="47.8512" lon="6.65784">
        <ele>537.3</ele>
        <time>2022-06-29T12:53:07Z</time>
      </trkpt>
      <trkpt lat="47.85118" lon="6.6579">
        <ele>538.4</ele>
        <time>2022-06-29T12:53:13Z</time>
      </trkpt>
      <trkpt lat="47.85116" lon="6.65797">
        <ele>539.4</ele>
        <time>2022-06-29T12:53:19Z</time>
      </trkpt>
      <trkpt lat="47.85113" lon="6.65803">
        <ele>539.4</ele>
        <time>2022-06-29T12:53:24Z</time>
      </trkpt>
      <trkpt lat="47.8511" lon="6.65809">
        <ele>539.1</ele>
        <time>2022-06-29T12:53:27Z</time>
      </trkpt>
      <trkpt lat="47.85109" lon="6.65816">
        <ele>538.3</ele>
        <time>2022-06-29T12:53:33Z</time>
      </trkpt>
      <trkpt lat="47.85107" lon="6.65823">
        <ele>537.2</ele>
        <time>2022-06-29T12:53:38Z</time>
      </trkpt>
      <trkpt lat="47.85108" lon="6.6583">
        <ele>536.1</ele>
        <time>2022-06-29T12:53:44Z</time>
      </trkpt>
      <trkpt lat="47.85108" lon="6.65837">
        <ele>535.9</ele>
        <time>2022-06-29T12:53:48Z</time>
      </trkpt>
      <trkpt lat="47.8511" lon="6.65843">
        <ele>536.3</ele>
        <time>2022-06-29T12:53:54Z</time>
      </trkpt>
      <trkpt lat="47.85112" lon="6.6585">
        <ele>537.3</ele>
        <time>2022-06-29T12:53:59Z</time>
      </trkpt>
      <trkpt lat="47.85113" lon="6.65857">
        <ele>537.9</ele>
        <time>2022-06-29T12:54:04Z</time>
      </trkpt>
      <trkpt lat="47.85113" lon="6.65864">
        <ele>539.2</ele>
        <time>2022-06-29T12:54:12Z</time>
      </trkpt>
      <trkpt lat="47.85112" lon="6.65872">
        <ele>539.6</ele>
        <time>2022-06-29T12:54:17Z</time>
      </trkpt>
      <trkpt lat="47.8511" lon="6.65878">
        <ele>539.9</ele>
        <time>2022-06-29T12:54:21Z</time>
      </trkpt>
      <trkpt lat="47.85108" lon="6.65886">
        <ele>539.9</ele>
        <time>2022-06-29T12:54:26Z</time>
      </trkpt>
      <trkpt lat="47.85106" lon="6.65893">
        <ele>539.4</ele>
        <time>2022-06-29T12:54:30Z</time>
      </trkpt>
      <trkpt lat="47.85106" lon="6.659">
        <ele>538.8</ele>
        <time>2022-06-29T12:54:36Z</time>
      </trkpt>
      <trkpt lat="47.85106" lon="6.65908">
        <ele>537.8</ele>
        <time>2022-06-29T12:54:42Z</time>
      </trkpt>
      <trkpt lat="47.85106" lon="6.65917">
        <ele>536.3</ele>
        <time>2022-06-29T12:54:47Z</time>
      </trkpt>
      <trkpt lat="47.85106" lon="6.65925">
        <ele>534</ele>
        <time>2022-06-29T12:54:52Z</time>
      </trkpt>
      <trkpt lat="47.85106" lon="6.65932">
        <ele>532.4</ele>
        <time>2022-06-29T12:54:57Z</time>
      </trkpt>
      <trkpt lat="47.85104" lon="6.6594">
        <ele>531</ele>
        <time>2022-06-29T12:55:03Z</time>
      </trkpt>
      <trkpt lat="47.85102" lon="6.65947">
        <ele>529.4</ele>
        <time>2022-06-29T12:55:09Z</time>
      </trkpt>
      <trkpt lat="47.851" lon="6.65954">
        <ele>528.1</ele>
        <time>2022-06-29T12:55:13Z</time>
      </trkpt>
      <trkpt lat="47.85099" lon="6.65961">
        <ele>526.8</ele>
        <time>2022-06-29T12:55:17Z</time>
      </trkpt>
      <trkpt lat="47.85098" lon="6.65967">
        <ele>525.5</ele>
        <time>2022-06-29T12:55:21Z</time>
      </trkpt>
      <trkpt lat="47.85097" lon="6.65974">
        <ele>524.6</ele>
        <time>2022-06-29T12:55:25Z</time>
      </trkpt>
      <trkpt lat="47.85099" lon="6.65981">
        <ele>524.1</ele>
        <time>2022-06-29T12:55:29Z</time>
      </trkpt>
      <trkpt lat="47.85101" lon="6.65988">
        <ele>523.8</ele>
        <time>2022-06-29T12:55:36Z</time>
      </trkpt>
      <trkpt lat="47.85098" lon="6.65994">
        <ele>522.6</ele>
        <time>2022-06-29T12:55:43Z</time>
      </trkpt>
      <trkpt lat="47.85099" lon="6.66002">
        <ele>522.2</ele>
        <time>2022-06-29T12:55:47Z</time>
      </trkpt>
      <trkpt lat="47.85099" lon="6.6601">
        <ele>522</ele>
        <time>2022-06-29T12:55:52Z</time>
      </trkpt>
      <trkpt lat="47.85098" lon="6.66017">
        <ele>522.4</ele>
        <time>2022-06-29T12:55:57Z</time>
      </trkpt>
      <trkpt lat="47.85099" lon="6.66024">
        <ele>522.1</ele>
        <time>2022-06-29T12:56:02Z</time>
      </trkpt>
      <trkpt lat="47.85099" lon="6.66032">
        <ele>521.1</ele>
        <time>2022-06-29T12:56:07Z</time>
      </trkpt>
      <trkpt lat="47.85099" lon="6.66039">
        <ele>520.5</ele>
        <time>2022-06-29T12:56:11Z</time>
      </trkpt>
      <trkpt lat="47.85097" lon="6.66047">
        <ele>520.7</ele>
        <time>2022-06-29T12:56:27Z</time>
      </trkpt>
      <trkpt lat="47.85096" lon="6.66055">
        <ele>520.5</ele>
        <time>2022-06-29T12:56:31Z</time>
      </trkpt>
      <trkpt lat="47.85095" lon="6.66062">
        <ele>520.2</ele>
        <time>2022-06-29T12:56:34Z</time>
      </trkpt>
      <trkpt lat="47.85095" lon="6.6607">
        <ele>520.7</ele>
        <time>2022-06-29T12:56:38Z</time>
      </trkpt>
      <trkpt lat="47.85094" lon="6.66077">
        <ele>522.4</ele>
        <time>2022-06-29T12:56:44Z</time>
      </trkpt>
      <trkpt lat="47.85094" lon="6.66085">
        <ele>525</ele>
        <time>2022-06-29T12:56:50Z</time>
      </trkpt>
      <trkpt lat="47.85094" lon="6.66093">
        <ele>526.7</ele>
        <time>2022-06-29T12:56:54Z</time>
      </trkpt>
      <trkpt lat="47.85093" lon="6.661">
        <ele>527.8</ele>
        <time>2022-06-29T12:56:59Z</time>
      </trkpt>
      <trkpt lat="47.85096" lon="6.66106">
        <ele>528.1</ele>
        <time>2022-06-29T12:57:05Z</time>
      </trkpt>
      <trkpt lat="47.85099" lon="6.66112">
        <ele>528.2</ele>
        <time>2022-06-29T12:57:09Z</time>
      </trkpt>
      <trkpt lat="47.85101" lon="6.66118">
        <ele>528.1</ele>
        <time>2022-06-29T12:57:14Z</time>
      </trkpt>
      <trkpt lat="47.851" lon="6.66125">
        <ele>527.6</ele>
        <time>2022-06-29T12:57:18Z</time>
      </trkpt>
      <trkpt lat="47.851" lon="6.66132">
        <ele>527.2</ele>
        <time>2022-06-29T12:57:23Z</time>
      </trkpt>
      <trkpt lat="47.85101" lon="6.66139">
        <ele>526.3</ele>
        <time>2022-06-29T12:57:29Z</time>
      </trkpt>
      <trkpt lat="47.85101" lon="6.66147">
        <ele>525.4</ele>
        <time>2022-06-29T12:57:33Z</time>
      </trkpt>
      <trkpt lat="47.85101" lon="6.66154">
        <ele>524.9</ele>
        <time>2022-06-29T12:57:37Z</time>
      </trkpt>
      <trkpt lat="47.85101" lon="6.66162">
        <ele>524.8</ele>
        <time>2022-06-29T12:57:41Z</time>
      </trkpt>
      <trkpt lat="47.851" lon="6.66171">
        <ele>524.9</ele>
        <time>2022-06-29T12:57:45Z</time>
      </trkpt>
      <trkpt lat="47.851" lon="6.66179">
        <ele>525.2</ele>
        <time>2022-06-29T12:57:48Z</time>
      </trkpt>
      <trkpt lat="47.85101" lon="6.66187">
        <ele>525.5</ele>
        <time>2022-06-29T12:57:52Z</time>
      </trkpt>
      <trkpt lat="47.851" lon="6.66197">
        <ele>525.7</ele>
        <time>2022-06-29T12:57:55Z</time>
      </trkpt>
      <trkpt lat="47.85096" lon="6.66206">
        <ele>526</ele>
        <time>2022-06-29T12:57:58Z</time>
      </trkpt>
      <trkpt lat="47.85093" lon="6.66212">
        <ele>526.5</ele>
        <time>2022-06-29T12:58:01Z</time>
      </trkpt>
      <trkpt lat="47.85089" lon="6.66216">
        <ele>527.5</ele>
        <time>2022-06-29T12:58:06Z</time>
      </trkpt>
      <trkpt lat="47.85084" lon="6.66221">
        <ele>528.7</ele>
        <time>2022-06-29T12:58:11Z</time>
      </trkpt>
      <trkpt lat="47.8508" lon="6.66224">
        <ele>529.7</ele>
        <time>2022-06-29T12:58:14Z</time>
      </trkpt>
      <trkpt lat="47.85074" lon="6.66227">
        <ele>531.2</ele>
        <time>2022-06-29T12:58:17Z</time>
      </trkpt>
      <trkpt lat="47.8507" lon="6.66232">
        <ele>533.1</ele>
        <time>2022-06-29T12:58:20Z</time>
      </trkpt>
      <trkpt lat="47.85066" lon="6.66236">
        <ele>535.3</ele>
        <time>2022-06-29T12:58:23Z</time>
      </trkpt>
      <trkpt lat="47.85061" lon="6.66239">
        <ele>538.7</ele>
        <time>2022-06-29T12:58:27Z</time>
      </trkpt>
      <trkpt lat="47.85057" lon="6.66243">
        <ele>542.9</ele>
        <time>2022-06-29T12:58:32Z</time>
      </trkpt>
      <trkpt lat="47.85053" lon="6.66247">
        <ele>546.6</ele>
        <time>2022-06-29T12:58:37Z</time>
      </trkpt>
      <trkpt lat="47.85049" lon="6.6625">
        <ele>548.9</ele>
        <time>2022-06-29T12:58:41Z</time>
      </trkpt>
      <trkpt lat="47.85044" lon="6.66252">
        <ele>550.3</ele>
        <time>2022-06-29T12:58:45Z</time>
      </trkpt>
      <trkpt lat="47.8504" lon="6.66255">
        <ele>551.3</ele>
        <time>2022-06-29T12:58:50Z</time>
      </trkpt>
      <trkpt lat="47.8504" lon="6.66263">
        <ele>552.2</ele>
        <time>2022-06-29T12:58:54Z</time>
      </trkpt>
      <trkpt lat="47.85039" lon="6.6627">
        <ele>553</ele>
        <time>2022-06-29T12:58:58Z</time>
      </trkpt>
      <trkpt lat="47.85039" lon="6.66279">
        <ele>553.3</ele>
        <time>2022-06-29T12:59:02Z</time>
      </trkpt>
      <trkpt lat="47.85039" lon="6.66287">
        <ele>553.1</ele>
        <time>2022-06-29T12:59:07Z</time>
      </trkpt>
      <trkpt lat="47.8504" lon="6.66294">
        <ele>552.4</ele>
        <time>2022-06-29T12:59:11Z</time>
      </trkpt>
      <trkpt lat="47.85039" lon="6.66302">
        <ele>551.5</ele>
        <time>2022-06-29T12:59:15Z</time>
      </trkpt>
      <trkpt lat="47.85036" lon="6.66307">
        <ele>550.2</ele>
        <time>2022-06-29T12:59:20Z</time>
      </trkpt>
      <trkpt lat="47.85034" lon="6.66314">
        <ele>548.7</ele>
        <time>2022-06-29T12:59:26Z</time>
      </trkpt>
      <trkpt lat="47.85033" lon="6.66321">
        <ele>548.1</ele>
        <time>2022-06-29T12:59:31Z</time>
      </trkpt>
      <trkpt lat="47.85032" lon="6.66328">
        <ele>547.9</ele>
        <time>2022-06-29T12:59:36Z</time>
      </trkpt>
      <trkpt lat="47.85031" lon="6.66335">
        <ele>548.1</ele>
        <time>2022-06-29T12:59:41Z</time>
      </trkpt>
      <trkpt lat="47.8503" lon="6.66342">
        <ele>548</ele>
        <time>2022-06-29T12:59:46Z</time>
      </trkpt>
      <trkpt lat="47.85029" lon="6.66349">
        <ele>548</ele>
        <time>2022-06-29T12:59:51Z</time>
      </trkpt>
      <trkpt lat="47.85027" lon="6.66355">
        <ele>548.3</ele>
        <time>2022-06-29T12:59:56Z</time>
      </trkpt>
      <trkpt lat="47.85026" lon="6.66363">
        <ele>548.2</ele>
        <time>2022-06-29T13:00:01Z</time>
      </trkpt>
      <trkpt lat="47.85027" lon="6.66372">
        <ele>547.9</ele>
        <time>2022-06-29T13:00:05Z</time>
      </trkpt>
      <trkpt lat="47.85026" lon="6.6638">
        <ele>547.6</ele>
        <time>2022-06-29T13:00:10Z</time>
      </trkpt>
      <trkpt lat="47.85026" lon="6.66387">
        <ele>547.4</ele>
        <time>2022-06-29T13:00:14Z</time>
      </trkpt>
      <trkpt lat="47.85027" lon="6.66394">
        <ele>547.4</ele>
        <time>2022-06-29T13:00:18Z</time>
      </trkpt>
      <trkpt lat="47.85029" lon="6.66402">
        <ele>547.1</ele>
        <time>2022-06-29T13:00:23Z</time>
      </trkpt>
      <trkpt lat="47.85031" lon="6.66409">
        <ele>546.9</ele>
        <time>2022-06-29T13:00:28Z</time>
      </trkpt>
      <trkpt lat="47.85033" lon="6.66415">
        <ele>546.6</ele>
        <time>2022-06-29T13:00:31Z</time>
      </trkpt>
      <trkpt lat="47.85037" lon="6.66418">
        <ele>546.7</ele>
        <time>2022-06-29T13:00:34Z</time>
      </trkpt>
      <trkpt lat="47.85041" lon="6.66416">
        <ele>547</ele>
        <time>2022-06-29T13:00:40Z</time>
      </trkpt>
      <trkpt lat="47.85046" lon="6.66418">
        <ele>546.6</ele>
        <time>2022-06-29T13:00:48Z</time>
      </trkpt>
      <trkpt lat="47.85049" lon="6.66425">
        <ele>546.7</ele>
        <time>2022-06-29T13:00:54Z</time>
      </trkpt>
      <trkpt lat="47.85052" lon="6.66432">
        <ele>546.6</ele>
        <time>2022-06-29T13:00:57Z</time>
      </trkpt>
      <trkpt lat="47.85054" lon="6.66438">
        <ele>547</ele>
        <time>2022-06-29T13:01:00Z</time>
      </trkpt>
      <trkpt lat="47.85058" lon="6.66445">
        <ele>547.6</ele>
        <time>2022-06-29T13:01:04Z</time>
      </trkpt>
      <trkpt lat="47.85062" lon="6.66449">
        <ele>548.3</ele>
        <time>2022-06-29T13:01:07Z</time>
      </trkpt>
      <trkpt lat="47.85067" lon="6.66453">
        <ele>548.9</ele>
        <time>2022-06-29T13:01:11Z</time>
      </trkpt>
      <trkpt lat="47.85072" lon="6.66457">
        <ele>549.8</ele>
        <time>2022-06-29T13:01:14Z</time>
      </trkpt>
      <trkpt lat="47.85077" lon="6.66459">
        <ele>551</ele>
        <time>2022-06-29T13:01:17Z</time>
      </trkpt>
      <trkpt lat="47.85081" lon="6.66461">
        <ele>552.2</ele>
        <time>2022-06-29T13:01:21Z</time>
      </trkpt>
      <trkpt lat="47.85086" lon="6.66464">
        <ele>553.2</ele>
        <time>2022-06-29T13:01:26Z</time>
      </trkpt>
      <trkpt lat="47.8509" lon="6.66469">
        <ele>554.4</ele>
        <time>2022-06-29T13:01:31Z</time>
      </trkpt>
      <trkpt lat="47.85094" lon="6.66474">
        <ele>555.4</ele>
        <time>2022-06-29T13:01:35Z</time>
      </trkpt>
      <trkpt lat="47.85098" lon="6.66477">
        <ele>556.3</ele>
        <time>2022-06-29T13:01:40Z</time>
      </trkpt>
      <trkpt lat="47.85102" lon="6.66482">
        <ele>557.1</ele>
        <time>2022-06-29T13:01:44Z</time>
      </trkpt>
      <trkpt lat="47.85105" lon="6.66488">
        <ele>557.6</ele>
        <time>2022-06-29T13:01:47Z</time>
      </trkpt>
      <trkpt lat="47.8511" lon="6.66492">
        <ele>558.2</ele>
        <time>2022-06-29T13:01:52Z</time>
      </trkpt>
      <trkpt lat="47.85114" lon="6.66497">
        <ele>558.4</ele>
        <time>2022-06-29T13:01:58Z</time>
      </trkpt>
      <trkpt lat="47.85118" lon="6.66502">
        <ele>558.7</ele>
        <time>2022-06-29T13:02:02Z</time>
      </trkpt>
      <trkpt lat="47.8512" lon="6.66507">
        <ele>558.9</ele>
        <time>2022-06-29T13:02:05Z</time>
      </trkpt>
      <trkpt lat="47.85123" lon="6.66513">
        <ele>558.9</ele>
        <time>2022-06-29T13:02:08Z</time>
      </trkpt>
      <trkpt lat="47.85126" lon="6.66521">
        <ele>558.6</ele>
        <time>2022-06-29T13:02:12Z</time>
      </trkpt>
      <trkpt lat="47.85129" lon="6.66525">
        <ele>558.3</ele>
        <time>2022-06-29T13:02:17Z</time>
      </trkpt>
      <trkpt lat="47.85134" lon="6.66528">
        <ele>558.6</ele>
        <time>2022-06-29T13:02:22Z</time>
      </trkpt>
      <trkpt lat="47.85139" lon="6.6653">
        <ele>559.5</ele>
        <time>2022-06-29T13:02:28Z</time>
      </trkpt>
      <trkpt lat="47.85144" lon="6.66531">
        <ele>559.7</ele>
        <time>2022-06-29T13:02:32Z</time>
      </trkpt>
      <trkpt lat="47.85148" lon="6.66535">
        <ele>559.4</ele>
        <time>2022-06-29T13:02:36Z</time>
      </trkpt>
      <trkpt lat="47.85151" lon="6.66542">
        <ele>559.3</ele>
        <time>2022-06-29T13:02:40Z</time>
      </trkpt>
      <trkpt lat="47.85153" lon="6.66548">
        <ele>559.3</ele>
        <time>2022-06-29T13:02:45Z</time>
      </trkpt>
      <trkpt lat="47.85157" lon="6.66551">
        <ele>559.4</ele>
        <time>2022-06-29T13:02:51Z</time>
      </trkpt>
      <trkpt lat="47.85161" lon="6.66555">
        <ele>559.2</ele>
        <time>2022-06-29T13:02:55Z</time>
      </trkpt>
      <trkpt lat="47.85164" lon="6.66561">
        <ele>559</ele>
        <time>2022-06-29T13:03:00Z</time>
      </trkpt>
      <trkpt lat="47.85168" lon="6.66567">
        <ele>558.6</ele>
        <time>2022-06-29T13:03:04Z</time>
      </trkpt>
      <trkpt lat="47.85171" lon="6.66572">
        <ele>558.4</ele>
        <time>2022-06-29T13:03:07Z</time>
      </trkpt>
      <trkpt lat="47.85175" lon="6.66577">
        <ele>558.3</ele>
        <time>2022-06-29T13:03:10Z</time>
      </trkpt>
      <trkpt lat="47.85178" lon="6.66582">
        <ele>558.2</ele>
        <time>2022-06-29T13:03:13Z</time>
      </trkpt>
      <trkpt lat="47.85182" lon="6.66585">
        <ele>557.9</ele>
        <time>2022-06-29T13:03:17Z</time>
      </trkpt>
      <trkpt lat="47.85186" lon="6.6659">
        <ele>557.8</ele>
        <time>2022-06-29T13:03:22Z</time>
      </trkpt>
      <trkpt lat="47.85188" lon="6.66597">
        <ele>557.8</ele>
        <time>2022-06-29T13:03:25Z</time>
      </trkpt>
      <trkpt lat="47.85192" lon="6.66602">
        <ele>557.5</ele>
        <time>2022-06-29T13:03:29Z</time>
      </trkpt>
      <trkpt lat="47.85195" lon="6.66607">
        <ele>557.1</ele>
        <time>2022-06-29T13:03:33Z</time>
      </trkpt>
      <trkpt lat="47.85198" lon="6.66613">
        <ele>556.9</ele>
        <time>2022-06-29T13:03:37Z</time>
      </trkpt>
      <trkpt lat="47.85202" lon="6.66618">
        <ele>556.5</ele>
        <time>2022-06-29T13:03:42Z</time>
      </trkpt>
      <trkpt lat="47.85206" lon="6.66623">
        <ele>556.6</ele>
        <time>2022-06-29T13:03:49Z</time>
      </trkpt>
      <trkpt lat="47.85211" lon="6.66624">
        <ele>557.3</ele>
        <time>2022-06-29T13:03:54Z</time>
      </trkpt>
      <trkpt lat="47.85215" lon="6.66629">
        <ele>557.7</ele>
        <time>2022-06-29T13:03:58Z</time>
      </trkpt>
      <trkpt lat="47.85218" lon="6.66636">
        <ele>557.7</ele>
        <time>2022-06-29T13:04:01Z</time>
      </trkpt>
      <trkpt lat="47.85223" lon="6.6664">
        <ele>557.2</ele>
        <time>2022-06-29T13:04:07Z</time>
      </trkpt>
      <trkpt lat="47.85224" lon="6.66648">
        <ele>557.8</ele>
        <time>2022-06-29T13:04:12Z</time>
      </trkpt>
      <trkpt lat="47.85227" lon="6.66656">
        <ele>558.8</ele>
        <time>2022-06-29T13:04:16Z</time>
      </trkpt>
      <trkpt lat="47.85231" lon="6.6666">
        <ele>559.7</ele>
        <time>2022-06-29T13:04:19Z</time>
      </trkpt>
      <trkpt lat="47.85235" lon="6.66665">
        <ele>560.8</ele>
        <time>2022-06-29T13:04:23Z</time>
      </trkpt>
      <trkpt lat="47.85238" lon="6.66673">
        <ele>562</ele>
        <time>2022-06-29T13:04:27Z</time>
      </trkpt>
      <trkpt lat="47.85241" lon="6.66679">
        <ele>563.5</ele>
        <time>2022-06-29T13:04:31Z</time>
      </trkpt>
      <trkpt lat="47.85243" lon="6.66685">
        <ele>564.7</ele>
        <time>2022-06-29T13:04:34Z</time>
      </trkpt>
      <trkpt lat="47.85246" lon="6.6669">
        <ele>565.9</ele>
        <time>2022-06-29T13:04:37Z</time>
      </trkpt>
      <trkpt lat="47.8525" lon="6.66696">
        <ele>567.3</ele>
        <time>2022-06-29T13:04:41Z</time>
      </trkpt>
      <trkpt lat="47.85253" lon="6.66702">
        <ele>568.6</ele>
        <time>2022-06-29T13:04:46Z</time>
      </trkpt>
      <trkpt lat="47.85256" lon="6.66708">
        <ele>569.1</ele>
        <time>2022-06-29T13:04:50Z</time>
      </trkpt>
      <trkpt lat="47.8526" lon="6.66713">
        <ele>569.2</ele>
        <time>2022-06-29T13:04:54Z</time>
      </trkpt>
      <trkpt lat="47.85263" lon="6.66718">
        <ele>569.6</ele>
        <time>2022-06-29T13:04:58Z</time>
      </trkpt>
      <trkpt lat="47.85268" lon="6.66722">
        <ele>570.3</ele>
        <time>2022-06-29T13:05:02Z</time>
      </trkpt>
      <trkpt lat="47.85272" lon="6.66726">
        <ele>571.4</ele>
        <time>2022-06-29T13:05:06Z</time>
      </trkpt>
      <trkpt lat="47.85276" lon="6.66731">
        <ele>572.6</ele>
        <time>2022-06-29T13:05:10Z</time>
      </trkpt>
      <trkpt lat="47.8528" lon="6.66736">
        <ele>574.3</ele>
        <time>2022-06-29T13:05:15Z</time>
      </trkpt>
      <trkpt lat="47.85282" lon="6.66742">
        <ele>575.8</ele>
        <time>2022-06-29T13:05:20Z</time>
      </trkpt>
      <trkpt lat="47.85285" lon="6.66748">
        <ele>576.1</ele>
        <time>2022-06-29T13:05:25Z</time>
      </trkpt>
      <trkpt lat="47.85288" lon="6.66752">
        <ele>576</ele>
        <time>2022-06-29T13:05:29Z</time>
      </trkpt>
      <trkpt lat="47.85292" lon="6.66756">
        <ele>575.9</ele>
        <time>2022-06-29T13:05:33Z</time>
      </trkpt>
      <trkpt lat="47.85296" lon="6.66761">
        <ele>575.6</ele>
        <time>2022-06-29T13:05:37Z</time>
      </trkpt>
      <trkpt lat="47.853" lon="6.66768">
        <ele>575.6</ele>
        <time>2022-06-29T13:05:41Z</time>
      </trkpt>
      <trkpt lat="47.85303" lon="6.66773">
        <ele>576.3</ele>
        <time>2022-06-29T13:05:47Z</time>
      </trkpt>
      <trkpt lat="47.85307" lon="6.66777">
        <ele>576.7</ele>
        <time>2022-06-29T13:05:51Z</time>
      </trkpt>
      <trkpt lat="47.8531" lon="6.66783">
        <ele>576.6</ele>
        <time>2022-06-29T13:05:55Z</time>
      </trkpt>
      <trkpt lat="47.85314" lon="6.66787">
        <ele>576</ele>
        <time>2022-06-29T13:05:59Z</time>
      </trkpt>
      <trkpt lat="47.85318" lon="6.66791">
        <ele>575.4</ele>
        <time>2022-06-29T13:06:03Z</time>
      </trkpt>
      <trkpt lat="47.8532" lon="6.66797">
        <ele>575.2</ele>
        <time>2022-06-29T13:06:07Z</time>
      </trkpt>
      <trkpt lat="47.85323" lon="6.66803">
        <ele>574.6</ele>
        <time>2022-06-29T13:06:11Z</time>
      </trkpt>
      <trkpt lat="47.85324" lon="6.6681">
        <ele>573.8</ele>
        <time>2022-06-29T13:06:15Z</time>
      </trkpt>
      <trkpt lat="47.85326" lon="6.66817">
        <ele>572.7</ele>
        <time>2022-06-29T13:06:19Z</time>
      </trkpt>
      <trkpt lat="47.85329" lon="6.66824">
        <ele>571.7</ele>
        <time>2022-06-29T13:06:23Z</time>
      </trkpt>
      <trkpt lat="47.85331" lon="6.6683">
        <ele>570.8</ele>
        <time>2022-06-29T13:06:29Z</time>
      </trkpt>
      <trkpt lat="47.85334" lon="6.66836">
        <ele>569.8</ele>
        <time>2022-06-29T13:06:36Z</time>
      </trkpt>
      <trkpt lat="47.85336" lon="6.66842">
        <ele>569.1</ele>
        <time>2022-06-29T13:06:41Z</time>
      </trkpt>
      <trkpt lat="47.85339" lon="6.6685">
        <ele>568.6</ele>
        <time>2022-06-29T13:06:46Z</time>
      </trkpt>
      <trkpt lat="47.85342" lon="6.66857">
        <ele>568.7</ele>
        <time>2022-06-29T13:06:50Z</time>
      </trkpt>
      <trkpt lat="47.85345" lon="6.66862">
        <ele>568.3</ele>
        <time>2022-06-29T13:06:54Z</time>
      </trkpt>
      <trkpt lat="47.85348" lon="6.66867">
        <ele>567.6</ele>
        <time>2022-06-29T13:07:01Z</time>
      </trkpt>
      <trkpt lat="47.85351" lon="6.66873">
        <ele>566.3</ele>
        <time>2022-06-29T13:07:06Z</time>
      </trkpt>
      <trkpt lat="47.85355" lon="6.66877">
        <ele>565.6</ele>
        <time>2022-06-29T13:07:10Z</time>
      </trkpt>
      <trkpt lat="47.85358" lon="6.66882">
        <ele>565.2</ele>
        <time>2022-06-29T13:07:14Z</time>
      </trkpt>
      <trkpt lat="47.85362" lon="6.66886">
        <ele>564.6</ele>
        <time>2022-06-29T13:07:18Z</time>
      </trkpt>
      <trkpt lat="47.85365" lon="6.66892">
        <ele>563.9</ele>
        <time>2022-06-29T13:07:25Z</time>
      </trkpt>
      <trkpt lat="47.85368" lon="6.66898">
        <ele>563.9</ele>
        <time>2022-06-29T13:07:31Z</time>
      </trkpt>
      <trkpt lat="47.85372" lon="6.66902">
        <ele>564</ele>
        <time>2022-06-29T13:07:35Z</time>
      </trkpt>
      <trkpt lat="47.85376" lon="6.66906">
        <ele>564.3</ele>
        <time>2022-06-29T13:07:38Z</time>
      </trkpt>
      <trkpt lat="47.8538" lon="6.6691">
        <ele>564.6</ele>
        <time>2022-06-29T13:07:41Z</time>
      </trkpt>
      <trkpt lat="47.85385" lon="6.66913">
        <ele>564.8</ele>
        <time>2022-06-29T13:07:45Z</time>
      </trkpt>
      <trkpt lat="47.8539" lon="6.66915">
        <ele>565.6</ele>
        <time>2022-06-29T13:07:51Z</time>
      </trkpt>
      <trkpt lat="47.85394" lon="6.66917">
        <ele>566.6</ele>
        <time>2022-06-29T13:07:57Z</time>
      </trkpt>
      <trkpt lat="47.85399" lon="6.66917">
        <ele>567.5</ele>
        <time>2022-06-29T13:08:01Z</time>
      </trkpt>
      <trkpt lat="47.85404" lon="6.66919">
        <ele>569.3</ele>
        <time>2022-06-29T13:08:07Z</time>
      </trkpt>
      <trkpt lat="47.85407" lon="6.66924">
        <ele>571.3</ele>
        <time>2022-06-29T13:08:18Z</time>
      </trkpt>
      <trkpt lat="47.85411" lon="6.66924">
        <ele>573.2</ele>
        <time>2022-06-29T13:08:50Z</time>
      </trkpt>
      <trkpt lat="47.85416" lon="6.66924">
        <ele>573.3</ele>
        <time>2022-06-29T13:08:53Z</time>
      </trkpt>
      <trkpt lat="47.8542" lon="6.66927">
        <ele>571.8</ele>
        <time>2022-06-29T13:09:06Z</time>
      </trkpt>
      <trkpt lat="47.85424" lon="6.66932">
        <ele>571.7</ele>
        <time>2022-06-29T13:09:11Z</time>
      </trkpt>
      <trkpt lat="47.85428" lon="6.66936">
        <ele>572.1</ele>
        <time>2022-06-29T13:09:16Z</time>
      </trkpt>
      <trkpt lat="47.85432" lon="6.6694">
        <ele>572.7</ele>
        <time>2022-06-29T13:09:22Z</time>
      </trkpt>
      <trkpt lat="47.85436" lon="6.66944">
        <ele>573.5</ele>
        <time>2022-06-29T13:09:28Z</time>
      </trkpt>
      <trkpt lat="47.8544" lon="6.6695">
        <ele>573.8</ele>
        <time>2022-06-29T13:09:33Z</time>
      </trkpt>
      <trkpt lat="47.85443" lon="6.66955">
        <ele>574.1</ele>
        <time>2022-06-29T13:09:37Z</time>
      </trkpt>
      <trkpt lat="47.85447" lon="6.66961">
        <ele>574.8</ele>
        <time>2022-06-29T13:09:42Z</time>
      </trkpt>
      <trkpt lat="47.8545" lon="6.66966">
        <ele>575.6</ele>
        <time>2022-06-29T13:09:46Z</time>
      </trkpt>
      <trkpt lat="47.85454" lon="6.66973">
        <ele>576.4</ele>
        <time>2022-06-29T13:09:51Z</time>
      </trkpt>
      <trkpt lat="47.85457" lon="6.66981">
        <ele>576.8</ele>
        <time>2022-06-29T13:09:55Z</time>
      </trkpt>
      <trkpt lat="47.85459" lon="6.66987">
        <ele>576.7</ele>
        <time>2022-06-29T13:09:58Z</time>
      </trkpt>
      <trkpt lat="47.85461" lon="6.66993">
        <ele>576.3</ele>
        <time>2022-06-29T13:10:02Z</time>
      </trkpt>
      <trkpt lat="47.85466" lon="6.66996">
        <ele>576.3</ele>
        <time>2022-06-29T13:10:10Z</time>
      </trkpt>
      <trkpt lat="47.85471" lon="6.66998">
        <ele>577.4</ele>
        <time>2022-06-29T13:10:15Z</time>
      </trkpt>
      <trkpt lat="47.85475" lon="6.67002">
        <ele>578.9</ele>
        <time>2022-06-29T13:10:20Z</time>
      </trkpt>
      <trkpt lat="47.85479" lon="6.67008">
        <ele>580</ele>
        <time>2022-06-29T13:10:25Z</time>
      </trkpt>
      <trkpt lat="47.85483" lon="6.67014">
        <ele>581</ele>
        <time>2022-06-29T13:10:30Z</time>
      </trkpt>
      <trkpt lat="47.85487" lon="6.67017">
        <ele>582.5</ele>
        <time>2022-06-29T13:10:36Z</time>
      </trkpt>
      <trkpt lat="47.85491" lon="6.67021">
        <ele>583</ele>
        <time>2022-06-29T13:10:41Z</time>
      </trkpt>
      <trkpt lat="47.85495" lon="6.67025">
        <ele>583.2</ele>
        <time>2022-06-29T13:10:45Z</time>
      </trkpt>
      <trkpt lat="47.855" lon="6.67028">
        <ele>583.9</ele>
        <time>2022-06-29T13:10:48Z</time>
      </trkpt>
      <trkpt lat="47.85504" lon="6.67029">
        <ele>584.9</ele>
        <time>2022-06-29T13:10:51Z</time>
      </trkpt>
      <trkpt lat="47.85509" lon="6.6703">
        <ele>585.9</ele>
        <time>2022-06-29T13:10:54Z</time>
      </trkpt>
      <trkpt lat="47.85514" lon="6.67033">
        <ele>587.1</ele>
        <time>2022-06-29T13:10:58Z</time>
      </trkpt>
      <trkpt lat="47.85518" lon="6.67035">
        <ele>589.1</ele>
        <time>2022-06-29T13:11:04Z</time>
      </trkpt>
      <trkpt lat="47.85523" lon="6.67038">
        <ele>591.1</ele>
        <time>2022-06-29T13:11:10Z</time>
      </trkpt>
      <trkpt lat="47.85528" lon="6.67043">
        <ele>592</ele>
        <time>2022-06-29T13:11:14Z</time>
      </trkpt>
      <trkpt lat="47.85533" lon="6.67044">
        <ele>592.9</ele>
        <time>2022-06-29T13:11:18Z</time>
      </trkpt>
      <trkpt lat="47.85538" lon="6.67046">
        <ele>593.8</ele>
        <time>2022-06-29T13:11:22Z</time>
      </trkpt>
      <trkpt lat="47.85543" lon="6.6705">
        <ele>594.5</ele>
        <time>2022-06-29T13:11:26Z</time>
      </trkpt>
      <trkpt lat="47.85547" lon="6.67056">
        <ele>595.5</ele>
        <time>2022-06-29T13:11:30Z</time>
      </trkpt>
      <trkpt lat="47.8555" lon="6.67061">
        <ele>596.5</ele>
        <time>2022-06-29T13:11:34Z</time>
      </trkpt>
      <trkpt lat="47.85555" lon="6.67064">
        <ele>597.4</ele>
        <time>2022-06-29T13:11:38Z</time>
      </trkpt>
      <trkpt lat="47.85559" lon="6.67067">
        <ele>598.1</ele>
        <time>2022-06-29T13:11:46Z</time>
      </trkpt>
      <trkpt lat="47.85562" lon="6.67072">
        <ele>597.5</ele>
        <time>2022-06-29T13:11:51Z</time>
      </trkpt>
      <trkpt lat="47.85565" lon="6.67077">
        <ele>597.3</ele>
        <time>2022-06-29T13:11:55Z</time>
      </trkpt>
      <trkpt lat="47.85569" lon="6.6708">
        <ele>596.3</ele>
        <time>2022-06-29T13:12:01Z</time>
      </trkpt>
      <trkpt lat="47.85573" lon="6.67084">
        <ele>595.2</ele>
        <time>2022-06-29T13:12:05Z</time>
      </trkpt>
      <trkpt lat="47.85578" lon="6.67087">
        <ele>594.5</ele>
        <time>2022-06-29T13:12:10Z</time>
      </trkpt>
      <trkpt lat="47.85583" lon="6.6709">
        <ele>594.6</ele>
        <time>2022-06-29T13:12:14Z</time>
      </trkpt>
      <trkpt lat="47.85587" lon="6.67094">
        <ele>595.5</ele>
        <time>2022-06-29T13:12:18Z</time>
      </trkpt>
      <trkpt lat="47.8559" lon="6.67101">
        <ele>596.2</ele>
        <time>2022-06-29T13:12:23Z</time>
      </trkpt>
      <trkpt lat="47.85591" lon="6.67108">
        <ele>596</ele>
        <time>2022-06-29T13:12:28Z</time>
      </trkpt>
      <trkpt lat="47.85593" lon="6.67114">
        <ele>595</ele>
        <time>2022-06-29T13:12:34Z</time>
      </trkpt>
      <trkpt lat="47.85599" lon="6.67117">
        <ele>594.4</ele>
        <time>2022-06-29T13:12:38Z</time>
      </trkpt>
      <trkpt lat="47.85603" lon="6.67115">
        <ele>594.3</ele>
        <time>2022-06-29T13:12:41Z</time>
      </trkpt>
      <trkpt lat="47.85608" lon="6.67114">
        <ele>594.3</ele>
        <time>2022-06-29T13:12:44Z</time>
      </trkpt>
      <trkpt lat="47.85614" lon="6.67113">
        <ele>594.5</ele>
        <time>2022-06-29T13:12:48Z</time>
      </trkpt>
      <trkpt lat="47.85619" lon="6.67113">
        <ele>594.9</ele>
        <time>2022-06-29T13:12:53Z</time>
      </trkpt>
      <trkpt lat="47.85624" lon="6.67114">
        <ele>595.1</ele>
        <time>2022-06-29T13:12:58Z</time>
      </trkpt>
      <trkpt lat="47.85629" lon="6.67118">
        <ele>595.1</ele>
        <time>2022-06-29T13:13:02Z</time>
      </trkpt>
      <trkpt lat="47.85634" lon="6.67122">
        <ele>594.9</ele>
        <time>2022-06-29T13:13:07Z</time>
      </trkpt>
      <trkpt lat="47.85638" lon="6.67127">
        <ele>594.4</ele>
        <time>2022-06-29T13:13:12Z</time>
      </trkpt>
      <trkpt lat="47.85643" lon="6.67125">
        <ele>589.8</ele>
        <time>2022-06-29T13:13:26Z</time>
      </trkpt>
      <trkpt lat="47.85647" lon="6.67128">
        <ele>588.2</ele>
        <time>2022-06-29T13:13:32Z</time>
      </trkpt>
      <trkpt lat="47.8565" lon="6.67133">
        <ele>586.2</ele>
        <time>2022-06-29T13:13:38Z</time>
      </trkpt>
      <trkpt lat="47.85655" lon="6.67137">
        <ele>585.6</ele>
        <time>2022-06-29T13:13:41Z</time>
      </trkpt>
      <trkpt lat="47.85661" lon="6.67137">
        <ele>585.3</ele>
        <time>2022-06-29T13:13:44Z</time>
      </trkpt>
      <trkpt lat="47.85666" lon="6.67138">
        <ele>585.2</ele>
        <time>2022-06-29T13:13:48Z</time>
      </trkpt>
      <trkpt lat="47.8567" lon="6.67141">
        <ele>584.8</ele>
        <time>2022-06-29T13:13:54Z</time>
      </trkpt>
      <trkpt lat="47.85675" lon="6.67141">
        <ele>585</ele>
        <time>2022-06-29T13:13:58Z</time>
      </trkpt>
      <trkpt lat="47.8568" lon="6.67141">
        <ele>585.5</ele>
        <time>2022-06-29T13:14:01Z</time>
      </trkpt>
      <trkpt lat="47.85685" lon="6.67144">
        <ele>586.4</ele>
        <time>2022-06-29T13:14:05Z</time>
      </trkpt>
      <trkpt lat="47.85689" lon="6.67148">
        <ele>587.2</ele>
        <time>2022-06-29T13:14:08Z</time>
      </trkpt>
      <trkpt lat="47.85693" lon="6.67153">
        <ele>588.4</ele>
        <time>2022-06-29T13:14:12Z</time>
      </trkpt>
      <trkpt lat="47.85697" lon="6.67158">
        <ele>589.4</ele>
        <time>2022-06-29T13:14:19Z</time>
      </trkpt>
      <trkpt lat="47.85703" lon="6.6716">
        <ele>589.9</ele>
        <time>2022-06-29T13:14:23Z</time>
      </trkpt>
      <trkpt lat="47.85707" lon="6.67163">
        <ele>590.7</ele>
        <time>2022-06-29T13:14:27Z</time>
      </trkpt>
      <trkpt lat="47.85709" lon="6.67169">
        <ele>591.6</ele>
        <time>2022-06-29T13:14:31Z</time>
      </trkpt>
      <trkpt lat="47.85714" lon="6.67173">
        <ele>592.3</ele>
        <time>2022-06-29T13:14:35Z</time>
      </trkpt>
      <trkpt lat="47.85718" lon="6.67176">
        <ele>592.8</ele>
        <time>2022-06-29T13:14:42Z</time>
      </trkpt>
      <trkpt lat="47.85723" lon="6.67177">
        <ele>593.3</ele>
        <time>2022-06-29T13:14:47Z</time>
      </trkpt>
      <trkpt lat="47.85727" lon="6.6718">
        <ele>592.8</ele>
        <time>2022-06-29T13:14:53Z</time>
      </trkpt>
      <trkpt lat="47.85731" lon="6.67184">
        <ele>592.5</ele>
        <time>2022-06-29T13:15:01Z</time>
      </trkpt>
      <trkpt lat="47.85734" lon="6.67189">
        <ele>592.9</ele>
        <time>2022-06-29T13:15:08Z</time>
      </trkpt>
      <trkpt lat="47.85739" lon="6.67192">
        <ele>592.8</ele>
        <time>2022-06-29T13:15:13Z</time>
      </trkpt>
      <trkpt lat="47.85743" lon="6.67196">
        <ele>591.6</ele>
        <time>2022-06-29T13:15:19Z</time>
      </trkpt>
      <trkpt lat="47.85748" lon="6.672">
        <ele>590.4</ele>
        <time>2022-06-29T13:15:24Z</time>
      </trkpt>
      <trkpt lat="47.85751" lon="6.67205">
        <ele>589.5</ele>
        <time>2022-06-29T13:15:28Z</time>
      </trkpt>
      <trkpt lat="47.85754" lon="6.67211">
        <ele>589.1</ele>
        <time>2022-06-29T13:15:31Z</time>
      </trkpt>
      <trkpt lat="47.85757" lon="6.67217">
        <ele>588.9</ele>
        <time>2022-06-29T13:15:34Z</time>
      </trkpt>
      <trkpt lat="47.8576" lon="6.67223">
        <ele>588.3</ele>
        <time>2022-06-29T13:15:38Z</time>
      </trkpt>
      <trkpt lat="47.85764" lon="6.67228">
        <ele>587.6</ele>
        <time>2022-06-29T13:15:43Z</time>
      </trkpt>
      <trkpt lat="47.85768" lon="6.67231">
        <ele>587.7</ele>
        <time>2022-06-29T13:15:47Z</time>
      </trkpt>
      <trkpt lat="47.85773" lon="6.67233">
        <ele>588.2</ele>
        <time>2022-06-29T13:15:51Z</time>
      </trkpt>
      <trkpt lat="47.85778" lon="6.67234">
        <ele>588.6</ele>
        <time>2022-06-29T13:15:55Z</time>
      </trkpt>
      <trkpt lat="47.85783" lon="6.67236">
        <ele>589.4</ele>
        <time>2022-06-29T13:16:00Z</time>
      </trkpt>
      <trkpt lat="47.85787" lon="6.67239">
        <ele>590.3</ele>
        <time>2022-06-29T13:16:05Z</time>
      </trkpt>
      <trkpt lat="47.85792" lon="6.67242">
        <ele>591</ele>
        <time>2022-06-29T13:16:10Z</time>
      </trkpt>
      <trkpt lat="47.85796" lon="6.67247">
        <ele>590.9</ele>
        <time>2022-06-29T13:16:15Z</time>
      </trkpt>
      <trkpt lat="47.858" lon="6.67251">
        <ele>590.5</ele>
        <time>2022-06-29T13:16:19Z</time>
      </trkpt>
      <trkpt lat="47.85805" lon="6.67253">
        <ele>590.2</ele>
        <time>2022-06-29T13:16:23Z</time>
      </trkpt>
      <trkpt lat="47.8581" lon="6.67256">
        <ele>589.8</ele>
        <time>2022-06-29T13:16:28Z</time>
      </trkpt>
      <trkpt lat="47.85812" lon="6.67262">
        <ele>589.4</ele>
        <time>2022-06-29T13:16:35Z</time>
      </trkpt>
      <trkpt lat="47.85817" lon="6.67265">
        <ele>589.3</ele>
        <time>2022-06-29T13:16:51Z</time>
      </trkpt>
      <trkpt lat="47.85821" lon="6.67268">
        <ele>589.5</ele>
        <time>2022-06-29T13:17:00Z</time>
      </trkpt>
      <trkpt lat="47.85826" lon="6.67268">
        <ele>589</ele>
        <time>2022-06-29T13:17:05Z</time>
      </trkpt>
      <trkpt lat="47.85831" lon="6.67269">
        <ele>588.4</ele>
        <time>2022-06-29T13:17:10Z</time>
      </trkpt>
      <trkpt lat="47.85836" lon="6.67272">
        <ele>587.8</ele>
        <time>2022-06-29T13:17:15Z</time>
      </trkpt>
      <trkpt lat="47.85841" lon="6.67274">
        <ele>587.8</ele>
        <time>2022-06-29T13:17:20Z</time>
      </trkpt>
      <trkpt lat="47.85845" lon="6.67279">
        <ele>588.2</ele>
        <time>2022-06-29T13:17:25Z</time>
      </trkpt>
      <trkpt lat="47.8585" lon="6.67279">
        <ele>589</ele>
        <time>2022-06-29T13:17:32Z</time>
      </trkpt>
      <trkpt lat="47.85855" lon="6.67277">
        <ele>589.2</ele>
        <time>2022-06-29T13:17:39Z</time>
      </trkpt>
      <trkpt lat="47.85859" lon="6.67277">
        <ele>589.2</ele>
        <time>2022-06-29T13:17:43Z</time>
      </trkpt>
      <trkpt lat="47.85864" lon="6.67278">
        <ele>589.4</ele>
        <time>2022-06-29T13:17:47Z</time>
      </trkpt>
      <trkpt lat="47.85869" lon="6.67277">
        <ele>590.2</ele>
        <time>2022-06-29T13:17:55Z</time>
      </trkpt>
      <trkpt lat="47.85873" lon="6.67273">
        <ele>591.1</ele>
        <time>2022-06-29T13:17:59Z</time>
      </trkpt>
      <trkpt lat="47.85878" lon="6.6727">
        <ele>592</ele>
        <time>2022-06-29T13:18:02Z</time>
      </trkpt>
      <trkpt lat="47.85884" lon="6.67267">
        <ele>592.8</ele>
        <time>2022-06-29T13:18:05Z</time>
      </trkpt>
      <trkpt lat="47.85889" lon="6.67266">
        <ele>594.1</ele>
        <time>2022-06-29T13:18:11Z</time>
      </trkpt>
      <trkpt lat="47.85894" lon="6.67269">
        <ele>594.3</ele>
        <time>2022-06-29T13:18:16Z</time>
      </trkpt>
      <trkpt lat="47.85899" lon="6.67271">
        <ele>593.9</ele>
        <time>2022-06-29T13:18:21Z</time>
      </trkpt>
      <trkpt lat="47.85903" lon="6.67275">
        <ele>593.3</ele>
        <time>2022-06-29T13:18:26Z</time>
      </trkpt>
      <trkpt lat="47.85908" lon="6.67278">
        <ele>592.7</ele>
        <time>2022-06-29T13:18:33Z</time>
      </trkpt>
      <trkpt lat="47.85916" lon="6.67287">
        <ele>592.6</ele>
        <time>2022-06-29T13:18:36Z</time>
      </trkpt>
      <trkpt lat="47.85924" lon="6.67295">
        <ele>595</ele>
        <time>2022-06-29T13:18:59Z</time>
      </trkpt>
      <trkpt lat="47.85929" lon="6.67294">
        <ele>595.6</ele>
        <time>2022-06-29T13:19:06Z</time>
      </trkpt>
      <trkpt lat="47.85934" lon="6.67296">
        <ele>595.7</ele>
        <time>2022-06-29T13:19:09Z</time>
      </trkpt>
      <trkpt lat="47.85938" lon="6.673">
        <ele>595.5</ele>
        <time>2022-06-29T13:19:13Z</time>
      </trkpt>
      <trkpt lat="47.85943" lon="6.67304">
        <ele>593.8</ele>
        <time>2022-06-29T13:19:21Z</time>
      </trkpt>
      <trkpt lat="47.85946" lon="6.67309">
        <ele>593.1</ele>
        <time>2022-06-29T13:19:24Z</time>
      </trkpt>
      <trkpt lat="47.85948" lon="6.67316">
        <ele>592.6</ele>
        <time>2022-06-29T13:19:27Z</time>
      </trkpt>
      <trkpt lat="47.85951" lon="6.67321">
        <ele>592.8</ele>
        <time>2022-06-29T13:19:30Z</time>
      </trkpt>
      <trkpt lat="47.85955" lon="6.67325">
        <ele>593.3</ele>
        <time>2022-06-29T13:19:33Z</time>
      </trkpt>
      <trkpt lat="47.85959" lon="6.67328">
        <ele>594.6</ele>
        <time>2022-06-29T13:19:37Z</time>
      </trkpt>
      <trkpt lat="47.85963" lon="6.67333">
        <ele>596.5</ele>
        <time>2022-06-29T13:19:43Z</time>
      </trkpt>
      <trkpt lat="47.85967" lon="6.67339">
        <ele>597.2</ele>
        <time>2022-06-29T13:19:47Z</time>
      </trkpt>
      <trkpt lat="47.85972" lon="6.67341">
        <ele>597.2</ele>
        <time>2022-06-29T13:19:51Z</time>
      </trkpt>
      <trkpt lat="47.85977" lon="6.67343">
        <ele>596.9</ele>
        <time>2022-06-29T13:19:55Z</time>
      </trkpt>
      <trkpt lat="47.85979" lon="6.67349">
        <ele>596.2</ele>
        <time>2022-06-29T13:20:00Z</time>
      </trkpt>
      <trkpt lat="47.8598" lon="6.67356">
        <ele>595.8</ele>
        <time>2022-06-29T13:20:04Z</time>
      </trkpt>
      <trkpt lat="47.85981" lon="6.67363">
        <ele>595.3</ele>
        <time>2022-06-29T13:20:08Z</time>
      </trkpt>
      <trkpt lat="47.85983" lon="6.67371">
        <ele>595</ele>
        <time>2022-06-29T13:20:12Z</time>
      </trkpt>
      <trkpt lat="47.85983" lon="6.67381">
        <ele>594.7</ele>
        <time>2022-06-29T13:20:15Z</time>
      </trkpt>
      <trkpt lat="47.85985" lon="6.67388">
        <ele>593.4</ele>
        <time>2022-06-29T13:20:20Z</time>
      </trkpt>
      <trkpt lat="47.85989" lon="6.67393">
        <ele>591.9</ele>
        <time>2022-06-29T13:20:29Z</time>
      </trkpt>
      <trkpt lat="47.8599" lon="6.674">
        <ele>591.9</ele>
        <time>2022-06-29T13:20:32Z</time>
      </trkpt>
      <trkpt lat="47.85992" lon="6.67408">
        <ele>592.1</ele>
        <time>2022-06-29T13:20:36Z</time>
      </trkpt>
      <trkpt lat="47.85992" lon="6.67416">
        <ele>591.3</ele>
        <time>2022-06-29T13:20:40Z</time>
      </trkpt>
      <trkpt lat="47.85994" lon="6.67422">
        <ele>590.7</ele>
        <time>2022-06-29T13:20:45Z</time>
      </trkpt>
      <trkpt lat="47.85996" lon="6.67429">
        <ele>590.4</ele>
        <time>2022-06-29T13:20:49Z</time>
      </trkpt>
      <trkpt lat="47.85998" lon="6.67436">
        <ele>590.2</ele>
        <time>2022-06-29T13:20:52Z</time>
      </trkpt>
      <trkpt lat="47.85998" lon="6.67444">
        <ele>590.1</ele>
        <time>2022-06-29T13:20:55Z</time>
      </trkpt>
      <trkpt lat="47.86002" lon="6.6745">
        <ele>589.8</ele>
        <time>2022-06-29T13:21:00Z</time>
      </trkpt>
      <trkpt lat="47.86005" lon="6.67455">
        <ele>588.4</ele>
        <time>2022-06-29T13:21:05Z</time>
      </trkpt>
      <trkpt lat="47.86008" lon="6.67463">
        <ele>587.3</ele>
        <time>2022-06-29T13:21:09Z</time>
      </trkpt>
      <trkpt lat="47.8601" lon="6.6747">
        <ele>586</ele>
        <time>2022-06-29T13:21:13Z</time>
      </trkpt>
      <trkpt lat="47.86011" lon="6.67478">
        <ele>584.7</ele>
        <time>2022-06-29T13:21:17Z</time>
      </trkpt>
      <trkpt lat="47.86014" lon="6.67484">
        <ele>583.4</ele>
        <time>2022-06-29T13:21:27Z</time>
      </trkpt>
      <trkpt lat="47.86015" lon="6.6749">
        <ele>583.5</ele>
        <time>2022-06-29T13:21:31Z</time>
      </trkpt>
      <trkpt lat="47.86017" lon="6.67497">
        <ele>584.6</ele>
        <time>2022-06-29T13:21:37Z</time>
      </trkpt>
      <trkpt lat="47.8602" lon="6.67505">
        <ele>585.1</ele>
        <time>2022-06-29T13:21:42Z</time>
      </trkpt>
      <trkpt lat="47.86024" lon="6.67509">
        <ele>585</ele>
        <time>2022-06-29T13:21:47Z</time>
      </trkpt>
      <trkpt lat="47.86027" lon="6.67515">
        <ele>585</ele>
        <time>2022-06-29T13:21:52Z</time>
      </trkpt>
      <trkpt lat="47.86028" lon="6.67523">
        <ele>584.8</ele>
        <time>2022-06-29T13:21:56Z</time>
      </trkpt>
      <trkpt lat="47.8603" lon="6.6753">
        <ele>584.9</ele>
        <time>2022-06-29T13:21:59Z</time>
      </trkpt>
      <trkpt lat="47.86032" lon="6.67536">
        <ele>585.1</ele>
        <time>2022-06-29T13:22:02Z</time>
      </trkpt>
      <trkpt lat="47.86034" lon="6.67542">
        <ele>585.5</ele>
        <time>2022-06-29T13:22:05Z</time>
      </trkpt>
      <trkpt lat="47.86036" lon="6.67549">
        <ele>586.2</ele>
        <time>2022-06-29T13:22:08Z</time>
      </trkpt>
      <trkpt lat="47.86041" lon="6.67551">
        <ele>589.5</ele>
        <time>2022-06-29T13:22:22Z</time>
      </trkpt>
      <trkpt lat="47.86044" lon="6.67557">
        <ele>589.8</ele>
        <time>2022-06-29T13:22:26Z</time>
      </trkpt>
      <trkpt lat="47.86048" lon="6.67562">
        <ele>590.5</ele>
        <time>2022-06-29T13:22:29Z</time>
      </trkpt>
      <trkpt lat="47.86051" lon="6.67566">
        <ele>591.4</ele>
        <time>2022-06-29T13:22:33Z</time>
      </trkpt>
      <trkpt lat="47.86055" lon="6.6757">
        <ele>592.3</ele>
        <time>2022-06-29T13:22:38Z</time>
      </trkpt>
      <trkpt lat="47.86059" lon="6.67574">
        <ele>593.1</ele>
        <time>2022-06-29T13:22:44Z</time>
      </trkpt>
      <trkpt lat="47.86062" lon="6.6758">
        <ele>594.2</ele>
        <time>2022-06-29T13:22:52Z</time>
      </trkpt>
      <trkpt lat="47.86066" lon="6.67585">
        <ele>594.6</ele>
        <time>2022-06-29T13:22:56Z</time>
      </trkpt>
      <trkpt lat="47.86069" lon="6.6759">
        <ele>594.7</ele>
        <time>2022-06-29T13:22:59Z</time>
      </trkpt>
      <trkpt lat="47.86073" lon="6.67596">
        <ele>594.6</ele>
        <time>2022-06-29T13:23:02Z</time>
      </trkpt>
      <trkpt lat="47.86077" lon="6.67598">
        <ele>595.4</ele>
        <time>2022-06-29T13:23:07Z</time>
      </trkpt>
      <trkpt lat="47.86082" lon="6.67601">
        <ele>597.5</ele>
        <time>2022-06-29T13:23:13Z</time>
      </trkpt>
      <trkpt lat="47.86085" lon="6.67606">
        <ele>598.1</ele>
        <time>2022-06-29T13:23:16Z</time>
      </trkpt>
      <trkpt lat="47.86088" lon="6.67613">
        <ele>598</ele>
        <time>2022-06-29T13:23:19Z</time>
      </trkpt>
      <trkpt lat="47.86091" lon="6.67619">
        <ele>596.4</ele>
        <time>2022-06-29T13:23:27Z</time>
      </trkpt>
      <trkpt lat="47.86094" lon="6.67625">
        <ele>595.6</ele>
        <time>2022-06-29T13:23:31Z</time>
      </trkpt>
      <trkpt lat="47.86098" lon="6.6763">
        <ele>593.8</ele>
        <time>2022-06-29T13:23:36Z</time>
      </trkpt>
      <trkpt lat="47.86099" lon="6.67637">
        <ele>592.5</ele>
        <time>2022-06-29T13:23:41Z</time>
      </trkpt>
      <trkpt lat="47.86103" lon="6.67641">
        <ele>592.2</ele>
        <time>2022-06-29T13:23:48Z</time>
      </trkpt>
      <trkpt lat="47.86106" lon="6.67647">
        <ele>592.8</ele>
        <time>2022-06-29T13:23:53Z</time>
      </trkpt>
      <trkpt lat="47.86108" lon="6.67654">
        <ele>593.6</ele>
        <time>2022-06-29T13:23:58Z</time>
      </trkpt>
      <trkpt lat="47.86113" lon="6.67656">
        <ele>595</ele>
        <time>2022-06-29T13:24:09Z</time>
      </trkpt>
      <trkpt lat="47.86116" lon="6.67661">
        <ele>594.7</ele>
        <time>2022-06-29T13:24:15Z</time>
      </trkpt>
      <trkpt lat="47.86121" lon="6.6766">
        <ele>594.8</ele>
        <time>2022-06-29T13:24:27Z</time>
      </trkpt>
      <trkpt lat="47.86116" lon="6.67662">
        <ele>593</ele>
        <time>2022-06-29T13:24:35Z</time>
      </trkpt>
      <trkpt lat="47.86111" lon="6.67661">
        <ele>591.3</ele>
        <time>2022-06-29T13:24:49Z</time>
      </trkpt>
      <trkpt lat="47.86108" lon="6.67668">
        <ele>591.2</ele>
        <time>2022-06-29T13:24:53Z</time>
      </trkpt>
      <trkpt lat="47.86105" lon="6.67673">
        <ele>591</ele>
        <time>2022-06-29T13:24:56Z</time>
      </trkpt>
      <trkpt lat="47.86102" lon="6.6768">
        <ele>590.8</ele>
        <time>2022-06-29T13:24:59Z</time>
      </trkpt>
      <trkpt lat="47.86099" lon="6.6769">
        <ele>590.8</ele>
        <time>2022-06-29T13:25:02Z</time>
      </trkpt>
      <trkpt lat="47.86096" lon="6.67698">
        <ele>590.8</ele>
        <time>2022-06-29T13:25:05Z</time>
      </trkpt>
      <trkpt lat="47.86093" lon="6.67704">
        <ele>591.2</ele>
        <time>2022-06-29T13:25:10Z</time>
      </trkpt>
      <trkpt lat="47.86089" lon="6.6771">
        <ele>591.4</ele>
        <time>2022-06-29T13:25:15Z</time>
      </trkpt>
      <trkpt lat="47.86086" lon="6.67714">
        <ele>591.4</ele>
        <time>2022-06-29T13:25:20Z</time>
      </trkpt>
      <trkpt lat="47.86082" lon="6.67718">
        <ele>590.5</ele>
        <time>2022-06-29T13:25:28Z</time>
      </trkpt>
      <trkpt lat="47.8608" lon="6.67725">
        <ele>590</ele>
        <time>2022-06-29T13:25:36Z</time>
      </trkpt>
      <trkpt lat="47.86078" lon="6.67733">
        <ele>589.9</ele>
        <time>2022-06-29T13:25:42Z</time>
      </trkpt>
      <trkpt lat="47.86078" lon="6.6774">
        <ele>589.8</ele>
        <time>2022-06-29T13:25:46Z</time>
      </trkpt>
      <trkpt lat="47.86076" lon="6.67748">
        <ele>589.9</ele>
        <time>2022-06-29T13:25:50Z</time>
      </trkpt>
      <trkpt lat="47.86073" lon="6.67754">
        <ele>590.2</ele>
        <time>2022-06-29T13:25:58Z</time>
      </trkpt>
      <trkpt lat="47.8607" lon="6.67759">
        <ele>590.7</ele>
        <time>2022-06-29T13:26:04Z</time>
      </trkpt>
      <trkpt lat="47.86065" lon="6.67759">
        <ele>591.4</ele>
        <time>2022-06-29T13:26:11Z</time>
      </trkpt>
      <trkpt lat="47.86059" lon="6.67762">
        <ele>592.2</ele>
        <time>2022-06-29T13:26:16Z</time>
      </trkpt>
      <trkpt lat="47.86055" lon="6.67765">
        <ele>592.9</ele>
        <time>2022-06-29T13:26:21Z</time>
      </trkpt>
      <trkpt lat="47.86051" lon="6.67771">
        <ele>593.1</ele>
        <time>2022-06-29T13:26:24Z</time>
      </trkpt>
      <trkpt lat="47.86047" lon="6.67773">
        <ele>593.1</ele>
        <time>2022-06-29T13:26:30Z</time>
      </trkpt>
      <trkpt lat="47.86048" lon="6.6778">
        <ele>589.1</ele>
        <time>2022-06-29T13:27:16Z</time>
      </trkpt>
      <trkpt lat="47.86044" lon="6.67781">
        <ele>588</ele>
        <time>2022-06-29T13:27:40Z</time>
      </trkpt>
      <trkpt lat="47.86039" lon="6.67779">
        <ele>587.3</ele>
        <time>2022-06-29T13:27:49Z</time>
      </trkpt>
      <trkpt lat="47.86034" lon="6.67774">
        <ele>587.3</ele>
        <time>2022-06-29T13:27:56Z</time>
      </trkpt>
      <trkpt lat="47.8603" lon="6.67777">
        <ele>588</ele>
        <time>2022-06-29T13:28:02Z</time>
      </trkpt>
      <trkpt lat="47.86028" lon="6.67784">
        <ele>588.4</ele>
        <time>2022-06-29T13:28:06Z</time>
      </trkpt>
      <trkpt lat="47.86026" lon="6.6779">
        <ele>589.3</ele>
        <time>2022-06-29T13:28:11Z</time>
      </trkpt>
      <trkpt lat="47.86023" lon="6.67798">
        <ele>590.2</ele>
        <time>2022-06-29T13:28:16Z</time>
      </trkpt>
      <trkpt lat="47.8602" lon="6.67803">
        <ele>592.3</ele>
        <time>2022-06-29T13:28:28Z</time>
      </trkpt>
      <trkpt lat="47.86025" lon="6.678">
        <ele>596.6</ele>
        <time>2022-06-29T13:29:33Z</time>
      </trkpt>
      <trkpt lat="47.86029" lon="6.67797">
        <ele>596.6</ele>
        <time>2022-06-29T13:29:37Z</time>
      </trkpt>
      <trkpt lat="47.86035" lon="6.67795">
        <ele>596.7</ele>
        <time>2022-06-29T13:29:41Z</time>
      </trkpt>
      <trkpt lat="47.8604" lon="6.67792">
        <ele>597.1</ele>
        <time>2022-06-29T13:29:45Z</time>
      </trkpt>
      <trkpt lat="47.86041" lon="6.67785">
        <ele>598.3</ele>
        <time>2022-06-29T13:29:52Z</time>
      </trkpt>
      <trkpt lat="47.86037" lon="6.67779">
        <ele>598.7</ele>
        <time>2022-06-29T13:30:00Z</time>
      </trkpt>
      <trkpt lat="47.86033" lon="6.67776">
        <ele>599.1</ele>
        <time>2022-06-29T13:30:07Z</time>
      </trkpt>
      <trkpt lat="47.86036" lon="6.67783">
        <ele>600.4</ele>
        <time>2022-06-29T13:30:17Z</time>
      </trkpt>
      <trkpt lat="47.8604" lon="6.67787">
        <ele>603.1</ele>
        <time>2022-06-29T13:30:29Z</time>
      </trkpt>
      <trkpt lat="47.86044" lon="6.67786">
        <ele>607.3</ele>
        <time>2022-06-29T13:30:42Z</time>
      </trkpt>
      <trkpt lat="47.86044" lon="6.67794">
        <ele>608.1</ele>
        <time>2022-06-29T13:30:46Z</time>
      </trkpt>
      <trkpt lat="47.86037" lon="6.678">
        <ele>608.6</ele>
        <time>2022-06-29T13:30:49Z</time>
      </trkpt>
      <trkpt lat="47.86031" lon="6.67797">
        <ele>609.3</ele>
        <time>2022-06-29T13:30:53Z</time>
      </trkpt>
      <trkpt lat="47.86021" lon="6.67797">
        <ele>609.9</ele>
        <time>2022-06-29T13:30:56Z</time>
      </trkpt>
      <trkpt lat="47.86011" lon="6.67802">
        <ele>610.2</ele>
        <time>2022-06-29T13:30:59Z</time>
      </trkpt>
      <trkpt lat="47.86014" lon="6.67803">
        <ele>609.8</ele>
        <time>2022-06-29T13:31:56Z</time>
      </trkpt>
      <trkpt lat="47.86009" lon="6.67797">
        <ele>609.7</ele>
        <time>2022-06-29T13:31:59Z</time>
      </trkpt>
      <trkpt lat="47.86009" lon="6.67789">
        <ele>609.6</ele>
        <time>2022-06-29T13:32:03Z</time>
      </trkpt>
      <trkpt lat="47.86011" lon="6.67783">
        <ele>609.4</ele>
        <time>2022-06-29T13:32:09Z</time>
      </trkpt>
      <trkpt lat="47.86018" lon="6.67783">
        <ele>609.2</ele>
        <time>2022-06-29T13:32:14Z</time>
      </trkpt>
      <trkpt lat="47.86024" lon="6.67784">
        <ele>609.2</ele>
        <time>2022-06-29T13:32:18Z</time>
      </trkpt>
      <trkpt lat="47.86029" lon="6.67786">
        <ele>609</ele>
        <time>2022-06-29T13:32:24Z</time>
      </trkpt>
      <trkpt lat="47.86033" lon="6.67782">
        <ele>608.6</ele>
        <time>2022-06-29T13:32:27Z</time>
      </trkpt>
      <trkpt lat="47.86038" lon="6.67779">
        <ele>605.8</ele>
        <time>2022-06-29T13:32:43Z</time>
      </trkpt>
      <trkpt lat="47.86042" lon="6.67776">
        <ele>605.5</ele>
        <time>2022-06-29T13:32:49Z</time>
      </trkpt>
      <trkpt lat="47.86043" lon="6.67784">
        <ele>603.3</ele>
        <time>2022-06-29T13:33:05Z</time>
      </trkpt>
      <trkpt lat="47.86044" lon="6.67778">
        <ele>603.7</ele>
        <time>2022-06-29T13:33:15Z</time>
      </trkpt>
      <trkpt lat="47.8604" lon="6.67778">
        <ele>604.1</ele>
        <time>2022-06-29T13:33:34Z</time>
      </trkpt>
      <trkpt lat="47.86044" lon="6.67782">
        <ele>603.9</ele>
        <time>2022-06-29T13:33:44Z</time>
      </trkpt>
      <trkpt lat="47.86048" lon="6.67785">
        <ele>602.6</ele>
        <time>2022-06-29T13:34:06Z</time>
      </trkpt>
      <trkpt lat="47.86052" lon="6.67789">
        <ele>602.5</ele>
        <time>2022-06-29T13:34:14Z</time>
      </trkpt>
      <trkpt lat="47.86052" lon="6.67781">
        <ele>600.6</ele>
        <time>2022-06-29T13:34:24Z</time>
      </trkpt>
      <trkpt lat="47.8605" lon="6.67773">
        <ele>600.4</ele>
        <time>2022-06-29T13:34:29Z</time>
      </trkpt>
      <trkpt lat="47.86046" lon="6.67768">
        <ele>600.6</ele>
        <time>2022-06-29T13:34:32Z</time>
      </trkpt>
      <trkpt lat="47.86042" lon="6.67764">
        <ele>600.9</ele>
        <time>2022-06-29T13:34:36Z</time>
      </trkpt>
      <trkpt lat="47.86038" lon="6.67759">
        <ele>601.1</ele>
        <time>2022-06-29T13:34:40Z</time>
      </trkpt>
      <trkpt lat="47.86036" lon="6.67752">
        <ele>601.2</ele>
        <time>2022-06-29T13:34:44Z</time>
      </trkpt>
      <trkpt lat="47.86035" lon="6.67745">
        <ele>601.9</ele>
        <time>2022-06-29T13:34:51Z</time>
      </trkpt>
      <trkpt lat="47.86037" lon="6.67737">
        <ele>603.5</ele>
        <time>2022-06-29T13:34:58Z</time>
      </trkpt>
      <trkpt lat="47.86035" lon="6.67743">
        <ele>597.9</ele>
        <time>2022-06-29T13:36:25Z</time>
      </trkpt>
      <trkpt lat="47.8604" lon="6.67743">
        <ele>595.7</ele>
        <time>2022-06-29T13:36:46Z</time>
      </trkpt>
    </trkseg>
  </trk>
</gpx>